<?xml version="1.0" encoding="UTF-8" standalone="no" ?>
<gpx xmlns="http://www.topografix.com/GPX/1/1" xmlns:xsi="http://www.w3.org/2001/XMLSchema-instance" xsi:schemaLocation="http://www.topografix.com/GPX/1/1 http://www.topografix.com/GPX/1/1/gpx.xsd" version="1.1" creator="VisuGPX - https://www.visugpx.com">
  <metadata>
    <name>2008-10-10 Roc Marathon</name>
    <desc><![CDATA[2008-10-10 Roc Marathon]]></desc>
  </metadata>
  <trk>
    <name><![CDATA[Roc marathon 2008]]></name>
    <trkseg>
      <trkpt lat="43.41956" lon="6.73738">
        <ele>1.6000000238419</ele>
        <time>2008-10-10T06:31:05Z</time>
      </trkpt>
      <trkpt lat="43.41956" lon="6.73738">
        <ele>1.6000000238419</ele>
        <time>2008-10-10T06:31:06Z</time>
      </trkpt>
      <trkpt lat="43.41953" lon="6.73737">
        <ele>4.4000000953674</ele>
        <time>2008-10-10T06:31:46Z</time>
      </trkpt>
      <trkpt lat="43.41944" lon="6.73734">
        <ele>4.4000000953674</ele>
        <time>2008-10-10T06:31:50Z</time>
      </trkpt>
      <trkpt lat="43.41932" lon="6.73732">
        <ele>4.5999999046326</ele>
        <time>2008-10-10T06:31:54Z</time>
      </trkpt>
      <trkpt lat="43.41922" lon="6.7373">
        <ele>4.5999999046326</ele>
        <time>2008-10-10T06:31:57Z</time>
      </trkpt>
      <trkpt lat="43.41901" lon="6.73726">
        <ele>4.5999999046326</ele>
        <time>2008-10-10T06:32:03Z</time>
      </trkpt>
      <trkpt lat="43.41827" lon="6.73709">
        <ele>4.5999999046326</ele>
        <time>2008-10-10T06:32:24Z</time>
      </trkpt>
      <trkpt lat="43.41741" lon="6.73687">
        <ele>4.5999999046326</ele>
        <time>2008-10-10T06:32:47Z</time>
      </trkpt>
      <trkpt lat="43.41683" lon="6.73667">
        <ele>4.8000001907349</ele>
        <time>2008-10-10T06:33:01Z</time>
      </trkpt>
      <trkpt lat="43.41644" lon="6.73619">
        <ele>4.5999999046326</ele>
        <time>2008-10-10T06:33:13Z</time>
      </trkpt>
      <trkpt lat="43.41612" lon="6.73545">
        <ele>4.8000001907349</ele>
        <time>2008-10-10T06:33:29Z</time>
      </trkpt>
      <trkpt lat="43.41626" lon="6.73507">
        <ele>4.8000001907349</ele>
        <time>2008-10-10T06:33:38Z</time>
      </trkpt>
      <trkpt lat="43.41638" lon="6.73505">
        <ele>5</ele>
        <time>2008-10-10T06:33:41Z</time>
      </trkpt>
      <trkpt lat="43.41728" lon="6.7352">
        <ele>4.8000001907349</ele>
        <time>2008-10-10T06:34:03Z</time>
      </trkpt>
      <trkpt lat="43.41752" lon="6.73525">
        <ele>4.8000001907349</ele>
        <time>2008-10-10T06:34:09Z</time>
      </trkpt>
      <trkpt lat="43.41826" lon="6.73534">
        <ele>5</ele>
        <time>2008-10-10T06:34:27Z</time>
      </trkpt>
      <trkpt lat="43.41892" lon="6.73504">
        <ele>5</ele>
        <time>2008-10-10T06:34:44Z</time>
      </trkpt>
      <trkpt lat="43.41903" lon="6.73487">
        <ele>4.8000001907349</ele>
        <time>2008-10-10T06:34:48Z</time>
      </trkpt>
      <trkpt lat="43.41916" lon="6.73427">
        <ele>5</ele>
        <time>2008-10-10T06:34:59Z</time>
      </trkpt>
      <trkpt lat="43.41923" lon="6.73374">
        <ele>5.1999998092651</ele>
        <time>2008-10-10T06:35:08Z</time>
      </trkpt>
      <trkpt lat="43.419" lon="6.73287">
        <ele>5</ele>
        <time>2008-10-10T06:35:24Z</time>
      </trkpt>
      <trkpt lat="43.41834" lon="6.73178">
        <ele>4.5999999046326</ele>
        <time>2008-10-10T06:35:47Z</time>
      </trkpt>
      <trkpt lat="43.41789" lon="6.73102">
        <ele>4.8000001907349</ele>
        <time>2008-10-10T06:36:04Z</time>
      </trkpt>
      <trkpt lat="43.41729" lon="6.73002">
        <ele>5.4000000953674</ele>
        <time>2008-10-10T06:36:27Z</time>
      </trkpt>
      <trkpt lat="43.4168" lon="6.72905">
        <ele>4.5999999046326</ele>
        <time>2008-10-10T06:36:48Z</time>
      </trkpt>
      <trkpt lat="43.41678" lon="6.72872">
        <ele>5</ele>
        <time>2008-10-10T06:36:54Z</time>
      </trkpt>
      <trkpt lat="43.41694" lon="6.72797">
        <ele>6.1999998092651</ele>
        <time>2008-10-10T06:37:08Z</time>
      </trkpt>
      <trkpt lat="43.4168" lon="6.72778">
        <ele>7</ele>
        <time>2008-10-10T06:37:13Z</time>
      </trkpt>
      <trkpt lat="43.41572" lon="6.72719">
        <ele>9</ele>
        <time>2008-10-10T06:37:37Z</time>
      </trkpt>
      <trkpt lat="43.41511" lon="6.72686">
        <ele>9.3999996185303</ele>
        <time>2008-10-10T06:37:50Z</time>
      </trkpt>
      <trkpt lat="43.41454" lon="6.72656">
        <ele>8.1999998092651</ele>
        <time>2008-10-10T06:38:01Z</time>
      </trkpt>
      <trkpt lat="43.41434" lon="6.72646">
        <ele>7.8000001907349</ele>
        <time>2008-10-10T06:38:05Z</time>
      </trkpt>
      <trkpt lat="43.41429" lon="6.72643">
        <ele>7.8000001907349</ele>
        <time>2008-10-10T06:38:06Z</time>
      </trkpt>
      <trkpt lat="43.41417" lon="6.72653">
        <ele>6.4000000953674</ele>
        <time>2008-10-10T06:38:11Z</time>
      </trkpt>
      <trkpt lat="43.41422" lon="6.7266">
        <ele>6.4000000953674</ele>
        <time>2008-10-10T06:38:13Z</time>
      </trkpt>
      <trkpt lat="43.41435" lon="6.72668">
        <ele>6.4000000953674</ele>
        <time>2008-10-10T06:38:16Z</time>
      </trkpt>
      <trkpt lat="43.41445" lon="6.72672">
        <ele>6.4000000953674</ele>
        <time>2008-10-10T06:38:18Z</time>
      </trkpt>
      <trkpt lat="43.41463" lon="6.72682">
        <ele>6.4000000953674</ele>
        <time>2008-10-10T06:38:22Z</time>
      </trkpt>
      <trkpt lat="43.41477" lon="6.72693">
        <ele>6.1999998092651</ele>
        <time>2008-10-10T06:38:26Z</time>
      </trkpt>
      <trkpt lat="43.41475" lon="6.72713">
        <ele>5.8000001907349</ele>
        <time>2008-10-10T06:38:30Z</time>
      </trkpt>
      <trkpt lat="43.41471" lon="6.72718">
        <ele>5.8000001907349</ele>
        <time>2008-10-10T06:38:31Z</time>
      </trkpt>
      <trkpt lat="43.41385" lon="6.7283">
        <ele>5.5999999046326</ele>
        <time>2008-10-10T06:38:54Z</time>
      </trkpt>
      <trkpt lat="43.41332" lon="6.72898">
        <ele>5.4000000953674</ele>
        <time>2008-10-10T06:39:07Z</time>
      </trkpt>
      <trkpt lat="43.41279" lon="6.72971">
        <ele>4.4000000953674</ele>
        <time>2008-10-10T06:39:20Z</time>
      </trkpt>
      <trkpt lat="43.41253" lon="6.72974">
        <ele>4.8000001907349</ele>
        <time>2008-10-10T06:39:29Z</time>
      </trkpt>
      <trkpt lat="43.41243" lon="6.72971">
        <ele>5</ele>
        <time>2008-10-10T06:39:32Z</time>
      </trkpt>
      <trkpt lat="43.41227" lon="6.72971">
        <ele>5.4000000953674</ele>
        <time>2008-10-10T06:39:36Z</time>
      </trkpt>
      <trkpt lat="43.41213" lon="6.72952">
        <ele>5.5999999046326</ele>
        <time>2008-10-10T06:39:41Z</time>
      </trkpt>
      <trkpt lat="43.4121" lon="6.72941">
        <ele>6.4000000953674</ele>
        <time>2008-10-10T06:39:43Z</time>
      </trkpt>
      <trkpt lat="43.41208" lon="6.72923">
        <ele>5.5999999046326</ele>
        <time>2008-10-10T06:39:46Z</time>
      </trkpt>
      <trkpt lat="43.41211" lon="6.72897">
        <ele>5.1999998092651</ele>
        <time>2008-10-10T06:39:50Z</time>
      </trkpt>
      <trkpt lat="43.41216" lon="6.72877">
        <ele>5</ele>
        <time>2008-10-10T06:39:53Z</time>
      </trkpt>
      <trkpt lat="43.41205" lon="6.72844">
        <ele>4.8000001907349</ele>
        <time>2008-10-10T06:39:59Z</time>
      </trkpt>
      <trkpt lat="43.41186" lon="6.72832">
        <ele>4.1999998092651</ele>
        <time>2008-10-10T06:40:03Z</time>
      </trkpt>
      <trkpt lat="43.41176" lon="6.72808">
        <ele>4.4000000953674</ele>
        <time>2008-10-10T06:40:08Z</time>
      </trkpt>
      <trkpt lat="43.41191" lon="6.72764">
        <ele>3.7999999523163</ele>
        <time>2008-10-10T06:40:19Z</time>
      </trkpt>
      <trkpt lat="43.41201" lon="6.72727">
        <ele>3.4000000953674</ele>
        <time>2008-10-10T06:40:32Z</time>
      </trkpt>
      <trkpt lat="43.41193" lon="6.7269">
        <ele>3.7999999523163</ele>
        <time>2008-10-10T06:40:43Z</time>
      </trkpt>
      <trkpt lat="43.41168" lon="6.72651">
        <ele>4.4000000953674</ele>
        <time>2008-10-10T06:40:54Z</time>
      </trkpt>
      <trkpt lat="43.41162" lon="6.72644">
        <ele>4.1999998092651</ele>
        <time>2008-10-10T06:40:56Z</time>
      </trkpt>
      <trkpt lat="43.41127" lon="6.72596">
        <ele>4.1999998092651</ele>
        <time>2008-10-10T06:41:07Z</time>
      </trkpt>
      <trkpt lat="43.4114" lon="6.72569">
        <ele>4.4000000953674</ele>
        <time>2008-10-10T06:41:15Z</time>
      </trkpt>
      <trkpt lat="43.41148" lon="6.72559">
        <ele>4.4000000953674</ele>
        <time>2008-10-10T06:41:23Z</time>
      </trkpt>
      <trkpt lat="43.41152" lon="6.72544">
        <ele>4.1999998092651</ele>
        <time>2008-10-10T06:41:31Z</time>
      </trkpt>
      <trkpt lat="43.41152" lon="6.72536">
        <ele>4.1999998092651</ele>
        <time>2008-10-10T06:41:34Z</time>
      </trkpt>
      <trkpt lat="43.41151" lon="6.7253">
        <ele>3.7999999523163</ele>
        <time>2008-10-10T06:41:38Z</time>
      </trkpt>
      <trkpt lat="43.41147" lon="6.72511">
        <ele>3.4000000953674</ele>
        <time>2008-10-10T06:41:51Z</time>
      </trkpt>
      <trkpt lat="43.41148" lon="6.72503">
        <ele>3.4000000953674</ele>
        <time>2008-10-10T06:41:56Z</time>
      </trkpt>
      <trkpt lat="43.41149" lon="6.725">
        <ele>3.2000000476837</ele>
        <time>2008-10-10T06:41:58Z</time>
      </trkpt>
      <trkpt lat="43.41149" lon="6.72494">
        <ele>4</ele>
        <time>2008-10-10T06:42:03Z</time>
      </trkpt>
      <trkpt lat="43.41151" lon="6.72492">
        <ele>4.4000000953674</ele>
        <time>2008-10-10T06:42:10Z</time>
      </trkpt>
      <trkpt lat="43.41152" lon="6.7249">
        <ele>4.5999999046326</ele>
        <time>2008-10-10T06:42:11Z</time>
      </trkpt>
      <trkpt lat="43.41156" lon="6.72472">
        <ele>4.4000000953674</ele>
        <time>2008-10-10T06:42:26Z</time>
      </trkpt>
      <trkpt lat="43.41157" lon="6.72468">
        <ele>4.4000000953674</ele>
        <time>2008-10-10T06:42:30Z</time>
      </trkpt>
      <trkpt lat="43.4116" lon="6.72465">
        <ele>4.5999999046326</ele>
        <time>2008-10-10T06:42:35Z</time>
      </trkpt>
      <trkpt lat="43.41166" lon="6.72459">
        <ele>4.1999998092651</ele>
        <time>2008-10-10T06:42:42Z</time>
      </trkpt>
      <trkpt lat="43.41167" lon="6.72458">
        <ele>4.1999998092651</ele>
        <time>2008-10-10T06:42:44Z</time>
      </trkpt>
      <trkpt lat="43.41169" lon="6.72458">
        <ele>4.1999998092651</ele>
        <time>2008-10-10T06:42:50Z</time>
      </trkpt>
      <trkpt lat="43.41178" lon="6.72456">
        <ele>4</ele>
        <time>2008-10-10T06:43:15Z</time>
      </trkpt>
      <trkpt lat="43.41181" lon="6.72455">
        <ele>4</ele>
        <time>2008-10-10T06:43:40Z</time>
      </trkpt>
      <trkpt lat="43.41183" lon="6.72456">
        <ele>3.7999999523163</ele>
        <time>2008-10-10T06:43:45Z</time>
      </trkpt>
      <trkpt lat="43.41184" lon="6.72457">
        <ele>4.1999998092651</ele>
        <time>2008-10-10T06:43:49Z</time>
      </trkpt>
      <trkpt lat="43.41189" lon="6.72462">
        <ele>4</ele>
        <time>2008-10-10T06:44:13Z</time>
      </trkpt>
      <trkpt lat="43.41189" lon="6.72462">
        <ele>4</ele>
        <time>2008-10-10T06:44:14Z</time>
      </trkpt>
      <trkpt lat="43.41194" lon="6.72466">
        <ele>3.7999999523163</ele>
        <time>2008-10-10T06:44:26Z</time>
      </trkpt>
      <trkpt lat="43.41194" lon="6.72471">
        <ele>3.7999999523163</ele>
        <time>2008-10-10T06:44:36Z</time>
      </trkpt>
      <trkpt lat="43.41192" lon="6.7248">
        <ele>4.8000001907349</ele>
        <time>2008-10-10T06:44:49Z</time>
      </trkpt>
      <trkpt lat="43.41191" lon="6.72484">
        <ele>5.8000001907349</ele>
        <time>2008-10-10T06:45:07Z</time>
      </trkpt>
      <trkpt lat="43.4119" lon="6.72486">
        <ele>5.5999999046326</ele>
        <time>2008-10-10T06:45:08Z</time>
      </trkpt>
      <trkpt lat="43.41189" lon="6.72491">
        <ele>5.5999999046326</ele>
        <time>2008-10-10T06:45:13Z</time>
      </trkpt>
      <trkpt lat="43.41189" lon="6.72492">
        <ele>5.8000001907349</ele>
        <time>2008-10-10T06:45:14Z</time>
      </trkpt>
      <trkpt lat="43.41188" lon="6.72495">
        <ele>5.8000001907349</ele>
        <time>2008-10-10T06:45:18Z</time>
      </trkpt>
      <trkpt lat="43.41182" lon="6.72505">
        <ele>6</ele>
        <time>2008-10-10T06:45:31Z</time>
      </trkpt>
      <trkpt lat="43.41182" lon="6.72505">
        <ele>5.8000001907349</ele>
        <time>2008-10-10T06:45:33Z</time>
      </trkpt>
      <trkpt lat="43.41179" lon="6.72507">
        <ele>6.1999998092651</ele>
        <time>2008-10-10T06:45:38Z</time>
      </trkpt>
      <trkpt lat="43.41175" lon="6.72508">
        <ele>6</ele>
        <time>2008-10-10T06:45:46Z</time>
      </trkpt>
      <trkpt lat="43.41154" lon="6.725">
        <ele>7.1999998092651</ele>
        <time>2008-10-10T06:46:00Z</time>
      </trkpt>
      <trkpt lat="43.41134" lon="6.72487">
        <ele>7.1999998092651</ele>
        <time>2008-10-10T06:46:12Z</time>
      </trkpt>
      <trkpt lat="43.4109" lon="6.72459">
        <ele>7.1999998092651</ele>
        <time>2008-10-10T06:46:29Z</time>
      </trkpt>
      <trkpt lat="43.41087" lon="6.72457">
        <ele>7.1999998092651</ele>
        <time>2008-10-10T06:46:30Z</time>
      </trkpt>
      <trkpt lat="43.41079" lon="6.72452">
        <ele>7</ele>
        <time>2008-10-10T06:46:32Z</time>
      </trkpt>
      <trkpt lat="43.41064" lon="6.72435">
        <ele>6.8000001907349</ele>
        <time>2008-10-10T06:46:36Z</time>
      </trkpt>
      <trkpt lat="43.41044" lon="6.7242">
        <ele>6.4000000953674</ele>
        <time>2008-10-10T06:46:40Z</time>
      </trkpt>
      <trkpt lat="43.4096" lon="6.7241">
        <ele>6</ele>
        <time>2008-10-10T06:46:55Z</time>
      </trkpt>
      <trkpt lat="43.40932" lon="6.72418">
        <ele>6</ele>
        <time>2008-10-10T06:47:00Z</time>
      </trkpt>
      <trkpt lat="43.40908" lon="6.72396">
        <ele>5</ele>
        <time>2008-10-10T06:47:06Z</time>
      </trkpt>
      <trkpt lat="43.40908" lon="6.72378">
        <ele>5</ele>
        <time>2008-10-10T06:47:08Z</time>
      </trkpt>
      <trkpt lat="43.40887" lon="6.72346">
        <ele>4.5999999046326</ele>
        <time>2008-10-10T06:47:13Z</time>
      </trkpt>
      <trkpt lat="43.40858" lon="6.72331">
        <ele>4.5999999046326</ele>
        <time>2008-10-10T06:47:18Z</time>
      </trkpt>
      <trkpt lat="43.40831" lon="6.7233">
        <ele>5</ele>
        <time>2008-10-10T06:47:22Z</time>
      </trkpt>
      <trkpt lat="43.4075" lon="6.72302">
        <ele>4.8000001907349</ele>
        <time>2008-10-10T06:47:35Z</time>
      </trkpt>
      <trkpt lat="43.4073" lon="6.72256">
        <ele>4.8000001907349</ele>
        <time>2008-10-10T06:47:42Z</time>
      </trkpt>
      <trkpt lat="43.40739" lon="6.72233">
        <ele>4.8000001907349</ele>
        <time>2008-10-10T06:47:45Z</time>
      </trkpt>
      <trkpt lat="43.40788" lon="6.72122">
        <ele>4.8000001907349</ele>
        <time>2008-10-10T06:48:00Z</time>
      </trkpt>
      <trkpt lat="43.40793" lon="6.72054">
        <ele>4.5999999046326</ele>
        <time>2008-10-10T06:48:08Z</time>
      </trkpt>
      <trkpt lat="43.40827" lon="6.71923">
        <ele>4.1999998092651</ele>
        <time>2008-10-10T06:48:24Z</time>
      </trkpt>
      <trkpt lat="43.40881" lon="6.71808">
        <ele>4.1999998092651</ele>
        <time>2008-10-10T06:48:40Z</time>
      </trkpt>
      <trkpt lat="43.40892" lon="6.71788">
        <ele>4.1999998092651</ele>
        <time>2008-10-10T06:48:43Z</time>
      </trkpt>
      <trkpt lat="43.4091" lon="6.71705">
        <ele>4.1999998092651</ele>
        <time>2008-10-10T06:48:53Z</time>
      </trkpt>
      <trkpt lat="43.40917" lon="6.71679">
        <ele>4.4000000953674</ele>
        <time>2008-10-10T06:48:56Z</time>
      </trkpt>
      <trkpt lat="43.40945" lon="6.7153">
        <ele>4.1999998092651</ele>
        <time>2008-10-10T06:49:14Z</time>
      </trkpt>
      <trkpt lat="43.40948" lon="6.71498">
        <ele>4.1999998092651</ele>
        <time>2008-10-10T06:49:18Z</time>
      </trkpt>
      <trkpt lat="43.40951" lon="6.71483">
        <ele>4.8000001907349</ele>
        <time>2008-10-10T06:49:20Z</time>
      </trkpt>
      <trkpt lat="43.40952" lon="6.71446">
        <ele>4.8000001907349</ele>
        <time>2008-10-10T06:49:26Z</time>
      </trkpt>
      <trkpt lat="43.40956" lon="6.71419">
        <ele>4</ele>
        <time>2008-10-10T06:49:30Z</time>
      </trkpt>
      <trkpt lat="43.40946" lon="6.71373">
        <ele>4</ele>
        <time>2008-10-10T06:49:36Z</time>
      </trkpt>
      <trkpt lat="43.40925" lon="6.71342">
        <ele>4</ele>
        <time>2008-10-10T06:49:41Z</time>
      </trkpt>
      <trkpt lat="43.40913" lon="6.71308">
        <ele>4.4000000953674</ele>
        <time>2008-10-10T06:49:46Z</time>
      </trkpt>
      <trkpt lat="43.40896" lon="6.71225">
        <ele>4.1999998092651</ele>
        <time>2008-10-10T06:49:57Z</time>
      </trkpt>
      <trkpt lat="43.40881" lon="6.71149">
        <ele>4.1999998092651</ele>
        <time>2008-10-10T06:50:07Z</time>
      </trkpt>
      <trkpt lat="43.40873" lon="6.71105">
        <ele>4.4000000953674</ele>
        <time>2008-10-10T06:50:13Z</time>
      </trkpt>
      <trkpt lat="43.40861" lon="6.71052">
        <ele>4.5999999046326</ele>
        <time>2008-10-10T06:50:20Z</time>
      </trkpt>
      <trkpt lat="43.40858" lon="6.71037">
        <ele>4.1999998092651</ele>
        <time>2008-10-10T06:50:22Z</time>
      </trkpt>
      <trkpt lat="43.40841" lon="6.70948">
        <ele>4.4000000953674</ele>
        <time>2008-10-10T06:50:34Z</time>
      </trkpt>
      <trkpt lat="43.40834" lon="6.70927">
        <ele>4.5999999046326</ele>
        <time>2008-10-10T06:50:37Z</time>
      </trkpt>
      <trkpt lat="43.40826" lon="6.709">
        <ele>5</ele>
        <time>2008-10-10T06:50:41Z</time>
      </trkpt>
      <trkpt lat="43.40801" lon="6.70887">
        <ele>5.5999999046326</ele>
        <time>2008-10-10T06:50:47Z</time>
      </trkpt>
      <trkpt lat="43.4075" lon="6.70913">
        <ele>5.8000001907349</ele>
        <time>2008-10-10T06:50:56Z</time>
      </trkpt>
      <trkpt lat="43.40647" lon="6.70965">
        <ele>6.1999998092651</ele>
        <time>2008-10-10T06:51:14Z</time>
      </trkpt>
      <trkpt lat="43.40586" lon="6.70997">
        <ele>6.5999999046326</ele>
        <time>2008-10-10T06:51:25Z</time>
      </trkpt>
      <trkpt lat="43.40492" lon="6.71048">
        <ele>7.5999999046326</ele>
        <time>2008-10-10T06:51:42Z</time>
      </trkpt>
      <trkpt lat="43.404" lon="6.71095">
        <ele>6</ele>
        <time>2008-10-10T06:51:57Z</time>
      </trkpt>
      <trkpt lat="43.40377" lon="6.71106">
        <ele>6</ele>
        <time>2008-10-10T06:52:01Z</time>
      </trkpt>
      <trkpt lat="43.40356" lon="6.71116">
        <ele>5.5999999046326</ele>
        <time>2008-10-10T06:52:05Z</time>
      </trkpt>
      <trkpt lat="43.40338" lon="6.71109">
        <ele>6</ele>
        <time>2008-10-10T06:52:10Z</time>
      </trkpt>
      <trkpt lat="43.4034" lon="6.71096">
        <ele>6.8000001907349</ele>
        <time>2008-10-10T06:52:13Z</time>
      </trkpt>
      <trkpt lat="43.40351" lon="6.71079">
        <ele>8.3999996185303</ele>
        <time>2008-10-10T06:52:18Z</time>
      </trkpt>
      <trkpt lat="43.40359" lon="6.71071">
        <ele>9</ele>
        <time>2008-10-10T06:52:21Z</time>
      </trkpt>
      <trkpt lat="43.40361" lon="6.71068">
        <ele>9.3999996185303</ele>
        <time>2008-10-10T06:52:22Z</time>
      </trkpt>
      <trkpt lat="43.40368" lon="6.71058">
        <ele>9.8000001907349</ele>
        <time>2008-10-10T06:52:25Z</time>
      </trkpt>
      <trkpt lat="43.40372" lon="6.71052">
        <ele>10</ele>
        <time>2008-10-10T06:52:27Z</time>
      </trkpt>
      <trkpt lat="43.40401" lon="6.71007">
        <ele>12.60000038147</ele>
        <time>2008-10-10T06:52:44Z</time>
      </trkpt>
      <trkpt lat="43.40403" lon="6.70998">
        <ele>13.60000038147</ele>
        <time>2008-10-10T06:52:48Z</time>
      </trkpt>
      <trkpt lat="43.40399" lon="6.70981">
        <ele>16.200000762939</ele>
        <time>2008-10-10T06:52:56Z</time>
      </trkpt>
      <trkpt lat="43.40398" lon="6.70976">
        <ele>16.60000038147</ele>
        <time>2008-10-10T06:52:59Z</time>
      </trkpt>
      <trkpt lat="43.40398" lon="6.70959">
        <ele>19</ele>
        <time>2008-10-10T06:53:07Z</time>
      </trkpt>
      <trkpt lat="43.40397" lon="6.70949">
        <ele>21</ele>
        <time>2008-10-10T06:53:12Z</time>
      </trkpt>
      <trkpt lat="43.40397" lon="6.70935">
        <ele>23</ele>
        <time>2008-10-10T06:53:20Z</time>
      </trkpt>
      <trkpt lat="43.40396" lon="6.70928">
        <ele>23.799999237061</ele>
        <time>2008-10-10T06:53:24Z</time>
      </trkpt>
      <trkpt lat="43.40393" lon="6.70919">
        <ele>25.799999237061</ele>
        <time>2008-10-10T06:53:29Z</time>
      </trkpt>
      <trkpt lat="43.40387" lon="6.70894">
        <ele>30</ele>
        <time>2008-10-10T06:53:44Z</time>
      </trkpt>
      <trkpt lat="43.40386" lon="6.70891">
        <ele>31</ele>
        <time>2008-10-10T06:53:46Z</time>
      </trkpt>
      <trkpt lat="43.40386" lon="6.70887">
        <ele>31.60000038147</ele>
        <time>2008-10-10T06:53:49Z</time>
      </trkpt>
      <trkpt lat="43.40385" lon="6.70884">
        <ele>32</ele>
        <time>2008-10-10T06:53:51Z</time>
      </trkpt>
      <trkpt lat="43.40388" lon="6.70879">
        <ele>33.200000762939</ele>
        <time>2008-10-10T06:53:55Z</time>
      </trkpt>
      <trkpt lat="43.4039" lon="6.70872">
        <ele>33.799999237061</ele>
        <time>2008-10-10T06:53:59Z</time>
      </trkpt>
      <trkpt lat="43.40389" lon="6.70845">
        <ele>35.400001525879</ele>
        <time>2008-10-10T06:54:12Z</time>
      </trkpt>
      <trkpt lat="43.4039" lon="6.70841">
        <ele>34.799999237061</ele>
        <time>2008-10-10T06:54:16Z</time>
      </trkpt>
      <trkpt lat="43.40382" lon="6.70832">
        <ele>35.799999237061</ele>
        <time>2008-10-10T06:55:08Z</time>
      </trkpt>
      <trkpt lat="43.40369" lon="6.70796">
        <ele>37.599998474121</ele>
        <time>2008-10-10T06:55:22Z</time>
      </trkpt>
      <trkpt lat="43.40367" lon="6.70777">
        <ele>39.599998474121</ele>
        <time>2008-10-10T06:55:31Z</time>
      </trkpt>
      <trkpt lat="43.40363" lon="6.70768">
        <ele>40.400001525879</ele>
        <time>2008-10-10T06:55:36Z</time>
      </trkpt>
      <trkpt lat="43.40334" lon="6.70757">
        <ele>42.599998474121</ele>
        <time>2008-10-10T06:55:52Z</time>
      </trkpt>
      <trkpt lat="43.4031" lon="6.70746">
        <ele>45.200000762939</ele>
        <time>2008-10-10T06:56:05Z</time>
      </trkpt>
      <trkpt lat="43.40309" lon="6.70745">
        <ele>45.599998474121</ele>
        <time>2008-10-10T06:56:06Z</time>
      </trkpt>
      <trkpt lat="43.40299" lon="6.70745">
        <ele>47.400001525879</ele>
        <time>2008-10-10T06:56:14Z</time>
      </trkpt>
      <trkpt lat="43.40295" lon="6.70745">
        <ele>48</ele>
        <time>2008-10-10T06:56:19Z</time>
      </trkpt>
      <trkpt lat="43.40287" lon="6.70743">
        <ele>49.400001525879</ele>
        <time>2008-10-10T06:56:25Z</time>
      </trkpt>
      <trkpt lat="43.40285" lon="6.70741">
        <ele>50</ele>
        <time>2008-10-10T06:56:27Z</time>
      </trkpt>
      <trkpt lat="43.40278" lon="6.70739">
        <ele>51.200000762939</ele>
        <time>2008-10-10T06:56:31Z</time>
      </trkpt>
      <trkpt lat="43.40272" lon="6.70732">
        <ele>52.599998474121</ele>
        <time>2008-10-10T06:56:35Z</time>
      </trkpt>
      <trkpt lat="43.40251" lon="6.70715">
        <ele>54.799999237061</ele>
        <time>2008-10-10T06:56:45Z</time>
      </trkpt>
      <trkpt lat="43.40213" lon="6.70673">
        <ele>55.599998474121</ele>
        <time>2008-10-10T06:57:00Z</time>
      </trkpt>
      <trkpt lat="43.40193" lon="6.70628">
        <ele>57.799999237061</ele>
        <time>2008-10-10T06:57:13Z</time>
      </trkpt>
      <trkpt lat="43.40183" lon="6.70611">
        <ele>59.200000762939</ele>
        <time>2008-10-10T06:57:20Z</time>
      </trkpt>
      <trkpt lat="43.40177" lon="6.70581">
        <ele>61.200000762939</ele>
        <time>2008-10-10T06:57:33Z</time>
      </trkpt>
      <trkpt lat="43.40174" lon="6.70571">
        <ele>62.200000762939</ele>
        <time>2008-10-10T06:57:40Z</time>
      </trkpt>
      <trkpt lat="43.40171" lon="6.70564">
        <ele>63.200000762939</ele>
        <time>2008-10-10T06:57:46Z</time>
      </trkpt>
      <trkpt lat="43.40168" lon="6.70555">
        <ele>64.400001525879</ele>
        <time>2008-10-10T06:57:52Z</time>
      </trkpt>
      <trkpt lat="43.40158" lon="6.70535">
        <ele>67</ele>
        <time>2008-10-10T06:58:05Z</time>
      </trkpt>
      <trkpt lat="43.40136" lon="6.70515">
        <ele>69.400001525879</ele>
        <time>2008-10-10T06:58:18Z</time>
      </trkpt>
      <trkpt lat="43.40119" lon="6.70486">
        <ele>68.199996948242</ele>
        <time>2008-10-10T06:58:25Z</time>
      </trkpt>
      <trkpt lat="43.40115" lon="6.70475">
        <ele>67.599998474121</ele>
        <time>2008-10-10T06:58:27Z</time>
      </trkpt>
      <trkpt lat="43.40107" lon="6.70457">
        <ele>66.800003051758</ele>
        <time>2008-10-10T06:58:30Z</time>
      </trkpt>
      <trkpt lat="43.40101" lon="6.70431">
        <ele>65.199996948242</ele>
        <time>2008-10-10T06:58:34Z</time>
      </trkpt>
      <trkpt lat="43.40096" lon="6.70409">
        <ele>63.799999237061</ele>
        <time>2008-10-10T06:58:37Z</time>
      </trkpt>
      <trkpt lat="43.401" lon="6.70379">
        <ele>63.400001525879</ele>
        <time>2008-10-10T06:58:41Z</time>
      </trkpt>
      <trkpt lat="43.40105" lon="6.70369">
        <ele>63.799999237061</ele>
        <time>2008-10-10T06:58:43Z</time>
      </trkpt>
      <trkpt lat="43.40112" lon="6.70352">
        <ele>63</ele>
        <time>2008-10-10T06:58:46Z</time>
      </trkpt>
      <trkpt lat="43.40115" lon="6.70346">
        <ele>62.400001525879</ele>
        <time>2008-10-10T06:58:47Z</time>
      </trkpt>
      <trkpt lat="43.40115" lon="6.70309">
        <ele>62.799999237061</ele>
        <time>2008-10-10T06:58:53Z</time>
      </trkpt>
      <trkpt lat="43.40108" lon="6.70287">
        <ele>64.599998474121</ele>
        <time>2008-10-10T06:58:57Z</time>
      </trkpt>
      <trkpt lat="43.40118" lon="6.70269">
        <ele>65.199996948242</ele>
        <time>2008-10-10T06:59:01Z</time>
      </trkpt>
      <trkpt lat="43.40124" lon="6.70239">
        <ele>64.800003051758</ele>
        <time>2008-10-10T06:59:06Z</time>
      </trkpt>
      <trkpt lat="43.40125" lon="6.70219">
        <ele>64.800003051758</ele>
        <time>2008-10-10T06:59:09Z</time>
      </trkpt>
      <trkpt lat="43.4013" lon="6.702">
        <ele>65</ele>
        <time>2008-10-10T06:59:12Z</time>
      </trkpt>
      <trkpt lat="43.4013" lon="6.70182">
        <ele>65.400001525879</ele>
        <time>2008-10-10T06:59:15Z</time>
      </trkpt>
      <trkpt lat="43.4013" lon="6.70157">
        <ele>65</ele>
        <time>2008-10-10T06:59:19Z</time>
      </trkpt>
      <trkpt lat="43.40132" lon="6.70129">
        <ele>64.199996948242</ele>
        <time>2008-10-10T06:59:23Z</time>
      </trkpt>
      <trkpt lat="43.40136" lon="6.70107">
        <ele>63.400001525879</ele>
        <time>2008-10-10T06:59:26Z</time>
      </trkpt>
      <trkpt lat="43.4014" lon="6.70062">
        <ele>63.200000762939</ele>
        <time>2008-10-10T06:59:32Z</time>
      </trkpt>
      <trkpt lat="43.40136" lon="6.7003">
        <ele>64.400001525879</ele>
        <time>2008-10-10T06:59:39Z</time>
      </trkpt>
      <trkpt lat="43.40126" lon="6.7004">
        <ele>65</ele>
        <time>2008-10-10T06:59:43Z</time>
      </trkpt>
      <trkpt lat="43.40098" lon="6.70088">
        <ele>69</ele>
        <time>2008-10-10T07:00:00Z</time>
      </trkpt>
      <trkpt lat="43.40087" lon="6.70112">
        <ele>71.400001525879</ele>
        <time>2008-10-10T07:00:09Z</time>
      </trkpt>
      <trkpt lat="43.40081" lon="6.70121">
        <ele>73</ele>
        <time>2008-10-10T07:00:14Z</time>
      </trkpt>
      <trkpt lat="43.4007" lon="6.7013">
        <ele>75.800003051758</ele>
        <time>2008-10-10T07:00:22Z</time>
      </trkpt>
      <trkpt lat="43.40058" lon="6.70131">
        <ele>77.800003051758</ele>
        <time>2008-10-10T07:00:29Z</time>
      </trkpt>
      <trkpt lat="43.4005" lon="6.70126">
        <ele>79.199996948242</ele>
        <time>2008-10-10T07:00:35Z</time>
      </trkpt>
      <trkpt lat="43.40041" lon="6.70121">
        <ele>80.800003051758</ele>
        <time>2008-10-10T07:00:40Z</time>
      </trkpt>
      <trkpt lat="43.40014" lon="6.70102">
        <ele>84.400001525879</ele>
        <time>2008-10-10T07:00:57Z</time>
      </trkpt>
      <trkpt lat="43.40004" lon="6.70085">
        <ele>82.599998474121</ele>
        <time>2008-10-10T07:01:03Z</time>
      </trkpt>
      <trkpt lat="43.40005" lon="6.7008">
        <ele>82</ele>
        <time>2008-10-10T07:01:05Z</time>
      </trkpt>
      <trkpt lat="43.40007" lon="6.7007">
        <ele>80.199996948242</ele>
        <time>2008-10-10T07:01:08Z</time>
      </trkpt>
      <trkpt lat="43.40005" lon="6.70051">
        <ele>77.400001525879</ele>
        <time>2008-10-10T07:01:18Z</time>
      </trkpt>
      <trkpt lat="43.4" lon="6.70047">
        <ele>76.400001525879</ele>
        <time>2008-10-10T07:01:23Z</time>
      </trkpt>
      <trkpt lat="43.39985" lon="6.70046">
        <ele>73.800003051758</ele>
        <time>2008-10-10T07:01:29Z</time>
      </trkpt>
      <trkpt lat="43.39983" lon="6.70049">
        <ele>73.800003051758</ele>
        <time>2008-10-10T07:01:30Z</time>
      </trkpt>
      <trkpt lat="43.3997" lon="6.70053">
        <ele>72.199996948242</ele>
        <time>2008-10-10T07:01:34Z</time>
      </trkpt>
      <trkpt lat="43.39956" lon="6.70037">
        <ele>73</ele>
        <time>2008-10-10T07:01:44Z</time>
      </trkpt>
      <trkpt lat="43.39949" lon="6.70025">
        <ele>71.800003051758</ele>
        <time>2008-10-10T07:01:48Z</time>
      </trkpt>
      <trkpt lat="43.39938" lon="6.70014">
        <ele>71</ele>
        <time>2008-10-10T07:01:53Z</time>
      </trkpt>
      <trkpt lat="43.39916" lon="6.69987">
        <ele>68.599998474121</ele>
        <time>2008-10-10T07:02:02Z</time>
      </trkpt>
      <trkpt lat="43.3991" lon="6.69981">
        <ele>67.599998474121</ele>
        <time>2008-10-10T07:02:04Z</time>
      </trkpt>
      <trkpt lat="43.399" lon="6.69968">
        <ele>67.400001525879</ele>
        <time>2008-10-10T07:02:12Z</time>
      </trkpt>
      <trkpt lat="43.39898" lon="6.69956">
        <ele>66.599998474121</ele>
        <time>2008-10-10T07:02:16Z</time>
      </trkpt>
      <trkpt lat="43.39892" lon="6.69948">
        <ele>66.199996948242</ele>
        <time>2008-10-10T07:02:20Z</time>
      </trkpt>
      <trkpt lat="43.39886" lon="6.69938">
        <ele>65.199996948242</ele>
        <time>2008-10-10T07:02:26Z</time>
      </trkpt>
      <trkpt lat="43.39881" lon="6.69914">
        <ele>62.200000762939</ele>
        <time>2008-10-10T07:02:30Z</time>
      </trkpt>
      <trkpt lat="43.39883" lon="6.69902">
        <ele>61.200000762939</ele>
        <time>2008-10-10T07:02:32Z</time>
      </trkpt>
      <trkpt lat="43.39889" lon="6.69872">
        <ele>59.400001525879</ele>
        <time>2008-10-10T07:02:36Z</time>
      </trkpt>
      <trkpt lat="43.399" lon="6.69795">
        <ele>51</ele>
        <time>2008-10-10T07:02:46Z</time>
      </trkpt>
      <trkpt lat="43.39897" lon="6.69728">
        <ele>39.799999237061</ele>
        <time>2008-10-10T07:02:58Z</time>
      </trkpt>
      <trkpt lat="43.39905" lon="6.69677">
        <ele>30.799999237061</ele>
        <time>2008-10-10T07:03:12Z</time>
      </trkpt>
      <trkpt lat="43.39908" lon="6.69663">
        <ele>27.39999961853</ele>
        <time>2008-10-10T07:03:15Z</time>
      </trkpt>
      <trkpt lat="43.39917" lon="6.69652">
        <ele>23.39999961853</ele>
        <time>2008-10-10T07:03:19Z</time>
      </trkpt>
      <trkpt lat="43.39918" lon="6.69645">
        <ele>21.799999237061</ele>
        <time>2008-10-10T07:03:22Z</time>
      </trkpt>
      <trkpt lat="43.39916" lon="6.69644">
        <ele>21.60000038147</ele>
        <time>2008-10-10T07:03:23Z</time>
      </trkpt>
      <trkpt lat="43.3991" lon="6.69642">
        <ele>21</ele>
        <time>2008-10-10T07:03:25Z</time>
      </trkpt>
      <trkpt lat="43.39899" lon="6.6961">
        <ele>18.39999961853</ele>
        <time>2008-10-10T07:03:30Z</time>
      </trkpt>
      <trkpt lat="43.39898" lon="6.69581">
        <ele>17.799999237061</ele>
        <time>2008-10-10T07:03:36Z</time>
      </trkpt>
      <trkpt lat="43.39921" lon="6.69542">
        <ele>18.60000038147</ele>
        <time>2008-10-10T07:03:47Z</time>
      </trkpt>
      <trkpt lat="43.39923" lon="6.69497">
        <ele>18.200000762939</ele>
        <time>2008-10-10T07:03:55Z</time>
      </trkpt>
      <trkpt lat="43.39942" lon="6.69451">
        <ele>20.200000762939</ele>
        <time>2008-10-10T07:04:04Z</time>
      </trkpt>
      <trkpt lat="43.39964" lon="6.69425">
        <ele>18</ele>
        <time>2008-10-10T07:04:09Z</time>
      </trkpt>
      <trkpt lat="43.39985" lon="6.694">
        <ele>16</ele>
        <time>2008-10-10T07:04:13Z</time>
      </trkpt>
      <trkpt lat="43.39993" lon="6.69383">
        <ele>15.800000190735</ele>
        <time>2008-10-10T07:04:15Z</time>
      </trkpt>
      <trkpt lat="43.40017" lon="6.69351">
        <ele>15.39999961853</ele>
        <time>2008-10-10T07:04:20Z</time>
      </trkpt>
      <trkpt lat="43.40057" lon="6.69304">
        <ele>14.60000038147</ele>
        <time>2008-10-10T07:04:28Z</time>
      </trkpt>
      <trkpt lat="43.40074" lon="6.69262">
        <ele>15.60000038147</ele>
        <time>2008-10-10T07:04:33Z</time>
      </trkpt>
      <trkpt lat="43.40087" lon="6.69196">
        <ele>16.39999961853</ele>
        <time>2008-10-10T07:04:41Z</time>
      </trkpt>
      <trkpt lat="43.40087" lon="6.6918">
        <ele>16.799999237061</ele>
        <time>2008-10-10T07:04:43Z</time>
      </trkpt>
      <trkpt lat="43.4009" lon="6.69147">
        <ele>16.60000038147</ele>
        <time>2008-10-10T07:04:52Z</time>
      </trkpt>
      <trkpt lat="43.40097" lon="6.69137">
        <ele>16.39999961853</ele>
        <time>2008-10-10T07:05:00Z</time>
      </trkpt>
      <trkpt lat="43.40106" lon="6.69128">
        <ele>16</ele>
        <time>2008-10-10T07:05:06Z</time>
      </trkpt>
      <trkpt lat="43.40112" lon="6.69117">
        <ele>15.60000038147</ele>
        <time>2008-10-10T07:05:10Z</time>
      </trkpt>
      <trkpt lat="43.40124" lon="6.69093">
        <ele>15.39999961853</ele>
        <time>2008-10-10T07:05:20Z</time>
      </trkpt>
      <trkpt lat="43.40126" lon="6.69092">
        <ele>15.199999809265</ele>
        <time>2008-10-10T07:05:23Z</time>
      </trkpt>
      <trkpt lat="43.40134" lon="6.69085">
        <ele>15.800000190735</ele>
        <time>2008-10-10T07:05:32Z</time>
      </trkpt>
      <trkpt lat="43.40136" lon="6.69076">
        <ele>17.200000762939</ele>
        <time>2008-10-10T07:05:36Z</time>
      </trkpt>
      <trkpt lat="43.40137" lon="6.69073">
        <ele>18</ele>
        <time>2008-10-10T07:05:37Z</time>
      </trkpt>
      <trkpt lat="43.40133" lon="6.69069">
        <ele>19.200000762939</ele>
        <time>2008-10-10T07:05:41Z</time>
      </trkpt>
      <trkpt lat="43.4013" lon="6.69069">
        <ele>19.799999237061</ele>
        <time>2008-10-10T07:05:43Z</time>
      </trkpt>
      <trkpt lat="43.40128" lon="6.6907">
        <ele>20.200000762939</ele>
        <time>2008-10-10T07:05:45Z</time>
      </trkpt>
      <trkpt lat="43.40125" lon="6.6907">
        <ele>20.39999961853</ele>
        <time>2008-10-10T07:05:48Z</time>
      </trkpt>
      <trkpt lat="43.4012" lon="6.69069">
        <ele>20.799999237061</ele>
        <time>2008-10-10T07:05:53Z</time>
      </trkpt>
      <trkpt lat="43.40106" lon="6.69062">
        <ele>23</ele>
        <time>2008-10-10T07:06:10Z</time>
      </trkpt>
      <trkpt lat="43.40095" lon="6.69044">
        <ele>26</ele>
        <time>2008-10-10T07:06:26Z</time>
      </trkpt>
      <trkpt lat="43.40094" lon="6.69043">
        <ele>26.200000762939</ele>
        <time>2008-10-10T07:06:28Z</time>
      </trkpt>
      <trkpt lat="43.4009" lon="6.6904">
        <ele>26.60000038147</ele>
        <time>2008-10-10T07:06:35Z</time>
      </trkpt>
      <trkpt lat="43.40087" lon="6.69039">
        <ele>26.799999237061</ele>
        <time>2008-10-10T07:06:40Z</time>
      </trkpt>
      <trkpt lat="43.40083" lon="6.69036">
        <ele>27.39999961853</ele>
        <time>2008-10-10T07:06:44Z</time>
      </trkpt>
      <trkpt lat="43.40077" lon="6.69036">
        <ele>28.200000762939</ele>
        <time>2008-10-10T07:06:50Z</time>
      </trkpt>
      <trkpt lat="43.40076" lon="6.69037">
        <ele>28.39999961853</ele>
        <time>2008-10-10T07:06:54Z</time>
      </trkpt>
      <trkpt lat="43.40074" lon="6.69038">
        <ele>28.799999237061</ele>
        <time>2008-10-10T07:06:58Z</time>
      </trkpt>
      <trkpt lat="43.40071" lon="6.69049">
        <ele>29.60000038147</ele>
        <time>2008-10-10T07:07:07Z</time>
      </trkpt>
      <trkpt lat="43.40067" lon="6.69077">
        <ele>31.799999237061</ele>
        <time>2008-10-10T07:07:19Z</time>
      </trkpt>
      <trkpt lat="43.40065" lon="6.69084">
        <ele>32.400001525879</ele>
        <time>2008-10-10T07:07:22Z</time>
      </trkpt>
      <trkpt lat="43.40049" lon="6.69092">
        <ele>34.400001525879</ele>
        <time>2008-10-10T07:07:32Z</time>
      </trkpt>
      <trkpt lat="43.40022" lon="6.69087">
        <ele>38.799999237061</ele>
        <time>2008-10-10T07:07:48Z</time>
      </trkpt>
      <trkpt lat="43.40012" lon="6.69087">
        <ele>40</ele>
        <time>2008-10-10T07:07:54Z</time>
      </trkpt>
      <trkpt lat="43.40006" lon="6.69093">
        <ele>40.799999237061</ele>
        <time>2008-10-10T07:07:58Z</time>
      </trkpt>
      <trkpt lat="43.40001" lon="6.69124">
        <ele>42.599998474121</ele>
        <time>2008-10-10T07:08:10Z</time>
      </trkpt>
      <trkpt lat="43.39992" lon="6.69157">
        <ele>45.599998474121</ele>
        <time>2008-10-10T07:08:25Z</time>
      </trkpt>
      <trkpt lat="43.39973" lon="6.69184">
        <ele>48.200000762939</ele>
        <time>2008-10-10T07:08:40Z</time>
      </trkpt>
      <trkpt lat="43.39955" lon="6.69175">
        <ele>51.799999237061</ele>
        <time>2008-10-10T07:08:54Z</time>
      </trkpt>
      <trkpt lat="43.39955" lon="6.69167">
        <ele>52.599998474121</ele>
        <time>2008-10-10T07:09:00Z</time>
      </trkpt>
      <trkpt lat="43.39959" lon="6.69163">
        <ele>53.200000762939</ele>
        <time>2008-10-10T07:09:11Z</time>
      </trkpt>
      <trkpt lat="43.39959" lon="6.69161">
        <ele>53</ele>
        <time>2008-10-10T07:09:16Z</time>
      </trkpt>
      <trkpt lat="43.39959" lon="6.69161">
        <ele>53</ele>
        <time>2008-10-10T07:09:17Z</time>
      </trkpt>
      <trkpt lat="43.3996" lon="6.69156">
        <ele>53.799999237061</ele>
        <time>2008-10-10T07:09:23Z</time>
      </trkpt>
      <trkpt lat="43.3996" lon="6.6915">
        <ele>54.200000762939</ele>
        <time>2008-10-10T07:09:29Z</time>
      </trkpt>
      <trkpt lat="43.3996" lon="6.6915">
        <ele>54.400001525879</ele>
        <time>2008-10-10T07:09:30Z</time>
      </trkpt>
      <trkpt lat="43.39951" lon="6.69143">
        <ele>56</ele>
        <time>2008-10-10T07:09:38Z</time>
      </trkpt>
      <trkpt lat="43.39946" lon="6.69144">
        <ele>56.599998474121</ele>
        <time>2008-10-10T07:09:41Z</time>
      </trkpt>
      <trkpt lat="43.39934" lon="6.69156">
        <ele>58.400001525879</ele>
        <time>2008-10-10T07:09:49Z</time>
      </trkpt>
      <trkpt lat="43.39924" lon="6.69172">
        <ele>60</ele>
        <time>2008-10-10T07:09:56Z</time>
      </trkpt>
      <trkpt lat="43.39909" lon="6.69192">
        <ele>62</ele>
        <time>2008-10-10T07:10:06Z</time>
      </trkpt>
      <trkpt lat="43.39889" lon="6.69212">
        <ele>63.799999237061</ele>
        <time>2008-10-10T07:10:17Z</time>
      </trkpt>
      <trkpt lat="43.39867" lon="6.69227">
        <ele>66.599998474121</ele>
        <time>2008-10-10T07:10:30Z</time>
      </trkpt>
      <trkpt lat="43.39839" lon="6.69194">
        <ele>69.800003051758</ele>
        <time>2008-10-10T07:10:45Z</time>
      </trkpt>
      <trkpt lat="43.39843" lon="6.69177">
        <ele>71</ele>
        <time>2008-10-10T07:10:54Z</time>
      </trkpt>
      <trkpt lat="43.3982" lon="6.69143">
        <ele>72.199996948242</ele>
        <time>2008-10-10T07:11:05Z</time>
      </trkpt>
      <trkpt lat="43.39797" lon="6.69126">
        <ele>72.400001525879</ele>
        <time>2008-10-10T07:11:11Z</time>
      </trkpt>
      <trkpt lat="43.39758" lon="6.69082">
        <ele>74.800003051758</ele>
        <time>2008-10-10T07:11:23Z</time>
      </trkpt>
      <trkpt lat="43.39744" lon="6.69065">
        <ele>74.599998474121</ele>
        <time>2008-10-10T07:11:27Z</time>
      </trkpt>
      <trkpt lat="43.39712" lon="6.69009">
        <ele>76.800003051758</ele>
        <time>2008-10-10T07:11:40Z</time>
      </trkpt>
      <trkpt lat="43.39681" lon="6.68987">
        <ele>79.400001525879</ele>
        <time>2008-10-10T07:11:53Z</time>
      </trkpt>
      <trkpt lat="43.39655" lon="6.68984">
        <ele>82</ele>
        <time>2008-10-10T07:12:05Z</time>
      </trkpt>
      <trkpt lat="43.3963" lon="6.68961">
        <ele>85.800003051758</ele>
        <time>2008-10-10T07:12:20Z</time>
      </trkpt>
      <trkpt lat="43.39604" lon="6.68939">
        <ele>89</ele>
        <time>2008-10-10T07:12:36Z</time>
      </trkpt>
      <trkpt lat="43.39583" lon="6.68918">
        <ele>91.800003051758</ele>
        <time>2008-10-10T07:12:50Z</time>
      </trkpt>
      <trkpt lat="43.39581" lon="6.68913">
        <ele>92.199996948242</ele>
        <time>2008-10-10T07:12:53Z</time>
      </trkpt>
      <trkpt lat="43.39571" lon="6.68882">
        <ele>95.400001525879</ele>
        <time>2008-10-10T07:13:09Z</time>
      </trkpt>
      <trkpt lat="43.39559" lon="6.68862">
        <ele>99</ele>
        <time>2008-10-10T07:13:23Z</time>
      </trkpt>
      <trkpt lat="43.39544" lon="6.68838">
        <ele>102.59999847412</ele>
        <time>2008-10-10T07:13:38Z</time>
      </trkpt>
      <trkpt lat="43.39527" lon="6.68804">
        <ele>103.40000152588</ele>
        <time>2008-10-10T07:13:49Z</time>
      </trkpt>
      <trkpt lat="43.39517" lon="6.68784">
        <ele>103.40000152588</ele>
        <time>2008-10-10T07:13:53Z</time>
      </trkpt>
      <trkpt lat="43.39483" lon="6.68745">
        <ele>101.80000305176</ele>
        <time>2008-10-10T07:14:02Z</time>
      </trkpt>
      <trkpt lat="43.39468" lon="6.6871">
        <ele>100.59999847412</ele>
        <time>2008-10-10T07:14:07Z</time>
      </trkpt>
      <trkpt lat="43.39461" lon="6.68693">
        <ele>102</ele>
        <time>2008-10-10T07:14:10Z</time>
      </trkpt>
      <trkpt lat="43.3946" lon="6.6868">
        <ele>101.40000152588</ele>
        <time>2008-10-10T07:14:13Z</time>
      </trkpt>
      <trkpt lat="43.39462" lon="6.68654">
        <ele>100</ele>
        <time>2008-10-10T07:14:17Z</time>
      </trkpt>
      <trkpt lat="43.39462" lon="6.68637">
        <ele>99.199996948242</ele>
        <time>2008-10-10T07:14:19Z</time>
      </trkpt>
      <trkpt lat="43.39468" lon="6.68609">
        <ele>97.199996948242</ele>
        <time>2008-10-10T07:14:22Z</time>
      </trkpt>
      <trkpt lat="43.39475" lon="6.68584">
        <ele>95.400001525879</ele>
        <time>2008-10-10T07:14:25Z</time>
      </trkpt>
      <trkpt lat="43.3948" lon="6.68559">
        <ele>93.800003051758</ele>
        <time>2008-10-10T07:14:28Z</time>
      </trkpt>
      <trkpt lat="43.39481" lon="6.68544">
        <ele>93</ele>
        <time>2008-10-10T07:14:30Z</time>
      </trkpt>
      <trkpt lat="43.39476" lon="6.68527">
        <ele>91.400001525879</ele>
        <time>2008-10-10T07:14:34Z</time>
      </trkpt>
      <trkpt lat="43.39471" lon="6.68524">
        <ele>90.400001525879</ele>
        <time>2008-10-10T07:14:36Z</time>
      </trkpt>
      <trkpt lat="43.39453" lon="6.68518">
        <ele>87.599998474121</ele>
        <time>2008-10-10T07:14:41Z</time>
      </trkpt>
      <trkpt lat="43.39447" lon="6.68515">
        <ele>86.199996948242</ele>
        <time>2008-10-10T07:14:43Z</time>
      </trkpt>
      <trkpt lat="43.39434" lon="6.68504">
        <ele>83</ele>
        <time>2008-10-10T07:14:46Z</time>
      </trkpt>
      <trkpt lat="43.39427" lon="6.68494">
        <ele>82</ele>
        <time>2008-10-10T07:14:48Z</time>
      </trkpt>
      <trkpt lat="43.39423" lon="6.68489">
        <ele>81.400001525879</ele>
        <time>2008-10-10T07:14:49Z</time>
      </trkpt>
      <trkpt lat="43.3941" lon="6.68475">
        <ele>80.599998474121</ele>
        <time>2008-10-10T07:14:52Z</time>
      </trkpt>
      <trkpt lat="43.3939" lon="6.68438">
        <ele>78.400001525879</ele>
        <time>2008-10-10T07:14:57Z</time>
      </trkpt>
      <trkpt lat="43.39379" lon="6.68398">
        <ele>77.800003051758</ele>
        <time>2008-10-10T07:15:03Z</time>
      </trkpt>
      <trkpt lat="43.39359" lon="6.68367">
        <ele>72</ele>
        <time>2008-10-10T07:15:14Z</time>
      </trkpt>
      <trkpt lat="43.39352" lon="6.68348">
        <ele>68.400001525879</ele>
        <time>2008-10-10T07:15:18Z</time>
      </trkpt>
      <trkpt lat="43.39346" lon="6.68336">
        <ele>67</ele>
        <time>2008-10-10T07:15:20Z</time>
      </trkpt>
      <trkpt lat="43.39321" lon="6.68335">
        <ele>68.800003051758</ele>
        <time>2008-10-10T07:15:26Z</time>
      </trkpt>
      <trkpt lat="43.39314" lon="6.68334">
        <ele>68</ele>
        <time>2008-10-10T07:15:28Z</time>
      </trkpt>
      <trkpt lat="43.3931" lon="6.68306">
        <ele>68</ele>
        <time>2008-10-10T07:15:36Z</time>
      </trkpt>
      <trkpt lat="43.39315" lon="6.68272">
        <ele>70</ele>
        <time>2008-10-10T07:15:47Z</time>
      </trkpt>
      <trkpt lat="43.3931" lon="6.68265">
        <ele>71.400001525879</ele>
        <time>2008-10-10T07:15:51Z</time>
      </trkpt>
      <trkpt lat="43.39305" lon="6.68258">
        <ele>72.800003051758</ele>
        <time>2008-10-10T07:15:55Z</time>
      </trkpt>
      <trkpt lat="43.39299" lon="6.68253">
        <ele>73.599998474121</ele>
        <time>2008-10-10T07:15:58Z</time>
      </trkpt>
      <trkpt lat="43.39294" lon="6.6825">
        <ele>74.199996948242</ele>
        <time>2008-10-10T07:16:01Z</time>
      </trkpt>
      <trkpt lat="43.39289" lon="6.68246">
        <ele>74.599998474121</ele>
        <time>2008-10-10T07:16:05Z</time>
      </trkpt>
      <trkpt lat="43.39275" lon="6.6824">
        <ele>77.400001525879</ele>
        <time>2008-10-10T07:16:13Z</time>
      </trkpt>
      <trkpt lat="43.39271" lon="6.68206">
        <ele>77.800003051758</ele>
        <time>2008-10-10T07:16:23Z</time>
      </trkpt>
      <trkpt lat="43.39264" lon="6.68181">
        <ele>75.599998474121</ele>
        <time>2008-10-10T07:16:30Z</time>
      </trkpt>
      <trkpt lat="43.39256" lon="6.68178">
        <ele>74</ele>
        <time>2008-10-10T07:16:32Z</time>
      </trkpt>
      <trkpt lat="43.39209" lon="6.68135">
        <ele>73.800003051758</ele>
        <time>2008-10-10T07:16:44Z</time>
      </trkpt>
      <trkpt lat="43.39203" lon="6.68128">
        <ele>74</ele>
        <time>2008-10-10T07:16:46Z</time>
      </trkpt>
      <trkpt lat="43.39197" lon="6.6812">
        <ele>73</ele>
        <time>2008-10-10T07:16:48Z</time>
      </trkpt>
      <trkpt lat="43.39187" lon="6.68096">
        <ele>71</ele>
        <time>2008-10-10T07:16:51Z</time>
      </trkpt>
      <trkpt lat="43.39186" lon="6.68086">
        <ele>70.800003051758</ele>
        <time>2008-10-10T07:16:52Z</time>
      </trkpt>
      <trkpt lat="43.39185" lon="6.68068">
        <ele>71.400001525879</ele>
        <time>2008-10-10T07:16:54Z</time>
      </trkpt>
      <trkpt lat="43.39177" lon="6.68045">
        <ele>71.400001525879</ele>
        <time>2008-10-10T07:16:58Z</time>
      </trkpt>
      <trkpt lat="43.39167" lon="6.6803">
        <ele>70.599998474121</ele>
        <time>2008-10-10T07:17:01Z</time>
      </trkpt>
      <trkpt lat="43.39151" lon="6.67977">
        <ele>67.800003051758</ele>
        <time>2008-10-10T07:17:09Z</time>
      </trkpt>
      <trkpt lat="43.39147" lon="6.67956">
        <ele>67</ele>
        <time>2008-10-10T07:17:12Z</time>
      </trkpt>
      <trkpt lat="43.39141" lon="6.6792">
        <ele>64.599998474121</ele>
        <time>2008-10-10T07:17:18Z</time>
      </trkpt>
      <trkpt lat="43.39137" lon="6.67897">
        <ele>62.400001525879</ele>
        <time>2008-10-10T07:17:23Z</time>
      </trkpt>
      <trkpt lat="43.39131" lon="6.67884">
        <ele>60.200000762939</ele>
        <time>2008-10-10T07:17:26Z</time>
      </trkpt>
      <trkpt lat="43.39131" lon="6.67865">
        <ele>58.200000762939</ele>
        <time>2008-10-10T07:17:30Z</time>
      </trkpt>
      <trkpt lat="43.39123" lon="6.67825">
        <ele>52.400001525879</ele>
        <time>2008-10-10T07:17:40Z</time>
      </trkpt>
      <trkpt lat="43.3912" lon="6.67806">
        <ele>50.400001525879</ele>
        <time>2008-10-10T07:17:44Z</time>
      </trkpt>
      <trkpt lat="43.39129" lon="6.67793">
        <ele>48.200000762939</ele>
        <time>2008-10-10T07:17:50Z</time>
      </trkpt>
      <trkpt lat="43.39131" lon="6.67792">
        <ele>48.200000762939</ele>
        <time>2008-10-10T07:17:51Z</time>
      </trkpt>
      <trkpt lat="43.39138" lon="6.67786">
        <ele>46</ele>
        <time>2008-10-10T07:17:55Z</time>
      </trkpt>
      <trkpt lat="43.39142" lon="6.67783">
        <ele>45.400001525879</ele>
        <time>2008-10-10T07:18:00Z</time>
      </trkpt>
      <trkpt lat="43.39144" lon="6.67781">
        <ele>44.799999237061</ele>
        <time>2008-10-10T07:18:08Z</time>
      </trkpt>
      <trkpt lat="43.39151" lon="6.67772">
        <ele>41.799999237061</ele>
        <time>2008-10-10T07:18:16Z</time>
      </trkpt>
      <trkpt lat="43.39156" lon="6.67766">
        <ele>40.799999237061</ele>
        <time>2008-10-10T07:18:25Z</time>
      </trkpt>
      <trkpt lat="43.39159" lon="6.67762">
        <ele>39.200000762939</ele>
        <time>2008-10-10T07:18:33Z</time>
      </trkpt>
      <trkpt lat="43.39167" lon="6.67755">
        <ele>36</ele>
        <time>2008-10-10T07:18:43Z</time>
      </trkpt>
      <trkpt lat="43.39183" lon="6.67749">
        <ele>32.599998474121</ele>
        <time>2008-10-10T07:18:58Z</time>
      </trkpt>
      <trkpt lat="43.39188" lon="6.67746">
        <ele>30</ele>
        <time>2008-10-10T07:19:04Z</time>
      </trkpt>
      <trkpt lat="43.39193" lon="6.6774">
        <ele>28.200000762939</ele>
        <time>2008-10-10T07:19:11Z</time>
      </trkpt>
      <trkpt lat="43.39196" lon="6.67723">
        <ele>25.200000762939</ele>
        <time>2008-10-10T07:19:20Z</time>
      </trkpt>
      <trkpt lat="43.39195" lon="6.67713">
        <ele>24.39999961853</ele>
        <time>2008-10-10T07:19:22Z</time>
      </trkpt>
      <trkpt lat="43.3919" lon="6.67705">
        <ele>23</ele>
        <time>2008-10-10T07:19:25Z</time>
      </trkpt>
      <trkpt lat="43.39196" lon="6.67684">
        <ele>21.60000038147</ele>
        <time>2008-10-10T07:19:31Z</time>
      </trkpt>
      <trkpt lat="43.39215" lon="6.67665">
        <ele>19</ele>
        <time>2008-10-10T07:19:38Z</time>
      </trkpt>
      <trkpt lat="43.39219" lon="6.6766">
        <ele>18.39999961853</ele>
        <time>2008-10-10T07:19:41Z</time>
      </trkpt>
      <trkpt lat="43.39226" lon="6.67651">
        <ele>17.200000762939</ele>
        <time>2008-10-10T07:19:46Z</time>
      </trkpt>
      <trkpt lat="43.39224" lon="6.67642">
        <ele>15.60000038147</ele>
        <time>2008-10-10T07:19:50Z</time>
      </trkpt>
      <trkpt lat="43.39223" lon="6.67642">
        <ele>15.39999961853</ele>
        <time>2008-10-10T07:19:51Z</time>
      </trkpt>
      <trkpt lat="43.39219" lon="6.67641">
        <ele>15</ele>
        <time>2008-10-10T07:19:55Z</time>
      </trkpt>
      <trkpt lat="43.39219" lon="6.67626">
        <ele>14.800000190735</ele>
        <time>2008-10-10T07:20:04Z</time>
      </trkpt>
      <trkpt lat="43.39246" lon="6.67622">
        <ele>15.39999961853</ele>
        <time>2008-10-10T07:20:12Z</time>
      </trkpt>
      <trkpt lat="43.39251" lon="6.67623">
        <ele>15.199999809265</ele>
        <time>2008-10-10T07:20:13Z</time>
      </trkpt>
      <trkpt lat="43.39282" lon="6.67617">
        <ele>16</ele>
        <time>2008-10-10T07:20:20Z</time>
      </trkpt>
      <trkpt lat="43.39305" lon="6.67617">
        <ele>16.200000762939</ele>
        <time>2008-10-10T07:20:25Z</time>
      </trkpt>
      <trkpt lat="43.3933" lon="6.67613">
        <ele>15.60000038147</ele>
        <time>2008-10-10T07:20:34Z</time>
      </trkpt>
      <trkpt lat="43.39336" lon="6.67613">
        <ele>15.800000190735</ele>
        <time>2008-10-10T07:20:37Z</time>
      </trkpt>
      <trkpt lat="43.39386" lon="6.67586">
        <ele>14.800000190735</ele>
        <time>2008-10-10T07:20:48Z</time>
      </trkpt>
      <trkpt lat="43.39399" lon="6.67575">
        <ele>16</ele>
        <time>2008-10-10T07:20:53Z</time>
      </trkpt>
      <trkpt lat="43.39415" lon="6.67572">
        <ele>15.60000038147</ele>
        <time>2008-10-10T07:20:58Z</time>
      </trkpt>
      <trkpt lat="43.39439" lon="6.6758">
        <ele>15.800000190735</ele>
        <time>2008-10-10T07:21:05Z</time>
      </trkpt>
      <trkpt lat="43.39449" lon="6.67579">
        <ele>15.800000190735</ele>
        <time>2008-10-10T07:21:08Z</time>
      </trkpt>
      <trkpt lat="43.39477" lon="6.67569">
        <ele>15.60000038147</ele>
        <time>2008-10-10T07:21:15Z</time>
      </trkpt>
      <trkpt lat="43.39496" lon="6.67552">
        <ele>14.60000038147</ele>
        <time>2008-10-10T07:21:23Z</time>
      </trkpt>
      <trkpt lat="43.39513" lon="6.6755">
        <ele>14.39999961853</ele>
        <time>2008-10-10T07:21:36Z</time>
      </trkpt>
      <trkpt lat="43.39518" lon="6.67544">
        <ele>14.60000038147</ele>
        <time>2008-10-10T07:21:40Z</time>
      </trkpt>
      <trkpt lat="43.39521" lon="6.67537">
        <ele>14.60000038147</ele>
        <time>2008-10-10T07:21:43Z</time>
      </trkpt>
      <trkpt lat="43.39555" lon="6.6751">
        <ele>14.199999809265</ele>
        <time>2008-10-10T07:21:53Z</time>
      </trkpt>
      <trkpt lat="43.39596" lon="6.67493">
        <ele>14.39999961853</ele>
        <time>2008-10-10T07:22:02Z</time>
      </trkpt>
      <trkpt lat="43.39606" lon="6.67489">
        <ele>14.199999809265</ele>
        <time>2008-10-10T07:22:04Z</time>
      </trkpt>
      <trkpt lat="43.39616" lon="6.67487">
        <ele>14.60000038147</ele>
        <time>2008-10-10T07:22:06Z</time>
      </trkpt>
      <trkpt lat="43.39625" lon="6.67484">
        <ele>14.39999961853</ele>
        <time>2008-10-10T07:22:08Z</time>
      </trkpt>
      <trkpt lat="43.39653" lon="6.67476">
        <ele>14.199999809265</ele>
        <time>2008-10-10T07:22:14Z</time>
      </trkpt>
      <trkpt lat="43.39662" lon="6.67475">
        <ele>14.199999809265</ele>
        <time>2008-10-10T07:22:16Z</time>
      </trkpt>
      <trkpt lat="43.39691" lon="6.67472">
        <ele>13.60000038147</ele>
        <time>2008-10-10T07:22:23Z</time>
      </trkpt>
      <trkpt lat="43.39707" lon="6.67478">
        <ele>12.199999809265</ele>
        <time>2008-10-10T07:22:26Z</time>
      </trkpt>
      <trkpt lat="43.3971" lon="6.67483">
        <ele>12</ele>
        <time>2008-10-10T07:22:27Z</time>
      </trkpt>
      <trkpt lat="43.39716" lon="6.67492">
        <ele>11.800000190735</ele>
        <time>2008-10-10T07:22:29Z</time>
      </trkpt>
      <trkpt lat="43.39727" lon="6.67492">
        <ele>12.800000190735</ele>
        <time>2008-10-10T07:22:35Z</time>
      </trkpt>
      <trkpt lat="43.39742" lon="6.67468">
        <ele>12.800000190735</ele>
        <time>2008-10-10T07:22:41Z</time>
      </trkpt>
      <trkpt lat="43.39738" lon="6.6744">
        <ele>14.60000038147</ele>
        <time>2008-10-10T07:22:46Z</time>
      </trkpt>
      <trkpt lat="43.39738" lon="6.67436">
        <ele>14.60000038147</ele>
        <time>2008-10-10T07:22:47Z</time>
      </trkpt>
      <trkpt lat="43.39745" lon="6.67385">
        <ele>14.199999809265</ele>
        <time>2008-10-10T07:22:55Z</time>
      </trkpt>
      <trkpt lat="43.39746" lon="6.67378">
        <ele>14.199999809265</ele>
        <time>2008-10-10T07:22:56Z</time>
      </trkpt>
      <trkpt lat="43.39747" lon="6.67321">
        <ele>14.39999961853</ele>
        <time>2008-10-10T07:23:04Z</time>
      </trkpt>
      <trkpt lat="43.39738" lon="6.67281">
        <ele>15.199999809265</ele>
        <time>2008-10-10T07:23:10Z</time>
      </trkpt>
      <trkpt lat="43.39706" lon="6.67235">
        <ele>15.39999961853</ele>
        <time>2008-10-10T07:23:21Z</time>
      </trkpt>
      <trkpt lat="43.39697" lon="6.67237">
        <ele>15</ele>
        <time>2008-10-10T07:23:28Z</time>
      </trkpt>
      <trkpt lat="43.39707" lon="6.67236">
        <ele>15.60000038147</ele>
        <time>2008-10-10T07:25:00Z</time>
      </trkpt>
      <trkpt lat="43.39707" lon="6.67235">
        <ele>15.60000038147</ele>
        <time>2008-10-10T07:25:01Z</time>
      </trkpt>
      <trkpt lat="43.39704" lon="6.67233">
        <ele>15.60000038147</ele>
        <time>2008-10-10T07:25:03Z</time>
      </trkpt>
      <trkpt lat="43.397" lon="6.67226">
        <ele>15.60000038147</ele>
        <time>2008-10-10T07:25:06Z</time>
      </trkpt>
      <trkpt lat="43.39667" lon="6.67196">
        <ele>15</ele>
        <time>2008-10-10T07:25:18Z</time>
      </trkpt>
      <trkpt lat="43.39647" lon="6.67195">
        <ele>14.60000038147</ele>
        <time>2008-10-10T07:25:23Z</time>
      </trkpt>
      <trkpt lat="43.3959" lon="6.67222">
        <ele>14.199999809265</ele>
        <time>2008-10-10T07:25:37Z</time>
      </trkpt>
      <trkpt lat="43.39575" lon="6.67225">
        <ele>14.199999809265</ele>
        <time>2008-10-10T07:25:41Z</time>
      </trkpt>
      <trkpt lat="43.39558" lon="6.67209">
        <ele>14.199999809265</ele>
        <time>2008-10-10T07:25:46Z</time>
      </trkpt>
      <trkpt lat="43.39549" lon="6.67192">
        <ele>14.199999809265</ele>
        <time>2008-10-10T07:25:50Z</time>
      </trkpt>
      <trkpt lat="43.39523" lon="6.67147">
        <ele>14.39999961853</ele>
        <time>2008-10-10T07:25:59Z</time>
      </trkpt>
      <trkpt lat="43.39501" lon="6.67135">
        <ele>14.60000038147</ele>
        <time>2008-10-10T07:26:05Z</time>
      </trkpt>
      <trkpt lat="43.39491" lon="6.67114">
        <ele>14.199999809265</ele>
        <time>2008-10-10T07:26:09Z</time>
      </trkpt>
      <trkpt lat="43.39479" lon="6.67085">
        <ele>16.200000762939</ele>
        <time>2008-10-10T07:26:16Z</time>
      </trkpt>
      <trkpt lat="43.39465" lon="6.67068">
        <ele>16.60000038147</ele>
        <time>2008-10-10T07:26:22Z</time>
      </trkpt>
      <trkpt lat="43.39427" lon="6.67033">
        <ele>16.799999237061</ele>
        <time>2008-10-10T07:26:35Z</time>
      </trkpt>
      <trkpt lat="43.39401" lon="6.66984">
        <ele>17</ele>
        <time>2008-10-10T07:26:46Z</time>
      </trkpt>
      <trkpt lat="43.39397" lon="6.66974">
        <ele>17.200000762939</ele>
        <time>2008-10-10T07:26:48Z</time>
      </trkpt>
      <trkpt lat="43.39374" lon="6.6695">
        <ele>17</ele>
        <time>2008-10-10T07:26:54Z</time>
      </trkpt>
      <trkpt lat="43.39347" lon="6.66929">
        <ele>17.200000762939</ele>
        <time>2008-10-10T07:27:00Z</time>
      </trkpt>
      <trkpt lat="43.39321" lon="6.6691">
        <ele>17.200000762939</ele>
        <time>2008-10-10T07:27:06Z</time>
      </trkpt>
      <trkpt lat="43.39304" lon="6.66899">
        <ele>17.200000762939</ele>
        <time>2008-10-10T07:27:10Z</time>
      </trkpt>
      <trkpt lat="43.39287" lon="6.66891">
        <ele>16.60000038147</ele>
        <time>2008-10-10T07:27:14Z</time>
      </trkpt>
      <trkpt lat="43.39261" lon="6.66861">
        <ele>14.39999961853</ele>
        <time>2008-10-10T07:27:20Z</time>
      </trkpt>
      <trkpt lat="43.39256" lon="6.66847">
        <ele>13.800000190735</ele>
        <time>2008-10-10T07:27:22Z</time>
      </trkpt>
      <trkpt lat="43.3924" lon="6.66811">
        <ele>17.39999961853</ele>
        <time>2008-10-10T07:27:30Z</time>
      </trkpt>
      <trkpt lat="43.39244" lon="6.66794">
        <ele>17.799999237061</ele>
        <time>2008-10-10T07:27:35Z</time>
      </trkpt>
      <trkpt lat="43.39248" lon="6.66788">
        <ele>18.200000762939</ele>
        <time>2008-10-10T07:27:37Z</time>
      </trkpt>
      <trkpt lat="43.39275" lon="6.66726">
        <ele>20</ele>
        <time>2008-10-10T07:27:52Z</time>
      </trkpt>
      <trkpt lat="43.39281" lon="6.66696">
        <ele>23.60000038147</ele>
        <time>2008-10-10T07:28:08Z</time>
      </trkpt>
      <trkpt lat="43.39274" lon="6.66675">
        <ele>27.200000762939</ele>
        <time>2008-10-10T07:28:21Z</time>
      </trkpt>
      <trkpt lat="43.39266" lon="6.66658">
        <ele>29.200000762939</ele>
        <time>2008-10-10T07:28:28Z</time>
      </trkpt>
      <trkpt lat="43.3927" lon="6.66632">
        <ele>29.200000762939</ele>
        <time>2008-10-10T07:28:34Z</time>
      </trkpt>
      <trkpt lat="43.39288" lon="6.66597">
        <ele>29.200000762939</ele>
        <time>2008-10-10T07:28:42Z</time>
      </trkpt>
      <trkpt lat="43.39309" lon="6.66547">
        <ele>26.799999237061</ele>
        <time>2008-10-10T07:28:50Z</time>
      </trkpt>
      <trkpt lat="43.39335" lon="6.66503">
        <ele>30</ele>
        <time>2008-10-10T07:28:58Z</time>
      </trkpt>
      <trkpt lat="43.39359" lon="6.66496">
        <ele>33.799999237061</ele>
        <time>2008-10-10T07:29:10Z</time>
      </trkpt>
      <trkpt lat="43.39399" lon="6.66481">
        <ele>37.200000762939</ele>
        <time>2008-10-10T07:29:29Z</time>
      </trkpt>
      <trkpt lat="43.39447" lon="6.66461">
        <ele>40.599998474121</ele>
        <time>2008-10-10T07:29:48Z</time>
      </trkpt>
      <trkpt lat="43.39482" lon="6.66449">
        <ele>44</ele>
        <time>2008-10-10T07:30:04Z</time>
      </trkpt>
      <trkpt lat="43.39517" lon="6.66439">
        <ele>46.799999237061</ele>
        <time>2008-10-10T07:30:19Z</time>
      </trkpt>
      <trkpt lat="43.39556" lon="6.66432">
        <ele>51</ele>
        <time>2008-10-10T07:30:38Z</time>
      </trkpt>
      <trkpt lat="43.396" lon="6.66442">
        <ele>52.400001525879</ele>
        <time>2008-10-10T07:30:53Z</time>
      </trkpt>
      <trkpt lat="43.39642" lon="6.66431">
        <ele>54.599998474121</ele>
        <time>2008-10-10T07:31:07Z</time>
      </trkpt>
      <trkpt lat="43.3967" lon="6.66417">
        <ele>57.799999237061</ele>
        <time>2008-10-10T07:31:20Z</time>
      </trkpt>
      <trkpt lat="43.39692" lon="6.66422">
        <ele>60.799999237061</ele>
        <time>2008-10-10T07:31:34Z</time>
      </trkpt>
      <trkpt lat="43.39695" lon="6.66424">
        <ele>61.400001525879</ele>
        <time>2008-10-10T07:31:36Z</time>
      </trkpt>
      <trkpt lat="43.39701" lon="6.66415">
        <ele>63</ele>
        <time>2008-10-10T07:31:44Z</time>
      </trkpt>
      <trkpt lat="43.39717" lon="6.66388">
        <ele>65.599998474121</ele>
        <time>2008-10-10T07:31:59Z</time>
      </trkpt>
      <trkpt lat="43.39731" lon="6.66391">
        <ele>67</ele>
        <time>2008-10-10T07:32:07Z</time>
      </trkpt>
      <trkpt lat="43.39753" lon="6.66403">
        <ele>69.599998474121</ele>
        <time>2008-10-10T07:32:23Z</time>
      </trkpt>
      <trkpt lat="43.39778" lon="6.66409">
        <ele>71.800003051758</ele>
        <time>2008-10-10T07:32:37Z</time>
      </trkpt>
      <trkpt lat="43.39796" lon="6.66382">
        <ele>75</ele>
        <time>2008-10-10T07:32:52Z</time>
      </trkpt>
      <trkpt lat="43.398" lon="6.66324">
        <ele>76</ele>
        <time>2008-10-10T07:33:08Z</time>
      </trkpt>
      <trkpt lat="43.39777" lon="6.66293">
        <ele>78.400001525879</ele>
        <time>2008-10-10T07:33:19Z</time>
      </trkpt>
      <trkpt lat="43.39764" lon="6.66262">
        <ele>80.800003051758</ele>
        <time>2008-10-10T07:33:31Z</time>
      </trkpt>
      <trkpt lat="43.39775" lon="6.66263">
        <ele>82.199996948242</ele>
        <time>2008-10-10T07:33:37Z</time>
      </trkpt>
      <trkpt lat="43.39792" lon="6.66266">
        <ele>84.599998474121</ele>
        <time>2008-10-10T07:33:47Z</time>
      </trkpt>
      <trkpt lat="43.39792" lon="6.6625">
        <ele>85.800003051758</ele>
        <time>2008-10-10T07:33:53Z</time>
      </trkpt>
      <trkpt lat="43.3977" lon="6.66208">
        <ele>88.199996948242</ele>
        <time>2008-10-10T07:34:10Z</time>
      </trkpt>
      <trkpt lat="43.39776" lon="6.66204">
        <ele>89.199996948242</ele>
        <time>2008-10-10T07:34:14Z</time>
      </trkpt>
      <trkpt lat="43.39807" lon="6.66206">
        <ele>91.800003051758</ele>
        <time>2008-10-10T07:34:29Z</time>
      </trkpt>
      <trkpt lat="43.3982" lon="6.66173">
        <ele>95.800003051758</ele>
        <time>2008-10-10T07:34:43Z</time>
      </trkpt>
      <trkpt lat="43.39842" lon="6.66145">
        <ele>97.800003051758</ele>
        <time>2008-10-10T07:34:57Z</time>
      </trkpt>
      <trkpt lat="43.3987" lon="6.66108">
        <ele>101</ele>
        <time>2008-10-10T07:35:16Z</time>
      </trkpt>
      <trkpt lat="43.39889" lon="6.66075">
        <ele>103.59999847412</ele>
        <time>2008-10-10T07:35:31Z</time>
      </trkpt>
      <trkpt lat="43.39898" lon="6.6605">
        <ele>107.19999694824</ele>
        <time>2008-10-10T07:35:44Z</time>
      </trkpt>
      <trkpt lat="43.39909" lon="6.66004">
        <ele>110.19999694824</ele>
        <time>2008-10-10T07:36:01Z</time>
      </trkpt>
      <trkpt lat="43.39915" lon="6.65947">
        <ele>113</ele>
        <time>2008-10-10T07:36:19Z</time>
      </trkpt>
      <trkpt lat="43.39911" lon="6.65887">
        <ele>117.19999694824</ele>
        <time>2008-10-10T07:36:40Z</time>
      </trkpt>
      <trkpt lat="43.39916" lon="6.6584">
        <ele>120.19999694824</ele>
        <time>2008-10-10T07:36:55Z</time>
      </trkpt>
      <trkpt lat="43.39939" lon="6.65816">
        <ele>123.40000152588</ele>
        <time>2008-10-10T07:37:09Z</time>
      </trkpt>
      <trkpt lat="43.39973" lon="6.65794">
        <ele>126.40000152588</ele>
        <time>2008-10-10T07:37:27Z</time>
      </trkpt>
      <trkpt lat="43.40006" lon="6.65769">
        <ele>129.80000305176</ele>
        <time>2008-10-10T07:37:45Z</time>
      </trkpt>
      <trkpt lat="43.40024" lon="6.65723">
        <ele>133.19999694824</ele>
        <time>2008-10-10T07:38:03Z</time>
      </trkpt>
      <trkpt lat="43.40033" lon="6.65674">
        <ele>136.39999389648</ele>
        <time>2008-10-10T07:38:21Z</time>
      </trkpt>
      <trkpt lat="43.40031" lon="6.65631">
        <ele>139.39999389648</ele>
        <time>2008-10-10T07:38:37Z</time>
      </trkpt>
      <trkpt lat="43.40023" lon="6.65589">
        <ele>142.39999389648</ele>
        <time>2008-10-10T07:38:53Z</time>
      </trkpt>
      <trkpt lat="43.40012" lon="6.65554">
        <ele>146.60000610352</ele>
        <time>2008-10-10T07:39:08Z</time>
      </trkpt>
      <trkpt lat="43.39988" lon="6.65511">
        <ele>149.39999389648</ele>
        <time>2008-10-10T07:39:26Z</time>
      </trkpt>
      <trkpt lat="43.39953" lon="6.65485">
        <ele>152.39999389648</ele>
        <time>2008-10-10T07:39:44Z</time>
      </trkpt>
      <trkpt lat="43.39919" lon="6.65473">
        <ele>155.39999389648</ele>
        <time>2008-10-10T07:40:00Z</time>
      </trkpt>
      <trkpt lat="43.39896" lon="6.65446">
        <ele>157.39999389648</ele>
        <time>2008-10-10T07:40:13Z</time>
      </trkpt>
      <trkpt lat="43.3989" lon="6.65407">
        <ele>158.39999389648</ele>
        <time>2008-10-10T07:40:27Z</time>
      </trkpt>
      <trkpt lat="43.39889" lon="6.65393">
        <ele>160.19999694824</ele>
        <time>2008-10-10T07:40:31Z</time>
      </trkpt>
      <trkpt lat="43.39881" lon="6.65352">
        <ele>162.60000610352</ele>
        <time>2008-10-10T07:40:45Z</time>
      </trkpt>
      <trkpt lat="43.39856" lon="6.65343">
        <ele>164.39999389648</ele>
        <time>2008-10-10T07:40:57Z</time>
      </trkpt>
      <trkpt lat="43.39827" lon="6.65317">
        <ele>167</ele>
        <time>2008-10-10T07:41:13Z</time>
      </trkpt>
      <trkpt lat="43.39804" lon="6.6529">
        <ele>169</ele>
        <time>2008-10-10T07:41:28Z</time>
      </trkpt>
      <trkpt lat="43.39784" lon="6.65313">
        <ele>170.19999694824</ele>
        <time>2008-10-10T07:41:39Z</time>
      </trkpt>
      <trkpt lat="43.39753" lon="6.65333">
        <ele>171.39999389648</ele>
        <time>2008-10-10T07:41:50Z</time>
      </trkpt>
      <trkpt lat="43.39719" lon="6.65365">
        <ele>173.39999389648</ele>
        <time>2008-10-10T07:42:05Z</time>
      </trkpt>
      <trkpt lat="43.39687" lon="6.65406">
        <ele>175.60000610352</ele>
        <time>2008-10-10T07:42:22Z</time>
      </trkpt>
      <trkpt lat="43.39657" lon="6.65406">
        <ele>177.39999389648</ele>
        <time>2008-10-10T07:42:34Z</time>
      </trkpt>
      <trkpt lat="43.3962" lon="6.65371">
        <ele>179</ele>
        <time>2008-10-10T07:42:50Z</time>
      </trkpt>
      <trkpt lat="43.39591" lon="6.65335">
        <ele>178.80000305176</ele>
        <time>2008-10-10T07:43:01Z</time>
      </trkpt>
      <trkpt lat="43.39563" lon="6.65307">
        <ele>179.19999694824</ele>
        <time>2008-10-10T07:43:10Z</time>
      </trkpt>
      <trkpt lat="43.39522" lon="6.65283">
        <ele>180.39999389648</ele>
        <time>2008-10-10T07:43:22Z</time>
      </trkpt>
      <trkpt lat="43.39495" lon="6.65264">
        <ele>182.80000305176</ele>
        <time>2008-10-10T07:43:35Z</time>
      </trkpt>
      <trkpt lat="43.39475" lon="6.65248">
        <ele>185</ele>
        <time>2008-10-10T07:43:46Z</time>
      </trkpt>
      <trkpt lat="43.39452" lon="6.65228">
        <ele>186.60000610352</ele>
        <time>2008-10-10T07:43:58Z</time>
      </trkpt>
      <trkpt lat="43.39463" lon="6.65214">
        <ele>189.19999694824</ele>
        <time>2008-10-10T07:44:08Z</time>
      </trkpt>
      <trkpt lat="43.39487" lon="6.65215">
        <ele>192.19999694824</ele>
        <time>2008-10-10T07:44:23Z</time>
      </trkpt>
      <trkpt lat="43.3951" lon="6.65215">
        <ele>196.39999389648</ele>
        <time>2008-10-10T07:44:40Z</time>
      </trkpt>
      <trkpt lat="43.39531" lon="6.65211">
        <ele>199.19999694824</ele>
        <time>2008-10-10T07:44:55Z</time>
      </trkpt>
      <trkpt lat="43.39558" lon="6.65213">
        <ele>201.39999389648</ele>
        <time>2008-10-10T07:45:11Z</time>
      </trkpt>
      <trkpt lat="43.39583" lon="6.65213">
        <ele>206.39999389648</ele>
        <time>2008-10-10T07:45:30Z</time>
      </trkpt>
      <trkpt lat="43.39605" lon="6.65214">
        <ele>210.19999694824</ele>
        <time>2008-10-10T07:45:47Z</time>
      </trkpt>
      <trkpt lat="43.39615" lon="6.65213">
        <ele>212.39999389648</ele>
        <time>2008-10-10T07:45:56Z</time>
      </trkpt>
      <trkpt lat="43.39617" lon="6.65213">
        <ele>213.19999694824</ele>
        <time>2008-10-10T07:45:58Z</time>
      </trkpt>
      <trkpt lat="43.39623" lon="6.6521">
        <ele>214.39999389648</ele>
        <time>2008-10-10T07:46:04Z</time>
      </trkpt>
      <trkpt lat="43.39641" lon="6.65202">
        <ele>218.39999389648</ele>
        <time>2008-10-10T07:46:20Z</time>
      </trkpt>
      <trkpt lat="43.39655" lon="6.65187">
        <ele>222</ele>
        <time>2008-10-10T07:46:35Z</time>
      </trkpt>
      <trkpt lat="43.39666" lon="6.65162">
        <ele>225.60000610352</ele>
        <time>2008-10-10T07:46:52Z</time>
      </trkpt>
      <trkpt lat="43.39679" lon="6.65132">
        <ele>228.39999389648</ele>
        <time>2008-10-10T07:47:10Z</time>
      </trkpt>
      <trkpt lat="43.39693" lon="6.65087">
        <ele>231.39999389648</ele>
        <time>2008-10-10T07:47:31Z</time>
      </trkpt>
      <trkpt lat="43.397" lon="6.65067">
        <ele>233</ele>
        <time>2008-10-10T07:47:41Z</time>
      </trkpt>
      <trkpt lat="43.39711" lon="6.65047">
        <ele>234.39999389648</ele>
        <time>2008-10-10T07:47:52Z</time>
      </trkpt>
      <trkpt lat="43.3973" lon="6.65035">
        <ele>235.60000610352</ele>
        <time>2008-10-10T07:48:05Z</time>
      </trkpt>
      <trkpt lat="43.39757" lon="6.65024">
        <ele>239</ele>
        <time>2008-10-10T07:48:23Z</time>
      </trkpt>
      <trkpt lat="43.39783" lon="6.65007">
        <ele>242.39999389648</ele>
        <time>2008-10-10T07:48:43Z</time>
      </trkpt>
      <trkpt lat="43.39797" lon="6.65004">
        <ele>244.39999389648</ele>
        <time>2008-10-10T07:48:54Z</time>
      </trkpt>
      <trkpt lat="43.3982" lon="6.65001">
        <ele>247.80000305176</ele>
        <time>2008-10-10T07:49:11Z</time>
      </trkpt>
      <trkpt lat="43.39843" lon="6.64989">
        <ele>251.80000305176</ele>
        <time>2008-10-10T07:49:28Z</time>
      </trkpt>
      <trkpt lat="43.39859" lon="6.64976">
        <ele>254.19999694824</ele>
        <time>2008-10-10T07:49:41Z</time>
      </trkpt>
      <trkpt lat="43.3988" lon="6.64964">
        <ele>257.60000610352</ele>
        <time>2008-10-10T07:49:57Z</time>
      </trkpt>
      <trkpt lat="43.39903" lon="6.64957">
        <ele>260.20001220703</ele>
        <time>2008-10-10T07:50:14Z</time>
      </trkpt>
      <trkpt lat="43.39926" lon="6.64947">
        <ele>264.20001220703</ele>
        <time>2008-10-10T07:50:32Z</time>
      </trkpt>
      <trkpt lat="43.39941" lon="6.64935">
        <ele>268</ele>
        <time>2008-10-10T07:50:48Z</time>
      </trkpt>
      <trkpt lat="43.39956" lon="6.64933">
        <ele>271</ele>
        <time>2008-10-10T07:51:03Z</time>
      </trkpt>
      <trkpt lat="43.39971" lon="6.64933">
        <ele>274.60000610352</ele>
        <time>2008-10-10T07:51:22Z</time>
      </trkpt>
      <trkpt lat="43.3999" lon="6.64939">
        <ele>279</ele>
        <time>2008-10-10T07:51:44Z</time>
      </trkpt>
      <trkpt lat="43.40006" lon="6.64937">
        <ele>282.60000610352</ele>
        <time>2008-10-10T07:52:02Z</time>
      </trkpt>
      <trkpt lat="43.40021" lon="6.64934">
        <ele>285.79998779297</ele>
        <time>2008-10-10T07:52:20Z</time>
      </trkpt>
      <trkpt lat="43.40034" lon="6.64925">
        <ele>288.39999389648</ele>
        <time>2008-10-10T07:52:35Z</time>
      </trkpt>
      <trkpt lat="43.40047" lon="6.64913">
        <ele>292</ele>
        <time>2008-10-10T07:52:55Z</time>
      </trkpt>
      <trkpt lat="43.40057" lon="6.64901">
        <ele>295.20001220703</ele>
        <time>2008-10-10T07:53:13Z</time>
      </trkpt>
      <trkpt lat="43.40073" lon="6.64885">
        <ele>298.60000610352</ele>
        <time>2008-10-10T07:53:34Z</time>
      </trkpt>
      <trkpt lat="43.40096" lon="6.64869">
        <ele>300.60000610352</ele>
        <time>2008-10-10T07:53:51Z</time>
      </trkpt>
      <trkpt lat="43.40126" lon="6.64835">
        <ele>301.39999389648</ele>
        <time>2008-10-10T07:54:07Z</time>
      </trkpt>
      <trkpt lat="43.40145" lon="6.64803">
        <ele>300.20001220703</ele>
        <time>2008-10-10T07:54:15Z</time>
      </trkpt>
      <trkpt lat="43.40159" lon="6.64781">
        <ele>298.79998779297</ele>
        <time>2008-10-10T07:54:19Z</time>
      </trkpt>
      <trkpt lat="43.40182" lon="6.64762">
        <ele>297</ele>
        <time>2008-10-10T07:54:23Z</time>
      </trkpt>
      <trkpt lat="43.40197" lon="6.64758">
        <ele>295.79998779297</ele>
        <time>2008-10-10T07:54:25Z</time>
      </trkpt>
      <trkpt lat="43.40249" lon="6.64751">
        <ele>293.79998779297</ele>
        <time>2008-10-10T07:54:31Z</time>
      </trkpt>
      <trkpt lat="43.4028" lon="6.64744">
        <ele>293.60000610352</ele>
        <time>2008-10-10T07:54:35Z</time>
      </trkpt>
      <trkpt lat="43.40303" lon="6.64739">
        <ele>294</ele>
        <time>2008-10-10T07:54:39Z</time>
      </trkpt>
      <trkpt lat="43.40333" lon="6.6474">
        <ele>293.20001220703</ele>
        <time>2008-10-10T07:54:45Z</time>
      </trkpt>
      <trkpt lat="43.40369" lon="6.64753">
        <ele>291</ele>
        <time>2008-10-10T07:54:50Z</time>
      </trkpt>
      <trkpt lat="43.40448" lon="6.64777">
        <ele>289.39999389648</ele>
        <time>2008-10-10T07:55:02Z</time>
      </trkpt>
      <trkpt lat="43.40484" lon="6.64785">
        <ele>288</ele>
        <time>2008-10-10T07:55:07Z</time>
      </trkpt>
      <trkpt lat="43.4052" lon="6.64788">
        <ele>285.79998779297</ele>
        <time>2008-10-10T07:55:12Z</time>
      </trkpt>
      <trkpt lat="43.40606" lon="6.64808">
        <ele>284.79998779297</ele>
        <time>2008-10-10T07:55:25Z</time>
      </trkpt>
      <trkpt lat="43.4066" lon="6.64819">
        <ele>286.79998779297</ele>
        <time>2008-10-10T07:55:36Z</time>
      </trkpt>
      <trkpt lat="43.40687" lon="6.64826">
        <ele>287.60000610352</ele>
        <time>2008-10-10T07:55:42Z</time>
      </trkpt>
      <trkpt lat="43.40706" lon="6.64832">
        <ele>289.20001220703</ele>
        <time>2008-10-10T07:55:47Z</time>
      </trkpt>
      <trkpt lat="43.40721" lon="6.64837">
        <ele>289.20001220703</ele>
        <time>2008-10-10T07:55:51Z</time>
      </trkpt>
      <trkpt lat="43.40732" lon="6.64845">
        <ele>289</ele>
        <time>2008-10-10T07:55:54Z</time>
      </trkpt>
      <trkpt lat="43.40749" lon="6.64869">
        <ele>290.20001220703</ele>
        <time>2008-10-10T07:56:00Z</time>
      </trkpt>
      <trkpt lat="43.40767" lon="6.64901">
        <ele>291.60000610352</ele>
        <time>2008-10-10T07:56:12Z</time>
      </trkpt>
      <trkpt lat="43.40778" lon="6.64936">
        <ele>295</ele>
        <time>2008-10-10T07:56:29Z</time>
      </trkpt>
      <trkpt lat="43.40784" lon="6.64977">
        <ele>298.39999389648</ele>
        <time>2008-10-10T07:56:48Z</time>
      </trkpt>
      <trkpt lat="43.40787" lon="6.65035">
        <ele>300</ele>
        <time>2008-10-10T07:57:05Z</time>
      </trkpt>
      <trkpt lat="43.40794" lon="6.65101">
        <ele>299.79998779297</ele>
        <time>2008-10-10T07:57:20Z</time>
      </trkpt>
      <trkpt lat="43.40795" lon="6.65157">
        <ele>295.60000610352</ele>
        <time>2008-10-10T07:57:28Z</time>
      </trkpt>
      <trkpt lat="43.40807" lon="6.65185">
        <ele>294.79998779297</ele>
        <time>2008-10-10T07:57:33Z</time>
      </trkpt>
      <trkpt lat="43.40835" lon="6.65194">
        <ele>296.39999389648</ele>
        <time>2008-10-10T07:57:41Z</time>
      </trkpt>
      <trkpt lat="43.40866" lon="6.65198">
        <ele>297</ele>
        <time>2008-10-10T07:57:49Z</time>
      </trkpt>
      <trkpt lat="43.40892" lon="6.65228">
        <ele>297.39999389648</ele>
        <time>2008-10-10T07:57:58Z</time>
      </trkpt>
      <trkpt lat="43.40913" lon="6.65239">
        <ele>298</ele>
        <time>2008-10-10T07:58:03Z</time>
      </trkpt>
      <trkpt lat="43.40953" lon="6.65258">
        <ele>299</ele>
        <time>2008-10-10T07:58:13Z</time>
      </trkpt>
      <trkpt lat="43.40977" lon="6.65268">
        <ele>298.20001220703</ele>
        <time>2008-10-10T07:58:19Z</time>
      </trkpt>
      <trkpt lat="43.40994" lon="6.65283">
        <ele>296.39999389648</ele>
        <time>2008-10-10T07:58:23Z</time>
      </trkpt>
      <trkpt lat="43.41011" lon="6.65293">
        <ele>295.39999389648</ele>
        <time>2008-10-10T07:58:26Z</time>
      </trkpt>
      <trkpt lat="43.41029" lon="6.65308">
        <ele>292</ele>
        <time>2008-10-10T07:58:30Z</time>
      </trkpt>
      <trkpt lat="43.41056" lon="6.6532">
        <ele>286.60000610352</ele>
        <time>2008-10-10T07:58:36Z</time>
      </trkpt>
      <trkpt lat="43.41061" lon="6.65318">
        <ele>286.20001220703</ele>
        <time>2008-10-10T07:58:37Z</time>
      </trkpt>
      <trkpt lat="43.41079" lon="6.6531">
        <ele>284</ele>
        <time>2008-10-10T07:58:41Z</time>
      </trkpt>
      <trkpt lat="43.41101" lon="6.65302">
        <ele>280.60000610352</ele>
        <time>2008-10-10T07:58:45Z</time>
      </trkpt>
      <trkpt lat="43.41106" lon="6.65299">
        <ele>279.60000610352</ele>
        <time>2008-10-10T07:58:46Z</time>
      </trkpt>
      <trkpt lat="43.41121" lon="6.65281">
        <ele>278.39999389648</ele>
        <time>2008-10-10T07:58:50Z</time>
      </trkpt>
      <trkpt lat="43.41135" lon="6.65265">
        <ele>277.60000610352</ele>
        <time>2008-10-10T07:58:54Z</time>
      </trkpt>
      <trkpt lat="43.41157" lon="6.65254">
        <ele>275.20001220703</ele>
        <time>2008-10-10T07:58:58Z</time>
      </trkpt>
      <trkpt lat="43.41191" lon="6.65234">
        <ele>273.20001220703</ele>
        <time>2008-10-10T07:59:06Z</time>
      </trkpt>
      <trkpt lat="43.41194" lon="6.65232">
        <ele>273.20001220703</ele>
        <time>2008-10-10T07:59:08Z</time>
      </trkpt>
      <trkpt lat="43.4121" lon="6.65247">
        <ele>268</ele>
        <time>2008-10-10T07:59:15Z</time>
      </trkpt>
      <trkpt lat="43.41231" lon="6.65282">
        <ele>256.39999389648</ele>
        <time>2008-10-10T07:59:26Z</time>
      </trkpt>
      <trkpt lat="43.41235" lon="6.6529">
        <ele>253.80000305176</ele>
        <time>2008-10-10T07:59:28Z</time>
      </trkpt>
      <trkpt lat="43.41243" lon="6.65293">
        <ele>251.80000305176</ele>
        <time>2008-10-10T07:59:31Z</time>
      </trkpt>
      <trkpt lat="43.4125" lon="6.65289">
        <ele>250.60000610352</ele>
        <time>2008-10-10T07:59:35Z</time>
      </trkpt>
      <trkpt lat="43.41261" lon="6.65298">
        <ele>246.19999694824</ele>
        <time>2008-10-10T07:59:42Z</time>
      </trkpt>
      <trkpt lat="43.41278" lon="6.65312">
        <ele>239.60000610352</ele>
        <time>2008-10-10T07:59:52Z</time>
      </trkpt>
      <trkpt lat="43.41282" lon="6.65309">
        <ele>238</ele>
        <time>2008-10-10T07:59:57Z</time>
      </trkpt>
      <trkpt lat="43.41285" lon="6.6531">
        <ele>237</ele>
        <time>2008-10-10T08:00:01Z</time>
      </trkpt>
      <trkpt lat="43.41293" lon="6.65313">
        <ele>233.80000305176</ele>
        <time>2008-10-10T08:00:07Z</time>
      </trkpt>
      <trkpt lat="43.41295" lon="6.65322">
        <ele>232.60000610352</ele>
        <time>2008-10-10T08:00:10Z</time>
      </trkpt>
      <trkpt lat="43.41299" lon="6.65345">
        <ele>231.39999389648</ele>
        <time>2008-10-10T08:00:17Z</time>
      </trkpt>
      <trkpt lat="43.41312" lon="6.65373">
        <ele>226.19999694824</ele>
        <time>2008-10-10T08:00:23Z</time>
      </trkpt>
      <trkpt lat="43.41314" lon="6.65378">
        <ele>225.60000610352</ele>
        <time>2008-10-10T08:00:24Z</time>
      </trkpt>
      <trkpt lat="43.41331" lon="6.65394">
        <ele>222.19999694824</ele>
        <time>2008-10-10T08:00:28Z</time>
      </trkpt>
      <trkpt lat="43.41348" lon="6.65405">
        <ele>219.19999694824</ele>
        <time>2008-10-10T08:00:33Z</time>
      </trkpt>
      <trkpt lat="43.41351" lon="6.65413">
        <ele>218.39999389648</ele>
        <time>2008-10-10T08:00:35Z</time>
      </trkpt>
      <trkpt lat="43.41355" lon="6.65426">
        <ele>218.39999389648</ele>
        <time>2008-10-10T08:00:38Z</time>
      </trkpt>
      <trkpt lat="43.41348" lon="6.65452">
        <ele>216.39999389648</ele>
        <time>2008-10-10T08:00:45Z</time>
      </trkpt>
      <trkpt lat="43.41351" lon="6.65462">
        <ele>215.80000305176</ele>
        <time>2008-10-10T08:00:47Z</time>
      </trkpt>
      <trkpt lat="43.41355" lon="6.65472">
        <ele>215</ele>
        <time>2008-10-10T08:00:49Z</time>
      </trkpt>
      <trkpt lat="43.41361" lon="6.65495">
        <ele>213</ele>
        <time>2008-10-10T08:00:53Z</time>
      </trkpt>
      <trkpt lat="43.41365" lon="6.65515">
        <ele>210.80000305176</ele>
        <time>2008-10-10T08:00:57Z</time>
      </trkpt>
      <trkpt lat="43.41367" lon="6.65524">
        <ele>209</ele>
        <time>2008-10-10T08:00:59Z</time>
      </trkpt>
      <trkpt lat="43.4138" lon="6.65543">
        <ele>204.80000305176</ele>
        <time>2008-10-10T08:01:06Z</time>
      </trkpt>
      <trkpt lat="43.41385" lon="6.65554">
        <ele>202</ele>
        <time>2008-10-10T08:01:10Z</time>
      </trkpt>
      <trkpt lat="43.41394" lon="6.6557">
        <ele>196.80000305176</ele>
        <time>2008-10-10T08:01:17Z</time>
      </trkpt>
      <trkpt lat="43.41397" lon="6.65577">
        <ele>194.80000305176</ele>
        <time>2008-10-10T08:01:20Z</time>
      </trkpt>
      <trkpt lat="43.41397" lon="6.65598">
        <ele>189.80000305176</ele>
        <time>2008-10-10T08:01:26Z</time>
      </trkpt>
      <trkpt lat="43.414" lon="6.6561">
        <ele>188.39999389648</ele>
        <time>2008-10-10T08:01:29Z</time>
      </trkpt>
      <trkpt lat="43.41405" lon="6.65622">
        <ele>186.19999694824</ele>
        <time>2008-10-10T08:01:33Z</time>
      </trkpt>
      <trkpt lat="43.41405" lon="6.65648">
        <ele>182</ele>
        <time>2008-10-10T08:01:46Z</time>
      </trkpt>
      <trkpt lat="43.41403" lon="6.65664">
        <ele>179.60000610352</ele>
        <time>2008-10-10T08:01:53Z</time>
      </trkpt>
      <trkpt lat="43.41405" lon="6.6568">
        <ele>176.80000305176</ele>
        <time>2008-10-10T08:01:59Z</time>
      </trkpt>
      <trkpt lat="43.41402" lon="6.65687">
        <ele>175.80000305176</ele>
        <time>2008-10-10T08:02:05Z</time>
      </trkpt>
      <trkpt lat="43.41403" lon="6.65686">
        <ele>175.39999389648</ele>
        <time>2008-10-10T08:02:08Z</time>
      </trkpt>
      <trkpt lat="43.41404" lon="6.65698">
        <ele>173.19999694824</ele>
        <time>2008-10-10T08:02:16Z</time>
      </trkpt>
      <trkpt lat="43.41402" lon="6.65702">
        <ele>172.60000610352</ele>
        <time>2008-10-10T08:02:20Z</time>
      </trkpt>
      <trkpt lat="43.41403" lon="6.65705">
        <ele>171.60000610352</ele>
        <time>2008-10-10T08:02:25Z</time>
      </trkpt>
      <trkpt lat="43.41401" lon="6.65713">
        <ele>170.39999389648</ele>
        <time>2008-10-10T08:02:31Z</time>
      </trkpt>
      <trkpt lat="43.41402" lon="6.65715">
        <ele>170</ele>
        <time>2008-10-10T08:02:34Z</time>
      </trkpt>
      <trkpt lat="43.41399" lon="6.65723">
        <ele>168.39999389648</ele>
        <time>2008-10-10T08:02:58Z</time>
      </trkpt>
      <trkpt lat="43.41399" lon="6.65725">
        <ele>168.19999694824</ele>
        <time>2008-10-10T08:02:59Z</time>
      </trkpt>
      <trkpt lat="43.41398" lon="6.65736">
        <ele>165.39999389648</ele>
        <time>2008-10-10T08:03:04Z</time>
      </trkpt>
      <trkpt lat="43.41395" lon="6.65746">
        <ele>163.39999389648</ele>
        <time>2008-10-10T08:03:09Z</time>
      </trkpt>
      <trkpt lat="43.41393" lon="6.6577">
        <ele>159.19999694824</ele>
        <time>2008-10-10T08:03:16Z</time>
      </trkpt>
      <trkpt lat="43.41391" lon="6.65782">
        <ele>157.19999694824</ele>
        <time>2008-10-10T08:03:19Z</time>
      </trkpt>
      <trkpt lat="43.41392" lon="6.65786">
        <ele>156.39999389648</ele>
        <time>2008-10-10T08:03:20Z</time>
      </trkpt>
      <trkpt lat="43.41393" lon="6.65796">
        <ele>155.39999389648</ele>
        <time>2008-10-10T08:03:22Z</time>
      </trkpt>
      <trkpt lat="43.41395" lon="6.65813">
        <ele>152.60000610352</ele>
        <time>2008-10-10T08:03:26Z</time>
      </trkpt>
      <trkpt lat="43.41395" lon="6.65827">
        <ele>149.60000610352</ele>
        <time>2008-10-10T08:03:31Z</time>
      </trkpt>
      <trkpt lat="43.414" lon="6.65863">
        <ele>142</ele>
        <time>2008-10-10T08:03:44Z</time>
      </trkpt>
      <trkpt lat="43.41411" lon="6.65888">
        <ele>137</ele>
        <time>2008-10-10T08:03:55Z</time>
      </trkpt>
      <trkpt lat="43.41427" lon="6.65886">
        <ele>135</ele>
        <time>2008-10-10T08:04:04Z</time>
      </trkpt>
      <trkpt lat="43.41427" lon="6.65886">
        <ele>134.80000305176</ele>
        <time>2008-10-10T08:04:06Z</time>
      </trkpt>
      <trkpt lat="43.41441" lon="6.65892">
        <ele>132</ele>
        <time>2008-10-10T08:04:52Z</time>
      </trkpt>
      <trkpt lat="43.41444" lon="6.65895">
        <ele>131.19999694824</ele>
        <time>2008-10-10T08:05:02Z</time>
      </trkpt>
      <trkpt lat="43.41447" lon="6.65898">
        <ele>130.19999694824</ele>
        <time>2008-10-10T08:05:04Z</time>
      </trkpt>
      <trkpt lat="43.41448" lon="6.65907">
        <ele>128.19999694824</ele>
        <time>2008-10-10T08:05:12Z</time>
      </trkpt>
      <trkpt lat="43.41448" lon="6.65909">
        <ele>127.80000305176</ele>
        <time>2008-10-10T08:05:35Z</time>
      </trkpt>
      <trkpt lat="43.4145" lon="6.65914">
        <ele>126.40000152588</ele>
        <time>2008-10-10T08:05:38Z</time>
      </trkpt>
      <trkpt lat="43.41451" lon="6.65916">
        <ele>126.19999694824</ele>
        <time>2008-10-10T08:05:39Z</time>
      </trkpt>
      <trkpt lat="43.41456" lon="6.65929">
        <ele>123.19999694824</ele>
        <time>2008-10-10T08:05:44Z</time>
      </trkpt>
      <trkpt lat="43.41455" lon="6.65935">
        <ele>122</ele>
        <time>2008-10-10T08:05:46Z</time>
      </trkpt>
      <trkpt lat="43.4146" lon="6.65951">
        <ele>118.59999847412</ele>
        <time>2008-10-10T08:05:57Z</time>
      </trkpt>
      <trkpt lat="43.41462" lon="6.65955">
        <ele>118</ele>
        <time>2008-10-10T08:06:07Z</time>
      </trkpt>
      <trkpt lat="43.41465" lon="6.65961">
        <ele>116.59999847412</ele>
        <time>2008-10-10T08:06:13Z</time>
      </trkpt>
      <trkpt lat="43.4146" lon="6.65974">
        <ele>113.59999847412</ele>
        <time>2008-10-10T08:06:28Z</time>
      </trkpt>
      <trkpt lat="43.41458" lon="6.65976">
        <ele>113.19999694824</ele>
        <time>2008-10-10T08:06:35Z</time>
      </trkpt>
      <trkpt lat="43.41458" lon="6.65976">
        <ele>113</ele>
        <time>2008-10-10T08:06:36Z</time>
      </trkpt>
      <trkpt lat="43.4145" lon="6.65977">
        <ele>111.40000152588</ele>
        <time>2008-10-10T08:07:02Z</time>
      </trkpt>
      <trkpt lat="43.41447" lon="6.6598">
        <ele>110.19999694824</ele>
        <time>2008-10-10T08:07:04Z</time>
      </trkpt>
      <trkpt lat="43.41445" lon="6.65982">
        <ele>109.80000305176</ele>
        <time>2008-10-10T08:07:05Z</time>
      </trkpt>
      <trkpt lat="43.41442" lon="6.6599">
        <ele>107.59999847412</ele>
        <time>2008-10-10T08:07:08Z</time>
      </trkpt>
      <trkpt lat="43.41435" lon="6.65993">
        <ele>106.19999694824</ele>
        <time>2008-10-10T08:07:11Z</time>
      </trkpt>
      <trkpt lat="43.41425" lon="6.65995">
        <ele>105.80000305176</ele>
        <time>2008-10-10T08:07:17Z</time>
      </trkpt>
      <trkpt lat="43.41424" lon="6.65999">
        <ele>104.80000305176</ele>
        <time>2008-10-10T08:07:19Z</time>
      </trkpt>
      <trkpt lat="43.41409" lon="6.66005">
        <ele>103.59999847412</ele>
        <time>2008-10-10T08:07:28Z</time>
      </trkpt>
      <trkpt lat="43.4138" lon="6.66018">
        <ele>102.19999694824</ele>
        <time>2008-10-10T08:07:54Z</time>
      </trkpt>
      <trkpt lat="43.41372" lon="6.66035">
        <ele>102.59999847412</ele>
        <time>2008-10-10T08:08:03Z</time>
      </trkpt>
      <trkpt lat="43.41372" lon="6.66035">
        <ele>102.59999847412</ele>
        <time>2008-10-10T08:08:04Z</time>
      </trkpt>
      <trkpt lat="43.41367" lon="6.6604">
        <ele>102.40000152588</ele>
        <time>2008-10-10T08:08:12Z</time>
      </trkpt>
      <trkpt lat="43.41353" lon="6.66054">
        <ele>97.400001525879</ele>
        <time>2008-10-10T08:08:21Z</time>
      </trkpt>
      <trkpt lat="43.41354" lon="6.66075">
        <ele>94.199996948242</ele>
        <time>2008-10-10T08:08:26Z</time>
      </trkpt>
      <trkpt lat="43.41355" lon="6.66092">
        <ele>92.800003051758</ele>
        <time>2008-10-10T08:08:29Z</time>
      </trkpt>
      <trkpt lat="43.41346" lon="6.66117">
        <ele>90.199996948242</ele>
        <time>2008-10-10T08:08:37Z</time>
      </trkpt>
      <trkpt lat="43.41332" lon="6.66128">
        <ele>88.400001525879</ele>
        <time>2008-10-10T08:08:43Z</time>
      </trkpt>
      <trkpt lat="43.41323" lon="6.66133">
        <ele>88.199996948242</ele>
        <time>2008-10-10T08:08:46Z</time>
      </trkpt>
      <trkpt lat="43.41306" lon="6.6615">
        <ele>85.599998474121</ele>
        <time>2008-10-10T08:08:56Z</time>
      </trkpt>
      <trkpt lat="43.41302" lon="6.66152">
        <ele>85.199996948242</ele>
        <time>2008-10-10T08:09:02Z</time>
      </trkpt>
      <trkpt lat="43.41298" lon="6.66158">
        <ele>84.199996948242</ele>
        <time>2008-10-10T08:09:10Z</time>
      </trkpt>
      <trkpt lat="43.4129" lon="6.66166">
        <ele>83.400001525879</ele>
        <time>2008-10-10T08:09:20Z</time>
      </trkpt>
      <trkpt lat="43.41288" lon="6.66176">
        <ele>81.400001525879</ele>
        <time>2008-10-10T08:09:25Z</time>
      </trkpt>
      <trkpt lat="43.41284" lon="6.6618">
        <ele>80</ele>
        <time>2008-10-10T08:09:28Z</time>
      </trkpt>
      <trkpt lat="43.41283" lon="6.66187">
        <ele>78.199996948242</ele>
        <time>2008-10-10T08:09:33Z</time>
      </trkpt>
      <trkpt lat="43.41282" lon="6.66189">
        <ele>78.199996948242</ele>
        <time>2008-10-10T08:09:37Z</time>
      </trkpt>
      <trkpt lat="43.41279" lon="6.66192">
        <ele>76.800003051758</ele>
        <time>2008-10-10T08:09:40Z</time>
      </trkpt>
      <trkpt lat="43.41277" lon="6.66194">
        <ele>75.400001525879</ele>
        <time>2008-10-10T08:09:43Z</time>
      </trkpt>
      <trkpt lat="43.41272" lon="6.66198">
        <ele>73.400001525879</ele>
        <time>2008-10-10T08:09:49Z</time>
      </trkpt>
      <trkpt lat="43.41266" lon="6.66201">
        <ele>71.400001525879</ele>
        <time>2008-10-10T08:09:57Z</time>
      </trkpt>
      <trkpt lat="43.41257" lon="6.66211">
        <ele>71.599998474121</ele>
        <time>2008-10-10T08:10:07Z</time>
      </trkpt>
      <trkpt lat="43.41258" lon="6.66217">
        <ele>72.800003051758</ele>
        <time>2008-10-10T08:10:16Z</time>
      </trkpt>
      <trkpt lat="43.41259" lon="6.66224">
        <ele>75.199996948242</ele>
        <time>2008-10-10T08:10:27Z</time>
      </trkpt>
      <trkpt lat="43.4126" lon="6.66231">
        <ele>76.599998474121</ele>
        <time>2008-10-10T08:10:33Z</time>
      </trkpt>
      <trkpt lat="43.41261" lon="6.66234">
        <ele>77.800003051758</ele>
        <time>2008-10-10T08:10:36Z</time>
      </trkpt>
      <trkpt lat="43.41262" lon="6.66237">
        <ele>78.599998474121</ele>
        <time>2008-10-10T08:10:40Z</time>
      </trkpt>
      <trkpt lat="43.41263" lon="6.66243">
        <ele>80.199996948242</ele>
        <time>2008-10-10T08:10:47Z</time>
      </trkpt>
      <trkpt lat="43.41263" lon="6.66244">
        <ele>80.800003051758</ele>
        <time>2008-10-10T08:10:48Z</time>
      </trkpt>
      <trkpt lat="43.41265" lon="6.66247">
        <ele>81.199996948242</ele>
        <time>2008-10-10T08:10:52Z</time>
      </trkpt>
      <trkpt lat="43.41272" lon="6.66249">
        <ele>80.599998474121</ele>
        <time>2008-10-10T08:10:56Z</time>
      </trkpt>
      <trkpt lat="43.4131" lon="6.6626">
        <ele>76</ele>
        <time>2008-10-10T08:11:05Z</time>
      </trkpt>
      <trkpt lat="43.41342" lon="6.66316">
        <ele>67.800003051758</ele>
        <time>2008-10-10T08:11:14Z</time>
      </trkpt>
      <trkpt lat="43.41344" lon="6.66371">
        <ele>62</ele>
        <time>2008-10-10T08:11:19Z</time>
      </trkpt>
      <trkpt lat="43.41351" lon="6.66393">
        <ele>59.400001525879</ele>
        <time>2008-10-10T08:11:21Z</time>
      </trkpt>
      <trkpt lat="43.41361" lon="6.66412">
        <ele>57.599998474121</ele>
        <time>2008-10-10T08:11:23Z</time>
      </trkpt>
      <trkpt lat="43.41376" lon="6.66425">
        <ele>56.599998474121</ele>
        <time>2008-10-10T08:11:25Z</time>
      </trkpt>
      <trkpt lat="43.41392" lon="6.66434">
        <ele>55.200000762939</ele>
        <time>2008-10-10T08:11:27Z</time>
      </trkpt>
      <trkpt lat="43.41414" lon="6.66444">
        <ele>52</ele>
        <time>2008-10-10T08:11:30Z</time>
      </trkpt>
      <trkpt lat="43.41425" lon="6.66453">
        <ele>49.599998474121</ele>
        <time>2008-10-10T08:11:32Z</time>
      </trkpt>
      <trkpt lat="43.41432" lon="6.66467">
        <ele>46.799999237061</ele>
        <time>2008-10-10T08:11:34Z</time>
      </trkpt>
      <trkpt lat="43.41456" lon="6.66494">
        <ele>44.599998474121</ele>
        <time>2008-10-10T08:11:40Z</time>
      </trkpt>
      <trkpt lat="43.41461" lon="6.66494">
        <ele>44.400001525879</ele>
        <time>2008-10-10T08:11:41Z</time>
      </trkpt>
      <trkpt lat="43.41474" lon="6.66496">
        <ele>45.599998474121</ele>
        <time>2008-10-10T08:11:44Z</time>
      </trkpt>
      <trkpt lat="43.41478" lon="6.66496">
        <ele>45.799999237061</ele>
        <time>2008-10-10T08:11:45Z</time>
      </trkpt>
      <trkpt lat="43.41492" lon="6.66498">
        <ele>46.599998474121</ele>
        <time>2008-10-10T08:11:49Z</time>
      </trkpt>
      <trkpt lat="43.41518" lon="6.66504">
        <ele>48.799999237061</ele>
        <time>2008-10-10T08:11:57Z</time>
      </trkpt>
      <trkpt lat="43.41532" lon="6.66503">
        <ele>50</ele>
        <time>2008-10-10T08:12:01Z</time>
      </trkpt>
      <trkpt lat="43.41553" lon="6.665">
        <ele>51.599998474121</ele>
        <time>2008-10-10T08:12:08Z</time>
      </trkpt>
      <trkpt lat="43.41575" lon="6.66508">
        <ele>52.799999237061</ele>
        <time>2008-10-10T08:12:15Z</time>
      </trkpt>
      <trkpt lat="43.41595" lon="6.66491">
        <ele>52.200000762939</ele>
        <time>2008-10-10T08:12:21Z</time>
      </trkpt>
      <trkpt lat="43.41615" lon="6.66482">
        <ele>51</ele>
        <time>2008-10-10T08:12:25Z</time>
      </trkpt>
      <trkpt lat="43.41637" lon="6.66512">
        <ele>49.799999237061</ele>
        <time>2008-10-10T08:12:31Z</time>
      </trkpt>
      <trkpt lat="43.41655" lon="6.66517">
        <ele>49.400001525879</ele>
        <time>2008-10-10T08:12:35Z</time>
      </trkpt>
      <trkpt lat="43.41672" lon="6.66502">
        <ele>49.799999237061</ele>
        <time>2008-10-10T08:12:39Z</time>
      </trkpt>
      <trkpt lat="43.41686" lon="6.66493">
        <ele>50.400001525879</ele>
        <time>2008-10-10T08:12:42Z</time>
      </trkpt>
      <trkpt lat="43.41733" lon="6.66478">
        <ele>49.799999237061</ele>
        <time>2008-10-10T08:12:50Z</time>
      </trkpt>
      <trkpt lat="43.41746" lon="6.66502">
        <ele>49.200000762939</ele>
        <time>2008-10-10T08:12:56Z</time>
      </trkpt>
      <trkpt lat="43.41747" lon="6.66538">
        <ele>49.599998474121</ele>
        <time>2008-10-10T08:13:02Z</time>
      </trkpt>
      <trkpt lat="43.41757" lon="6.66555">
        <ele>49.599998474121</ele>
        <time>2008-10-10T08:13:05Z</time>
      </trkpt>
      <trkpt lat="43.41778" lon="6.66554">
        <ele>49.599998474121</ele>
        <time>2008-10-10T08:13:10Z</time>
      </trkpt>
      <trkpt lat="43.41824" lon="6.6651">
        <ele>48</ele>
        <time>2008-10-10T08:13:20Z</time>
      </trkpt>
      <trkpt lat="43.41837" lon="6.66506">
        <ele>47.400001525879</ele>
        <time>2008-10-10T08:13:22Z</time>
      </trkpt>
      <trkpt lat="43.41867" lon="6.66516">
        <ele>44.599998474121</ele>
        <time>2008-10-10T08:13:27Z</time>
      </trkpt>
      <trkpt lat="43.41879" lon="6.66514">
        <ele>43.599998474121</ele>
        <time>2008-10-10T08:13:30Z</time>
      </trkpt>
      <trkpt lat="43.41891" lon="6.66511">
        <ele>43</ele>
        <time>2008-10-10T08:13:39Z</time>
      </trkpt>
      <trkpt lat="43.41892" lon="6.66511">
        <ele>42.599998474121</ele>
        <time>2008-10-10T08:13:41Z</time>
      </trkpt>
      <trkpt lat="43.41895" lon="6.66511">
        <ele>42.400001525879</ele>
        <time>2008-10-10T08:14:33Z</time>
      </trkpt>
      <trkpt lat="43.41895" lon="6.66511">
        <ele>42.200000762939</ele>
        <time>2008-10-10T08:14:35Z</time>
      </trkpt>
      <trkpt lat="43.41906" lon="6.66505">
        <ele>40.599998474121</ele>
        <time>2008-10-10T08:15:17Z</time>
      </trkpt>
      <trkpt lat="43.41912" lon="6.66504">
        <ele>38.400001525879</ele>
        <time>2008-10-10T08:15:21Z</time>
      </trkpt>
      <trkpt lat="43.4192" lon="6.66499">
        <ele>35.400001525879</ele>
        <time>2008-10-10T08:15:30Z</time>
      </trkpt>
      <trkpt lat="43.41931" lon="6.66497">
        <ele>35.400001525879</ele>
        <time>2008-10-10T08:15:36Z</time>
      </trkpt>
      <trkpt lat="43.41944" lon="6.66485">
        <ele>34</ele>
        <time>2008-10-10T08:15:40Z</time>
      </trkpt>
      <trkpt lat="43.41948" lon="6.66482">
        <ele>32.799999237061</ele>
        <time>2008-10-10T08:15:41Z</time>
      </trkpt>
      <trkpt lat="43.41955" lon="6.66477">
        <ele>31.60000038147</ele>
        <time>2008-10-10T08:15:43Z</time>
      </trkpt>
      <trkpt lat="43.4197" lon="6.66468">
        <ele>29.200000762939</ele>
        <time>2008-10-10T08:15:47Z</time>
      </trkpt>
      <trkpt lat="43.41987" lon="6.6646">
        <ele>27</ele>
        <time>2008-10-10T08:15:56Z</time>
      </trkpt>
      <trkpt lat="43.41994" lon="6.6644">
        <ele>25.39999961853</ele>
        <time>2008-10-10T08:16:02Z</time>
      </trkpt>
      <trkpt lat="43.42003" lon="6.66428">
        <ele>22.60000038147</ele>
        <time>2008-10-10T08:16:07Z</time>
      </trkpt>
      <trkpt lat="43.42016" lon="6.66418">
        <ele>19.39999961853</ele>
        <time>2008-10-10T08:16:14Z</time>
      </trkpt>
      <trkpt lat="43.42018" lon="6.66414">
        <ele>18</ele>
        <time>2008-10-10T08:16:17Z</time>
      </trkpt>
      <trkpt lat="43.42018" lon="6.66414">
        <ele>17.60000038147</ele>
        <time>2008-10-10T08:16:18Z</time>
      </trkpt>
      <trkpt lat="43.4202" lon="6.66406">
        <ele>17</ele>
        <time>2008-10-10T08:16:36Z</time>
      </trkpt>
      <trkpt lat="43.4202" lon="6.6639">
        <ele>16.39999961853</ele>
        <time>2008-10-10T08:16:42Z</time>
      </trkpt>
      <trkpt lat="43.42026" lon="6.66368">
        <ele>16</ele>
        <time>2008-10-10T08:17:01Z</time>
      </trkpt>
      <trkpt lat="43.42031" lon="6.66371">
        <ele>16.799999237061</ele>
        <time>2008-10-10T08:17:05Z</time>
      </trkpt>
      <trkpt lat="43.42042" lon="6.66383">
        <ele>16.799999237061</ele>
        <time>2008-10-10T08:17:09Z</time>
      </trkpt>
      <trkpt lat="43.42046" lon="6.66386">
        <ele>16.799999237061</ele>
        <time>2008-10-10T08:17:10Z</time>
      </trkpt>
      <trkpt lat="43.4206" lon="6.66392">
        <ele>16.39999961853</ele>
        <time>2008-10-10T08:17:13Z</time>
      </trkpt>
      <trkpt lat="43.42077" lon="6.66395">
        <ele>16.39999961853</ele>
        <time>2008-10-10T08:17:16Z</time>
      </trkpt>
      <trkpt lat="43.42099" lon="6.66389">
        <ele>16.200000762939</ele>
        <time>2008-10-10T08:17:20Z</time>
      </trkpt>
      <trkpt lat="43.42113" lon="6.66386">
        <ele>16</ele>
        <time>2008-10-10T08:17:23Z</time>
      </trkpt>
      <trkpt lat="43.4213" lon="6.66376">
        <ele>16</ele>
        <time>2008-10-10T08:17:27Z</time>
      </trkpt>
      <trkpt lat="43.42141" lon="6.66379">
        <ele>15.60000038147</ele>
        <time>2008-10-10T08:17:30Z</time>
      </trkpt>
      <trkpt lat="43.42174" lon="6.66383">
        <ele>15.39999961853</ele>
        <time>2008-10-10T08:17:37Z</time>
      </trkpt>
      <trkpt lat="43.42195" lon="6.66385">
        <ele>15.39999961853</ele>
        <time>2008-10-10T08:17:41Z</time>
      </trkpt>
      <trkpt lat="43.42223" lon="6.66404">
        <ele>14.39999961853</ele>
        <time>2008-10-10T08:17:47Z</time>
      </trkpt>
      <trkpt lat="43.42233" lon="6.66407">
        <ele>15</ele>
        <time>2008-10-10T08:17:49Z</time>
      </trkpt>
      <trkpt lat="43.42257" lon="6.66421">
        <ele>14.800000190735</ele>
        <time>2008-10-10T08:17:54Z</time>
      </trkpt>
      <trkpt lat="43.42282" lon="6.66433">
        <ele>14.199999809265</ele>
        <time>2008-10-10T08:18:00Z</time>
      </trkpt>
      <trkpt lat="43.42286" lon="6.6644">
        <ele>13.39999961853</ele>
        <time>2008-10-10T08:18:02Z</time>
      </trkpt>
      <trkpt lat="43.423" lon="6.66466">
        <ele>13.800000190735</ele>
        <time>2008-10-10T08:18:07Z</time>
      </trkpt>
      <trkpt lat="43.4234" lon="6.66507">
        <ele>14.199999809265</ele>
        <time>2008-10-10T08:18:16Z</time>
      </trkpt>
      <trkpt lat="43.42362" lon="6.66522">
        <ele>14</ele>
        <time>2008-10-10T08:18:20Z</time>
      </trkpt>
      <trkpt lat="43.42466" lon="6.66523">
        <ele>13.39999961853</ele>
        <time>2008-10-10T08:18:36Z</time>
      </trkpt>
      <trkpt lat="43.42549" lon="6.66478">
        <ele>12.60000038147</ele>
        <time>2008-10-10T08:18:50Z</time>
      </trkpt>
      <trkpt lat="43.42579" lon="6.66464">
        <ele>12</ele>
        <time>2008-10-10T08:18:55Z</time>
      </trkpt>
      <trkpt lat="43.42597" lon="6.66458">
        <ele>12.60000038147</ele>
        <time>2008-10-10T08:18:58Z</time>
      </trkpt>
      <trkpt lat="43.42601" lon="6.66431">
        <ele>12.199999809265</ele>
        <time>2008-10-10T08:19:02Z</time>
      </trkpt>
      <trkpt lat="43.42583" lon="6.66375">
        <ele>12</ele>
        <time>2008-10-10T08:19:09Z</time>
      </trkpt>
      <trkpt lat="43.42588" lon="6.6633">
        <ele>13</ele>
        <time>2008-10-10T08:19:15Z</time>
      </trkpt>
      <trkpt lat="43.4266" lon="6.6622">
        <ele>14.199999809265</ele>
        <time>2008-10-10T08:19:33Z</time>
      </trkpt>
      <trkpt lat="43.42685" lon="6.66188">
        <ele>14</ele>
        <time>2008-10-10T08:19:39Z</time>
      </trkpt>
      <trkpt lat="43.42705" lon="6.66175">
        <ele>14</ele>
        <time>2008-10-10T08:19:43Z</time>
      </trkpt>
      <trkpt lat="43.42755" lon="6.66165">
        <ele>12.800000190735</ele>
        <time>2008-10-10T08:19:51Z</time>
      </trkpt>
      <trkpt lat="43.42844" lon="6.66105">
        <ele>12</ele>
        <time>2008-10-10T08:20:06Z</time>
      </trkpt>
      <trkpt lat="43.42905" lon="6.6607">
        <ele>12.60000038147</ele>
        <time>2008-10-10T08:20:18Z</time>
      </trkpt>
      <trkpt lat="43.42942" lon="6.66057">
        <ele>13.800000190735</ele>
        <time>2008-10-10T08:20:25Z</time>
      </trkpt>
      <trkpt lat="43.43012" lon="6.66033">
        <ele>16.60000038147</ele>
        <time>2008-10-10T08:20:39Z</time>
      </trkpt>
      <trkpt lat="43.43024" lon="6.66025">
        <ele>17.200000762939</ele>
        <time>2008-10-10T08:20:42Z</time>
      </trkpt>
      <trkpt lat="43.43077" lon="6.65975">
        <ele>14.800000190735</ele>
        <time>2008-10-10T08:20:52Z</time>
      </trkpt>
      <trkpt lat="43.43083" lon="6.65971">
        <ele>14.60000038147</ele>
        <time>2008-10-10T08:20:53Z</time>
      </trkpt>
      <trkpt lat="43.43158" lon="6.65936">
        <ele>13.60000038147</ele>
        <time>2008-10-10T08:21:05Z</time>
      </trkpt>
      <trkpt lat="43.43223" lon="6.65944">
        <ele>14.60000038147</ele>
        <time>2008-10-10T08:21:16Z</time>
      </trkpt>
      <trkpt lat="43.43245" lon="6.65944">
        <ele>15.39999961853</ele>
        <time>2008-10-10T08:21:20Z</time>
      </trkpt>
      <trkpt lat="43.43268" lon="6.65946">
        <ele>16</ele>
        <time>2008-10-10T08:21:24Z</time>
      </trkpt>
      <trkpt lat="43.43321" lon="6.65961">
        <ele>19.200000762939</ele>
        <time>2008-10-10T08:21:36Z</time>
      </trkpt>
      <trkpt lat="43.43341" lon="6.65962">
        <ele>20.60000038147</ele>
        <time>2008-10-10T08:21:41Z</time>
      </trkpt>
      <trkpt lat="43.43387" lon="6.65948">
        <ele>19</ele>
        <time>2008-10-10T08:21:49Z</time>
      </trkpt>
      <trkpt lat="43.43424" lon="6.65926">
        <ele>19.39999961853</ele>
        <time>2008-10-10T08:21:57Z</time>
      </trkpt>
      <trkpt lat="43.43441" lon="6.65912">
        <ele>19.200000762939</ele>
        <time>2008-10-10T08:22:01Z</time>
      </trkpt>
      <trkpt lat="43.43492" lon="6.65861">
        <ele>18.799999237061</ele>
        <time>2008-10-10T08:22:12Z</time>
      </trkpt>
      <trkpt lat="43.43503" lon="6.6585">
        <ele>18.60000038147</ele>
        <time>2008-10-10T08:22:15Z</time>
      </trkpt>
      <trkpt lat="43.43538" lon="6.65823">
        <ele>14.60000038147</ele>
        <time>2008-10-10T08:22:21Z</time>
      </trkpt>
      <trkpt lat="43.43552" lon="6.65811">
        <ele>13.800000190735</ele>
        <time>2008-10-10T08:22:23Z</time>
      </trkpt>
      <trkpt lat="43.43587" lon="6.65765">
        <ele>13.39999961853</ele>
        <time>2008-10-10T08:22:29Z</time>
      </trkpt>
      <trkpt lat="43.43618" lon="6.65723">
        <ele>15.60000038147</ele>
        <time>2008-10-10T08:22:37Z</time>
      </trkpt>
      <trkpt lat="43.43653" lon="6.65632">
        <ele>11.800000190735</ele>
        <time>2008-10-10T08:22:48Z</time>
      </trkpt>
      <trkpt lat="43.43666" lon="6.65594">
        <ele>11.199999809265</ele>
        <time>2008-10-10T08:22:52Z</time>
      </trkpt>
      <trkpt lat="43.43699" lon="6.65534">
        <ele>10.60000038147</ele>
        <time>2008-10-10T08:22:59Z</time>
      </trkpt>
      <trkpt lat="43.43723" lon="6.65435">
        <ele>10.800000190735</ele>
        <time>2008-10-10T08:23:10Z</time>
      </trkpt>
      <trkpt lat="43.43739" lon="6.65356">
        <ele>11.800000190735</ele>
        <time>2008-10-10T08:23:20Z</time>
      </trkpt>
      <trkpt lat="43.43742" lon="6.65335">
        <ele>12</ele>
        <time>2008-10-10T08:23:23Z</time>
      </trkpt>
      <trkpt lat="43.4375" lon="6.6527">
        <ele>12.60000038147</ele>
        <time>2008-10-10T08:23:32Z</time>
      </trkpt>
      <trkpt lat="43.43762" lon="6.65237">
        <ele>13.39999961853</ele>
        <time>2008-10-10T08:23:37Z</time>
      </trkpt>
      <trkpt lat="43.43775" lon="6.65193">
        <ele>14.39999961853</ele>
        <time>2008-10-10T08:23:44Z</time>
      </trkpt>
      <trkpt lat="43.43787" lon="6.65096">
        <ele>16.39999961853</ele>
        <time>2008-10-10T08:23:59Z</time>
      </trkpt>
      <trkpt lat="43.43834" lon="6.65024">
        <ele>19.200000762939</ele>
        <time>2008-10-10T08:24:15Z</time>
      </trkpt>
      <trkpt lat="43.43895" lon="6.64931">
        <ele>18.39999961853</ele>
        <time>2008-10-10T08:24:32Z</time>
      </trkpt>
      <trkpt lat="43.43949" lon="6.64855">
        <ele>15.39999961853</ele>
        <time>2008-10-10T08:24:43Z</time>
      </trkpt>
      <trkpt lat="43.43982" lon="6.64812">
        <ele>14</ele>
        <time>2008-10-10T08:24:49Z</time>
      </trkpt>
      <trkpt lat="43.44006" lon="6.64775">
        <ele>14</ele>
        <time>2008-10-10T08:24:54Z</time>
      </trkpt>
      <trkpt lat="43.44015" lon="6.6476">
        <ele>13.800000190735</ele>
        <time>2008-10-10T08:24:56Z</time>
      </trkpt>
      <trkpt lat="43.44078" lon="6.647">
        <ele>15.199999809265</ele>
        <time>2008-10-10T08:25:09Z</time>
      </trkpt>
      <trkpt lat="43.44106" lon="6.64686">
        <ele>18.39999961853</ele>
        <time>2008-10-10T08:25:18Z</time>
      </trkpt>
      <trkpt lat="43.44115" lon="6.64677">
        <ele>19.799999237061</ele>
        <time>2008-10-10T08:25:22Z</time>
      </trkpt>
      <trkpt lat="43.44121" lon="6.64663">
        <ele>22.39999961853</ele>
        <time>2008-10-10T08:25:27Z</time>
      </trkpt>
      <trkpt lat="43.44124" lon="6.64649">
        <ele>23.200000762939</ele>
        <time>2008-10-10T08:25:31Z</time>
      </trkpt>
      <trkpt lat="43.44131" lon="6.64618">
        <ele>23.799999237061</ele>
        <time>2008-10-10T08:25:38Z</time>
      </trkpt>
      <trkpt lat="43.44139" lon="6.64575">
        <ele>24.799999237061</ele>
        <time>2008-10-10T08:25:47Z</time>
      </trkpt>
      <trkpt lat="43.44133" lon="6.64505">
        <ele>29.60000038147</ele>
        <time>2008-10-10T08:26:05Z</time>
      </trkpt>
      <trkpt lat="43.44097" lon="6.64471">
        <ele>33.200000762939</ele>
        <time>2008-10-10T08:26:22Z</time>
      </trkpt>
      <trkpt lat="43.4405" lon="6.64436">
        <ele>37.599998474121</ele>
        <time>2008-10-10T08:26:44Z</time>
      </trkpt>
      <trkpt lat="43.44006" lon="6.644">
        <ele>41.599998474121</ele>
        <time>2008-10-10T08:27:04Z</time>
      </trkpt>
      <trkpt lat="43.4397" lon="6.6435">
        <ele>45.599998474121</ele>
        <time>2008-10-10T08:27:23Z</time>
      </trkpt>
      <trkpt lat="43.43927" lon="6.64295">
        <ele>45.599998474121</ele>
        <time>2008-10-10T08:27:38Z</time>
      </trkpt>
      <trkpt lat="43.43904" lon="6.64261">
        <ele>44.400001525879</ele>
        <time>2008-10-10T08:27:44Z</time>
      </trkpt>
      <trkpt lat="43.43887" lon="6.64236">
        <ele>43.599998474121</ele>
        <time>2008-10-10T08:27:48Z</time>
      </trkpt>
      <trkpt lat="43.43871" lon="6.64206">
        <ele>42.799999237061</ele>
        <time>2008-10-10T08:27:52Z</time>
      </trkpt>
      <trkpt lat="43.43853" lon="6.64175">
        <ele>42.200000762939</ele>
        <time>2008-10-10T08:27:56Z</time>
      </trkpt>
      <trkpt lat="43.43836" lon="6.64146">
        <ele>41.400001525879</ele>
        <time>2008-10-10T08:28:00Z</time>
      </trkpt>
      <trkpt lat="43.43815" lon="6.64108">
        <ele>41.799999237061</ele>
        <time>2008-10-10T08:28:06Z</time>
      </trkpt>
      <trkpt lat="43.43809" lon="6.64097">
        <ele>42.200000762939</ele>
        <time>2008-10-10T08:28:08Z</time>
      </trkpt>
      <trkpt lat="43.43809" lon="6.64057">
        <ele>44.599998474121</ele>
        <time>2008-10-10T08:28:16Z</time>
      </trkpt>
      <trkpt lat="43.43846" lon="6.63996">
        <ele>43.400001525879</ele>
        <time>2008-10-10T08:28:28Z</time>
      </trkpt>
      <trkpt lat="43.43861" lon="6.6397">
        <ele>42.200000762939</ele>
        <time>2008-10-10T08:28:32Z</time>
      </trkpt>
      <trkpt lat="43.43874" lon="6.63948">
        <ele>41</ele>
        <time>2008-10-10T08:28:35Z</time>
      </trkpt>
      <trkpt lat="43.43893" lon="6.63914">
        <ele>39.599998474121</ele>
        <time>2008-10-10T08:28:39Z</time>
      </trkpt>
      <trkpt lat="43.43923" lon="6.63865">
        <ele>34.599998474121</ele>
        <time>2008-10-10T08:28:44Z</time>
      </trkpt>
      <trkpt lat="43.43961" lon="6.63833">
        <ele>30.39999961853</ele>
        <time>2008-10-10T08:28:48Z</time>
      </trkpt>
      <trkpt lat="43.43994" lon="6.63818">
        <ele>30</ele>
        <time>2008-10-10T08:28:51Z</time>
      </trkpt>
      <trkpt lat="43.44018" lon="6.63791">
        <ele>30.200000762939</ele>
        <time>2008-10-10T08:28:55Z</time>
      </trkpt>
      <trkpt lat="43.44026" lon="6.6378">
        <ele>31.39999961853</ele>
        <time>2008-10-10T08:28:57Z</time>
      </trkpt>
      <trkpt lat="43.44031" lon="6.63775">
        <ele>31.799999237061</ele>
        <time>2008-10-10T08:28:58Z</time>
      </trkpt>
      <trkpt lat="43.4404" lon="6.63767">
        <ele>31.799999237061</ele>
        <time>2008-10-10T08:29:00Z</time>
      </trkpt>
      <trkpt lat="43.44062" lon="6.63751">
        <ele>30.39999961853</ele>
        <time>2008-10-10T08:29:04Z</time>
      </trkpt>
      <trkpt lat="43.44077" lon="6.63743">
        <ele>28.799999237061</ele>
        <time>2008-10-10T08:29:06Z</time>
      </trkpt>
      <trkpt lat="43.44105" lon="6.63736">
        <ele>26.200000762939</ele>
        <time>2008-10-10T08:29:09Z</time>
      </trkpt>
      <trkpt lat="43.44129" lon="6.63734">
        <ele>26</ele>
        <time>2008-10-10T08:29:12Z</time>
      </trkpt>
      <trkpt lat="43.44142" lon="6.63728">
        <ele>26.200000762939</ele>
        <time>2008-10-10T08:29:20Z</time>
      </trkpt>
      <trkpt lat="43.44141" lon="6.63724">
        <ele>27</ele>
        <time>2008-10-10T08:29:34Z</time>
      </trkpt>
      <trkpt lat="43.4414" lon="6.63724">
        <ele>27.39999961853</ele>
        <time>2008-10-10T08:29:35Z</time>
      </trkpt>
      <trkpt lat="43.44143" lon="6.63722">
        <ele>29</ele>
        <time>2008-10-10T08:29:43Z</time>
      </trkpt>
      <trkpt lat="43.44146" lon="6.63719">
        <ele>30</ele>
        <time>2008-10-10T08:29:49Z</time>
      </trkpt>
      <trkpt lat="43.44148" lon="6.63717">
        <ele>30.799999237061</ele>
        <time>2008-10-10T08:29:54Z</time>
      </trkpt>
      <trkpt lat="43.44149" lon="6.63717">
        <ele>31.39999961853</ele>
        <time>2008-10-10T08:29:58Z</time>
      </trkpt>
      <trkpt lat="43.44151" lon="6.63715">
        <ele>32.599998474121</ele>
        <time>2008-10-10T08:30:03Z</time>
      </trkpt>
      <trkpt lat="43.44154" lon="6.6371">
        <ele>33.200000762939</ele>
        <time>2008-10-10T08:30:08Z</time>
      </trkpt>
      <trkpt lat="43.44146" lon="6.63686">
        <ele>34.200000762939</ele>
        <time>2008-10-10T08:30:16Z</time>
      </trkpt>
      <trkpt lat="43.44136" lon="6.63645">
        <ele>35.599998474121</ele>
        <time>2008-10-10T08:30:25Z</time>
      </trkpt>
      <trkpt lat="43.44134" lon="6.63629">
        <ele>36.200000762939</ele>
        <time>2008-10-10T08:30:29Z</time>
      </trkpt>
      <trkpt lat="43.44128" lon="6.63614">
        <ele>36.799999237061</ele>
        <time>2008-10-10T08:30:33Z</time>
      </trkpt>
      <trkpt lat="43.44074" lon="6.63538">
        <ele>36</ele>
        <time>2008-10-10T08:30:52Z</time>
      </trkpt>
      <trkpt lat="43.44027" lon="6.63477">
        <ele>40.200000762939</ele>
        <time>2008-10-10T08:31:09Z</time>
      </trkpt>
      <trkpt lat="43.44007" lon="6.63431">
        <ele>43.799999237061</ele>
        <time>2008-10-10T08:31:24Z</time>
      </trkpt>
      <trkpt lat="43.44003" lon="6.63416">
        <ele>44.400001525879</ele>
        <time>2008-10-10T08:31:34Z</time>
      </trkpt>
      <trkpt lat="43.44004" lon="6.63414">
        <ele>45</ele>
        <time>2008-10-10T08:34:13Z</time>
      </trkpt>
      <trkpt lat="43.44003" lon="6.63412">
        <ele>45.599998474121</ele>
        <time>2008-10-10T08:36:03Z</time>
      </trkpt>
      <trkpt lat="43.44001" lon="6.63412">
        <ele>45.599998474121</ele>
        <time>2008-10-10T08:36:22Z</time>
      </trkpt>
      <trkpt lat="43.43999" lon="6.63411">
        <ele>45.400001525879</ele>
        <time>2008-10-10T08:36:28Z</time>
      </trkpt>
      <trkpt lat="43.43994" lon="6.634">
        <ele>46.200000762939</ele>
        <time>2008-10-10T08:36:34Z</time>
      </trkpt>
      <trkpt lat="43.4399" lon="6.63384">
        <ele>46.599998474121</ele>
        <time>2008-10-10T08:36:39Z</time>
      </trkpt>
      <trkpt lat="43.43989" lon="6.63372">
        <ele>46.799999237061</ele>
        <time>2008-10-10T08:36:42Z</time>
      </trkpt>
      <trkpt lat="43.43989" lon="6.63338">
        <ele>48.599998474121</ele>
        <time>2008-10-10T08:36:52Z</time>
      </trkpt>
      <trkpt lat="43.43986" lon="6.63322">
        <ele>49.599998474121</ele>
        <time>2008-10-10T08:36:57Z</time>
      </trkpt>
      <trkpt lat="43.43977" lon="6.63304">
        <ele>51.400001525879</ele>
        <time>2008-10-10T08:37:04Z</time>
      </trkpt>
      <trkpt lat="43.43972" lon="6.63295">
        <ele>52.400001525879</ele>
        <time>2008-10-10T08:37:08Z</time>
      </trkpt>
      <trkpt lat="43.43959" lon="6.63278">
        <ele>54</ele>
        <time>2008-10-10T08:37:16Z</time>
      </trkpt>
      <trkpt lat="43.43947" lon="6.63264">
        <ele>55</ele>
        <time>2008-10-10T08:37:23Z</time>
      </trkpt>
      <trkpt lat="43.43938" lon="6.63251">
        <ele>56.599998474121</ele>
        <time>2008-10-10T08:37:29Z</time>
      </trkpt>
      <trkpt lat="43.4393" lon="6.63236">
        <ele>58.200000762939</ele>
        <time>2008-10-10T08:37:36Z</time>
      </trkpt>
      <trkpt lat="43.43921" lon="6.63189">
        <ele>61.400001525879</ele>
        <time>2008-10-10T08:37:51Z</time>
      </trkpt>
      <trkpt lat="43.43903" lon="6.63153">
        <ele>64.199996948242</ele>
        <time>2008-10-10T08:38:05Z</time>
      </trkpt>
      <trkpt lat="43.43889" lon="6.63131">
        <ele>66.199996948242</ele>
        <time>2008-10-10T08:38:15Z</time>
      </trkpt>
      <trkpt lat="43.43897" lon="6.63122">
        <ele>66.800003051758</ele>
        <time>2008-10-10T08:38:20Z</time>
      </trkpt>
      <trkpt lat="43.4394" lon="6.63124">
        <ele>69.400001525879</ele>
        <time>2008-10-10T08:38:38Z</time>
      </trkpt>
      <trkpt lat="43.43945" lon="6.63123">
        <ele>70</ele>
        <time>2008-10-10T08:38:41Z</time>
      </trkpt>
      <trkpt lat="43.43944" lon="6.63115">
        <ele>71.400001525879</ele>
        <time>2008-10-10T08:38:46Z</time>
      </trkpt>
      <trkpt lat="43.43902" lon="6.6309">
        <ele>75.800003051758</ele>
        <time>2008-10-10T08:39:06Z</time>
      </trkpt>
      <trkpt lat="43.43863" lon="6.63067">
        <ele>79.599998474121</ele>
        <time>2008-10-10T08:39:25Z</time>
      </trkpt>
      <trkpt lat="43.43833" lon="6.63049">
        <ele>83.800003051758</ele>
        <time>2008-10-10T08:39:43Z</time>
      </trkpt>
      <trkpt lat="43.43812" lon="6.63067">
        <ele>85.599998474121</ele>
        <time>2008-10-10T08:39:57Z</time>
      </trkpt>
      <trkpt lat="43.43821" lon="6.63108">
        <ele>87.400001525879</ele>
        <time>2008-10-10T08:40:10Z</time>
      </trkpt>
      <trkpt lat="43.43831" lon="6.63141">
        <ele>89.199996948242</ele>
        <time>2008-10-10T08:40:21Z</time>
      </trkpt>
      <trkpt lat="43.43831" lon="6.63188">
        <ele>90.800003051758</ele>
        <time>2008-10-10T08:40:35Z</time>
      </trkpt>
      <trkpt lat="43.43831" lon="6.63205">
        <ele>91.599998474121</ele>
        <time>2008-10-10T08:40:40Z</time>
      </trkpt>
      <trkpt lat="43.43821" lon="6.63197">
        <ele>94.199996948242</ele>
        <time>2008-10-10T08:40:48Z</time>
      </trkpt>
      <trkpt lat="43.43821" lon="6.63195">
        <ele>94.400001525879</ele>
        <time>2008-10-10T08:40:49Z</time>
      </trkpt>
      <trkpt lat="43.43807" lon="6.63156">
        <ele>98.400001525879</ele>
        <time>2008-10-10T08:41:06Z</time>
      </trkpt>
      <trkpt lat="43.43786" lon="6.63124">
        <ele>101.59999847412</ele>
        <time>2008-10-10T08:41:22Z</time>
      </trkpt>
      <trkpt lat="43.43769" lon="6.63089">
        <ele>104.19999694824</ele>
        <time>2008-10-10T08:41:36Z</time>
      </trkpt>
      <trkpt lat="43.43755" lon="6.63041">
        <ele>108</ele>
        <time>2008-10-10T08:41:52Z</time>
      </trkpt>
      <trkpt lat="43.43743" lon="6.62994">
        <ele>109.80000305176</ele>
        <time>2008-10-10T08:42:08Z</time>
      </trkpt>
      <trkpt lat="43.43737" lon="6.62985">
        <ele>108.80000305176</ele>
        <time>2008-10-10T08:42:11Z</time>
      </trkpt>
      <trkpt lat="43.43723" lon="6.62976">
        <ele>105.59999847412</ele>
        <time>2008-10-10T08:42:21Z</time>
      </trkpt>
      <trkpt lat="43.43717" lon="6.62963">
        <ele>102.80000305176</ele>
        <time>2008-10-10T08:42:32Z</time>
      </trkpt>
      <trkpt lat="43.43712" lon="6.6295">
        <ele>101</ele>
        <time>2008-10-10T08:42:36Z</time>
      </trkpt>
      <trkpt lat="43.4371" lon="6.62938">
        <ele>99.800003051758</ele>
        <time>2008-10-10T08:42:40Z</time>
      </trkpt>
      <trkpt lat="43.43709" lon="6.62933">
        <ele>100.19999694824</ele>
        <time>2008-10-10T08:42:42Z</time>
      </trkpt>
      <trkpt lat="43.43708" lon="6.6293">
        <ele>99.800003051758</ele>
        <time>2008-10-10T08:42:43Z</time>
      </trkpt>
      <trkpt lat="43.43707" lon="6.62927">
        <ele>99.800003051758</ele>
        <time>2008-10-10T08:42:44Z</time>
      </trkpt>
      <trkpt lat="43.43704" lon="6.62912">
        <ele>98.800003051758</ele>
        <time>2008-10-10T08:42:48Z</time>
      </trkpt>
      <trkpt lat="43.43688" lon="6.62883">
        <ele>97.800003051758</ele>
        <time>2008-10-10T08:43:00Z</time>
      </trkpt>
      <trkpt lat="43.43678" lon="6.62855">
        <ele>95.800003051758</ele>
        <time>2008-10-10T08:43:09Z</time>
      </trkpt>
      <trkpt lat="43.43669" lon="6.62838">
        <ele>94</ele>
        <time>2008-10-10T08:43:14Z</time>
      </trkpt>
      <trkpt lat="43.43665" lon="6.6283">
        <ele>91.800003051758</ele>
        <time>2008-10-10T08:43:18Z</time>
      </trkpt>
      <trkpt lat="43.43656" lon="6.62824">
        <ele>89.199996948242</ele>
        <time>2008-10-10T08:43:23Z</time>
      </trkpt>
      <trkpt lat="43.4365" lon="6.62815">
        <ele>87.199996948242</ele>
        <time>2008-10-10T08:43:28Z</time>
      </trkpt>
      <trkpt lat="43.43651" lon="6.6281">
        <ele>86.800003051758</ele>
        <time>2008-10-10T08:43:31Z</time>
      </trkpt>
      <trkpt lat="43.43653" lon="6.62801">
        <ele>85</ele>
        <time>2008-10-10T08:43:36Z</time>
      </trkpt>
      <trkpt lat="43.43654" lon="6.62779">
        <ele>80.800003051758</ele>
        <time>2008-10-10T08:43:43Z</time>
      </trkpt>
      <trkpt lat="43.43651" lon="6.62774">
        <ele>80</ele>
        <time>2008-10-10T08:43:45Z</time>
      </trkpt>
      <trkpt lat="43.43628" lon="6.62749">
        <ele>78.400001525879</ele>
        <time>2008-10-10T08:43:57Z</time>
      </trkpt>
      <trkpt lat="43.43624" lon="6.62743">
        <ele>78.800003051758</ele>
        <time>2008-10-10T08:44:00Z</time>
      </trkpt>
      <trkpt lat="43.43623" lon="6.62741">
        <ele>78.800003051758</ele>
        <time>2008-10-10T08:44:03Z</time>
      </trkpt>
      <trkpt lat="43.43621" lon="6.62737">
        <ele>79.400001525879</ele>
        <time>2008-10-10T08:44:31Z</time>
      </trkpt>
      <trkpt lat="43.43616" lon="6.62718">
        <ele>77.400001525879</ele>
        <time>2008-10-10T08:44:38Z</time>
      </trkpt>
      <trkpt lat="43.4362" lon="6.62705">
        <ele>75</ele>
        <time>2008-10-10T08:44:43Z</time>
      </trkpt>
      <trkpt lat="43.43624" lon="6.627">
        <ele>74.199996948242</ele>
        <time>2008-10-10T08:44:46Z</time>
      </trkpt>
      <trkpt lat="43.43632" lon="6.62686">
        <ele>71.400001525879</ele>
        <time>2008-10-10T08:44:52Z</time>
      </trkpt>
      <trkpt lat="43.43637" lon="6.62676">
        <ele>69.199996948242</ele>
        <time>2008-10-10T08:44:56Z</time>
      </trkpt>
      <trkpt lat="43.43641" lon="6.62664">
        <ele>67.199996948242</ele>
        <time>2008-10-10T08:45:04Z</time>
      </trkpt>
      <trkpt lat="43.4364" lon="6.62664">
        <ele>67.199996948242</ele>
        <time>2008-10-10T08:45:05Z</time>
      </trkpt>
      <trkpt lat="43.43636" lon="6.62656">
        <ele>65.400001525879</ele>
        <time>2008-10-10T08:45:10Z</time>
      </trkpt>
      <trkpt lat="43.43623" lon="6.62642">
        <ele>62</ele>
        <time>2008-10-10T08:45:16Z</time>
      </trkpt>
      <trkpt lat="43.43615" lon="6.62631">
        <ele>59.599998474121</ele>
        <time>2008-10-10T08:45:20Z</time>
      </trkpt>
      <trkpt lat="43.43611" lon="6.62624">
        <ele>57.799999237061</ele>
        <time>2008-10-10T08:45:26Z</time>
      </trkpt>
      <trkpt lat="43.43607" lon="6.62617">
        <ele>56.599998474121</ele>
        <time>2008-10-10T08:45:35Z</time>
      </trkpt>
      <trkpt lat="43.43604" lon="6.6261">
        <ele>55.200000762939</ele>
        <time>2008-10-10T08:45:40Z</time>
      </trkpt>
      <trkpt lat="43.43602" lon="6.62597">
        <ele>52.599998474121</ele>
        <time>2008-10-10T08:45:46Z</time>
      </trkpt>
      <trkpt lat="43.43603" lon="6.62591">
        <ele>52</ele>
        <time>2008-10-10T08:45:49Z</time>
      </trkpt>
      <trkpt lat="43.43603" lon="6.62578">
        <ele>50.200000762939</ele>
        <time>2008-10-10T08:45:53Z</time>
      </trkpt>
      <trkpt lat="43.43604" lon="6.62568">
        <ele>48.400001525879</ele>
        <time>2008-10-10T08:45:57Z</time>
      </trkpt>
      <trkpt lat="43.43606" lon="6.6256">
        <ele>47.200000762939</ele>
        <time>2008-10-10T08:46:00Z</time>
      </trkpt>
      <trkpt lat="43.43613" lon="6.62552">
        <ele>45.599998474121</ele>
        <time>2008-10-10T08:46:05Z</time>
      </trkpt>
      <trkpt lat="43.43615" lon="6.62541">
        <ele>44.200000762939</ele>
        <time>2008-10-10T08:46:09Z</time>
      </trkpt>
      <trkpt lat="43.43618" lon="6.62537">
        <ele>43.599998474121</ele>
        <time>2008-10-10T08:46:11Z</time>
      </trkpt>
      <trkpt lat="43.43627" lon="6.62522">
        <ele>41.400001525879</ele>
        <time>2008-10-10T08:46:16Z</time>
      </trkpt>
      <trkpt lat="43.43633" lon="6.62509">
        <ele>39.400001525879</ele>
        <time>2008-10-10T08:46:23Z</time>
      </trkpt>
      <trkpt lat="43.43636" lon="6.625">
        <ele>38.200000762939</ele>
        <time>2008-10-10T08:46:26Z</time>
      </trkpt>
      <trkpt lat="43.43648" lon="6.62478">
        <ele>35.400001525879</ele>
        <time>2008-10-10T08:46:33Z</time>
      </trkpt>
      <trkpt lat="43.4366" lon="6.62439">
        <ele>32.200000762939</ele>
        <time>2008-10-10T08:46:43Z</time>
      </trkpt>
      <trkpt lat="43.43663" lon="6.62399">
        <ele>28</ele>
        <time>2008-10-10T08:46:53Z</time>
      </trkpt>
      <trkpt lat="43.43665" lon="6.62389">
        <ele>26.799999237061</ele>
        <time>2008-10-10T08:47:00Z</time>
      </trkpt>
      <trkpt lat="43.43666" lon="6.62379">
        <ele>25.60000038147</ele>
        <time>2008-10-10T08:47:06Z</time>
      </trkpt>
      <trkpt lat="43.43666" lon="6.62369">
        <ele>22.799999237061</ele>
        <time>2008-10-10T08:47:12Z</time>
      </trkpt>
      <trkpt lat="43.43666" lon="6.62368">
        <ele>22.60000038147</ele>
        <time>2008-10-10T08:47:13Z</time>
      </trkpt>
      <trkpt lat="43.43672" lon="6.62346">
        <ele>18.60000038147</ele>
        <time>2008-10-10T08:47:20Z</time>
      </trkpt>
      <trkpt lat="43.43678" lon="6.62341">
        <ele>18.39999961853</ele>
        <time>2008-10-10T08:47:25Z</time>
      </trkpt>
      <trkpt lat="43.43689" lon="6.62333">
        <ele>19.799999237061</ele>
        <time>2008-10-10T08:47:34Z</time>
      </trkpt>
      <trkpt lat="43.43707" lon="6.62327">
        <ele>20.39999961853</ele>
        <time>2008-10-10T08:47:41Z</time>
      </trkpt>
      <trkpt lat="43.43721" lon="6.62321">
        <ele>20.200000762939</ele>
        <time>2008-10-10T08:47:44Z</time>
      </trkpt>
      <trkpt lat="43.43735" lon="6.62313">
        <ele>20</ele>
        <time>2008-10-10T08:47:47Z</time>
      </trkpt>
      <trkpt lat="43.43758" lon="6.62276">
        <ele>19.39999961853</ele>
        <time>2008-10-10T08:47:56Z</time>
      </trkpt>
      <trkpt lat="43.43737" lon="6.62266">
        <ele>21</ele>
        <time>2008-10-10T08:48:03Z</time>
      </trkpt>
      <trkpt lat="43.43698" lon="6.62258">
        <ele>23</ele>
        <time>2008-10-10T08:48:17Z</time>
      </trkpt>
      <trkpt lat="43.43656" lon="6.62234">
        <ele>25.799999237061</ele>
        <time>2008-10-10T08:48:34Z</time>
      </trkpt>
      <trkpt lat="43.4363" lon="6.62237">
        <ele>27.200000762939</ele>
        <time>2008-10-10T08:48:46Z</time>
      </trkpt>
      <trkpt lat="43.43603" lon="6.62244">
        <ele>29.39999961853</ele>
        <time>2008-10-10T08:48:58Z</time>
      </trkpt>
      <trkpt lat="43.43565" lon="6.62264">
        <ele>31</ele>
        <time>2008-10-10T08:49:13Z</time>
      </trkpt>
      <trkpt lat="43.43511" lon="6.62302">
        <ele>32.200000762939</ele>
        <time>2008-10-10T08:49:34Z</time>
      </trkpt>
      <trkpt lat="43.43503" lon="6.62306">
        <ele>33.599998474121</ele>
        <time>2008-10-10T08:49:37Z</time>
      </trkpt>
      <trkpt lat="43.43451" lon="6.62328">
        <ele>35.200000762939</ele>
        <time>2008-10-10T08:49:54Z</time>
      </trkpt>
      <trkpt lat="43.43421" lon="6.6236">
        <ele>34.400001525879</ele>
        <time>2008-10-10T08:50:05Z</time>
      </trkpt>
      <trkpt lat="43.43404" lon="6.6236">
        <ele>34.799999237061</ele>
        <time>2008-10-10T08:50:12Z</time>
      </trkpt>
      <trkpt lat="43.434" lon="6.62321">
        <ele>34.799999237061</ele>
        <time>2008-10-10T08:50:20Z</time>
      </trkpt>
      <trkpt lat="43.43362" lon="6.623">
        <ele>33.200000762939</ele>
        <time>2008-10-10T08:50:28Z</time>
      </trkpt>
      <trkpt lat="43.43332" lon="6.62284">
        <ele>33.400001525879</ele>
        <time>2008-10-10T08:50:34Z</time>
      </trkpt>
      <trkpt lat="43.43313" lon="6.62288">
        <ele>34.400001525879</ele>
        <time>2008-10-10T08:50:39Z</time>
      </trkpt>
      <trkpt lat="43.43308" lon="6.62293">
        <ele>34.200000762939</ele>
        <time>2008-10-10T08:50:41Z</time>
      </trkpt>
      <trkpt lat="43.433" lon="6.62273">
        <ele>35.200000762939</ele>
        <time>2008-10-10T08:50:48Z</time>
      </trkpt>
      <trkpt lat="43.43287" lon="6.62269">
        <ele>35.599998474121</ele>
        <time>2008-10-10T08:50:55Z</time>
      </trkpt>
      <trkpt lat="43.43287" lon="6.62271">
        <ele>36.200000762939</ele>
        <time>2008-10-10T08:50:56Z</time>
      </trkpt>
      <trkpt lat="43.43286" lon="6.62298">
        <ele>39</ele>
        <time>2008-10-10T08:51:06Z</time>
      </trkpt>
      <trkpt lat="43.43284" lon="6.62308">
        <ele>40.400001525879</ele>
        <time>2008-10-10T08:51:10Z</time>
      </trkpt>
      <trkpt lat="43.43284" lon="6.62315">
        <ele>41.400001525879</ele>
        <time>2008-10-10T08:51:13Z</time>
      </trkpt>
      <trkpt lat="43.43282" lon="6.62326">
        <ele>43.400001525879</ele>
        <time>2008-10-10T08:51:19Z</time>
      </trkpt>
      <trkpt lat="43.43283" lon="6.62342">
        <ele>45.799999237061</ele>
        <time>2008-10-10T08:51:28Z</time>
      </trkpt>
      <trkpt lat="43.43286" lon="6.62349">
        <ele>46.599998474121</ele>
        <time>2008-10-10T08:51:32Z</time>
      </trkpt>
      <trkpt lat="43.43287" lon="6.62351">
        <ele>46.400001525879</ele>
        <time>2008-10-10T08:51:33Z</time>
      </trkpt>
      <trkpt lat="43.43288" lon="6.62359">
        <ele>47.200000762939</ele>
        <time>2008-10-10T08:51:37Z</time>
      </trkpt>
      <trkpt lat="43.43292" lon="6.62397">
        <ele>50</ele>
        <time>2008-10-10T08:51:53Z</time>
      </trkpt>
      <trkpt lat="43.433" lon="6.62424">
        <ele>53.200000762939</ele>
        <time>2008-10-10T08:52:07Z</time>
      </trkpt>
      <trkpt lat="43.43299" lon="6.62433">
        <ele>53.799999237061</ele>
        <time>2008-10-10T08:52:12Z</time>
      </trkpt>
      <trkpt lat="43.433" lon="6.62465">
        <ele>58</ele>
        <time>2008-10-10T08:52:30Z</time>
      </trkpt>
      <trkpt lat="43.43299" lon="6.62468">
        <ele>58.599998474121</ele>
        <time>2008-10-10T08:52:34Z</time>
      </trkpt>
      <trkpt lat="43.43299" lon="6.62479">
        <ele>61</ele>
        <time>2008-10-10T08:52:44Z</time>
      </trkpt>
      <trkpt lat="43.43299" lon="6.62486">
        <ele>62.200000762939</ele>
        <time>2008-10-10T08:52:50Z</time>
      </trkpt>
      <trkpt lat="43.43302" lon="6.62495">
        <ele>64.400001525879</ele>
        <time>2008-10-10T08:52:57Z</time>
      </trkpt>
      <trkpt lat="43.43302" lon="6.62505">
        <ele>63.599998474121</ele>
        <time>2008-10-10T08:53:01Z</time>
      </trkpt>
      <trkpt lat="43.43289" lon="6.62536">
        <ele>61.599998474121</ele>
        <time>2008-10-10T08:53:06Z</time>
      </trkpt>
      <trkpt lat="43.43307" lon="6.62557">
        <ele>62.200000762939</ele>
        <time>2008-10-10T08:53:16Z</time>
      </trkpt>
      <trkpt lat="43.43323" lon="6.62584">
        <ele>65.599998474121</ele>
        <time>2008-10-10T08:53:30Z</time>
      </trkpt>
      <trkpt lat="43.43324" lon="6.62616">
        <ele>69.199996948242</ele>
        <time>2008-10-10T08:53:45Z</time>
      </trkpt>
      <trkpt lat="43.4333" lon="6.6266">
        <ele>69.599998474121</ele>
        <time>2008-10-10T08:54:00Z</time>
      </trkpt>
      <trkpt lat="43.43333" lon="6.6267">
        <ele>71</ele>
        <time>2008-10-10T08:54:03Z</time>
      </trkpt>
      <trkpt lat="43.43327" lon="6.62671">
        <ele>71.800003051758</ele>
        <time>2008-10-10T08:54:09Z</time>
      </trkpt>
      <trkpt lat="43.43315" lon="6.62643">
        <ele>73.199996948242</ele>
        <time>2008-10-10T08:54:21Z</time>
      </trkpt>
      <trkpt lat="43.43307" lon="6.62618">
        <ele>76.400001525879</ele>
        <time>2008-10-10T08:54:34Z</time>
      </trkpt>
      <trkpt lat="43.43292" lon="6.626">
        <ele>78.599998474121</ele>
        <time>2008-10-10T08:54:49Z</time>
      </trkpt>
      <trkpt lat="43.43282" lon="6.62595">
        <ele>79.800003051758</ele>
        <time>2008-10-10T08:55:01Z</time>
      </trkpt>
      <trkpt lat="43.43272" lon="6.62598">
        <ele>82.800003051758</ele>
        <time>2008-10-10T08:55:18Z</time>
      </trkpt>
      <trkpt lat="43.43271" lon="6.62599">
        <ele>83.199996948242</ele>
        <time>2008-10-10T08:55:20Z</time>
      </trkpt>
      <trkpt lat="43.43258" lon="6.62616">
        <ele>86.199996948242</ele>
        <time>2008-10-10T08:55:41Z</time>
      </trkpt>
      <trkpt lat="43.43244" lon="6.62624">
        <ele>88.400001525879</ele>
        <time>2008-10-10T08:55:57Z</time>
      </trkpt>
      <trkpt lat="43.43233" lon="6.62606">
        <ele>90</ele>
        <time>2008-10-10T08:56:12Z</time>
      </trkpt>
      <trkpt lat="43.43217" lon="6.62572">
        <ele>92</ele>
        <time>2008-10-10T08:56:25Z</time>
      </trkpt>
      <trkpt lat="43.43214" lon="6.62533">
        <ele>93.599998474121</ele>
        <time>2008-10-10T08:56:38Z</time>
      </trkpt>
      <trkpt lat="43.43222" lon="6.62492">
        <ele>96.400001525879</ele>
        <time>2008-10-10T08:56:53Z</time>
      </trkpt>
      <trkpt lat="43.43202" lon="6.62473">
        <ele>98.599998474121</ele>
        <time>2008-10-10T08:57:06Z</time>
      </trkpt>
      <trkpt lat="43.43168" lon="6.62473">
        <ele>100</ele>
        <time>2008-10-10T08:57:20Z</time>
      </trkpt>
      <trkpt lat="43.43136" lon="6.62448">
        <ele>102.19999694824</ele>
        <time>2008-10-10T08:57:35Z</time>
      </trkpt>
      <trkpt lat="43.43116" lon="6.62416">
        <ele>105.80000305176</ele>
        <time>2008-10-10T08:57:50Z</time>
      </trkpt>
      <trkpt lat="43.43114" lon="6.62414">
        <ele>106.19999694824</ele>
        <time>2008-10-10T08:57:52Z</time>
      </trkpt>
      <trkpt lat="43.43089" lon="6.62408">
        <ele>108.59999847412</ele>
        <time>2008-10-10T08:58:08Z</time>
      </trkpt>
      <trkpt lat="43.43045" lon="6.62399">
        <ele>110.40000152588</ele>
        <time>2008-10-10T08:58:26Z</time>
      </trkpt>
      <trkpt lat="43.42998" lon="6.62387">
        <ele>112.40000152588</ele>
        <time>2008-10-10T08:58:43Z</time>
      </trkpt>
      <trkpt lat="43.42968" lon="6.62378">
        <ele>114.59999847412</ele>
        <time>2008-10-10T08:58:57Z</time>
      </trkpt>
      <trkpt lat="43.42938" lon="6.62367">
        <ele>115.40000152588</ele>
        <time>2008-10-10T08:59:09Z</time>
      </trkpt>
      <trkpt lat="43.42916" lon="6.62345">
        <ele>116.59999847412</ele>
        <time>2008-10-10T08:59:21Z</time>
      </trkpt>
      <trkpt lat="43.42895" lon="6.6232">
        <ele>118.40000152588</ele>
        <time>2008-10-10T08:59:34Z</time>
      </trkpt>
      <trkpt lat="43.42867" lon="6.62296">
        <ele>120</ele>
        <time>2008-10-10T08:59:48Z</time>
      </trkpt>
      <trkpt lat="43.42838" lon="6.62276">
        <ele>122</ele>
        <time>2008-10-10T09:00:01Z</time>
      </trkpt>
      <trkpt lat="43.42805" lon="6.62247">
        <ele>123.19999694824</ele>
        <time>2008-10-10T09:00:15Z</time>
      </trkpt>
      <trkpt lat="43.42765" lon="6.62217">
        <ele>122.59999847412</ele>
        <time>2008-10-10T09:00:27Z</time>
      </trkpt>
      <trkpt lat="43.42739" lon="6.62197">
        <ele>123.40000152588</ele>
        <time>2008-10-10T09:00:36Z</time>
      </trkpt>
      <trkpt lat="43.42716" lon="6.62186">
        <ele>125.40000152588</ele>
        <time>2008-10-10T09:00:45Z</time>
      </trkpt>
      <trkpt lat="43.42665" lon="6.62162">
        <ele>124.80000305176</ele>
        <time>2008-10-10T09:00:58Z</time>
      </trkpt>
      <trkpt lat="43.42654" lon="6.62142">
        <ele>125.59999847412</ele>
        <time>2008-10-10T09:01:02Z</time>
      </trkpt>
      <trkpt lat="43.42628" lon="6.62115">
        <ele>125.19999694824</ele>
        <time>2008-10-10T09:01:11Z</time>
      </trkpt>
      <trkpt lat="43.42637" lon="6.62106">
        <ele>123.59999847412</ele>
        <time>2008-10-10T09:01:15Z</time>
      </trkpt>
      <trkpt lat="43.42655" lon="6.62107">
        <ele>121</ele>
        <time>2008-10-10T09:01:18Z</time>
      </trkpt>
      <trkpt lat="43.42683" lon="6.62144">
        <ele>115</ele>
        <time>2008-10-10T09:01:26Z</time>
      </trkpt>
      <trkpt lat="43.42707" lon="6.62143">
        <ele>110.19999694824</ele>
        <time>2008-10-10T09:01:31Z</time>
      </trkpt>
      <trkpt lat="43.42736" lon="6.62135">
        <ele>105.59999847412</ele>
        <time>2008-10-10T09:01:37Z</time>
      </trkpt>
      <trkpt lat="43.42764" lon="6.62142">
        <ele>99.199996948242</ele>
        <time>2008-10-10T09:01:46Z</time>
      </trkpt>
      <trkpt lat="43.42797" lon="6.62151">
        <ele>94.400001525879</ele>
        <time>2008-10-10T09:01:54Z</time>
      </trkpt>
      <trkpt lat="43.428" lon="6.62152">
        <ele>94</ele>
        <time>2008-10-10T09:01:55Z</time>
      </trkpt>
      <trkpt lat="43.42806" lon="6.62152">
        <ele>92.800003051758</ele>
        <time>2008-10-10T09:01:58Z</time>
      </trkpt>
      <trkpt lat="43.42811" lon="6.62153">
        <ele>92.199996948242</ele>
        <time>2008-10-10T09:02:00Z</time>
      </trkpt>
      <trkpt lat="43.42841" lon="6.62167">
        <ele>88</ele>
        <time>2008-10-10T09:02:11Z</time>
      </trkpt>
      <trkpt lat="43.42851" lon="6.62174">
        <ele>86.599998474121</ele>
        <time>2008-10-10T09:02:14Z</time>
      </trkpt>
      <trkpt lat="43.4286" lon="6.6218">
        <ele>84.800003051758</ele>
        <time>2008-10-10T09:02:17Z</time>
      </trkpt>
      <trkpt lat="43.42868" lon="6.62188">
        <ele>82.599998474121</ele>
        <time>2008-10-10T09:02:20Z</time>
      </trkpt>
      <trkpt lat="43.42876" lon="6.62193">
        <ele>81.400001525879</ele>
        <time>2008-10-10T09:02:22Z</time>
      </trkpt>
      <trkpt lat="43.42889" lon="6.62204">
        <ele>79.800003051758</ele>
        <time>2008-10-10T09:02:25Z</time>
      </trkpt>
      <trkpt lat="43.42905" lon="6.62218">
        <ele>77.599998474121</ele>
        <time>2008-10-10T09:02:28Z</time>
      </trkpt>
      <trkpt lat="43.42928" lon="6.62234">
        <ele>74.400001525879</ele>
        <time>2008-10-10T09:02:32Z</time>
      </trkpt>
      <trkpt lat="43.42939" lon="6.62239">
        <ele>72.800003051758</ele>
        <time>2008-10-10T09:02:34Z</time>
      </trkpt>
      <trkpt lat="43.42949" lon="6.62241">
        <ele>71.800003051758</ele>
        <time>2008-10-10T09:02:36Z</time>
      </trkpt>
      <trkpt lat="43.42977" lon="6.6225">
        <ele>68</ele>
        <time>2008-10-10T09:02:41Z</time>
      </trkpt>
      <trkpt lat="43.42997" lon="6.62251">
        <ele>65</ele>
        <time>2008-10-10T09:02:45Z</time>
      </trkpt>
      <trkpt lat="43.43008" lon="6.6225">
        <ele>63.400001525879</ele>
        <time>2008-10-10T09:02:48Z</time>
      </trkpt>
      <trkpt lat="43.43025" lon="6.62249">
        <ele>60.799999237061</ele>
        <time>2008-10-10T09:02:53Z</time>
      </trkpt>
      <trkpt lat="43.43073" lon="6.62241">
        <ele>53.799999237061</ele>
        <time>2008-10-10T09:03:06Z</time>
      </trkpt>
      <trkpt lat="43.43102" lon="6.62232">
        <ele>49.200000762939</ele>
        <time>2008-10-10T09:03:14Z</time>
      </trkpt>
      <trkpt lat="43.43104" lon="6.62229">
        <ele>48.200000762939</ele>
        <time>2008-10-10T09:03:15Z</time>
      </trkpt>
      <trkpt lat="43.43126" lon="6.62223">
        <ele>44.799999237061</ele>
        <time>2008-10-10T09:03:19Z</time>
      </trkpt>
      <trkpt lat="43.43145" lon="6.62226">
        <ele>42.599998474121</ele>
        <time>2008-10-10T09:03:22Z</time>
      </trkpt>
      <trkpt lat="43.43168" lon="6.62242">
        <ele>41.599998474121</ele>
        <time>2008-10-10T09:03:26Z</time>
      </trkpt>
      <trkpt lat="43.43202" lon="6.6226">
        <ele>38.799999237061</ele>
        <time>2008-10-10T09:03:31Z</time>
      </trkpt>
      <trkpt lat="43.43235" lon="6.62265">
        <ele>37</ele>
        <time>2008-10-10T09:03:35Z</time>
      </trkpt>
      <trkpt lat="43.43276" lon="6.62282">
        <ele>35.799999237061</ele>
        <time>2008-10-10T09:03:43Z</time>
      </trkpt>
      <trkpt lat="43.43281" lon="6.62259">
        <ele>34.799999237061</ele>
        <time>2008-10-10T09:03:51Z</time>
      </trkpt>
      <trkpt lat="43.43275" lon="6.62253">
        <ele>33</ele>
        <time>2008-10-10T09:03:53Z</time>
      </trkpt>
      <trkpt lat="43.43267" lon="6.62247">
        <ele>32.599998474121</ele>
        <time>2008-10-10T09:03:55Z</time>
      </trkpt>
      <trkpt lat="43.43263" lon="6.62225">
        <ele>31.39999961853</ele>
        <time>2008-10-10T09:04:00Z</time>
      </trkpt>
      <trkpt lat="43.43269" lon="6.62209">
        <ele>31.200000762939</ele>
        <time>2008-10-10T09:04:03Z</time>
      </trkpt>
      <trkpt lat="43.4328" lon="6.62172">
        <ele>31.60000038147</ele>
        <time>2008-10-10T09:04:09Z</time>
      </trkpt>
      <trkpt lat="43.43282" lon="6.6214">
        <ele>32.599998474121</ele>
        <time>2008-10-10T09:04:14Z</time>
      </trkpt>
      <trkpt lat="43.43281" lon="6.62126">
        <ele>33.799999237061</ele>
        <time>2008-10-10T09:04:18Z</time>
      </trkpt>
      <trkpt lat="43.43285" lon="6.62108">
        <ele>34.599998474121</ele>
        <time>2008-10-10T09:04:23Z</time>
      </trkpt>
      <trkpt lat="43.43288" lon="6.62096">
        <ele>35.200000762939</ele>
        <time>2008-10-10T09:04:27Z</time>
      </trkpt>
      <trkpt lat="43.4329" lon="6.62093">
        <ele>35.599998474121</ele>
        <time>2008-10-10T09:04:28Z</time>
      </trkpt>
      <trkpt lat="43.43296" lon="6.62082">
        <ele>36.400001525879</ele>
        <time>2008-10-10T09:04:32Z</time>
      </trkpt>
      <trkpt lat="43.43304" lon="6.62073">
        <ele>38</ele>
        <time>2008-10-10T09:04:36Z</time>
      </trkpt>
      <trkpt lat="43.43332" lon="6.62057">
        <ele>38.799999237061</ele>
        <time>2008-10-10T09:04:46Z</time>
      </trkpt>
      <trkpt lat="43.43376" lon="6.62022">
        <ele>38.599998474121</ele>
        <time>2008-10-10T09:04:59Z</time>
      </trkpt>
      <trkpt lat="43.43402" lon="6.6197">
        <ele>39.599998474121</ele>
        <time>2008-10-10T09:05:11Z</time>
      </trkpt>
      <trkpt lat="43.43406" lon="6.61927">
        <ele>39</ele>
        <time>2008-10-10T09:05:19Z</time>
      </trkpt>
      <trkpt lat="43.43402" lon="6.61878">
        <ele>38.599998474121</ele>
        <time>2008-10-10T09:05:26Z</time>
      </trkpt>
      <trkpt lat="43.43399" lon="6.61852">
        <ele>39</ele>
        <time>2008-10-10T09:05:30Z</time>
      </trkpt>
      <trkpt lat="43.43394" lon="6.61833">
        <ele>39</ele>
        <time>2008-10-10T09:05:33Z</time>
      </trkpt>
      <trkpt lat="43.43382" lon="6.61805">
        <ele>39.599998474121</ele>
        <time>2008-10-10T09:05:38Z</time>
      </trkpt>
      <trkpt lat="43.43372" lon="6.61782">
        <ele>38.599998474121</ele>
        <time>2008-10-10T09:05:42Z</time>
      </trkpt>
      <trkpt lat="43.43377" lon="6.61761">
        <ele>38.200000762939</ele>
        <time>2008-10-10T09:05:46Z</time>
      </trkpt>
      <trkpt lat="43.43381" lon="6.61754">
        <ele>38.400001525879</ele>
        <time>2008-10-10T09:05:48Z</time>
      </trkpt>
      <trkpt lat="43.43369" lon="6.61731">
        <ele>38.599998474121</ele>
        <time>2008-10-10T09:05:57Z</time>
      </trkpt>
      <trkpt lat="43.43366" lon="6.6169">
        <ele>40.200000762939</ele>
        <time>2008-10-10T09:06:07Z</time>
      </trkpt>
      <trkpt lat="43.43359" lon="6.6165">
        <ele>41.200000762939</ele>
        <time>2008-10-10T09:06:17Z</time>
      </trkpt>
      <trkpt lat="43.4336" lon="6.61643">
        <ele>42.400001525879</ele>
        <time>2008-10-10T09:06:19Z</time>
      </trkpt>
      <trkpt lat="43.43357" lon="6.61595">
        <ele>41.599998474121</ele>
        <time>2008-10-10T09:06:30Z</time>
      </trkpt>
      <trkpt lat="43.43353" lon="6.61552">
        <ele>43</ele>
        <time>2008-10-10T09:06:41Z</time>
      </trkpt>
      <trkpt lat="43.4335" lon="6.61505">
        <ele>44.599998474121</ele>
        <time>2008-10-10T09:06:53Z</time>
      </trkpt>
      <trkpt lat="43.43348" lon="6.61459">
        <ele>46</ele>
        <time>2008-10-10T09:07:05Z</time>
      </trkpt>
      <trkpt lat="43.4335" lon="6.61447">
        <ele>46</ele>
        <time>2008-10-10T09:07:09Z</time>
      </trkpt>
      <trkpt lat="43.43356" lon="6.61393">
        <ele>44.799999237061</ele>
        <time>2008-10-10T09:07:18Z</time>
      </trkpt>
      <trkpt lat="43.4335" lon="6.61337">
        <ele>45.799999237061</ele>
        <time>2008-10-10T09:07:30Z</time>
      </trkpt>
      <trkpt lat="43.43338" lon="6.61276">
        <ele>47.400001525879</ele>
        <time>2008-10-10T09:07:43Z</time>
      </trkpt>
      <trkpt lat="43.43334" lon="6.61249">
        <ele>49.599998474121</ele>
        <time>2008-10-10T09:07:51Z</time>
      </trkpt>
      <trkpt lat="43.43332" lon="6.61245">
        <ele>50.400001525879</ele>
        <time>2008-10-10T09:07:53Z</time>
      </trkpt>
      <trkpt lat="43.43328" lon="6.61229">
        <ele>51.400001525879</ele>
        <time>2008-10-10T09:07:59Z</time>
      </trkpt>
      <trkpt lat="43.43332" lon="6.61193">
        <ele>51</ele>
        <time>2008-10-10T09:08:08Z</time>
      </trkpt>
      <trkpt lat="43.43321" lon="6.61157">
        <ele>50.599998474121</ele>
        <time>2008-10-10T09:08:16Z</time>
      </trkpt>
      <trkpt lat="43.43299" lon="6.6114">
        <ele>52.400001525879</ele>
        <time>2008-10-10T09:08:25Z</time>
      </trkpt>
      <trkpt lat="43.43267" lon="6.61114">
        <ele>52</ele>
        <time>2008-10-10T09:08:38Z</time>
      </trkpt>
      <trkpt lat="43.43259" lon="6.61103">
        <ele>53.400001525879</ele>
        <time>2008-10-10T09:08:46Z</time>
      </trkpt>
      <trkpt lat="43.43261" lon="6.61093">
        <ele>55.400001525879</ele>
        <time>2008-10-10T09:08:59Z</time>
      </trkpt>
      <trkpt lat="43.43262" lon="6.61089">
        <ele>56.799999237061</ele>
        <time>2008-10-10T09:09:11Z</time>
      </trkpt>
      <trkpt lat="43.43263" lon="6.61084">
        <ele>57.599998474121</ele>
        <time>2008-10-10T09:09:21Z</time>
      </trkpt>
      <trkpt lat="43.43253" lon="6.61049">
        <ele>55.599998474121</ele>
        <time>2008-10-10T09:09:35Z</time>
      </trkpt>
      <trkpt lat="43.43251" lon="6.61045">
        <ele>54.799999237061</ele>
        <time>2008-10-10T09:09:36Z</time>
      </trkpt>
      <trkpt lat="43.43249" lon="6.61037">
        <ele>53.799999237061</ele>
        <time>2008-10-10T09:09:38Z</time>
      </trkpt>
      <trkpt lat="43.4324" lon="6.60988">
        <ele>52.799999237061</ele>
        <time>2008-10-10T09:09:48Z</time>
      </trkpt>
      <trkpt lat="43.43238" lon="6.60974">
        <ele>53.200000762939</ele>
        <time>2008-10-10T09:09:53Z</time>
      </trkpt>
      <trkpt lat="43.43243" lon="6.60967">
        <ele>54.200000762939</ele>
        <time>2008-10-10T09:09:57Z</time>
      </trkpt>
      <trkpt lat="43.43245" lon="6.60956">
        <ele>55.400001525879</ele>
        <time>2008-10-10T09:10:03Z</time>
      </trkpt>
      <trkpt lat="43.43234" lon="6.6093">
        <ele>57</ele>
        <time>2008-10-10T09:10:19Z</time>
      </trkpt>
      <trkpt lat="43.43227" lon="6.60916">
        <ele>55.400001525879</ele>
        <time>2008-10-10T09:10:24Z</time>
      </trkpt>
      <trkpt lat="43.43207" lon="6.60874">
        <ele>55.200000762939</ele>
        <time>2008-10-10T09:10:34Z</time>
      </trkpt>
      <trkpt lat="43.43203" lon="6.60865">
        <ele>55</ele>
        <time>2008-10-10T09:10:36Z</time>
      </trkpt>
      <trkpt lat="43.43184" lon="6.60847">
        <ele>55.599998474121</ele>
        <time>2008-10-10T09:10:42Z</time>
      </trkpt>
      <trkpt lat="43.43153" lon="6.60802">
        <ele>57</ele>
        <time>2008-10-10T09:10:54Z</time>
      </trkpt>
      <trkpt lat="43.43135" lon="6.60763">
        <ele>58</ele>
        <time>2008-10-10T09:11:04Z</time>
      </trkpt>
      <trkpt lat="43.4312" lon="6.60746">
        <ele>58.400001525879</ele>
        <time>2008-10-10T09:11:10Z</time>
      </trkpt>
      <trkpt lat="43.43105" lon="6.60749">
        <ele>57.400001525879</ele>
        <time>2008-10-10T09:11:13Z</time>
      </trkpt>
      <trkpt lat="43.43066" lon="6.60736">
        <ele>59.599998474121</ele>
        <time>2008-10-10T09:11:25Z</time>
      </trkpt>
      <trkpt lat="43.43016" lon="6.60718">
        <ele>62.200000762939</ele>
        <time>2008-10-10T09:11:42Z</time>
      </trkpt>
      <trkpt lat="43.42988" lon="6.60751">
        <ele>64.199996948242</ele>
        <time>2008-10-10T09:11:56Z</time>
      </trkpt>
      <trkpt lat="43.42982" lon="6.60795">
        <ele>66.199996948242</ele>
        <time>2008-10-10T09:12:08Z</time>
      </trkpt>
      <trkpt lat="43.42993" lon="6.60852">
        <ele>71.599998474121</ele>
        <time>2008-10-10T09:12:27Z</time>
      </trkpt>
      <trkpt lat="43.43005" lon="6.60891">
        <ele>75.199996948242</ele>
        <time>2008-10-10T09:12:41Z</time>
      </trkpt>
      <trkpt lat="43.43021" lon="6.60948">
        <ele>77.199996948242</ele>
        <time>2008-10-10T09:12:58Z</time>
      </trkpt>
      <trkpt lat="43.4304" lon="6.6098">
        <ele>79.400001525879</ele>
        <time>2008-10-10T09:13:10Z</time>
      </trkpt>
      <trkpt lat="43.43059" lon="6.61021">
        <ele>82.400001525879</ele>
        <time>2008-10-10T09:13:25Z</time>
      </trkpt>
      <trkpt lat="43.43073" lon="6.61071">
        <ele>83.400001525879</ele>
        <time>2008-10-10T09:13:39Z</time>
      </trkpt>
      <trkpt lat="43.43068" lon="6.6109">
        <ele>83.199996948242</ele>
        <time>2008-10-10T09:13:43Z</time>
      </trkpt>
      <trkpt lat="43.43076" lon="6.61131">
        <ele>83.199996948242</ele>
        <time>2008-10-10T09:13:52Z</time>
      </trkpt>
      <trkpt lat="43.43082" lon="6.61136">
        <ele>83.400001525879</ele>
        <time>2008-10-10T09:13:54Z</time>
      </trkpt>
      <trkpt lat="43.43113" lon="6.61164">
        <ele>85</ele>
        <time>2008-10-10T09:14:06Z</time>
      </trkpt>
      <trkpt lat="43.43132" lon="6.61214">
        <ele>87.800003051758</ele>
        <time>2008-10-10T09:14:20Z</time>
      </trkpt>
      <trkpt lat="43.43126" lon="6.61267">
        <ele>89.199996948242</ele>
        <time>2008-10-10T09:14:33Z</time>
      </trkpt>
      <trkpt lat="43.43104" lon="6.6131">
        <ele>91.400001525879</ele>
        <time>2008-10-10T09:14:46Z</time>
      </trkpt>
      <trkpt lat="43.43084" lon="6.61341">
        <ele>94</ele>
        <time>2008-10-10T09:14:59Z</time>
      </trkpt>
      <trkpt lat="43.43059" lon="6.61364">
        <ele>96.400001525879</ele>
        <time>2008-10-10T09:15:12Z</time>
      </trkpt>
      <trkpt lat="43.43047" lon="6.61401">
        <ele>98.400001525879</ele>
        <time>2008-10-10T09:15:24Z</time>
      </trkpt>
      <trkpt lat="43.4305" lon="6.61425">
        <ele>99.400001525879</ele>
        <time>2008-10-10T09:15:32Z</time>
      </trkpt>
      <trkpt lat="43.43043" lon="6.61434">
        <ele>101.19999694824</ele>
        <time>2008-10-10T09:15:39Z</time>
      </trkpt>
      <trkpt lat="43.43023" lon="6.61406">
        <ele>104</ele>
        <time>2008-10-10T09:15:54Z</time>
      </trkpt>
      <trkpt lat="43.4301" lon="6.61374">
        <ele>107</ele>
        <time>2008-10-10T09:16:07Z</time>
      </trkpt>
      <trkpt lat="43.43003" lon="6.61325">
        <ele>109.40000152588</ele>
        <time>2008-10-10T09:16:24Z</time>
      </trkpt>
      <trkpt lat="43.42994" lon="6.61307">
        <ele>110.40000152588</ele>
        <time>2008-10-10T09:16:32Z</time>
      </trkpt>
      <trkpt lat="43.42986" lon="6.61312">
        <ele>111</ele>
        <time>2008-10-10T09:16:38Z</time>
      </trkpt>
      <trkpt lat="43.42988" lon="6.61352">
        <ele>114.40000152588</ele>
        <time>2008-10-10T09:16:53Z</time>
      </trkpt>
      <trkpt lat="43.42977" lon="6.61398">
        <ele>116.19999694824</ele>
        <time>2008-10-10T09:17:08Z</time>
      </trkpt>
      <trkpt lat="43.42968" lon="6.61429">
        <ele>120.19999694824</ele>
        <time>2008-10-10T09:17:24Z</time>
      </trkpt>
      <trkpt lat="43.42961" lon="6.6144">
        <ele>123</ele>
        <time>2008-10-10T09:17:35Z</time>
      </trkpt>
      <trkpt lat="43.42954" lon="6.61446">
        <ele>125.59999847412</ele>
        <time>2008-10-10T09:17:49Z</time>
      </trkpt>
      <trkpt lat="43.42942" lon="6.61457">
        <ele>129.60000610352</ele>
        <time>2008-10-10T09:18:11Z</time>
      </trkpt>
      <trkpt lat="43.4294" lon="6.61459">
        <ele>130.60000610352</ele>
        <time>2008-10-10T09:18:14Z</time>
      </trkpt>
      <trkpt lat="43.42931" lon="6.61465">
        <ele>133.19999694824</ele>
        <time>2008-10-10T09:18:27Z</time>
      </trkpt>
      <trkpt lat="43.42928" lon="6.61466">
        <ele>134.19999694824</ele>
        <time>2008-10-10T09:18:32Z</time>
      </trkpt>
      <trkpt lat="43.42921" lon="6.61475">
        <ele>135.19999694824</ele>
        <time>2008-10-10T09:18:42Z</time>
      </trkpt>
      <trkpt lat="43.42913" lon="6.61499">
        <ele>138.60000610352</ele>
        <time>2008-10-10T09:19:00Z</time>
      </trkpt>
      <trkpt lat="43.42911" lon="6.61501">
        <ele>139</ele>
        <time>2008-10-10T09:19:02Z</time>
      </trkpt>
      <trkpt lat="43.42899" lon="6.61517">
        <ele>142.19999694824</ele>
        <time>2008-10-10T09:19:19Z</time>
      </trkpt>
      <trkpt lat="43.42885" lon="6.61535">
        <ele>145.19999694824</ele>
        <time>2008-10-10T09:19:39Z</time>
      </trkpt>
      <trkpt lat="43.42878" lon="6.61556">
        <ele>147.80000305176</ele>
        <time>2008-10-10T09:19:54Z</time>
      </trkpt>
      <trkpt lat="43.42877" lon="6.61577">
        <ele>150</ele>
        <time>2008-10-10T09:20:11Z</time>
      </trkpt>
      <trkpt lat="43.42876" lon="6.6159">
        <ele>153</ele>
        <time>2008-10-10T09:20:25Z</time>
      </trkpt>
      <trkpt lat="43.42875" lon="6.61606">
        <ele>156.19999694824</ele>
        <time>2008-10-10T09:20:42Z</time>
      </trkpt>
      <trkpt lat="43.42875" lon="6.61613">
        <ele>157.80000305176</ele>
        <time>2008-10-10T09:20:49Z</time>
      </trkpt>
      <trkpt lat="43.42878" lon="6.61629">
        <ele>160.60000610352</ele>
        <time>2008-10-10T09:21:08Z</time>
      </trkpt>
      <trkpt lat="43.4288" lon="6.61648">
        <ele>163.39999389648</ele>
        <time>2008-10-10T09:21:26Z</time>
      </trkpt>
      <trkpt lat="43.42881" lon="6.61656">
        <ele>164.80000305176</ele>
        <time>2008-10-10T09:21:32Z</time>
      </trkpt>
      <trkpt lat="43.42881" lon="6.61669">
        <ele>167.19999694824</ele>
        <time>2008-10-10T09:21:46Z</time>
      </trkpt>
      <trkpt lat="43.42881" lon="6.61672">
        <ele>168</ele>
        <time>2008-10-10T09:21:50Z</time>
      </trkpt>
      <trkpt lat="43.4288" lon="6.61677">
        <ele>168.80000305176</ele>
        <time>2008-10-10T09:21:56Z</time>
      </trkpt>
      <trkpt lat="43.42861" lon="6.61694">
        <ele>172.19999694824</ele>
        <time>2008-10-10T09:22:19Z</time>
      </trkpt>
      <trkpt lat="43.4284" lon="6.61678">
        <ele>174.80000305176</ele>
        <time>2008-10-10T09:22:39Z</time>
      </trkpt>
      <trkpt lat="43.42822" lon="6.61666">
        <ele>179</ele>
        <time>2008-10-10T09:23:00Z</time>
      </trkpt>
      <trkpt lat="43.42813" lon="6.61659">
        <ele>182</ele>
        <time>2008-10-10T09:23:15Z</time>
      </trkpt>
      <trkpt lat="43.42804" lon="6.61645">
        <ele>185.39999389648</ele>
        <time>2008-10-10T09:23:37Z</time>
      </trkpt>
      <trkpt lat="43.42805" lon="6.61623">
        <ele>189</ele>
        <time>2008-10-10T09:23:57Z</time>
      </trkpt>
      <trkpt lat="43.42804" lon="6.61609">
        <ele>191.19999694824</ele>
        <time>2008-10-10T09:24:10Z</time>
      </trkpt>
      <trkpt lat="43.42798" lon="6.61587">
        <ele>194</ele>
        <time>2008-10-10T09:24:30Z</time>
      </trkpt>
      <trkpt lat="43.4279" lon="6.61566">
        <ele>197.60000610352</ele>
        <time>2008-10-10T09:24:50Z</time>
      </trkpt>
      <trkpt lat="43.42782" lon="6.61548">
        <ele>201</ele>
        <time>2008-10-10T09:25:09Z</time>
      </trkpt>
      <trkpt lat="43.42776" lon="6.61527">
        <ele>204.60000610352</ele>
        <time>2008-10-10T09:25:30Z</time>
      </trkpt>
      <trkpt lat="43.42776" lon="6.61502">
        <ele>207.19999694824</ele>
        <time>2008-10-10T09:25:51Z</time>
      </trkpt>
      <trkpt lat="43.42776" lon="6.61501">
        <ele>207.60000610352</ele>
        <time>2008-10-10T09:25:52Z</time>
      </trkpt>
      <trkpt lat="43.42773" lon="6.6148">
        <ele>210.19999694824</ele>
        <time>2008-10-10T09:26:09Z</time>
      </trkpt>
      <trkpt lat="43.42754" lon="6.61484">
        <ele>212.80000305176</ele>
        <time>2008-10-10T09:26:29Z</time>
      </trkpt>
      <trkpt lat="43.4274" lon="6.61492">
        <ele>214.19999694824</ele>
        <time>2008-10-10T09:26:43Z</time>
      </trkpt>
      <trkpt lat="43.42709" lon="6.61504">
        <ele>214.60000610352</ele>
        <time>2008-10-10T09:26:57Z</time>
      </trkpt>
      <trkpt lat="43.4268" lon="6.61517">
        <ele>215.19999694824</ele>
        <time>2008-10-10T09:27:06Z</time>
      </trkpt>
      <trkpt lat="43.42685" lon="6.61553">
        <ele>214.19999694824</ele>
        <time>2008-10-10T09:27:14Z</time>
      </trkpt>
      <trkpt lat="43.42691" lon="6.61562">
        <ele>213.39999389648</ele>
        <time>2008-10-10T09:27:16Z</time>
      </trkpt>
      <trkpt lat="43.42698" lon="6.61587">
        <ele>211.19999694824</ele>
        <time>2008-10-10T09:27:20Z</time>
      </trkpt>
      <trkpt lat="43.42698" lon="6.61618">
        <ele>208.60000610352</ele>
        <time>2008-10-10T09:27:24Z</time>
      </trkpt>
      <trkpt lat="43.42688" lon="6.61647">
        <ele>205.19999694824</ele>
        <time>2008-10-10T09:27:29Z</time>
      </trkpt>
      <trkpt lat="43.42684" lon="6.61657">
        <ele>203.39999389648</ele>
        <time>2008-10-10T09:27:31Z</time>
      </trkpt>
      <trkpt lat="43.4268" lon="6.61679">
        <ele>199.60000610352</ele>
        <time>2008-10-10T09:27:35Z</time>
      </trkpt>
      <trkpt lat="43.42672" lon="6.61705">
        <ele>194.19999694824</ele>
        <time>2008-10-10T09:27:39Z</time>
      </trkpt>
      <trkpt lat="43.42671" lon="6.61712">
        <ele>193.80000305176</ele>
        <time>2008-10-10T09:27:40Z</time>
      </trkpt>
      <trkpt lat="43.42665" lon="6.61731">
        <ele>190</ele>
        <time>2008-10-10T09:27:43Z</time>
      </trkpt>
      <trkpt lat="43.42661" lon="6.61748">
        <ele>188</ele>
        <time>2008-10-10T09:27:46Z</time>
      </trkpt>
      <trkpt lat="43.4266" lon="6.61761">
        <ele>185.60000610352</ele>
        <time>2008-10-10T09:27:49Z</time>
      </trkpt>
      <trkpt lat="43.42656" lon="6.61786">
        <ele>180.60000610352</ele>
        <time>2008-10-10T09:27:54Z</time>
      </trkpt>
      <trkpt lat="43.42644" lon="6.6181">
        <ele>177.80000305176</ele>
        <time>2008-10-10T09:27:58Z</time>
      </trkpt>
      <trkpt lat="43.42631" lon="6.61825">
        <ele>175.19999694824</ele>
        <time>2008-10-10T09:28:01Z</time>
      </trkpt>
      <trkpt lat="43.42618" lon="6.61843">
        <ele>172</ele>
        <time>2008-10-10T09:28:05Z</time>
      </trkpt>
      <trkpt lat="43.42601" lon="6.61877">
        <ele>165</ele>
        <time>2008-10-10T09:28:12Z</time>
      </trkpt>
      <trkpt lat="43.42583" lon="6.61893">
        <ele>162.39999389648</ele>
        <time>2008-10-10T09:28:16Z</time>
      </trkpt>
      <trkpt lat="43.42554" lon="6.61918">
        <ele>158.39999389648</ele>
        <time>2008-10-10T09:28:22Z</time>
      </trkpt>
      <trkpt lat="43.42538" lon="6.61936">
        <ele>156</ele>
        <time>2008-10-10T09:28:26Z</time>
      </trkpt>
      <trkpt lat="43.42535" lon="6.6194">
        <ele>154.80000305176</ele>
        <time>2008-10-10T09:28:27Z</time>
      </trkpt>
      <trkpt lat="43.42528" lon="6.61948">
        <ele>153</ele>
        <time>2008-10-10T09:28:29Z</time>
      </trkpt>
      <trkpt lat="43.42514" lon="6.61954">
        <ele>151</ele>
        <time>2008-10-10T09:28:33Z</time>
      </trkpt>
      <trkpt lat="43.42504" lon="6.61962">
        <ele>148.39999389648</ele>
        <time>2008-10-10T09:28:37Z</time>
      </trkpt>
      <trkpt lat="43.42499" lon="6.61969">
        <ele>146.19999694824</ele>
        <time>2008-10-10T09:28:39Z</time>
      </trkpt>
      <trkpt lat="43.4249" lon="6.6199">
        <ele>142.60000610352</ele>
        <time>2008-10-10T09:28:43Z</time>
      </trkpt>
      <trkpt lat="43.4249" lon="6.62018">
        <ele>137.80000305176</ele>
        <time>2008-10-10T09:28:49Z</time>
      </trkpt>
      <trkpt lat="43.42511" lon="6.62027">
        <ele>134</ele>
        <time>2008-10-10T09:28:54Z</time>
      </trkpt>
      <trkpt lat="43.4253" lon="6.62048">
        <ele>130.80000305176</ele>
        <time>2008-10-10T09:28:59Z</time>
      </trkpt>
      <trkpt lat="43.42536" lon="6.62061">
        <ele>130</ele>
        <time>2008-10-10T09:29:01Z</time>
      </trkpt>
      <trkpt lat="43.42543" lon="6.62075">
        <ele>128.19999694824</ele>
        <time>2008-10-10T09:29:03Z</time>
      </trkpt>
      <trkpt lat="43.42552" lon="6.62092">
        <ele>126.59999847412</ele>
        <time>2008-10-10T09:29:06Z</time>
      </trkpt>
      <trkpt lat="43.42553" lon="6.62096">
        <ele>126.59999847412</ele>
        <time>2008-10-10T09:29:07Z</time>
      </trkpt>
      <trkpt lat="43.42552" lon="6.62102">
        <ele>126</ele>
        <time>2008-10-10T09:29:09Z</time>
      </trkpt>
      <trkpt lat="43.42523" lon="6.6211">
        <ele>124.40000152588</ele>
        <time>2008-10-10T09:29:16Z</time>
      </trkpt>
      <trkpt lat="43.42501" lon="6.62102">
        <ele>123.59999847412</ele>
        <time>2008-10-10T09:29:20Z</time>
      </trkpt>
      <trkpt lat="43.42481" lon="6.6209">
        <ele>123.19999694824</ele>
        <time>2008-10-10T09:29:24Z</time>
      </trkpt>
      <trkpt lat="43.42448" lon="6.62041">
        <ele>124.80000305176</ele>
        <time>2008-10-10T09:29:37Z</time>
      </trkpt>
      <trkpt lat="43.42423" lon="6.62019">
        <ele>125</ele>
        <time>2008-10-10T09:29:47Z</time>
      </trkpt>
      <trkpt lat="43.42406" lon="6.62006">
        <ele>126.59999847412</ele>
        <time>2008-10-10T09:29:55Z</time>
      </trkpt>
      <trkpt lat="43.42395" lon="6.62">
        <ele>126.40000152588</ele>
        <time>2008-10-10T09:30:00Z</time>
      </trkpt>
      <trkpt lat="43.42382" lon="6.62003">
        <ele>128</ele>
        <time>2008-10-10T09:30:06Z</time>
      </trkpt>
      <trkpt lat="43.42362" lon="6.62014">
        <ele>128.80000305176</ele>
        <time>2008-10-10T09:30:14Z</time>
      </trkpt>
      <trkpt lat="43.42328" lon="6.62039">
        <ele>130</ele>
        <time>2008-10-10T09:30:29Z</time>
      </trkpt>
      <trkpt lat="43.42288" lon="6.62048">
        <ele>130.60000610352</ele>
        <time>2008-10-10T09:30:43Z</time>
      </trkpt>
      <trkpt lat="43.4224" lon="6.62043">
        <ele>131.60000610352</ele>
        <time>2008-10-10T09:30:59Z</time>
      </trkpt>
      <trkpt lat="43.42219" lon="6.62032">
        <ele>133.80000305176</ele>
        <time>2008-10-10T09:31:12Z</time>
      </trkpt>
      <trkpt lat="43.42198" lon="6.62023">
        <ele>136.19999694824</ele>
        <time>2008-10-10T09:31:26Z</time>
      </trkpt>
      <trkpt lat="43.42179" lon="6.62015">
        <ele>138.60000610352</ele>
        <time>2008-10-10T09:31:40Z</time>
      </trkpt>
      <trkpt lat="43.42167" lon="6.62012">
        <ele>139.80000305176</ele>
        <time>2008-10-10T09:31:47Z</time>
      </trkpt>
      <trkpt lat="43.42127" lon="6.6201">
        <ele>140.39999389648</ele>
        <time>2008-10-10T09:32:02Z</time>
      </trkpt>
      <trkpt lat="43.42072" lon="6.61998">
        <ele>140.60000610352</ele>
        <time>2008-10-10T09:32:17Z</time>
      </trkpt>
      <trkpt lat="43.42036" lon="6.61992">
        <ele>141.39999389648</ele>
        <time>2008-10-10T09:32:28Z</time>
      </trkpt>
      <trkpt lat="43.42002" lon="6.61985">
        <ele>143.19999694824</ele>
        <time>2008-10-10T09:32:43Z</time>
      </trkpt>
      <trkpt lat="43.41995" lon="6.61987">
        <ele>143.60000610352</ele>
        <time>2008-10-10T09:32:50Z</time>
      </trkpt>
      <trkpt lat="43.41994" lon="6.61991">
        <ele>144.80000305176</ele>
        <time>2008-10-10T09:32:53Z</time>
      </trkpt>
      <trkpt lat="43.41992" lon="6.61993">
        <ele>145</ele>
        <time>2008-10-10T09:32:58Z</time>
      </trkpt>
      <trkpt lat="43.41982" lon="6.62002">
        <ele>145.19999694824</ele>
        <time>2008-10-10T09:33:08Z</time>
      </trkpt>
      <trkpt lat="43.41957" lon="6.62019">
        <ele>146.80000305176</ele>
        <time>2008-10-10T09:33:22Z</time>
      </trkpt>
      <trkpt lat="43.41927" lon="6.62038">
        <ele>148.80000305176</ele>
        <time>2008-10-10T09:33:38Z</time>
      </trkpt>
      <trkpt lat="43.41886" lon="6.62062">
        <ele>151.19999694824</ele>
        <time>2008-10-10T09:33:56Z</time>
      </trkpt>
      <trkpt lat="43.41848" lon="6.62067">
        <ele>152.19999694824</ele>
        <time>2008-10-10T09:34:10Z</time>
      </trkpt>
      <trkpt lat="43.41808" lon="6.62079">
        <ele>153</ele>
        <time>2008-10-10T09:34:25Z</time>
      </trkpt>
      <trkpt lat="43.41772" lon="6.62074">
        <ele>154.39999389648</ele>
        <time>2008-10-10T09:34:38Z</time>
      </trkpt>
      <trkpt lat="43.41749" lon="6.6207">
        <ele>156.19999694824</ele>
        <time>2008-10-10T09:34:49Z</time>
      </trkpt>
      <trkpt lat="43.41734" lon="6.62065">
        <ele>157.60000610352</ele>
        <time>2008-10-10T09:34:59Z</time>
      </trkpt>
      <trkpt lat="43.41714" lon="6.62062">
        <ele>160</ele>
        <time>2008-10-10T09:35:14Z</time>
      </trkpt>
      <trkpt lat="43.41696" lon="6.62058">
        <ele>161.39999389648</ele>
        <time>2008-10-10T09:35:25Z</time>
      </trkpt>
      <trkpt lat="43.41677" lon="6.62056">
        <ele>163</ele>
        <time>2008-10-10T09:35:38Z</time>
      </trkpt>
      <trkpt lat="43.41653" lon="6.62052">
        <ele>164.39999389648</ele>
        <time>2008-10-10T09:35:50Z</time>
      </trkpt>
      <trkpt lat="43.41637" lon="6.62047">
        <ele>165.19999694824</ele>
        <time>2008-10-10T09:36:00Z</time>
      </trkpt>
      <trkpt lat="43.41618" lon="6.62036">
        <ele>167.39999389648</ele>
        <time>2008-10-10T09:36:15Z</time>
      </trkpt>
      <trkpt lat="43.41602" lon="6.62037">
        <ele>169.39999389648</ele>
        <time>2008-10-10T09:36:27Z</time>
      </trkpt>
      <trkpt lat="43.41581" lon="6.62039">
        <ele>170.80000305176</ele>
        <time>2008-10-10T09:36:39Z</time>
      </trkpt>
      <trkpt lat="43.41554" lon="6.62046">
        <ele>172.80000305176</ele>
        <time>2008-10-10T09:36:53Z</time>
      </trkpt>
      <trkpt lat="43.41535" lon="6.6204">
        <ele>175.19999694824</ele>
        <time>2008-10-10T09:37:06Z</time>
      </trkpt>
      <trkpt lat="43.41517" lon="6.62029">
        <ele>177.80000305176</ele>
        <time>2008-10-10T09:37:21Z</time>
      </trkpt>
      <trkpt lat="43.4151" lon="6.62023">
        <ele>179.60000610352</ele>
        <time>2008-10-10T09:37:33Z</time>
      </trkpt>
      <trkpt lat="43.41501" lon="6.62013">
        <ele>180.80000305176</ele>
        <time>2008-10-10T09:37:46Z</time>
      </trkpt>
      <trkpt lat="43.41498" lon="6.62008">
        <ele>181.80000305176</ele>
        <time>2008-10-10T09:37:52Z</time>
      </trkpt>
      <trkpt lat="43.41493" lon="6.62">
        <ele>183.19999694824</ele>
        <time>2008-10-10T09:38:03Z</time>
      </trkpt>
      <trkpt lat="43.41493" lon="6.62">
        <ele>183.60000610352</ele>
        <time>2008-10-10T09:38:04Z</time>
      </trkpt>
      <trkpt lat="43.4149" lon="6.61995">
        <ele>184.39999389648</ele>
        <time>2008-10-10T09:38:10Z</time>
      </trkpt>
      <trkpt lat="43.41486" lon="6.61986">
        <ele>185.80000305176</ele>
        <time>2008-10-10T09:38:21Z</time>
      </trkpt>
      <trkpt lat="43.41484" lon="6.61978">
        <ele>186.19999694824</ele>
        <time>2008-10-10T09:38:27Z</time>
      </trkpt>
      <trkpt lat="43.41471" lon="6.61956">
        <ele>188</ele>
        <time>2008-10-10T09:38:45Z</time>
      </trkpt>
      <trkpt lat="43.4147" lon="6.61954">
        <ele>188</ele>
        <time>2008-10-10T09:38:47Z</time>
      </trkpt>
      <trkpt lat="43.4146" lon="6.61934">
        <ele>190.19999694824</ele>
        <time>2008-10-10T09:39:06Z</time>
      </trkpt>
      <trkpt lat="43.4145" lon="6.61916">
        <ele>192.39999389648</ele>
        <time>2008-10-10T09:39:22Z</time>
      </trkpt>
      <trkpt lat="43.41447" lon="6.61904">
        <ele>192.39999389648</ele>
        <time>2008-10-10T09:39:33Z</time>
      </trkpt>
      <trkpt lat="43.41435" lon="6.61865">
        <ele>193.60000610352</ele>
        <time>2008-10-10T09:39:48Z</time>
      </trkpt>
      <trkpt lat="43.41409" lon="6.61815">
        <ele>195.80000305176</ele>
        <time>2008-10-10T09:40:05Z</time>
      </trkpt>
      <trkpt lat="43.41406" lon="6.618">
        <ele>196.60000610352</ele>
        <time>2008-10-10T09:40:19Z</time>
      </trkpt>
      <trkpt lat="43.41406" lon="6.618">
        <ele>196.39999389648</ele>
        <time>2008-10-10T09:40:20Z</time>
      </trkpt>
      <trkpt lat="43.41399" lon="6.61793">
        <ele>198.60000610352</ele>
        <time>2008-10-10T09:40:33Z</time>
      </trkpt>
      <trkpt lat="43.41398" lon="6.6179">
        <ele>199.60000610352</ele>
        <time>2008-10-10T09:40:38Z</time>
      </trkpt>
      <trkpt lat="43.41387" lon="6.61778">
        <ele>201.19999694824</ele>
        <time>2008-10-10T09:40:53Z</time>
      </trkpt>
      <trkpt lat="43.4136" lon="6.61755">
        <ele>202.80000305176</ele>
        <time>2008-10-10T09:41:08Z</time>
      </trkpt>
      <trkpt lat="43.41341" lon="6.61724">
        <ele>202.80000305176</ele>
        <time>2008-10-10T09:41:22Z</time>
      </trkpt>
      <trkpt lat="43.41349" lon="6.61687">
        <ele>204.60000610352</ele>
        <time>2008-10-10T09:41:36Z</time>
      </trkpt>
      <trkpt lat="43.41372" lon="6.61667">
        <ele>207</ele>
        <time>2008-10-10T09:41:49Z</time>
      </trkpt>
      <trkpt lat="43.41394" lon="6.61638">
        <ele>210.60000610352</ele>
        <time>2008-10-10T09:42:08Z</time>
      </trkpt>
      <trkpt lat="43.41418" lon="6.61602">
        <ele>213</ele>
        <time>2008-10-10T09:42:25Z</time>
      </trkpt>
      <trkpt lat="43.41446" lon="6.61588">
        <ele>213.80000305176</ele>
        <time>2008-10-10T09:42:36Z</time>
      </trkpt>
      <trkpt lat="43.41472" lon="6.61573">
        <ele>218.39999389648</ele>
        <time>2008-10-10T09:42:50Z</time>
      </trkpt>
      <trkpt lat="43.41473" lon="6.61572">
        <ele>218.60000610352</ele>
        <time>2008-10-10T09:42:51Z</time>
      </trkpt>
      <trkpt lat="43.41494" lon="6.61566">
        <ele>222.39999389648</ele>
        <time>2008-10-10T09:43:08Z</time>
      </trkpt>
      <trkpt lat="43.41515" lon="6.6157">
        <ele>226.19999694824</ele>
        <time>2008-10-10T09:43:24Z</time>
      </trkpt>
      <trkpt lat="43.41522" lon="6.6157">
        <ele>227.39999389648</ele>
        <time>2008-10-10T09:43:31Z</time>
      </trkpt>
      <trkpt lat="43.41528" lon="6.61569">
        <ele>228.60000610352</ele>
        <time>2008-10-10T09:43:42Z</time>
      </trkpt>
      <trkpt lat="43.41538" lon="6.61563">
        <ele>230.39999389648</ele>
        <time>2008-10-10T09:43:58Z</time>
      </trkpt>
      <trkpt lat="43.41542" lon="6.61563">
        <ele>231.39999389648</ele>
        <time>2008-10-10T09:44:05Z</time>
      </trkpt>
      <trkpt lat="43.41548" lon="6.61563">
        <ele>232.60000610352</ele>
        <time>2008-10-10T09:44:13Z</time>
      </trkpt>
      <trkpt lat="43.41567" lon="6.61569">
        <ele>235.19999694824</ele>
        <time>2008-10-10T09:44:33Z</time>
      </trkpt>
      <trkpt lat="43.4158" lon="6.61577">
        <ele>237.19999694824</ele>
        <time>2008-10-10T09:44:48Z</time>
      </trkpt>
      <trkpt lat="43.4159" lon="6.61583">
        <ele>240.39999389648</ele>
        <time>2008-10-10T09:45:03Z</time>
      </trkpt>
      <trkpt lat="43.41596" lon="6.61591">
        <ele>241.80000305176</ele>
        <time>2008-10-10T09:45:13Z</time>
      </trkpt>
      <trkpt lat="43.41608" lon="6.61601">
        <ele>244.60000610352</ele>
        <time>2008-10-10T09:45:32Z</time>
      </trkpt>
      <trkpt lat="43.41627" lon="6.61597">
        <ele>247.60000610352</ele>
        <time>2008-10-10T09:45:54Z</time>
      </trkpt>
      <trkpt lat="43.41646" lon="6.61601">
        <ele>250.80000305176</ele>
        <time>2008-10-10T09:46:14Z</time>
      </trkpt>
      <trkpt lat="43.41665" lon="6.61606">
        <ele>253.80000305176</ele>
        <time>2008-10-10T09:46:35Z</time>
      </trkpt>
      <trkpt lat="43.41682" lon="6.61606">
        <ele>256.79998779297</ele>
        <time>2008-10-10T09:46:54Z</time>
      </trkpt>
      <trkpt lat="43.41689" lon="6.61584">
        <ele>258.39999389648</ele>
        <time>2008-10-10T09:47:13Z</time>
      </trkpt>
      <trkpt lat="43.417" lon="6.61557">
        <ele>262.20001220703</ele>
        <time>2008-10-10T09:47:33Z</time>
      </trkpt>
      <trkpt lat="43.41703" lon="6.61536">
        <ele>264.79998779297</ele>
        <time>2008-10-10T09:47:50Z</time>
      </trkpt>
      <trkpt lat="43.41703" lon="6.61528">
        <ele>266</ele>
        <time>2008-10-10T09:47:56Z</time>
      </trkpt>
      <trkpt lat="43.41714" lon="6.61528">
        <ele>266.39999389648</ele>
        <time>2008-10-10T09:48:02Z</time>
      </trkpt>
      <trkpt lat="43.4173" lon="6.6153">
        <ele>264.79998779297</ele>
        <time>2008-10-10T09:48:06Z</time>
      </trkpt>
      <trkpt lat="43.41744" lon="6.61523">
        <ele>263.39999389648</ele>
        <time>2008-10-10T09:48:09Z</time>
      </trkpt>
      <trkpt lat="43.41775" lon="6.61494">
        <ele>260.60000610352</ele>
        <time>2008-10-10T09:48:15Z</time>
      </trkpt>
      <trkpt lat="43.41786" lon="6.61483">
        <ele>260</ele>
        <time>2008-10-10T09:48:17Z</time>
      </trkpt>
      <trkpt lat="43.41799" lon="6.61475">
        <ele>258.79998779297</ele>
        <time>2008-10-10T09:48:19Z</time>
      </trkpt>
      <trkpt lat="43.41819" lon="6.61465">
        <ele>258.79998779297</ele>
        <time>2008-10-10T09:48:22Z</time>
      </trkpt>
      <trkpt lat="43.41844" lon="6.61457">
        <ele>258</ele>
        <time>2008-10-10T09:48:26Z</time>
      </trkpt>
      <trkpt lat="43.41878" lon="6.61459">
        <ele>258.79998779297</ele>
        <time>2008-10-10T09:48:35Z</time>
      </trkpt>
      <trkpt lat="43.41909" lon="6.6145">
        <ele>257.20001220703</ele>
        <time>2008-10-10T09:48:41Z</time>
      </trkpt>
      <trkpt lat="43.4192" lon="6.61449">
        <ele>257.20001220703</ele>
        <time>2008-10-10T09:48:43Z</time>
      </trkpt>
      <trkpt lat="43.41962" lon="6.61459">
        <ele>257.39999389648</ele>
        <time>2008-10-10T09:48:52Z</time>
      </trkpt>
      <trkpt lat="43.41988" lon="6.6147">
        <ele>260.79998779297</ele>
        <time>2008-10-10T09:49:02Z</time>
      </trkpt>
      <trkpt lat="43.41997" lon="6.6147">
        <ele>262.20001220703</ele>
        <time>2008-10-10T09:49:08Z</time>
      </trkpt>
      <trkpt lat="43.42009" lon="6.61468">
        <ele>265</ele>
        <time>2008-10-10T09:49:16Z</time>
      </trkpt>
      <trkpt lat="43.42023" lon="6.61467">
        <ele>264.79998779297</ele>
        <time>2008-10-10T09:49:23Z</time>
      </trkpt>
      <trkpt lat="43.42044" lon="6.61466">
        <ele>265</ele>
        <time>2008-10-10T09:49:33Z</time>
      </trkpt>
      <trkpt lat="43.42049" lon="6.6147">
        <ele>266.60000610352</ele>
        <time>2008-10-10T09:49:36Z</time>
      </trkpt>
      <trkpt lat="43.42076" lon="6.61485">
        <ele>268.79998779297</ele>
        <time>2008-10-10T09:49:52Z</time>
      </trkpt>
      <trkpt lat="43.42108" lon="6.61497">
        <ele>270.60000610352</ele>
        <time>2008-10-10T09:50:06Z</time>
      </trkpt>
      <trkpt lat="43.42118" lon="6.61509">
        <ele>272.39999389648</ele>
        <time>2008-10-10T09:50:12Z</time>
      </trkpt>
      <trkpt lat="43.42137" lon="6.61552">
        <ele>273.60000610352</ele>
        <time>2008-10-10T09:50:26Z</time>
      </trkpt>
      <trkpt lat="43.42162" lon="6.61538">
        <ele>276</ele>
        <time>2008-10-10T09:50:39Z</time>
      </trkpt>
      <trkpt lat="43.42186" lon="6.61521">
        <ele>278.79998779297</ele>
        <time>2008-10-10T09:50:54Z</time>
      </trkpt>
      <trkpt lat="43.42202" lon="6.61496">
        <ele>281.20001220703</ele>
        <time>2008-10-10T09:51:07Z</time>
      </trkpt>
      <trkpt lat="43.42197" lon="6.61491">
        <ele>281.20001220703</ele>
        <time>2008-10-10T09:51:12Z</time>
      </trkpt>
      <trkpt lat="43.4219" lon="6.61495">
        <ele>279.39999389648</ele>
        <time>2008-10-10T09:51:14Z</time>
      </trkpt>
      <trkpt lat="43.4217" lon="6.61496">
        <ele>276.39999389648</ele>
        <time>2008-10-10T09:51:19Z</time>
      </trkpt>
      <trkpt lat="43.42152" lon="6.61483">
        <ele>273.79998779297</ele>
        <time>2008-10-10T09:51:24Z</time>
      </trkpt>
      <trkpt lat="43.42121" lon="6.61457">
        <ele>270</ele>
        <time>2008-10-10T09:51:31Z</time>
      </trkpt>
      <trkpt lat="43.42099" lon="6.6144">
        <ele>266.39999389648</ele>
        <time>2008-10-10T09:51:36Z</time>
      </trkpt>
      <trkpt lat="43.42088" lon="6.6143">
        <ele>264.39999389648</ele>
        <time>2008-10-10T09:51:39Z</time>
      </trkpt>
      <trkpt lat="43.42085" lon="6.61424">
        <ele>263.79998779297</ele>
        <time>2008-10-10T09:51:41Z</time>
      </trkpt>
      <trkpt lat="43.4208" lon="6.61408">
        <ele>262.60000610352</ele>
        <time>2008-10-10T09:51:45Z</time>
      </trkpt>
      <trkpt lat="43.42076" lon="6.61389">
        <ele>261</ele>
        <time>2008-10-10T09:51:48Z</time>
      </trkpt>
      <trkpt lat="43.42084" lon="6.61359">
        <ele>260.39999389648</ele>
        <time>2008-10-10T09:51:55Z</time>
      </trkpt>
      <trkpt lat="43.42086" lon="6.61351">
        <ele>259</ele>
        <time>2008-10-10T09:51:57Z</time>
      </trkpt>
      <trkpt lat="43.42086" lon="6.61344">
        <ele>257</ele>
        <time>2008-10-10T09:51:59Z</time>
      </trkpt>
      <trkpt lat="43.42091" lon="6.61337">
        <ele>256.60000610352</ele>
        <time>2008-10-10T09:52:05Z</time>
      </trkpt>
      <trkpt lat="43.42094" lon="6.61336">
        <ele>256.20001220703</ele>
        <time>2008-10-10T09:52:09Z</time>
      </trkpt>
      <trkpt lat="43.42097" lon="6.61331">
        <ele>255.39999389648</ele>
        <time>2008-10-10T09:52:14Z</time>
      </trkpt>
      <trkpt lat="43.42097" lon="6.61319">
        <ele>252.19999694824</ele>
        <time>2008-10-10T09:52:26Z</time>
      </trkpt>
      <trkpt lat="43.42094" lon="6.61303">
        <ele>249.80000305176</ele>
        <time>2008-10-10T09:52:41Z</time>
      </trkpt>
      <trkpt lat="43.42089" lon="6.613">
        <ele>247.39999389648</ele>
        <time>2008-10-10T09:52:44Z</time>
      </trkpt>
      <trkpt lat="43.42088" lon="6.61299">
        <ele>246.39999389648</ele>
        <time>2008-10-10T09:52:46Z</time>
      </trkpt>
      <trkpt lat="43.42088" lon="6.61299">
        <ele>246.39999389648</ele>
        <time>2008-10-10T09:52:47Z</time>
      </trkpt>
      <trkpt lat="43.42081" lon="6.61286">
        <ele>243.39999389648</ele>
        <time>2008-10-10T09:52:53Z</time>
      </trkpt>
      <trkpt lat="43.42075" lon="6.61282">
        <ele>241</ele>
        <time>2008-10-10T09:52:57Z</time>
      </trkpt>
      <trkpt lat="43.42074" lon="6.61281">
        <ele>240.39999389648</ele>
        <time>2008-10-10T09:52:58Z</time>
      </trkpt>
      <trkpt lat="43.42066" lon="6.61278">
        <ele>237.39999389648</ele>
        <time>2008-10-10T09:53:07Z</time>
      </trkpt>
      <trkpt lat="43.42059" lon="6.61253">
        <ele>232.60000610352</ele>
        <time>2008-10-10T09:53:15Z</time>
      </trkpt>
      <trkpt lat="43.42058" lon="6.61251">
        <ele>231.60000610352</ele>
        <time>2008-10-10T09:53:16Z</time>
      </trkpt>
      <trkpt lat="43.42058" lon="6.61246">
        <ele>230.60000610352</ele>
        <time>2008-10-10T09:53:18Z</time>
      </trkpt>
      <trkpt lat="43.42057" lon="6.61244">
        <ele>230.19999694824</ele>
        <time>2008-10-10T09:53:20Z</time>
      </trkpt>
      <trkpt lat="43.42048" lon="6.6124">
        <ele>227.39999389648</ele>
        <time>2008-10-10T09:53:26Z</time>
      </trkpt>
      <trkpt lat="43.42043" lon="6.61236">
        <ele>226.60000610352</ele>
        <time>2008-10-10T09:53:28Z</time>
      </trkpt>
      <trkpt lat="43.42037" lon="6.61229">
        <ele>225.19999694824</ele>
        <time>2008-10-10T09:53:31Z</time>
      </trkpt>
      <trkpt lat="43.42019" lon="6.61201">
        <ele>219</ele>
        <time>2008-10-10T09:53:41Z</time>
      </trkpt>
      <trkpt lat="43.41998" lon="6.61163">
        <ele>214.60000610352</ele>
        <time>2008-10-10T09:53:50Z</time>
      </trkpt>
      <trkpt lat="43.41991" lon="6.61137">
        <ele>210.60000610352</ele>
        <time>2008-10-10T09:53:59Z</time>
      </trkpt>
      <trkpt lat="43.4199" lon="6.61119">
        <ele>209.39999389648</ele>
        <time>2008-10-10T09:54:04Z</time>
      </trkpt>
      <trkpt lat="43.41988" lon="6.61112">
        <ele>208.39999389648</ele>
        <time>2008-10-10T09:54:07Z</time>
      </trkpt>
      <trkpt lat="43.41975" lon="6.61119">
        <ele>208</ele>
        <time>2008-10-10T09:54:15Z</time>
      </trkpt>
      <trkpt lat="43.41958" lon="6.61138">
        <ele>210.19999694824</ele>
        <time>2008-10-10T09:54:25Z</time>
      </trkpt>
      <trkpt lat="43.41947" lon="6.61142">
        <ele>211</ele>
        <time>2008-10-10T09:54:30Z</time>
      </trkpt>
      <trkpt lat="43.41936" lon="6.61149">
        <ele>211.39999389648</ele>
        <time>2008-10-10T09:54:36Z</time>
      </trkpt>
      <trkpt lat="43.41925" lon="6.61153">
        <ele>212.39999389648</ele>
        <time>2008-10-10T09:54:42Z</time>
      </trkpt>
      <trkpt lat="43.41907" lon="6.61156">
        <ele>213.39999389648</ele>
        <time>2008-10-10T09:54:52Z</time>
      </trkpt>
      <trkpt lat="43.41903" lon="6.6116">
        <ele>214.80000305176</ele>
        <time>2008-10-10T09:54:55Z</time>
      </trkpt>
      <trkpt lat="43.41902" lon="6.61162">
        <ele>214.60000610352</ele>
        <time>2008-10-10T09:54:56Z</time>
      </trkpt>
      <trkpt lat="43.41885" lon="6.61176">
        <ele>217.80000305176</ele>
        <time>2008-10-10T09:55:11Z</time>
      </trkpt>
      <trkpt lat="43.4186" lon="6.61195">
        <ele>219.39999389648</ele>
        <time>2008-10-10T09:55:26Z</time>
      </trkpt>
      <trkpt lat="43.41827" lon="6.61217">
        <ele>220</ele>
        <time>2008-10-10T09:55:42Z</time>
      </trkpt>
      <trkpt lat="43.418" lon="6.61232">
        <ele>221.19999694824</ele>
        <time>2008-10-10T09:55:52Z</time>
      </trkpt>
      <trkpt lat="43.4178" lon="6.61235">
        <ele>221.80000305176</ele>
        <time>2008-10-10T09:56:03Z</time>
      </trkpt>
      <trkpt lat="43.4176" lon="6.61243">
        <ele>225.60000610352</ele>
        <time>2008-10-10T09:56:19Z</time>
      </trkpt>
      <trkpt lat="43.41739" lon="6.61254">
        <ele>228.19999694824</ele>
        <time>2008-10-10T09:56:34Z</time>
      </trkpt>
      <trkpt lat="43.41713" lon="6.61251">
        <ele>228.80000305176</ele>
        <time>2008-10-10T09:56:47Z</time>
      </trkpt>
      <trkpt lat="43.41712" lon="6.61242">
        <ele>229.80000305176</ele>
        <time>2008-10-10T09:56:51Z</time>
      </trkpt>
      <trkpt lat="43.4173" lon="6.61197">
        <ele>229.60000610352</ele>
        <time>2008-10-10T09:57:04Z</time>
      </trkpt>
      <trkpt lat="43.41726" lon="6.61154">
        <ele>230.80000305176</ele>
        <time>2008-10-10T09:57:15Z</time>
      </trkpt>
      <trkpt lat="43.41737" lon="6.61137">
        <ele>233.39999389648</ele>
        <time>2008-10-10T09:57:24Z</time>
      </trkpt>
      <trkpt lat="43.41731" lon="6.61127">
        <ele>235</ele>
        <time>2008-10-10T09:57:31Z</time>
      </trkpt>
      <trkpt lat="43.41721" lon="6.6113">
        <ele>236.39999389648</ele>
        <time>2008-10-10T09:57:37Z</time>
      </trkpt>
      <trkpt lat="43.41698" lon="6.61125">
        <ele>238.60000610352</ele>
        <time>2008-10-10T09:57:50Z</time>
      </trkpt>
      <trkpt lat="43.41677" lon="6.61103">
        <ele>241.19999694824</ele>
        <time>2008-10-10T09:58:07Z</time>
      </trkpt>
      <trkpt lat="43.41672" lon="6.61081">
        <ele>242.19999694824</ele>
        <time>2008-10-10T09:58:16Z</time>
      </trkpt>
      <trkpt lat="43.41659" lon="6.61069">
        <ele>243.60000610352</ele>
        <time>2008-10-10T09:58:24Z</time>
      </trkpt>
      <trkpt lat="43.41632" lon="6.6105">
        <ele>246.60000610352</ele>
        <time>2008-10-10T09:58:42Z</time>
      </trkpt>
      <trkpt lat="43.41615" lon="6.61033">
        <ele>249.39999389648</ele>
        <time>2008-10-10T09:58:56Z</time>
      </trkpt>
      <trkpt lat="43.41605" lon="6.61009">
        <ele>251.39999389648</ele>
        <time>2008-10-10T09:59:10Z</time>
      </trkpt>
      <trkpt lat="43.41604" lon="6.61008">
        <ele>251.60000610352</ele>
        <time>2008-10-10T09:59:11Z</time>
      </trkpt>
      <trkpt lat="43.41592" lon="6.61011">
        <ele>252.80000305176</ele>
        <time>2008-10-10T09:59:20Z</time>
      </trkpt>
      <trkpt lat="43.41588" lon="6.61042">
        <ele>255.39999389648</ele>
        <time>2008-10-10T09:59:34Z</time>
      </trkpt>
      <trkpt lat="43.41586" lon="6.61044">
        <ele>255.60000610352</ele>
        <time>2008-10-10T09:59:36Z</time>
      </trkpt>
      <trkpt lat="43.4158" lon="6.61047">
        <ele>256</ele>
        <time>2008-10-10T09:59:40Z</time>
      </trkpt>
      <trkpt lat="43.41551" lon="6.61043">
        <ele>258</ele>
        <time>2008-10-10T09:59:57Z</time>
      </trkpt>
      <trkpt lat="43.41518" lon="6.61034">
        <ele>260.60000610352</ele>
        <time>2008-10-10T10:00:15Z</time>
      </trkpt>
      <trkpt lat="43.41495" lon="6.61022">
        <ele>262.39999389648</ele>
        <time>2008-10-10T10:00:29Z</time>
      </trkpt>
      <trkpt lat="43.41465" lon="6.61028">
        <ele>264.20001220703</ele>
        <time>2008-10-10T10:00:45Z</time>
      </trkpt>
      <trkpt lat="43.41433" lon="6.61014">
        <ele>266</ele>
        <time>2008-10-10T10:01:01Z</time>
      </trkpt>
      <trkpt lat="43.41387" lon="6.61003">
        <ele>267.60000610352</ele>
        <time>2008-10-10T10:01:19Z</time>
      </trkpt>
      <trkpt lat="43.41344" lon="6.60981">
        <ele>269</ele>
        <time>2008-10-10T10:01:35Z</time>
      </trkpt>
      <trkpt lat="43.41307" lon="6.60946">
        <ele>271.39999389648</ele>
        <time>2008-10-10T10:01:54Z</time>
      </trkpt>
      <trkpt lat="43.41286" lon="6.60916">
        <ele>272.79998779297</ele>
        <time>2008-10-10T10:02:07Z</time>
      </trkpt>
      <trkpt lat="43.41268" lon="6.60888">
        <ele>275.20001220703</ele>
        <time>2008-10-10T10:02:20Z</time>
      </trkpt>
      <trkpt lat="43.4124" lon="6.60879">
        <ele>278</ele>
        <time>2008-10-10T10:02:37Z</time>
      </trkpt>
      <trkpt lat="43.41218" lon="6.60868">
        <ele>280.79998779297</ele>
        <time>2008-10-10T10:02:53Z</time>
      </trkpt>
      <trkpt lat="43.41196" lon="6.60847">
        <ele>283.20001220703</ele>
        <time>2008-10-10T10:03:09Z</time>
      </trkpt>
      <trkpt lat="43.41176" lon="6.60835">
        <ele>285.20001220703</ele>
        <time>2008-10-10T10:03:23Z</time>
      </trkpt>
      <trkpt lat="43.41156" lon="6.60827">
        <ele>287.79998779297</ele>
        <time>2008-10-10T10:03:38Z</time>
      </trkpt>
      <trkpt lat="43.41156" lon="6.60838">
        <ele>288.39999389648</ele>
        <time>2008-10-10T10:03:43Z</time>
      </trkpt>
      <trkpt lat="43.41165" lon="6.60875">
        <ele>290.39999389648</ele>
        <time>2008-10-10T10:04:01Z</time>
      </trkpt>
      <trkpt lat="43.41189" lon="6.60921">
        <ele>292.79998779297</ele>
        <time>2008-10-10T10:04:21Z</time>
      </trkpt>
      <trkpt lat="43.41209" lon="6.60959">
        <ele>294</ele>
        <time>2008-10-10T10:04:35Z</time>
      </trkpt>
      <trkpt lat="43.41225" lon="6.60993">
        <ele>295</ele>
        <time>2008-10-10T10:04:49Z</time>
      </trkpt>
      <trkpt lat="43.41227" lon="6.61">
        <ele>296.39999389648</ele>
        <time>2008-10-10T10:04:52Z</time>
      </trkpt>
      <trkpt lat="43.41241" lon="6.6103">
        <ele>296.79998779297</ele>
        <time>2008-10-10T10:05:04Z</time>
      </trkpt>
      <trkpt lat="43.41261" lon="6.61072">
        <ele>299.20001220703</ele>
        <time>2008-10-10T10:05:22Z</time>
      </trkpt>
      <trkpt lat="43.41264" lon="6.61085">
        <ele>299.79998779297</ele>
        <time>2008-10-10T10:05:27Z</time>
      </trkpt>
      <trkpt lat="43.41248" lon="6.61093">
        <ele>301.39999389648</ele>
        <time>2008-10-10T10:05:36Z</time>
      </trkpt>
      <trkpt lat="43.4122" lon="6.61079">
        <ele>304</ele>
        <time>2008-10-10T10:05:51Z</time>
      </trkpt>
      <trkpt lat="43.41192" lon="6.61078">
        <ele>306.20001220703</ele>
        <time>2008-10-10T10:06:05Z</time>
      </trkpt>
      <trkpt lat="43.41168" lon="6.61075">
        <ele>307.79998779297</ele>
        <time>2008-10-10T10:06:18Z</time>
      </trkpt>
      <trkpt lat="43.41137" lon="6.61065">
        <ele>309.20001220703</ele>
        <time>2008-10-10T10:06:33Z</time>
      </trkpt>
      <trkpt lat="43.41095" lon="6.61045">
        <ele>311.79998779297</ele>
        <time>2008-10-10T10:06:51Z</time>
      </trkpt>
      <trkpt lat="43.41073" lon="6.60998">
        <ele>313</ele>
        <time>2008-10-10T10:07:05Z</time>
      </trkpt>
      <trkpt lat="43.41062" lon="6.6093">
        <ele>313.79998779297</ele>
        <time>2008-10-10T10:07:20Z</time>
      </trkpt>
      <trkpt lat="43.41058" lon="6.60899">
        <ele>315.79998779297</ele>
        <time>2008-10-10T10:07:29Z</time>
      </trkpt>
      <trkpt lat="43.41037" lon="6.60849">
        <ele>316.79998779297</ele>
        <time>2008-10-10T10:07:44Z</time>
      </trkpt>
      <trkpt lat="43.41011" lon="6.6081">
        <ele>318.39999389648</ele>
        <time>2008-10-10T10:07:59Z</time>
      </trkpt>
      <trkpt lat="43.40974" lon="6.60791">
        <ele>320.39999389648</ele>
        <time>2008-10-10T10:08:15Z</time>
      </trkpt>
      <trkpt lat="43.40934" lon="6.60765">
        <ele>321.39999389648</ele>
        <time>2008-10-10T10:08:31Z</time>
      </trkpt>
      <trkpt lat="43.40889" lon="6.60791">
        <ele>320.60000610352</ele>
        <time>2008-10-10T10:08:44Z</time>
      </trkpt>
      <trkpt lat="43.40854" lon="6.60797">
        <ele>320.60000610352</ele>
        <time>2008-10-10T10:08:53Z</time>
      </trkpt>
      <trkpt lat="43.40835" lon="6.60785">
        <ele>320.79998779297</ele>
        <time>2008-10-10T10:08:58Z</time>
      </trkpt>
      <trkpt lat="43.4079" lon="6.60749">
        <ele>320.79998779297</ele>
        <time>2008-10-10T10:09:12Z</time>
      </trkpt>
      <trkpt lat="43.40774" lon="6.60729">
        <ele>320.60000610352</ele>
        <time>2008-10-10T10:09:18Z</time>
      </trkpt>
      <trkpt lat="43.40765" lon="6.60718">
        <ele>320.60000610352</ele>
        <time>2008-10-10T10:09:21Z</time>
      </trkpt>
      <trkpt lat="43.40713" lon="6.607">
        <ele>321.60000610352</ele>
        <time>2008-10-10T10:09:36Z</time>
      </trkpt>
      <trkpt lat="43.40673" lon="6.60685">
        <ele>324</ele>
        <time>2008-10-10T10:09:52Z</time>
      </trkpt>
      <trkpt lat="43.40644" lon="6.60661">
        <ele>324.79998779297</ele>
        <time>2008-10-10T10:10:05Z</time>
      </trkpt>
      <trkpt lat="43.40636" lon="6.60661">
        <ele>324.79998779297</ele>
        <time>2008-10-10T10:10:08Z</time>
      </trkpt>
      <trkpt lat="43.40634" lon="6.60682">
        <ele>325.60000610352</ele>
        <time>2008-10-10T10:10:15Z</time>
      </trkpt>
      <trkpt lat="43.40684" lon="6.60734">
        <ele>325</ele>
        <time>2008-10-10T10:10:32Z</time>
      </trkpt>
      <trkpt lat="43.4072" lon="6.60768">
        <ele>323.60000610352</ele>
        <time>2008-10-10T10:10:43Z</time>
      </trkpt>
      <trkpt lat="43.40735" lon="6.60812">
        <ele>323.20001220703</ele>
        <time>2008-10-10T10:10:51Z</time>
      </trkpt>
      <trkpt lat="43.40745" lon="6.60865">
        <ele>323.39999389648</ele>
        <time>2008-10-10T10:11:01Z</time>
      </trkpt>
      <trkpt lat="43.4076" lon="6.60929">
        <ele>325.20001220703</ele>
        <time>2008-10-10T10:11:16Z</time>
      </trkpt>
      <trkpt lat="43.4078" lon="6.60973">
        <ele>325.79998779297</ele>
        <time>2008-10-10T10:11:27Z</time>
      </trkpt>
      <trkpt lat="43.40758" lon="6.6098">
        <ele>325.39999389648</ele>
        <time>2008-10-10T10:11:34Z</time>
      </trkpt>
      <trkpt lat="43.40715" lon="6.60961">
        <ele>325.60000610352</ele>
        <time>2008-10-10T10:11:46Z</time>
      </trkpt>
      <trkpt lat="43.40709" lon="6.60984">
        <ele>326.20001220703</ele>
        <time>2008-10-10T10:11:53Z</time>
      </trkpt>
      <trkpt lat="43.407" lon="6.61027">
        <ele>327.60000610352</ele>
        <time>2008-10-10T10:12:04Z</time>
      </trkpt>
      <trkpt lat="43.4069" lon="6.61072">
        <ele>329.20001220703</ele>
        <time>2008-10-10T10:12:15Z</time>
      </trkpt>
      <trkpt lat="43.40701" lon="6.61123">
        <ele>331.39999389648</ele>
        <time>2008-10-10T10:12:29Z</time>
      </trkpt>
      <trkpt lat="43.40717" lon="6.61171">
        <ele>333</ele>
        <time>2008-10-10T10:12:43Z</time>
      </trkpt>
      <trkpt lat="43.40718" lon="6.61223">
        <ele>334.20001220703</ele>
        <time>2008-10-10T10:12:58Z</time>
      </trkpt>
      <trkpt lat="43.40688" lon="6.61249">
        <ele>335.60000610352</ele>
        <time>2008-10-10T10:13:12Z</time>
      </trkpt>
      <trkpt lat="43.40648" lon="6.61246">
        <ele>337.20001220703</ele>
        <time>2008-10-10T10:13:28Z</time>
      </trkpt>
      <trkpt lat="43.40615" lon="6.61261">
        <ele>338.60000610352</ele>
        <time>2008-10-10T10:13:44Z</time>
      </trkpt>
      <trkpt lat="43.40566" lon="6.6127">
        <ele>340.20001220703</ele>
        <time>2008-10-10T10:14:02Z</time>
      </trkpt>
      <trkpt lat="43.4054" lon="6.61253">
        <ele>340.79998779297</ele>
        <time>2008-10-10T10:14:14Z</time>
      </trkpt>
      <trkpt lat="43.40516" lon="6.61223">
        <ele>342</ele>
        <time>2008-10-10T10:14:27Z</time>
      </trkpt>
      <trkpt lat="43.40487" lon="6.61213">
        <ele>343.60000610352</ele>
        <time>2008-10-10T10:14:40Z</time>
      </trkpt>
      <trkpt lat="43.40458" lon="6.61189">
        <ele>344.20001220703</ele>
        <time>2008-10-10T10:14:54Z</time>
      </trkpt>
      <trkpt lat="43.40452" lon="6.61215">
        <ele>344.79998779297</ele>
        <time>2008-10-10T10:15:02Z</time>
      </trkpt>
      <trkpt lat="43.40457" lon="6.61263">
        <ele>345.79998779297</ele>
        <time>2008-10-10T10:15:15Z</time>
      </trkpt>
      <trkpt lat="43.40447" lon="6.6131">
        <ele>347.20001220703</ele>
        <time>2008-10-10T10:15:29Z</time>
      </trkpt>
      <trkpt lat="43.40447" lon="6.61345">
        <ele>348.39999389648</ele>
        <time>2008-10-10T10:15:42Z</time>
      </trkpt>
      <trkpt lat="43.40473" lon="6.6137">
        <ele>349.60000610352</ele>
        <time>2008-10-10T10:15:55Z</time>
      </trkpt>
      <trkpt lat="43.40499" lon="6.61402">
        <ele>351.39999389648</ele>
        <time>2008-10-10T10:16:10Z</time>
      </trkpt>
      <trkpt lat="43.40524" lon="6.61442">
        <ele>352</ele>
        <time>2008-10-10T10:16:25Z</time>
      </trkpt>
      <trkpt lat="43.40546" lon="6.61478">
        <ele>353.20001220703</ele>
        <time>2008-10-10T10:16:39Z</time>
      </trkpt>
      <trkpt lat="43.40581" lon="6.61512">
        <ele>355.79998779297</ele>
        <time>2008-10-10T10:16:55Z</time>
      </trkpt>
      <trkpt lat="43.40621" lon="6.61529">
        <ele>357.20001220703</ele>
        <time>2008-10-10T10:17:09Z</time>
      </trkpt>
      <trkpt lat="43.40671" lon="6.61542">
        <ele>358.39999389648</ele>
        <time>2008-10-10T10:17:27Z</time>
      </trkpt>
      <trkpt lat="43.4071" lon="6.61557">
        <ele>360.39999389648</ele>
        <time>2008-10-10T10:17:42Z</time>
      </trkpt>
      <trkpt lat="43.40747" lon="6.61578">
        <ele>362.60000610352</ele>
        <time>2008-10-10T10:17:57Z</time>
      </trkpt>
      <trkpt lat="43.40784" lon="6.61613">
        <ele>364.60000610352</ele>
        <time>2008-10-10T10:18:14Z</time>
      </trkpt>
      <trkpt lat="43.40797" lon="6.61639">
        <ele>365.20001220703</ele>
        <time>2008-10-10T10:18:23Z</time>
      </trkpt>
      <trkpt lat="43.40768" lon="6.61669">
        <ele>366.79998779297</ele>
        <time>2008-10-10T10:18:37Z</time>
      </trkpt>
      <trkpt lat="43.40736" lon="6.61688">
        <ele>369</ele>
        <time>2008-10-10T10:18:52Z</time>
      </trkpt>
      <trkpt lat="43.40702" lon="6.61708">
        <ele>370.20001220703</ele>
        <time>2008-10-10T10:19:08Z</time>
      </trkpt>
      <trkpt lat="43.40658" lon="6.61731">
        <ele>372</ele>
        <time>2008-10-10T10:19:26Z</time>
      </trkpt>
      <trkpt lat="43.40628" lon="6.61748">
        <ele>373.79998779297</ele>
        <time>2008-10-10T10:19:40Z</time>
      </trkpt>
      <trkpt lat="43.40591" lon="6.61788">
        <ele>375.79998779297</ele>
        <time>2008-10-10T10:20:01Z</time>
      </trkpt>
      <trkpt lat="43.40571" lon="6.61824">
        <ele>377</ele>
        <time>2008-10-10T10:20:17Z</time>
      </trkpt>
      <trkpt lat="43.4055" lon="6.61869">
        <ele>379</ele>
        <time>2008-10-10T10:20:34Z</time>
      </trkpt>
      <trkpt lat="43.40528" lon="6.61909">
        <ele>379.39999389648</ele>
        <time>2008-10-10T10:20:49Z</time>
      </trkpt>
      <trkpt lat="43.40484" lon="6.61928">
        <ele>379.79998779297</ele>
        <time>2008-10-10T10:21:03Z</time>
      </trkpt>
      <trkpt lat="43.40461" lon="6.61962">
        <ele>379.39999389648</ele>
        <time>2008-10-10T10:21:14Z</time>
      </trkpt>
      <trkpt lat="43.4046" lon="6.62025">
        <ele>381.60000610352</ele>
        <time>2008-10-10T10:21:29Z</time>
      </trkpt>
      <trkpt lat="43.40453" lon="6.62063">
        <ele>383</ele>
        <time>2008-10-10T10:21:39Z</time>
      </trkpt>
      <trkpt lat="43.40437" lon="6.62098">
        <ele>383.79998779297</ele>
        <time>2008-10-10T10:21:50Z</time>
      </trkpt>
      <trkpt lat="43.40407" lon="6.62149">
        <ele>387.39999389648</ele>
        <time>2008-10-10T10:22:08Z</time>
      </trkpt>
      <trkpt lat="43.40385" lon="6.62188">
        <ele>387</ele>
        <time>2008-10-10T10:22:24Z</time>
      </trkpt>
      <trkpt lat="43.40384" lon="6.62188">
        <ele>386.20001220703</ele>
        <time>2008-10-10T10:22:26Z</time>
      </trkpt>
      <trkpt lat="43.40374" lon="6.62182">
        <ele>387.60000610352</ele>
        <time>2008-10-10T10:26:27Z</time>
      </trkpt>
      <trkpt lat="43.40373" lon="6.62181">
        <ele>387.39999389648</ele>
        <time>2008-10-10T10:26:28Z</time>
      </trkpt>
      <trkpt lat="43.40371" lon="6.62181">
        <ele>387.39999389648</ele>
        <time>2008-10-10T10:26:31Z</time>
      </trkpt>
      <trkpt lat="43.40371" lon="6.62176">
        <ele>388.60000610352</ele>
        <time>2008-10-10T10:35:18Z</time>
      </trkpt>
      <trkpt lat="43.40371" lon="6.62175">
        <ele>388.60000610352</ele>
        <time>2008-10-10T10:35:19Z</time>
      </trkpt>
      <trkpt lat="43.40368" lon="6.62169">
        <ele>388.79998779297</ele>
        <time>2008-10-10T10:35:23Z</time>
      </trkpt>
      <trkpt lat="43.40349" lon="6.62152">
        <ele>389</ele>
        <time>2008-10-10T10:35:29Z</time>
      </trkpt>
      <trkpt lat="43.4029" lon="6.62116">
        <ele>387.60000610352</ele>
        <time>2008-10-10T10:35:43Z</time>
      </trkpt>
      <trkpt lat="43.40228" lon="6.6209">
        <ele>386</ele>
        <time>2008-10-10T10:35:55Z</time>
      </trkpt>
      <trkpt lat="43.40152" lon="6.62065">
        <ele>385.20001220703</ele>
        <time>2008-10-10T10:36:09Z</time>
      </trkpt>
      <trkpt lat="43.40117" lon="6.62038">
        <ele>384.20001220703</ele>
        <time>2008-10-10T10:36:16Z</time>
      </trkpt>
      <trkpt lat="43.40102" lon="6.62016">
        <ele>383.79998779297</ele>
        <time>2008-10-10T10:36:20Z</time>
      </trkpt>
      <trkpt lat="43.40093" lon="6.61995">
        <ele>384</ele>
        <time>2008-10-10T10:36:23Z</time>
      </trkpt>
      <trkpt lat="43.40057" lon="6.61979">
        <ele>383.39999389648</ele>
        <time>2008-10-10T10:36:30Z</time>
      </trkpt>
      <trkpt lat="43.39983" lon="6.62004">
        <ele>381.60000610352</ele>
        <time>2008-10-10T10:36:42Z</time>
      </trkpt>
      <trkpt lat="43.39959" lon="6.62017">
        <ele>381.79998779297</ele>
        <time>2008-10-10T10:36:46Z</time>
      </trkpt>
      <trkpt lat="43.39933" lon="6.62023">
        <ele>382.20001220703</ele>
        <time>2008-10-10T10:36:50Z</time>
      </trkpt>
      <trkpt lat="43.39895" lon="6.62018">
        <ele>380.79998779297</ele>
        <time>2008-10-10T10:36:56Z</time>
      </trkpt>
      <trkpt lat="43.39838" lon="6.61994">
        <ele>380</ele>
        <time>2008-10-10T10:37:06Z</time>
      </trkpt>
      <trkpt lat="43.39818" lon="6.61966">
        <ele>379.79998779297</ele>
        <time>2008-10-10T10:37:11Z</time>
      </trkpt>
      <trkpt lat="43.39791" lon="6.61877">
        <ele>380.20001220703</ele>
        <time>2008-10-10T10:37:23Z</time>
      </trkpt>
      <trkpt lat="43.39793" lon="6.61837">
        <ele>380</ele>
        <time>2008-10-10T10:37:28Z</time>
      </trkpt>
      <trkpt lat="43.39822" lon="6.61716">
        <ele>379.20001220703</ele>
        <time>2008-10-10T10:37:43Z</time>
      </trkpt>
      <trkpt lat="43.3984" lon="6.61681">
        <ele>378.79998779297</ele>
        <time>2008-10-10T10:37:48Z</time>
      </trkpt>
      <trkpt lat="43.39869" lon="6.61652">
        <ele>379.20001220703</ele>
        <time>2008-10-10T10:37:53Z</time>
      </trkpt>
      <trkpt lat="43.39884" lon="6.61599">
        <ele>377.79998779297</ele>
        <time>2008-10-10T10:38:00Z</time>
      </trkpt>
      <trkpt lat="43.39879" lon="6.61582">
        <ele>377.39999389648</ele>
        <time>2008-10-10T10:38:02Z</time>
      </trkpt>
      <trkpt lat="43.39872" lon="6.61544">
        <ele>377</ele>
        <time>2008-10-10T10:38:06Z</time>
      </trkpt>
      <trkpt lat="43.39837" lon="6.615">
        <ele>376.60000610352</ele>
        <time>2008-10-10T10:38:13Z</time>
      </trkpt>
      <trkpt lat="43.39806" lon="6.61496">
        <ele>376</ele>
        <time>2008-10-10T10:38:17Z</time>
      </trkpt>
      <trkpt lat="43.39771" lon="6.61446">
        <ele>374.79998779297</ele>
        <time>2008-10-10T10:38:24Z</time>
      </trkpt>
      <trkpt lat="43.39772" lon="6.61394">
        <ele>374.39999389648</ele>
        <time>2008-10-10T10:38:29Z</time>
      </trkpt>
      <trkpt lat="43.39777" lon="6.61363">
        <ele>375</ele>
        <time>2008-10-10T10:38:32Z</time>
      </trkpt>
      <trkpt lat="43.39762" lon="6.61323">
        <ele>373.79998779297</ele>
        <time>2008-10-10T10:38:37Z</time>
      </trkpt>
      <trkpt lat="43.39714" lon="6.61301">
        <ele>372.20001220703</ele>
        <time>2008-10-10T10:38:44Z</time>
      </trkpt>
      <trkpt lat="43.39682" lon="6.61258">
        <ele>371</ele>
        <time>2008-10-10T10:38:50Z</time>
      </trkpt>
      <trkpt lat="43.39669" lon="6.61219">
        <ele>371.20001220703</ele>
        <time>2008-10-10T10:38:54Z</time>
      </trkpt>
      <trkpt lat="43.39677" lon="6.61158">
        <ele>370.79998779297</ele>
        <time>2008-10-10T10:39:00Z</time>
      </trkpt>
      <trkpt lat="43.39686" lon="6.6114">
        <ele>370.20001220703</ele>
        <time>2008-10-10T10:39:02Z</time>
      </trkpt>
      <trkpt lat="43.39683" lon="6.61075">
        <ele>368</ele>
        <time>2008-10-10T10:39:09Z</time>
      </trkpt>
      <trkpt lat="43.39678" lon="6.61068">
        <ele>367.79998779297</ele>
        <time>2008-10-10T10:39:10Z</time>
      </trkpt>
      <trkpt lat="43.39655" lon="6.61037">
        <ele>367.20001220703</ele>
        <time>2008-10-10T10:39:15Z</time>
      </trkpt>
      <trkpt lat="43.39654" lon="6.61052">
        <ele>365.60000610352</ele>
        <time>2008-10-10T10:39:21Z</time>
      </trkpt>
      <trkpt lat="43.39667" lon="6.61074">
        <ele>364.60000610352</ele>
        <time>2008-10-10T10:39:24Z</time>
      </trkpt>
      <trkpt lat="43.39666" lon="6.61122">
        <ele>362.79998779297</ele>
        <time>2008-10-10T10:39:30Z</time>
      </trkpt>
      <trkpt lat="43.3966" lon="6.61129">
        <ele>362.20001220703</ele>
        <time>2008-10-10T10:39:31Z</time>
      </trkpt>
      <trkpt lat="43.39627" lon="6.61163">
        <ele>361.79998779297</ele>
        <time>2008-10-10T10:39:36Z</time>
      </trkpt>
      <trkpt lat="43.39612" lon="6.6122">
        <ele>358.60000610352</ele>
        <time>2008-10-10T10:39:43Z</time>
      </trkpt>
      <trkpt lat="43.39619" lon="6.61236">
        <ele>358</ele>
        <time>2008-10-10T10:39:45Z</time>
      </trkpt>
      <trkpt lat="43.39624" lon="6.61244">
        <ele>357.20001220703</ele>
        <time>2008-10-10T10:39:46Z</time>
      </trkpt>
      <trkpt lat="43.39633" lon="6.6126">
        <ele>356</ele>
        <time>2008-10-10T10:39:48Z</time>
      </trkpt>
      <trkpt lat="43.3963" lon="6.61299">
        <ele>354.39999389648</ele>
        <time>2008-10-10T10:39:53Z</time>
      </trkpt>
      <trkpt lat="43.39639" lon="6.61346">
        <ele>352.39999389648</ele>
        <time>2008-10-10T10:40:00Z</time>
      </trkpt>
      <trkpt lat="43.39677" lon="6.61356">
        <ele>351.39999389648</ele>
        <time>2008-10-10T10:40:07Z</time>
      </trkpt>
      <trkpt lat="43.39685" lon="6.61365">
        <ele>350.60000610352</ele>
        <time>2008-10-10T10:40:09Z</time>
      </trkpt>
      <trkpt lat="43.39701" lon="6.61385">
        <ele>348.20001220703</ele>
        <time>2008-10-10T10:40:13Z</time>
      </trkpt>
      <trkpt lat="43.39694" lon="6.61434">
        <ele>346</ele>
        <time>2008-10-10T10:40:19Z</time>
      </trkpt>
      <trkpt lat="43.39693" lon="6.61477">
        <ele>344.39999389648</ele>
        <time>2008-10-10T10:40:24Z</time>
      </trkpt>
      <trkpt lat="43.39699" lon="6.6154">
        <ele>341.79998779297</ele>
        <time>2008-10-10T10:40:31Z</time>
      </trkpt>
      <trkpt lat="43.39724" lon="6.61579">
        <ele>339.60000610352</ele>
        <time>2008-10-10T10:40:39Z</time>
      </trkpt>
      <trkpt lat="43.39735" lon="6.61582">
        <ele>338.79998779297</ele>
        <time>2008-10-10T10:40:41Z</time>
      </trkpt>
      <trkpt lat="43.39746" lon="6.61584">
        <ele>338</ele>
        <time>2008-10-10T10:40:43Z</time>
      </trkpt>
      <trkpt lat="43.39758" lon="6.61585">
        <ele>337.39999389648</ele>
        <time>2008-10-10T10:40:45Z</time>
      </trkpt>
      <trkpt lat="43.39764" lon="6.61611">
        <ele>337</ele>
        <time>2008-10-10T10:40:50Z</time>
      </trkpt>
      <trkpt lat="43.39753" lon="6.61629">
        <ele>336</ele>
        <time>2008-10-10T10:40:53Z</time>
      </trkpt>
      <trkpt lat="43.39729" lon="6.61735">
        <ele>335</ele>
        <time>2008-10-10T10:41:06Z</time>
      </trkpt>
      <trkpt lat="43.39725" lon="6.6176">
        <ele>335</ele>
        <time>2008-10-10T10:41:09Z</time>
      </trkpt>
      <trkpt lat="43.39716" lon="6.61789">
        <ele>335.20001220703</ele>
        <time>2008-10-10T10:41:13Z</time>
      </trkpt>
      <trkpt lat="43.39706" lon="6.61836">
        <ele>334.79998779297</ele>
        <time>2008-10-10T10:41:19Z</time>
      </trkpt>
      <trkpt lat="43.39702" lon="6.61858">
        <ele>333.20001220703</ele>
        <time>2008-10-10T10:41:22Z</time>
      </trkpt>
      <trkpt lat="43.39703" lon="6.61867">
        <ele>332.39999389648</ele>
        <time>2008-10-10T10:41:23Z</time>
      </trkpt>
      <trkpt lat="43.39708" lon="6.61913">
        <ele>330.60000610352</ele>
        <time>2008-10-10T10:41:28Z</time>
      </trkpt>
      <trkpt lat="43.39714" lon="6.61961">
        <ele>328.39999389648</ele>
        <time>2008-10-10T10:41:33Z</time>
      </trkpt>
      <trkpt lat="43.39722" lon="6.61985">
        <ele>327.60000610352</ele>
        <time>2008-10-10T10:41:36Z</time>
      </trkpt>
      <trkpt lat="43.39726" lon="6.61998">
        <ele>326.39999389648</ele>
        <time>2008-10-10T10:41:38Z</time>
      </trkpt>
      <trkpt lat="43.39727" lon="6.62023">
        <ele>323.79998779297</ele>
        <time>2008-10-10T10:41:41Z</time>
      </trkpt>
      <trkpt lat="43.39725" lon="6.62055">
        <ele>321.39999389648</ele>
        <time>2008-10-10T10:41:45Z</time>
      </trkpt>
      <trkpt lat="43.39726" lon="6.62081">
        <ele>319.20001220703</ele>
        <time>2008-10-10T10:41:49Z</time>
      </trkpt>
      <trkpt lat="43.39729" lon="6.621">
        <ele>317.79998779297</ele>
        <time>2008-10-10T10:41:52Z</time>
      </trkpt>
      <trkpt lat="43.39765" lon="6.6214">
        <ele>312.79998779297</ele>
        <time>2008-10-10T10:42:01Z</time>
      </trkpt>
      <trkpt lat="43.39776" lon="6.62153">
        <ele>311</ele>
        <time>2008-10-10T10:42:04Z</time>
      </trkpt>
      <trkpt lat="43.39794" lon="6.62169">
        <ele>308</ele>
        <time>2008-10-10T10:42:08Z</time>
      </trkpt>
      <trkpt lat="43.39825" lon="6.62184">
        <ele>304.20001220703</ele>
        <time>2008-10-10T10:42:14Z</time>
      </trkpt>
      <trkpt lat="43.39839" lon="6.62194">
        <ele>302.39999389648</ele>
        <time>2008-10-10T10:42:17Z</time>
      </trkpt>
      <trkpt lat="43.39843" lon="6.62198">
        <ele>301.79998779297</ele>
        <time>2008-10-10T10:42:18Z</time>
      </trkpt>
      <trkpt lat="43.39852" lon="6.62204">
        <ele>301</ele>
        <time>2008-10-10T10:42:20Z</time>
      </trkpt>
      <trkpt lat="43.39867" lon="6.62209">
        <ele>299.79998779297</ele>
        <time>2008-10-10T10:42:23Z</time>
      </trkpt>
      <trkpt lat="43.39883" lon="6.62211">
        <ele>298.20001220703</ele>
        <time>2008-10-10T10:42:26Z</time>
      </trkpt>
      <trkpt lat="43.39901" lon="6.62216">
        <ele>296.20001220703</ele>
        <time>2008-10-10T10:42:29Z</time>
      </trkpt>
      <trkpt lat="43.39907" lon="6.62219">
        <ele>295.60000610352</ele>
        <time>2008-10-10T10:42:30Z</time>
      </trkpt>
      <trkpt lat="43.39918" lon="6.62225">
        <ele>293.39999389648</ele>
        <time>2008-10-10T10:42:32Z</time>
      </trkpt>
      <trkpt lat="43.39956" lon="6.62257">
        <ele>290.79998779297</ele>
        <time>2008-10-10T10:42:39Z</time>
      </trkpt>
      <trkpt lat="43.39991" lon="6.62267">
        <ele>288.20001220703</ele>
        <time>2008-10-10T10:42:45Z</time>
      </trkpt>
      <trkpt lat="43.40002" lon="6.62267">
        <ele>286.79998779297</ele>
        <time>2008-10-10T10:42:47Z</time>
      </trkpt>
      <trkpt lat="43.40026" lon="6.62258">
        <ele>284.20001220703</ele>
        <time>2008-10-10T10:42:52Z</time>
      </trkpt>
      <trkpt lat="43.40051" lon="6.62272">
        <ele>284</ele>
        <time>2008-10-10T10:42:59Z</time>
      </trkpt>
      <trkpt lat="43.40064" lon="6.62282">
        <ele>284</ele>
        <time>2008-10-10T10:43:02Z</time>
      </trkpt>
      <trkpt lat="43.40074" lon="6.62286">
        <ele>283</ele>
        <time>2008-10-10T10:43:04Z</time>
      </trkpt>
      <trkpt lat="43.40091" lon="6.62305">
        <ele>281.39999389648</ele>
        <time>2008-10-10T10:43:08Z</time>
      </trkpt>
      <trkpt lat="43.40074" lon="6.62316">
        <ele>281.39999389648</ele>
        <time>2008-10-10T10:43:13Z</time>
      </trkpt>
      <trkpt lat="43.40049" lon="6.62343">
        <ele>280.20001220703</ele>
        <time>2008-10-10T10:43:19Z</time>
      </trkpt>
      <trkpt lat="43.40011" lon="6.62395">
        <ele>278.60000610352</ele>
        <time>2008-10-10T10:43:28Z</time>
      </trkpt>
      <trkpt lat="43.4" lon="6.62407">
        <ele>277.79998779297</ele>
        <time>2008-10-10T10:43:30Z</time>
      </trkpt>
      <trkpt lat="43.3997" lon="6.62438">
        <ele>275.60000610352</ele>
        <time>2008-10-10T10:43:35Z</time>
      </trkpt>
      <trkpt lat="43.3993" lon="6.62484">
        <ele>271.79998779297</ele>
        <time>2008-10-10T10:43:42Z</time>
      </trkpt>
      <trkpt lat="43.399" lon="6.62505">
        <ele>268.60000610352</ele>
        <time>2008-10-10T10:43:47Z</time>
      </trkpt>
      <trkpt lat="43.39878" lon="6.62526">
        <ele>266.20001220703</ele>
        <time>2008-10-10T10:43:51Z</time>
      </trkpt>
      <trkpt lat="43.39855" lon="6.62561">
        <ele>262.60000610352</ele>
        <time>2008-10-10T10:43:56Z</time>
      </trkpt>
      <trkpt lat="43.39834" lon="6.62582">
        <ele>258.60000610352</ele>
        <time>2008-10-10T10:44:01Z</time>
      </trkpt>
      <trkpt lat="43.39814" lon="6.62575">
        <ele>256.60000610352</ele>
        <time>2008-10-10T10:44:05Z</time>
      </trkpt>
      <trkpt lat="43.39782" lon="6.6256">
        <ele>255.80000305176</ele>
        <time>2008-10-10T10:44:12Z</time>
      </trkpt>
      <trkpt lat="43.39771" lon="6.62566">
        <ele>254.60000610352</ele>
        <time>2008-10-10T10:44:14Z</time>
      </trkpt>
      <trkpt lat="43.39692" lon="6.62635">
        <ele>253.60000610352</ele>
        <time>2008-10-10T10:44:30Z</time>
      </trkpt>
      <trkpt lat="43.39679" lon="6.62653">
        <ele>254</ele>
        <time>2008-10-10T10:44:33Z</time>
      </trkpt>
      <trkpt lat="43.3966" lon="6.62691">
        <ele>251.19999694824</ele>
        <time>2008-10-10T10:44:38Z</time>
      </trkpt>
      <trkpt lat="43.39654" lon="6.62696">
        <ele>250.60000610352</ele>
        <time>2008-10-10T10:44:39Z</time>
      </trkpt>
      <trkpt lat="43.3963" lon="6.6272">
        <ele>251</ele>
        <time>2008-10-10T10:44:44Z</time>
      </trkpt>
      <trkpt lat="43.39603" lon="6.62773">
        <ele>252</ele>
        <time>2008-10-10T10:44:52Z</time>
      </trkpt>
      <trkpt lat="43.39594" lon="6.62792">
        <ele>252.39999389648</ele>
        <time>2008-10-10T10:44:55Z</time>
      </trkpt>
      <trkpt lat="43.39568" lon="6.62836">
        <ele>252.19999694824</ele>
        <time>2008-10-10T10:45:02Z</time>
      </trkpt>
      <trkpt lat="43.39563" lon="6.62841">
        <ele>252.19999694824</ele>
        <time>2008-10-10T10:45:03Z</time>
      </trkpt>
      <trkpt lat="43.39546" lon="6.62853">
        <ele>253.19999694824</ele>
        <time>2008-10-10T10:45:07Z</time>
      </trkpt>
      <trkpt lat="43.3953" lon="6.62864">
        <ele>253.60000610352</ele>
        <time>2008-10-10T10:45:11Z</time>
      </trkpt>
      <trkpt lat="43.39518" lon="6.62903">
        <ele>253</ele>
        <time>2008-10-10T10:45:18Z</time>
      </trkpt>
      <trkpt lat="43.39531" lon="6.62923">
        <ele>252.19999694824</ele>
        <time>2008-10-10T10:45:22Z</time>
      </trkpt>
      <trkpt lat="43.39539" lon="6.6293">
        <ele>252.39999389648</ele>
        <time>2008-10-10T10:45:24Z</time>
      </trkpt>
      <trkpt lat="43.3957" lon="6.62968">
        <ele>253.19999694824</ele>
        <time>2008-10-10T10:45:32Z</time>
      </trkpt>
      <trkpt lat="43.39576" lon="6.62978">
        <ele>254</ele>
        <time>2008-10-10T10:45:34Z</time>
      </trkpt>
      <trkpt lat="43.3963" lon="6.63038">
        <ele>250.39999389648</ele>
        <time>2008-10-10T10:45:47Z</time>
      </trkpt>
      <trkpt lat="43.39633" lon="6.63076">
        <ele>249.19999694824</ele>
        <time>2008-10-10T10:45:53Z</time>
      </trkpt>
      <trkpt lat="43.39629" lon="6.6308">
        <ele>249</ele>
        <time>2008-10-10T10:45:54Z</time>
      </trkpt>
      <trkpt lat="43.39572" lon="6.63135">
        <ele>250</ele>
        <time>2008-10-10T10:46:07Z</time>
      </trkpt>
      <trkpt lat="43.39564" lon="6.63145">
        <ele>250.19999694824</ele>
        <time>2008-10-10T10:46:09Z</time>
      </trkpt>
      <trkpt lat="43.39557" lon="6.63156">
        <ele>250.19999694824</ele>
        <time>2008-10-10T10:46:11Z</time>
      </trkpt>
      <trkpt lat="43.39551" lon="6.63166">
        <ele>249.80000305176</ele>
        <time>2008-10-10T10:46:17Z</time>
      </trkpt>
      <trkpt lat="43.39547" lon="6.63175">
        <ele>249.60000610352</ele>
        <time>2008-10-10T10:46:23Z</time>
      </trkpt>
      <trkpt lat="43.39541" lon="6.63187">
        <ele>248.80000305176</ele>
        <time>2008-10-10T10:46:25Z</time>
      </trkpt>
      <trkpt lat="43.39529" lon="6.63207">
        <ele>247.19999694824</ele>
        <time>2008-10-10T10:46:28Z</time>
      </trkpt>
      <trkpt lat="43.39509" lon="6.63221">
        <ele>243.60000610352</ele>
        <time>2008-10-10T10:46:32Z</time>
      </trkpt>
      <trkpt lat="43.39481" lon="6.63256">
        <ele>238.39999389648</ele>
        <time>2008-10-10T10:46:41Z</time>
      </trkpt>
      <trkpt lat="43.39475" lon="6.6327">
        <ele>237.60000610352</ele>
        <time>2008-10-10T10:46:43Z</time>
      </trkpt>
      <trkpt lat="43.39413" lon="6.63307">
        <ele>237</ele>
        <time>2008-10-10T10:46:54Z</time>
      </trkpt>
      <trkpt lat="43.394" lon="6.63312">
        <ele>235.80000305176</ele>
        <time>2008-10-10T10:46:56Z</time>
      </trkpt>
      <trkpt lat="43.39387" lon="6.63317">
        <ele>235</ele>
        <time>2008-10-10T10:46:58Z</time>
      </trkpt>
      <trkpt lat="43.39374" lon="6.63324">
        <ele>235</ele>
        <time>2008-10-10T10:47:00Z</time>
      </trkpt>
      <trkpt lat="43.39345" lon="6.63331">
        <ele>233</ele>
        <time>2008-10-10T10:47:04Z</time>
      </trkpt>
      <trkpt lat="43.39303" lon="6.63345">
        <ele>234</ele>
        <time>2008-10-10T10:47:11Z</time>
      </trkpt>
      <trkpt lat="43.39294" lon="6.6335">
        <ele>234</ele>
        <time>2008-10-10T10:47:13Z</time>
      </trkpt>
      <trkpt lat="43.39267" lon="6.63398">
        <ele>234</ele>
        <time>2008-10-10T10:47:22Z</time>
      </trkpt>
      <trkpt lat="43.39286" lon="6.63443">
        <ele>230.39999389648</ele>
        <time>2008-10-10T10:47:28Z</time>
      </trkpt>
      <trkpt lat="43.39294" lon="6.63462">
        <ele>229.39999389648</ele>
        <time>2008-10-10T10:47:31Z</time>
      </trkpt>
      <trkpt lat="43.39302" lon="6.6349">
        <ele>225.60000610352</ele>
        <time>2008-10-10T10:47:36Z</time>
      </trkpt>
      <trkpt lat="43.39302" lon="6.63496">
        <ele>225</ele>
        <time>2008-10-10T10:47:37Z</time>
      </trkpt>
      <trkpt lat="43.39299" lon="6.63509">
        <ele>223.19999694824</ele>
        <time>2008-10-10T10:47:39Z</time>
      </trkpt>
      <trkpt lat="43.39296" lon="6.63515">
        <ele>222</ele>
        <time>2008-10-10T10:47:40Z</time>
      </trkpt>
      <trkpt lat="43.39287" lon="6.6354">
        <ele>219</ele>
        <time>2008-10-10T10:47:45Z</time>
      </trkpt>
      <trkpt lat="43.39283" lon="6.63547">
        <ele>217.39999389648</ele>
        <time>2008-10-10T10:47:47Z</time>
      </trkpt>
      <trkpt lat="43.3928" lon="6.63554">
        <ele>216.60000610352</ele>
        <time>2008-10-10T10:47:49Z</time>
      </trkpt>
      <trkpt lat="43.39273" lon="6.63568">
        <ele>214.39999389648</ele>
        <time>2008-10-10T10:47:52Z</time>
      </trkpt>
      <trkpt lat="43.39271" lon="6.63573">
        <ele>214</ele>
        <time>2008-10-10T10:47:53Z</time>
      </trkpt>
      <trkpt lat="43.39267" lon="6.63601">
        <ele>213.60000610352</ele>
        <time>2008-10-10T10:47:57Z</time>
      </trkpt>
      <trkpt lat="43.39265" lon="6.63649">
        <ele>214.19999694824</ele>
        <time>2008-10-10T10:48:04Z</time>
      </trkpt>
      <trkpt lat="43.39243" lon="6.63715">
        <ele>216.19999694824</ele>
        <time>2008-10-10T10:48:16Z</time>
      </trkpt>
      <trkpt lat="43.39238" lon="6.63765">
        <ele>216.39999389648</ele>
        <time>2008-10-10T10:48:24Z</time>
      </trkpt>
      <trkpt lat="43.39249" lon="6.6381">
        <ele>218.39999389648</ele>
        <time>2008-10-10T10:48:34Z</time>
      </trkpt>
      <trkpt lat="43.39251" lon="6.63818">
        <ele>219.39999389648</ele>
        <time>2008-10-10T10:48:36Z</time>
      </trkpt>
      <trkpt lat="43.3926" lon="6.63885">
        <ele>215.80000305176</ele>
        <time>2008-10-10T10:48:48Z</time>
      </trkpt>
      <trkpt lat="43.3926" lon="6.63891">
        <ele>215.60000610352</ele>
        <time>2008-10-10T10:48:49Z</time>
      </trkpt>
      <trkpt lat="43.39261" lon="6.63896">
        <ele>215.80000305176</ele>
        <time>2008-10-10T10:48:50Z</time>
      </trkpt>
      <trkpt lat="43.39255" lon="6.6393">
        <ele>213.19999694824</ele>
        <time>2008-10-10T10:48:55Z</time>
      </trkpt>
      <trkpt lat="43.39254" lon="6.63937">
        <ele>212.19999694824</ele>
        <time>2008-10-10T10:48:56Z</time>
      </trkpt>
      <trkpt lat="43.3925" lon="6.6396">
        <ele>209.60000610352</ele>
        <time>2008-10-10T10:48:59Z</time>
      </trkpt>
      <trkpt lat="43.39248" lon="6.63982">
        <ele>207.80000305176</ele>
        <time>2008-10-10T10:49:02Z</time>
      </trkpt>
      <trkpt lat="43.39262" lon="6.64008">
        <ele>205.39999389648</ele>
        <time>2008-10-10T10:49:07Z</time>
      </trkpt>
      <trkpt lat="43.39283" lon="6.63996">
        <ele>202.39999389648</ele>
        <time>2008-10-10T10:49:12Z</time>
      </trkpt>
      <trkpt lat="43.39289" lon="6.63969">
        <ele>199.80000305176</ele>
        <time>2008-10-10T10:49:16Z</time>
      </trkpt>
      <trkpt lat="43.39299" lon="6.63961">
        <ele>199.39999389648</ele>
        <time>2008-10-10T10:49:18Z</time>
      </trkpt>
      <trkpt lat="43.39318" lon="6.6395">
        <ele>199.19999694824</ele>
        <time>2008-10-10T10:49:21Z</time>
      </trkpt>
      <trkpt lat="43.3933" lon="6.63945">
        <ele>197.80000305176</ele>
        <time>2008-10-10T10:49:23Z</time>
      </trkpt>
      <trkpt lat="43.39349" lon="6.63939">
        <ele>197</ele>
        <time>2008-10-10T10:49:26Z</time>
      </trkpt>
      <trkpt lat="43.39368" lon="6.63936">
        <ele>194.80000305176</ele>
        <time>2008-10-10T10:49:29Z</time>
      </trkpt>
      <trkpt lat="43.39402" lon="6.63938">
        <ele>189.60000610352</ele>
        <time>2008-10-10T10:49:36Z</time>
      </trkpt>
      <trkpt lat="43.39434" lon="6.63948">
        <ele>188.19999694824</ele>
        <time>2008-10-10T10:49:41Z</time>
      </trkpt>
      <trkpt lat="43.39462" lon="6.63941">
        <ele>188.60000610352</ele>
        <time>2008-10-10T10:49:48Z</time>
      </trkpt>
      <trkpt lat="43.39483" lon="6.63947">
        <ele>186.80000305176</ele>
        <time>2008-10-10T10:49:52Z</time>
      </trkpt>
      <trkpt lat="43.39512" lon="6.63961">
        <ele>186.80000305176</ele>
        <time>2008-10-10T10:49:57Z</time>
      </trkpt>
      <trkpt lat="43.39528" lon="6.63956">
        <ele>186.60000610352</ele>
        <time>2008-10-10T10:50:00Z</time>
      </trkpt>
      <trkpt lat="43.39574" lon="6.63926">
        <ele>185.60000610352</ele>
        <time>2008-10-10T10:50:10Z</time>
      </trkpt>
      <trkpt lat="43.39601" lon="6.63957">
        <ele>186.19999694824</ele>
        <time>2008-10-10T10:50:20Z</time>
      </trkpt>
      <trkpt lat="43.39604" lon="6.63969">
        <ele>186.19999694824</ele>
        <time>2008-10-10T10:50:22Z</time>
      </trkpt>
      <trkpt lat="43.39612" lon="6.63997">
        <ele>186.19999694824</ele>
        <time>2008-10-10T10:50:27Z</time>
      </trkpt>
      <trkpt lat="43.39629" lon="6.64018">
        <ele>184.80000305176</ele>
        <time>2008-10-10T10:50:32Z</time>
      </trkpt>
      <trkpt lat="43.39639" lon="6.64023">
        <ele>183.19999694824</ele>
        <time>2008-10-10T10:50:34Z</time>
      </trkpt>
      <trkpt lat="43.39657" lon="6.64026">
        <ele>181.80000305176</ele>
        <time>2008-10-10T10:50:37Z</time>
      </trkpt>
      <trkpt lat="43.39664" lon="6.64029">
        <ele>181.19999694824</ele>
        <time>2008-10-10T10:50:38Z</time>
      </trkpt>
      <trkpt lat="43.39677" lon="6.64037">
        <ele>181.19999694824</ele>
        <time>2008-10-10T10:50:40Z</time>
      </trkpt>
      <trkpt lat="43.39688" lon="6.64046">
        <ele>181</ele>
        <time>2008-10-10T10:50:42Z</time>
      </trkpt>
      <trkpt lat="43.39709" lon="6.64055">
        <ele>181.80000305176</ele>
        <time>2008-10-10T10:50:46Z</time>
      </trkpt>
      <trkpt lat="43.3974" lon="6.64053">
        <ele>181.80000305176</ele>
        <time>2008-10-10T10:50:53Z</time>
      </trkpt>
      <trkpt lat="43.39762" lon="6.64057">
        <ele>179.80000305176</ele>
        <time>2008-10-10T10:50:57Z</time>
      </trkpt>
      <trkpt lat="43.39769" lon="6.6406">
        <ele>178.80000305176</ele>
        <time>2008-10-10T10:50:58Z</time>
      </trkpt>
      <trkpt lat="43.39791" lon="6.64071">
        <ele>179.39999389648</ele>
        <time>2008-10-10T10:51:02Z</time>
      </trkpt>
      <trkpt lat="43.39812" lon="6.64073">
        <ele>179.19999694824</ele>
        <time>2008-10-10T10:51:06Z</time>
      </trkpt>
      <trkpt lat="43.39841" lon="6.64073">
        <ele>178.60000610352</ele>
        <time>2008-10-10T10:51:12Z</time>
      </trkpt>
      <trkpt lat="43.39883" lon="6.64046">
        <ele>177.60000610352</ele>
        <time>2008-10-10T10:51:21Z</time>
      </trkpt>
      <trkpt lat="43.39891" lon="6.6405">
        <ele>177.80000305176</ele>
        <time>2008-10-10T10:51:23Z</time>
      </trkpt>
      <trkpt lat="43.39912" lon="6.64077">
        <ele>178.80000305176</ele>
        <time>2008-10-10T10:51:30Z</time>
      </trkpt>
      <trkpt lat="43.39923" lon="6.64087">
        <ele>178.60000610352</ele>
        <time>2008-10-10T10:51:33Z</time>
      </trkpt>
      <trkpt lat="43.39948" lon="6.64103">
        <ele>179</ele>
        <time>2008-10-10T10:51:39Z</time>
      </trkpt>
      <trkpt lat="43.39957" lon="6.64115">
        <ele>179.80000305176</ele>
        <time>2008-10-10T10:51:42Z</time>
      </trkpt>
      <trkpt lat="43.3997" lon="6.64124">
        <ele>180.60000610352</ele>
        <time>2008-10-10T10:51:46Z</time>
      </trkpt>
      <trkpt lat="43.39993" lon="6.64138">
        <ele>182.80000305176</ele>
        <time>2008-10-10T10:51:56Z</time>
      </trkpt>
      <trkpt lat="43.40027" lon="6.64158">
        <ele>185.39999389648</ele>
        <time>2008-10-10T10:52:10Z</time>
      </trkpt>
      <trkpt lat="43.40038" lon="6.64163">
        <ele>186.39999389648</ele>
        <time>2008-10-10T10:52:15Z</time>
      </trkpt>
      <trkpt lat="43.40044" lon="6.64183">
        <ele>187.19999694824</ele>
        <time>2008-10-10T10:52:21Z</time>
      </trkpt>
      <trkpt lat="43.40072" lon="6.64223">
        <ele>189.19999694824</ele>
        <time>2008-10-10T10:52:36Z</time>
      </trkpt>
      <trkpt lat="43.40102" lon="6.64229">
        <ele>190</ele>
        <time>2008-10-10T10:52:45Z</time>
      </trkpt>
      <trkpt lat="43.40125" lon="6.6423">
        <ele>189.80000305176</ele>
        <time>2008-10-10T10:52:50Z</time>
      </trkpt>
      <trkpt lat="43.40133" lon="6.64233">
        <ele>189.39999389648</ele>
        <time>2008-10-10T10:52:52Z</time>
      </trkpt>
      <trkpt lat="43.4018" lon="6.64254">
        <ele>191.39999389648</ele>
        <time>2008-10-10T10:53:06Z</time>
      </trkpt>
      <trkpt lat="43.40207" lon="6.64267">
        <ele>196.39999389648</ele>
        <time>2008-10-10T10:53:22Z</time>
      </trkpt>
      <trkpt lat="43.4024" lon="6.64271">
        <ele>200.39999389648</ele>
        <time>2008-10-10T10:53:42Z</time>
      </trkpt>
      <trkpt lat="43.40266" lon="6.64282">
        <ele>204.80000305176</ele>
        <time>2008-10-10T10:54:00Z</time>
      </trkpt>
      <trkpt lat="43.40287" lon="6.64299">
        <ele>208.80000305176</ele>
        <time>2008-10-10T10:54:18Z</time>
      </trkpt>
      <trkpt lat="43.40297" lon="6.64307">
        <ele>210.80000305176</ele>
        <time>2008-10-10T10:54:29Z</time>
      </trkpt>
      <trkpt lat="43.40305" lon="6.64311">
        <ele>212.60000610352</ele>
        <time>2008-10-10T10:54:37Z</time>
      </trkpt>
      <trkpt lat="43.4032" lon="6.64323">
        <ele>216</ele>
        <time>2008-10-10T10:54:51Z</time>
      </trkpt>
      <trkpt lat="43.40338" lon="6.64337">
        <ele>219.60000610352</ele>
        <time>2008-10-10T10:55:08Z</time>
      </trkpt>
      <trkpt lat="43.40359" lon="6.64353">
        <ele>223.80000305176</ele>
        <time>2008-10-10T10:55:28Z</time>
      </trkpt>
      <trkpt lat="43.40376" lon="6.64367">
        <ele>227.39999389648</ele>
        <time>2008-10-10T10:55:43Z</time>
      </trkpt>
      <trkpt lat="43.40396" lon="6.64393">
        <ele>230.19999694824</ele>
        <time>2008-10-10T10:56:01Z</time>
      </trkpt>
      <trkpt lat="43.40421" lon="6.64411">
        <ele>232</ele>
        <time>2008-10-10T10:56:14Z</time>
      </trkpt>
      <trkpt lat="43.40455" lon="6.64416">
        <ele>233</ele>
        <time>2008-10-10T10:56:28Z</time>
      </trkpt>
      <trkpt lat="43.40476" lon="6.64433">
        <ele>235.80000305176</ele>
        <time>2008-10-10T10:56:43Z</time>
      </trkpt>
      <trkpt lat="43.40496" lon="6.64455">
        <ele>239.80000305176</ele>
        <time>2008-10-10T10:57:01Z</time>
      </trkpt>
      <trkpt lat="43.40512" lon="6.64476">
        <ele>242.19999694824</ele>
        <time>2008-10-10T10:57:17Z</time>
      </trkpt>
      <trkpt lat="43.40532" lon="6.64498">
        <ele>246.19999694824</ele>
        <time>2008-10-10T10:57:35Z</time>
      </trkpt>
      <trkpt lat="43.40554" lon="6.64521">
        <ele>249.60000610352</ele>
        <time>2008-10-10T10:57:54Z</time>
      </trkpt>
      <trkpt lat="43.40581" lon="6.64551">
        <ele>252.80000305176</ele>
        <time>2008-10-10T10:58:14Z</time>
      </trkpt>
      <trkpt lat="43.40605" lon="6.64576">
        <ele>254.60000610352</ele>
        <time>2008-10-10T10:58:30Z</time>
      </trkpt>
      <trkpt lat="43.40635" lon="6.64564">
        <ele>259.39999389648</ele>
        <time>2008-10-10T10:58:49Z</time>
      </trkpt>
      <trkpt lat="43.40661" lon="6.64559">
        <ele>262.39999389648</ele>
        <time>2008-10-10T10:59:05Z</time>
      </trkpt>
      <trkpt lat="43.40691" lon="6.64555">
        <ele>265.79998779297</ele>
        <time>2008-10-10T10:59:24Z</time>
      </trkpt>
      <trkpt lat="43.40729" lon="6.64551">
        <ele>266.20001220703</ele>
        <time>2008-10-10T10:59:40Z</time>
      </trkpt>
      <trkpt lat="43.4074" lon="6.64548">
        <ele>265.39999389648</ele>
        <time>2008-10-10T10:59:42Z</time>
      </trkpt>
      <trkpt lat="43.40758" lon="6.6454">
        <ele>264.20001220703</ele>
        <time>2008-10-10T10:59:45Z</time>
      </trkpt>
      <trkpt lat="43.40791" lon="6.64536">
        <ele>266.60000610352</ele>
        <time>2008-10-10T10:59:54Z</time>
      </trkpt>
      <trkpt lat="43.40816" lon="6.64539">
        <ele>269.20001220703</ele>
        <time>2008-10-10T11:00:09Z</time>
      </trkpt>
      <trkpt lat="43.40837" lon="6.6454">
        <ele>272.20001220703</ele>
        <time>2008-10-10T11:00:22Z</time>
      </trkpt>
      <trkpt lat="43.40858" lon="6.64543">
        <ele>275.20001220703</ele>
        <time>2008-10-10T11:00:38Z</time>
      </trkpt>
      <trkpt lat="43.40872" lon="6.64557">
        <ele>277.20001220703</ele>
        <time>2008-10-10T11:00:53Z</time>
      </trkpt>
      <trkpt lat="43.40868" lon="6.64572">
        <ele>278.79998779297</ele>
        <time>2008-10-10T11:01:03Z</time>
      </trkpt>
      <trkpt lat="43.40862" lon="6.64573">
        <ele>280.39999389648</ele>
        <time>2008-10-10T11:01:11Z</time>
      </trkpt>
      <trkpt lat="43.40857" lon="6.64578">
        <ele>281.39999389648</ele>
        <time>2008-10-10T11:01:19Z</time>
      </trkpt>
      <trkpt lat="43.40848" lon="6.64584">
        <ele>283.39999389648</ele>
        <time>2008-10-10T11:01:33Z</time>
      </trkpt>
      <trkpt lat="43.40843" lon="6.64587">
        <ele>284.39999389648</ele>
        <time>2008-10-10T11:01:40Z</time>
      </trkpt>
      <trkpt lat="43.40831" lon="6.64595">
        <ele>285.79998779297</ele>
        <time>2008-10-10T11:01:58Z</time>
      </trkpt>
      <trkpt lat="43.40806" lon="6.64601">
        <ele>288.39999389648</ele>
        <time>2008-10-10T11:02:17Z</time>
      </trkpt>
      <trkpt lat="43.40785" lon="6.64617">
        <ele>291.60000610352</ele>
        <time>2008-10-10T11:02:32Z</time>
      </trkpt>
      <trkpt lat="43.40767" lon="6.64636">
        <ele>294.79998779297</ele>
        <time>2008-10-10T11:02:48Z</time>
      </trkpt>
      <trkpt lat="43.40746" lon="6.64653">
        <ele>297.60000610352</ele>
        <time>2008-10-10T11:03:04Z</time>
      </trkpt>
      <trkpt lat="43.40718" lon="6.64674">
        <ele>300.79998779297</ele>
        <time>2008-10-10T11:03:23Z</time>
      </trkpt>
      <trkpt lat="43.40699" lon="6.64714">
        <ele>301.39999389648</ele>
        <time>2008-10-10T11:03:38Z</time>
      </trkpt>
      <trkpt lat="43.40691" lon="6.64729">
        <ele>300</ele>
        <time>2008-10-10T11:03:41Z</time>
      </trkpt>
      <trkpt lat="43.40663" lon="6.64763">
        <ele>294.79998779297</ele>
        <time>2008-10-10T11:03:47Z</time>
      </trkpt>
      <trkpt lat="43.40635" lon="6.64761">
        <ele>290.39999389648</ele>
        <time>2008-10-10T11:03:52Z</time>
      </trkpt>
      <trkpt lat="43.40614" lon="6.64738">
        <ele>288.79998779297</ele>
        <time>2008-10-10T11:03:56Z</time>
      </trkpt>
      <trkpt lat="43.40594" lon="6.6474">
        <ele>286.60000610352</ele>
        <time>2008-10-10T11:04:00Z</time>
      </trkpt>
      <trkpt lat="43.40576" lon="6.64753">
        <ele>285.60000610352</ele>
        <time>2008-10-10T11:04:04Z</time>
      </trkpt>
      <trkpt lat="43.40572" lon="6.64751">
        <ele>286</ele>
        <time>2008-10-10T11:04:05Z</time>
      </trkpt>
      <trkpt lat="43.40547" lon="6.64729">
        <ele>289.20001220703</ele>
        <time>2008-10-10T11:04:19Z</time>
      </trkpt>
      <trkpt lat="43.40521" lon="6.64715">
        <ele>292</ele>
        <time>2008-10-10T11:04:35Z</time>
      </trkpt>
      <trkpt lat="43.40511" lon="6.64708">
        <ele>293.60000610352</ele>
        <time>2008-10-10T11:04:42Z</time>
      </trkpt>
      <trkpt lat="43.40491" lon="6.64697">
        <ele>295</ele>
        <time>2008-10-10T11:04:54Z</time>
      </trkpt>
      <trkpt lat="43.40458" lon="6.64692">
        <ele>296.79998779297</ele>
        <time>2008-10-10T11:05:10Z</time>
      </trkpt>
      <trkpt lat="43.40443" lon="6.64679">
        <ele>299.20001220703</ele>
        <time>2008-10-10T11:05:24Z</time>
      </trkpt>
      <trkpt lat="43.40422" lon="6.64669">
        <ele>302.60000610352</ele>
        <time>2008-10-10T11:05:40Z</time>
      </trkpt>
      <trkpt lat="43.40398" lon="6.64664">
        <ele>303.60000610352</ele>
        <time>2008-10-10T11:05:52Z</time>
      </trkpt>
      <trkpt lat="43.40376" lon="6.64661">
        <ele>306.20001220703</ele>
        <time>2008-10-10T11:06:05Z</time>
      </trkpt>
      <trkpt lat="43.40346" lon="6.64672">
        <ele>308.79998779297</ele>
        <time>2008-10-10T11:06:22Z</time>
      </trkpt>
      <trkpt lat="43.40339" lon="6.64675">
        <ele>308</ele>
        <time>2008-10-10T11:06:24Z</time>
      </trkpt>
      <trkpt lat="43.40325" lon="6.64678">
        <ele>308.39999389648</ele>
        <time>2008-10-10T11:06:28Z</time>
      </trkpt>
      <trkpt lat="43.40301" lon="6.64673">
        <ele>312</ele>
        <time>2008-10-10T11:06:43Z</time>
      </trkpt>
      <trkpt lat="43.40272" lon="6.64656">
        <ele>316</ele>
        <time>2008-10-10T11:07:01Z</time>
      </trkpt>
      <trkpt lat="43.40233" lon="6.64648">
        <ele>316.39999389648</ele>
        <time>2008-10-10T11:07:15Z</time>
      </trkpt>
      <trkpt lat="43.40185" lon="6.6465">
        <ele>317</ele>
        <time>2008-10-10T11:07:30Z</time>
      </trkpt>
      <trkpt lat="43.40152" lon="6.6466">
        <ele>316</ele>
        <time>2008-10-10T11:07:40Z</time>
      </trkpt>
      <trkpt lat="43.40123" lon="6.64698">
        <ele>316.60000610352</ele>
        <time>2008-10-10T11:07:49Z</time>
      </trkpt>
      <trkpt lat="43.40109" lon="6.64708">
        <ele>317.39999389648</ele>
        <time>2008-10-10T11:07:53Z</time>
      </trkpt>
      <trkpt lat="43.40079" lon="6.64734">
        <ele>318.60000610352</ele>
        <time>2008-10-10T11:08:04Z</time>
      </trkpt>
      <trkpt lat="43.4005" lon="6.64762">
        <ele>318</ele>
        <time>2008-10-10T11:08:16Z</time>
      </trkpt>
      <trkpt lat="43.4002" lon="6.64746">
        <ele>309.79998779297</ele>
        <time>2008-10-10T11:08:26Z</time>
      </trkpt>
      <trkpt lat="43.40008" lon="6.64728">
        <ele>304.60000610352</ele>
        <time>2008-10-10T11:08:30Z</time>
      </trkpt>
      <trkpt lat="43.40003" lon="6.64721">
        <ele>302.20001220703</ele>
        <time>2008-10-10T11:08:32Z</time>
      </trkpt>
      <trkpt lat="43.39998" lon="6.64719">
        <ele>300.79998779297</ele>
        <time>2008-10-10T11:08:34Z</time>
      </trkpt>
      <trkpt lat="43.39977" lon="6.64718">
        <ele>296.20001220703</ele>
        <time>2008-10-10T11:08:41Z</time>
      </trkpt>
      <trkpt lat="43.39961" lon="6.64702">
        <ele>290.60000610352</ele>
        <time>2008-10-10T11:08:50Z</time>
      </trkpt>
      <trkpt lat="43.3996" lon="6.64695">
        <ele>288.79998779297</ele>
        <time>2008-10-10T11:08:53Z</time>
      </trkpt>
      <trkpt lat="43.39946" lon="6.64689">
        <ele>284.39999389648</ele>
        <time>2008-10-10T11:09:03Z</time>
      </trkpt>
      <trkpt lat="43.39943" lon="6.64685">
        <ele>282.60000610352</ele>
        <time>2008-10-10T11:09:10Z</time>
      </trkpt>
      <trkpt lat="43.39937" lon="6.64682">
        <ele>280</ele>
        <time>2008-10-10T11:09:19Z</time>
      </trkpt>
      <trkpt lat="43.39925" lon="6.64674">
        <ele>274.60000610352</ele>
        <time>2008-10-10T11:09:37Z</time>
      </trkpt>
      <trkpt lat="43.39921" lon="6.64662">
        <ele>271.60000610352</ele>
        <time>2008-10-10T11:09:51Z</time>
      </trkpt>
      <trkpt lat="43.39912" lon="6.64643">
        <ele>265.60000610352</ele>
        <time>2008-10-10T11:10:08Z</time>
      </trkpt>
      <trkpt lat="43.39911" lon="6.64641">
        <ele>265.20001220703</ele>
        <time>2008-10-10T11:10:10Z</time>
      </trkpt>
      <trkpt lat="43.39908" lon="6.64639">
        <ele>263.79998779297</ele>
        <time>2008-10-10T11:10:14Z</time>
      </trkpt>
      <trkpt lat="43.39904" lon="6.64626">
        <ele>260.20001220703</ele>
        <time>2008-10-10T11:10:28Z</time>
      </trkpt>
      <trkpt lat="43.39896" lon="6.64612">
        <ele>255.39999389648</ele>
        <time>2008-10-10T11:10:44Z</time>
      </trkpt>
      <trkpt lat="43.39895" lon="6.64608">
        <ele>254.19999694824</ele>
        <time>2008-10-10T11:10:50Z</time>
      </trkpt>
      <trkpt lat="43.39889" lon="6.64597">
        <ele>251.39999389648</ele>
        <time>2008-10-10T11:11:04Z</time>
      </trkpt>
      <trkpt lat="43.39876" lon="6.64594">
        <ele>249</ele>
        <time>2008-10-10T11:11:08Z</time>
      </trkpt>
      <trkpt lat="43.39843" lon="6.64597">
        <ele>242.60000610352</ele>
        <time>2008-10-10T11:11:15Z</time>
      </trkpt>
      <trkpt lat="43.39829" lon="6.64585">
        <ele>239.39999389648</ele>
        <time>2008-10-10T11:11:19Z</time>
      </trkpt>
      <trkpt lat="43.39825" lon="6.64556">
        <ele>237.39999389648</ele>
        <time>2008-10-10T11:11:24Z</time>
      </trkpt>
      <trkpt lat="43.39819" lon="6.64544">
        <ele>235.80000305176</ele>
        <time>2008-10-10T11:11:26Z</time>
      </trkpt>
      <trkpt lat="43.39813" lon="6.64528">
        <ele>233.60000610352</ele>
        <time>2008-10-10T11:11:29Z</time>
      </trkpt>
      <trkpt lat="43.39788" lon="6.64523">
        <ele>235.19999694824</ele>
        <time>2008-10-10T11:11:40Z</time>
      </trkpt>
      <trkpt lat="43.39758" lon="6.64515">
        <ele>236.39999389648</ele>
        <time>2008-10-10T11:11:51Z</time>
      </trkpt>
      <trkpt lat="43.39737" lon="6.6451">
        <ele>236.39999389648</ele>
        <time>2008-10-10T11:11:57Z</time>
      </trkpt>
      <trkpt lat="43.39721" lon="6.64506">
        <ele>235.80000305176</ele>
        <time>2008-10-10T11:12:01Z</time>
      </trkpt>
      <trkpt lat="43.39704" lon="6.64513">
        <ele>235.80000305176</ele>
        <time>2008-10-10T11:12:05Z</time>
      </trkpt>
      <trkpt lat="43.39694" lon="6.64525">
        <ele>235</ele>
        <time>2008-10-10T11:12:09Z</time>
      </trkpt>
      <trkpt lat="43.39681" lon="6.64527">
        <ele>234.60000610352</ele>
        <time>2008-10-10T11:12:12Z</time>
      </trkpt>
      <trkpt lat="43.39638" lon="6.64535">
        <ele>228.60000610352</ele>
        <time>2008-10-10T11:12:18Z</time>
      </trkpt>
      <trkpt lat="43.39617" lon="6.64543">
        <ele>227</ele>
        <time>2008-10-10T11:12:21Z</time>
      </trkpt>
      <trkpt lat="43.39598" lon="6.64563">
        <ele>223.60000610352</ele>
        <time>2008-10-10T11:12:25Z</time>
      </trkpt>
      <trkpt lat="43.39569" lon="6.64592">
        <ele>216</ele>
        <time>2008-10-10T11:12:32Z</time>
      </trkpt>
      <trkpt lat="43.39563" lon="6.64595">
        <ele>216</ele>
        <time>2008-10-10T11:12:33Z</time>
      </trkpt>
      <trkpt lat="43.39497" lon="6.64625">
        <ele>204.60000610352</ele>
        <time>2008-10-10T11:12:44Z</time>
      </trkpt>
      <trkpt lat="43.3944" lon="6.64653">
        <ele>199</ele>
        <time>2008-10-10T11:12:52Z</time>
      </trkpt>
      <trkpt lat="43.39426" lon="6.64656">
        <ele>198.19999694824</ele>
        <time>2008-10-10T11:12:54Z</time>
      </trkpt>
      <trkpt lat="43.39408" lon="6.6465">
        <ele>197.39999389648</ele>
        <time>2008-10-10T11:12:57Z</time>
      </trkpt>
      <trkpt lat="43.39394" lon="6.64641">
        <ele>195.60000610352</ele>
        <time>2008-10-10T11:13:00Z</time>
      </trkpt>
      <trkpt lat="43.39364" lon="6.64634">
        <ele>192</ele>
        <time>2008-10-10T11:13:05Z</time>
      </trkpt>
      <trkpt lat="43.39337" lon="6.64624">
        <ele>189</ele>
        <time>2008-10-10T11:13:11Z</time>
      </trkpt>
      <trkpt lat="43.3933" lon="6.64608">
        <ele>189.19999694824</ele>
        <time>2008-10-10T11:13:14Z</time>
      </trkpt>
      <trkpt lat="43.39303" lon="6.64584">
        <ele>187.39999389648</ele>
        <time>2008-10-10T11:13:21Z</time>
      </trkpt>
      <trkpt lat="43.39269" lon="6.64578">
        <ele>185.80000305176</ele>
        <time>2008-10-10T11:13:26Z</time>
      </trkpt>
      <trkpt lat="43.39191" lon="6.64605">
        <ele>180.19999694824</ele>
        <time>2008-10-10T11:13:37Z</time>
      </trkpt>
      <trkpt lat="43.39174" lon="6.6461">
        <ele>179</ele>
        <time>2008-10-10T11:13:39Z</time>
      </trkpt>
      <trkpt lat="43.39137" lon="6.64612">
        <ele>176</ele>
        <time>2008-10-10T11:13:43Z</time>
      </trkpt>
      <trkpt lat="43.39078" lon="6.64618">
        <ele>169.60000610352</ele>
        <time>2008-10-10T11:13:50Z</time>
      </trkpt>
      <trkpt lat="43.39051" lon="6.64623">
        <ele>167.19999694824</ele>
        <time>2008-10-10T11:13:53Z</time>
      </trkpt>
      <trkpt lat="43.3903" lon="6.64632">
        <ele>165.19999694824</ele>
        <time>2008-10-10T11:13:56Z</time>
      </trkpt>
      <trkpt lat="43.38996" lon="6.64674">
        <ele>160.39999389648</ele>
        <time>2008-10-10T11:14:02Z</time>
      </trkpt>
      <trkpt lat="43.38949" lon="6.6471">
        <ele>153.60000610352</ele>
        <time>2008-10-10T11:14:08Z</time>
      </trkpt>
      <trkpt lat="43.38917" lon="6.64724">
        <ele>152.19999694824</ele>
        <time>2008-10-10T11:14:12Z</time>
      </trkpt>
      <trkpt lat="43.38878" lon="6.6475">
        <ele>148</ele>
        <time>2008-10-10T11:14:17Z</time>
      </trkpt>
      <trkpt lat="43.38853" lon="6.64753">
        <ele>145.60000610352</ele>
        <time>2008-10-10T11:14:21Z</time>
      </trkpt>
      <trkpt lat="43.38832" lon="6.64744">
        <ele>143</ele>
        <time>2008-10-10T11:14:24Z</time>
      </trkpt>
      <trkpt lat="43.3881" lon="6.64742">
        <ele>141.39999389648</ele>
        <time>2008-10-10T11:14:27Z</time>
      </trkpt>
      <trkpt lat="43.38785" lon="6.64744">
        <ele>138.80000305176</ele>
        <time>2008-10-10T11:14:31Z</time>
      </trkpt>
      <trkpt lat="43.38764" lon="6.64778">
        <ele>133.39999389648</ele>
        <time>2008-10-10T11:14:38Z</time>
      </trkpt>
      <trkpt lat="43.38761" lon="6.64805">
        <ele>132.19999694824</ele>
        <time>2008-10-10T11:14:41Z</time>
      </trkpt>
      <trkpt lat="43.38727" lon="6.64845">
        <ele>129.80000305176</ele>
        <time>2008-10-10T11:14:48Z</time>
      </trkpt>
      <trkpt lat="43.38703" lon="6.64854">
        <ele>127.59999847412</ele>
        <time>2008-10-10T11:14:51Z</time>
      </trkpt>
      <trkpt lat="43.38671" lon="6.64859">
        <ele>124.19999694824</ele>
        <time>2008-10-10T11:14:55Z</time>
      </trkpt>
      <trkpt lat="43.38657" lon="6.64864">
        <ele>122.80000305176</ele>
        <time>2008-10-10T11:14:57Z</time>
      </trkpt>
      <trkpt lat="43.38636" lon="6.64876">
        <ele>121.40000152588</ele>
        <time>2008-10-10T11:15:00Z</time>
      </trkpt>
      <trkpt lat="43.38624" lon="6.64883">
        <ele>120.59999847412</ele>
        <time>2008-10-10T11:15:02Z</time>
      </trkpt>
      <trkpt lat="43.38596" lon="6.64905">
        <ele>117.40000152588</ele>
        <time>2008-10-10T11:15:08Z</time>
      </trkpt>
      <trkpt lat="43.38585" lon="6.64936">
        <ele>114</ele>
        <time>2008-10-10T11:15:13Z</time>
      </trkpt>
      <trkpt lat="43.38586" lon="6.64964">
        <ele>111.59999847412</ele>
        <time>2008-10-10T11:15:16Z</time>
      </trkpt>
      <trkpt lat="43.3859" lon="6.65053">
        <ele>103.40000152588</ele>
        <time>2008-10-10T11:15:25Z</time>
      </trkpt>
      <trkpt lat="43.38579" lon="6.65087">
        <ele>100.19999694824</ele>
        <time>2008-10-10T11:15:29Z</time>
      </trkpt>
      <trkpt lat="43.38573" lon="6.65092">
        <ele>100</ele>
        <time>2008-10-10T11:15:30Z</time>
      </trkpt>
      <trkpt lat="43.38561" lon="6.651">
        <ele>99.400001525879</ele>
        <time>2008-10-10T11:15:32Z</time>
      </trkpt>
      <trkpt lat="43.38554" lon="6.65109">
        <ele>98</ele>
        <time>2008-10-10T11:15:34Z</time>
      </trkpt>
      <trkpt lat="43.38545" lon="6.65123">
        <ele>96</ele>
        <time>2008-10-10T11:15:36Z</time>
      </trkpt>
      <trkpt lat="43.38537" lon="6.6514">
        <ele>95.800003051758</ele>
        <time>2008-10-10T11:15:38Z</time>
      </trkpt>
      <trkpt lat="43.38522" lon="6.65164">
        <ele>93.800003051758</ele>
        <time>2008-10-10T11:15:41Z</time>
      </trkpt>
      <trkpt lat="43.38506" lon="6.65182">
        <ele>92.599998474121</ele>
        <time>2008-10-10T11:15:44Z</time>
      </trkpt>
      <trkpt lat="43.38494" lon="6.65214">
        <ele>90.400001525879</ele>
        <time>2008-10-10T11:15:48Z</time>
      </trkpt>
      <trkpt lat="43.38493" lon="6.65232">
        <ele>90</ele>
        <time>2008-10-10T11:15:50Z</time>
      </trkpt>
      <trkpt lat="43.38492" lon="6.65267">
        <ele>85.400001525879</ele>
        <time>2008-10-10T11:15:54Z</time>
      </trkpt>
      <trkpt lat="43.38487" lon="6.6529">
        <ele>83.599998474121</ele>
        <time>2008-10-10T11:15:57Z</time>
      </trkpt>
      <trkpt lat="43.38486" lon="6.65343">
        <ele>76.599998474121</ele>
        <time>2008-10-10T11:16:04Z</time>
      </trkpt>
      <trkpt lat="43.38499" lon="6.65375">
        <ele>72.199996948242</ele>
        <time>2008-10-10T11:16:10Z</time>
      </trkpt>
      <trkpt lat="43.38508" lon="6.65384">
        <ele>70.599998474121</ele>
        <time>2008-10-10T11:16:12Z</time>
      </trkpt>
      <trkpt lat="43.38516" lon="6.65398">
        <ele>67.800003051758</ele>
        <time>2008-10-10T11:16:16Z</time>
      </trkpt>
      <trkpt lat="43.38508" lon="6.65397">
        <ele>66.800003051758</ele>
        <time>2008-10-10T11:16:20Z</time>
      </trkpt>
      <trkpt lat="43.38477" lon="6.65369">
        <ele>66.800003051758</ele>
        <time>2008-10-10T11:16:31Z</time>
      </trkpt>
      <trkpt lat="43.38465" lon="6.65338">
        <ele>65.400001525879</ele>
        <time>2008-10-10T11:16:36Z</time>
      </trkpt>
      <trkpt lat="43.38459" lon="6.65324">
        <ele>64.599998474121</ele>
        <time>2008-10-10T11:16:38Z</time>
      </trkpt>
      <trkpt lat="43.38452" lon="6.653">
        <ele>64.400001525879</ele>
        <time>2008-10-10T11:16:41Z</time>
      </trkpt>
      <trkpt lat="43.38447" lon="6.65276">
        <ele>64.199996948242</ele>
        <time>2008-10-10T11:16:44Z</time>
      </trkpt>
      <trkpt lat="43.3844" lon="6.65255">
        <ele>64</ele>
        <time>2008-10-10T11:16:47Z</time>
      </trkpt>
      <trkpt lat="43.38431" lon="6.65199">
        <ele>64</ele>
        <time>2008-10-10T11:16:58Z</time>
      </trkpt>
      <trkpt lat="43.3843" lon="6.65194">
        <ele>63.799999237061</ele>
        <time>2008-10-10T11:16:59Z</time>
      </trkpt>
      <trkpt lat="43.38422" lon="6.65147">
        <ele>62.799999237061</ele>
        <time>2008-10-10T11:17:06Z</time>
      </trkpt>
      <trkpt lat="43.38421" lon="6.65116">
        <ele>61.400001525879</ele>
        <time>2008-10-10T11:17:10Z</time>
      </trkpt>
      <trkpt lat="43.38422" lon="6.65098">
        <ele>60.599998474121</ele>
        <time>2008-10-10T11:17:12Z</time>
      </trkpt>
      <trkpt lat="43.38406" lon="6.65048">
        <ele>58</ele>
        <time>2008-10-10T11:17:20Z</time>
      </trkpt>
      <trkpt lat="43.38394" lon="6.65014">
        <ele>57.400001525879</ele>
        <time>2008-10-10T11:17:26Z</time>
      </trkpt>
      <trkpt lat="43.38382" lon="6.64997">
        <ele>57.200000762939</ele>
        <time>2008-10-10T11:17:30Z</time>
      </trkpt>
      <trkpt lat="43.3836" lon="6.64955">
        <ele>54.799999237061</ele>
        <time>2008-10-10T11:17:40Z</time>
      </trkpt>
      <trkpt lat="43.38356" lon="6.64937">
        <ele>54.599998474121</ele>
        <time>2008-10-10T11:17:43Z</time>
      </trkpt>
      <trkpt lat="43.38338" lon="6.64912">
        <ele>52.400001525879</ele>
        <time>2008-10-10T11:17:50Z</time>
      </trkpt>
      <trkpt lat="43.38316" lon="6.64891">
        <ele>51.599998474121</ele>
        <time>2008-10-10T11:17:56Z</time>
      </trkpt>
      <trkpt lat="43.38311" lon="6.64881">
        <ele>51.799999237061</ele>
        <time>2008-10-10T11:17:58Z</time>
      </trkpt>
      <trkpt lat="43.38307" lon="6.64849">
        <ele>51.200000762939</ele>
        <time>2008-10-10T11:18:04Z</time>
      </trkpt>
      <trkpt lat="43.38308" lon="6.64811">
        <ele>51.400001525879</ele>
        <time>2008-10-10T11:18:13Z</time>
      </trkpt>
      <trkpt lat="43.38296" lon="6.64806">
        <ele>52.799999237061</ele>
        <time>2008-10-10T11:18:22Z</time>
      </trkpt>
      <trkpt lat="43.38292" lon="6.64805">
        <ele>53.599998474121</ele>
        <time>2008-10-10T11:18:29Z</time>
      </trkpt>
      <trkpt lat="43.3829" lon="6.64804">
        <ele>53.799999237061</ele>
        <time>2008-10-10T11:18:34Z</time>
      </trkpt>
      <trkpt lat="43.38283" lon="6.64801">
        <ele>55.799999237061</ele>
        <time>2008-10-10T11:18:48Z</time>
      </trkpt>
      <trkpt lat="43.38278" lon="6.64795">
        <ele>56.400001525879</ele>
        <time>2008-10-10T11:18:56Z</time>
      </trkpt>
      <trkpt lat="43.38274" lon="6.6479">
        <ele>56.799999237061</ele>
        <time>2008-10-10T11:19:00Z</time>
      </trkpt>
      <trkpt lat="43.38248" lon="6.64773">
        <ele>57.200000762939</ele>
        <time>2008-10-10T11:19:12Z</time>
      </trkpt>
      <trkpt lat="43.3822" lon="6.64767">
        <ele>58</ele>
        <time>2008-10-10T11:19:26Z</time>
      </trkpt>
      <trkpt lat="43.38207" lon="6.64766">
        <ele>59.799999237061</ele>
        <time>2008-10-10T11:19:39Z</time>
      </trkpt>
      <trkpt lat="43.38191" lon="6.64765">
        <ele>60.799999237061</ele>
        <time>2008-10-10T11:19:56Z</time>
      </trkpt>
      <trkpt lat="43.3818" lon="6.64765">
        <ele>62.400001525879</ele>
        <time>2008-10-10T11:20:11Z</time>
      </trkpt>
      <trkpt lat="43.38169" lon="6.64763">
        <ele>65</ele>
        <time>2008-10-10T11:20:30Z</time>
      </trkpt>
      <trkpt lat="43.38163" lon="6.64763">
        <ele>66</ele>
        <time>2008-10-10T11:20:38Z</time>
      </trkpt>
      <trkpt lat="43.38153" lon="6.64757">
        <ele>67.800003051758</ele>
        <time>2008-10-10T11:20:52Z</time>
      </trkpt>
      <trkpt lat="43.38139" lon="6.64752">
        <ele>68.400001525879</ele>
        <time>2008-10-10T11:21:05Z</time>
      </trkpt>
      <trkpt lat="43.38134" lon="6.64752">
        <ele>69</ele>
        <time>2008-10-10T11:21:09Z</time>
      </trkpt>
      <trkpt lat="43.3813" lon="6.64752">
        <ele>69.400001525879</ele>
        <time>2008-10-10T11:21:13Z</time>
      </trkpt>
      <trkpt lat="43.38112" lon="6.64755">
        <ele>71.599998474121</ele>
        <time>2008-10-10T11:21:30Z</time>
      </trkpt>
      <trkpt lat="43.38095" lon="6.64749">
        <ele>73</ele>
        <time>2008-10-10T11:21:43Z</time>
      </trkpt>
      <trkpt lat="43.38081" lon="6.64697">
        <ele>72.800003051758</ele>
        <time>2008-10-10T11:21:56Z</time>
      </trkpt>
      <trkpt lat="43.38082" lon="6.64687">
        <ele>72.400001525879</ele>
        <time>2008-10-10T11:21:58Z</time>
      </trkpt>
      <trkpt lat="43.38087" lon="6.64664">
        <ele>71.599998474121</ele>
        <time>2008-10-10T11:22:02Z</time>
      </trkpt>
      <trkpt lat="43.38102" lon="6.64606">
        <ele>71.800003051758</ele>
        <time>2008-10-10T11:22:13Z</time>
      </trkpt>
      <trkpt lat="43.38096" lon="6.64573">
        <ele>70.599998474121</ele>
        <time>2008-10-10T11:22:19Z</time>
      </trkpt>
      <trkpt lat="43.38104" lon="6.6453">
        <ele>73</ele>
        <time>2008-10-10T11:22:31Z</time>
      </trkpt>
      <trkpt lat="43.38091" lon="6.64486">
        <ele>74.199996948242</ele>
        <time>2008-10-10T11:22:44Z</time>
      </trkpt>
      <trkpt lat="43.3804" lon="6.64479">
        <ele>74.599998474121</ele>
        <time>2008-10-10T11:23:00Z</time>
      </trkpt>
      <trkpt lat="43.37996" lon="6.64491">
        <ele>76.599998474121</ele>
        <time>2008-10-10T11:23:14Z</time>
      </trkpt>
      <trkpt lat="43.37948" lon="6.64483">
        <ele>78.199996948242</ele>
        <time>2008-10-10T11:23:29Z</time>
      </trkpt>
      <trkpt lat="43.37891" lon="6.64477">
        <ele>78.800003051758</ele>
        <time>2008-10-10T11:23:45Z</time>
      </trkpt>
      <trkpt lat="43.37879" lon="6.64478">
        <ele>78.800003051758</ele>
        <time>2008-10-10T11:23:48Z</time>
      </trkpt>
      <trkpt lat="43.37847" lon="6.64474">
        <ele>78.400001525879</ele>
        <time>2008-10-10T11:23:57Z</time>
      </trkpt>
      <trkpt lat="43.37849" lon="6.64472">
        <ele>78.199996948242</ele>
        <time>2008-10-10T11:23:58Z</time>
      </trkpt>
      <trkpt lat="43.37861" lon="6.64461">
        <ele>78</ele>
        <time>2008-10-10T11:24:02Z</time>
      </trkpt>
      <trkpt lat="43.37887" lon="6.64449">
        <ele>77.199996948242</ele>
        <time>2008-10-10T11:24:08Z</time>
      </trkpt>
      <trkpt lat="43.37913" lon="6.64447">
        <ele>77</ele>
        <time>2008-10-10T11:24:13Z</time>
      </trkpt>
      <trkpt lat="43.37937" lon="6.64442">
        <ele>77</ele>
        <time>2008-10-10T11:24:18Z</time>
      </trkpt>
      <trkpt lat="43.37985" lon="6.64447">
        <ele>77.199996948242</ele>
        <time>2008-10-10T11:24:27Z</time>
      </trkpt>
      <trkpt lat="43.38015" lon="6.64452">
        <ele>77.199996948242</ele>
        <time>2008-10-10T11:24:33Z</time>
      </trkpt>
      <trkpt lat="43.38037" lon="6.64444">
        <ele>77.199996948242</ele>
        <time>2008-10-10T11:24:38Z</time>
      </trkpt>
      <trkpt lat="43.38051" lon="6.64428">
        <ele>78</ele>
        <time>2008-10-10T11:24:42Z</time>
      </trkpt>
      <trkpt lat="43.38083" lon="6.64421">
        <ele>78.400001525879</ele>
        <time>2008-10-10T11:24:50Z</time>
      </trkpt>
      <trkpt lat="43.38124" lon="6.64436">
        <ele>81</ele>
        <time>2008-10-10T11:25:04Z</time>
      </trkpt>
      <trkpt lat="43.38139" lon="6.64412">
        <ele>83</ele>
        <time>2008-10-10T11:25:13Z</time>
      </trkpt>
      <trkpt lat="43.38156" lon="6.64374">
        <ele>84</ele>
        <time>2008-10-10T11:25:25Z</time>
      </trkpt>
      <trkpt lat="43.38186" lon="6.64344">
        <ele>86.599998474121</ele>
        <time>2008-10-10T11:25:39Z</time>
      </trkpt>
      <trkpt lat="43.3821" lon="6.64332">
        <ele>88.400001525879</ele>
        <time>2008-10-10T11:25:51Z</time>
      </trkpt>
      <trkpt lat="43.38223" lon="6.64344">
        <ele>91.400001525879</ele>
        <time>2008-10-10T11:25:58Z</time>
      </trkpt>
      <trkpt lat="43.3823" lon="6.6434">
        <ele>91.599998474121</ele>
        <time>2008-10-10T11:26:02Z</time>
      </trkpt>
      <trkpt lat="43.38238" lon="6.64291">
        <ele>93</ele>
        <time>2008-10-10T11:26:17Z</time>
      </trkpt>
      <trkpt lat="43.38252" lon="6.64257">
        <ele>94.400001525879</ele>
        <time>2008-10-10T11:26:31Z</time>
      </trkpt>
      <trkpt lat="43.38271" lon="6.64226">
        <ele>97.400001525879</ele>
        <time>2008-10-10T11:26:46Z</time>
      </trkpt>
      <trkpt lat="43.38262" lon="6.6419">
        <ele>97</ele>
        <time>2008-10-10T11:26:57Z</time>
      </trkpt>
      <trkpt lat="43.38241" lon="6.6417">
        <ele>95</ele>
        <time>2008-10-10T11:27:02Z</time>
      </trkpt>
      <trkpt lat="43.38224" lon="6.6414">
        <ele>92.199996948242</ele>
        <time>2008-10-10T11:27:08Z</time>
      </trkpt>
      <trkpt lat="43.38233" lon="6.64123">
        <ele>91.599998474121</ele>
        <time>2008-10-10T11:27:11Z</time>
      </trkpt>
      <trkpt lat="43.38257" lon="6.641">
        <ele>91.400001525879</ele>
        <time>2008-10-10T11:27:17Z</time>
      </trkpt>
      <trkpt lat="43.3829" lon="6.64059">
        <ele>93.400001525879</ele>
        <time>2008-10-10T11:27:28Z</time>
      </trkpt>
      <trkpt lat="43.38306" lon="6.64006">
        <ele>96</ele>
        <time>2008-10-10T11:27:43Z</time>
      </trkpt>
      <trkpt lat="43.38304" lon="6.6398">
        <ele>96.599998474121</ele>
        <time>2008-10-10T11:27:50Z</time>
      </trkpt>
      <trkpt lat="43.38299" lon="6.63939">
        <ele>97.599998474121</ele>
        <time>2008-10-10T11:28:00Z</time>
      </trkpt>
      <trkpt lat="43.38268" lon="6.63894">
        <ele>97.800003051758</ele>
        <time>2008-10-10T11:28:13Z</time>
      </trkpt>
      <trkpt lat="43.38219" lon="6.63848">
        <ele>100.19999694824</ele>
        <time>2008-10-10T11:28:31Z</time>
      </trkpt>
      <trkpt lat="43.38194" lon="6.6383">
        <ele>103</ele>
        <time>2008-10-10T11:28:43Z</time>
      </trkpt>
      <trkpt lat="43.38167" lon="6.63817">
        <ele>105.80000305176</ele>
        <time>2008-10-10T11:28:57Z</time>
      </trkpt>
      <trkpt lat="43.38145" lon="6.63807">
        <ele>108.40000152588</ele>
        <time>2008-10-10T11:29:10Z</time>
      </trkpt>
      <trkpt lat="43.38115" lon="6.63798">
        <ele>111</ele>
        <time>2008-10-10T11:29:27Z</time>
      </trkpt>
      <trkpt lat="43.38086" lon="6.6379">
        <ele>114</ele>
        <time>2008-10-10T11:29:45Z</time>
      </trkpt>
      <trkpt lat="43.38063" lon="6.63778">
        <ele>116.80000305176</ele>
        <time>2008-10-10T11:30:01Z</time>
      </trkpt>
      <trkpt lat="43.38034" lon="6.63768">
        <ele>119.40000152588</ele>
        <time>2008-10-10T11:30:18Z</time>
      </trkpt>
      <trkpt lat="43.38005" lon="6.63756">
        <ele>122.19999694824</ele>
        <time>2008-10-10T11:30:36Z</time>
      </trkpt>
      <trkpt lat="43.37971" lon="6.63754">
        <ele>124.80000305176</ele>
        <time>2008-10-10T11:30:54Z</time>
      </trkpt>
      <trkpt lat="43.37936" lon="6.63758">
        <ele>128</ele>
        <time>2008-10-10T11:31:13Z</time>
      </trkpt>
      <trkpt lat="43.37902" lon="6.63766">
        <ele>131</ele>
        <time>2008-10-10T11:31:30Z</time>
      </trkpt>
      <trkpt lat="43.37866" lon="6.63762">
        <ele>132.80000305176</ele>
        <time>2008-10-10T11:31:47Z</time>
      </trkpt>
      <trkpt lat="43.37842" lon="6.63758">
        <ele>135.39999389648</ele>
        <time>2008-10-10T11:32:00Z</time>
      </trkpt>
      <trkpt lat="43.37811" lon="6.63755">
        <ele>137.60000610352</ele>
        <time>2008-10-10T11:32:17Z</time>
      </trkpt>
      <trkpt lat="43.37785" lon="6.63748">
        <ele>140.60000610352</ele>
        <time>2008-10-10T11:32:32Z</time>
      </trkpt>
      <trkpt lat="43.37755" lon="6.6374">
        <ele>143.39999389648</ele>
        <time>2008-10-10T11:32:48Z</time>
      </trkpt>
      <trkpt lat="43.37748" lon="6.63703">
        <ele>144.80000305176</ele>
        <time>2008-10-10T11:33:02Z</time>
      </trkpt>
      <trkpt lat="43.37723" lon="6.63665">
        <ele>144.80000305176</ele>
        <time>2008-10-10T11:33:16Z</time>
      </trkpt>
      <trkpt lat="43.37706" lon="6.63634">
        <ele>144.80000305176</ele>
        <time>2008-10-10T11:33:24Z</time>
      </trkpt>
      <trkpt lat="43.37704" lon="6.63625">
        <ele>145</ele>
        <time>2008-10-10T11:33:26Z</time>
      </trkpt>
      <trkpt lat="43.37712" lon="6.63602">
        <ele>144.80000305176</ele>
        <time>2008-10-10T11:33:31Z</time>
      </trkpt>
      <trkpt lat="43.37725" lon="6.63562">
        <ele>145.39999389648</ele>
        <time>2008-10-10T11:33:41Z</time>
      </trkpt>
      <trkpt lat="43.37735" lon="6.63499">
        <ele>145.39999389648</ele>
        <time>2008-10-10T11:33:54Z</time>
      </trkpt>
      <trkpt lat="43.37739" lon="6.6344">
        <ele>148.19999694824</ele>
        <time>2008-10-10T11:34:10Z</time>
      </trkpt>
      <trkpt lat="43.37725" lon="6.63408">
        <ele>150.39999389648</ele>
        <time>2008-10-10T11:34:23Z</time>
      </trkpt>
      <trkpt lat="43.37719" lon="6.63382">
        <ele>152.39999389648</ele>
        <time>2008-10-10T11:34:33Z</time>
      </trkpt>
      <trkpt lat="43.37705" lon="6.6336">
        <ele>154</ele>
        <time>2008-10-10T11:34:46Z</time>
      </trkpt>
      <trkpt lat="43.37681" lon="6.63359">
        <ele>156.60000610352</ele>
        <time>2008-10-10T11:35:01Z</time>
      </trkpt>
      <trkpt lat="43.37653" lon="6.63364">
        <ele>158</ele>
        <time>2008-10-10T11:35:16Z</time>
      </trkpt>
      <trkpt lat="43.37644" lon="6.63378">
        <ele>160</ele>
        <time>2008-10-10T11:35:31Z</time>
      </trkpt>
      <trkpt lat="43.37644" lon="6.63378">
        <ele>159.80000305176</ele>
        <time>2008-10-10T11:35:33Z</time>
      </trkpt>
      <trkpt lat="43.37647" lon="6.63375">
        <ele>160.60000610352</ele>
        <time>2008-10-10T11:40:00Z</time>
      </trkpt>
      <trkpt lat="43.37648" lon="6.63377">
        <ele>161.19999694824</ele>
        <time>2008-10-10T11:40:03Z</time>
      </trkpt>
      <trkpt lat="43.37652" lon="6.6338">
        <ele>161.60000610352</ele>
        <time>2008-10-10T11:40:08Z</time>
      </trkpt>
      <trkpt lat="43.37661" lon="6.63393">
        <ele>162.60000610352</ele>
        <time>2008-10-10T11:40:23Z</time>
      </trkpt>
      <trkpt lat="43.37667" lon="6.634">
        <ele>162.80000305176</ele>
        <time>2008-10-10T11:40:30Z</time>
      </trkpt>
      <trkpt lat="43.37677" lon="6.63423">
        <ele>164.60000610352</ele>
        <time>2008-10-10T11:40:42Z</time>
      </trkpt>
      <trkpt lat="43.3768" lon="6.6344">
        <ele>165.39999389648</ele>
        <time>2008-10-10T11:40:49Z</time>
      </trkpt>
      <trkpt lat="43.37679" lon="6.63467">
        <ele>167</ele>
        <time>2008-10-10T11:40:59Z</time>
      </trkpt>
      <trkpt lat="43.37664" lon="6.63524">
        <ele>167.80000305176</ele>
        <time>2008-10-10T11:41:17Z</time>
      </trkpt>
      <trkpt lat="43.3764" lon="6.63568">
        <ele>169.39999389648</ele>
        <time>2008-10-10T11:41:33Z</time>
      </trkpt>
      <trkpt lat="43.3761" lon="6.63607">
        <ele>171.80000305176</ele>
        <time>2008-10-10T11:41:50Z</time>
      </trkpt>
      <trkpt lat="43.37606" lon="6.63633">
        <ele>174</ele>
        <time>2008-10-10T11:41:58Z</time>
      </trkpt>
      <trkpt lat="43.37612" lon="6.63658">
        <ele>177.39999389648</ele>
        <time>2008-10-10T11:42:09Z</time>
      </trkpt>
      <trkpt lat="43.37621" lon="6.63687">
        <ele>178.80000305176</ele>
        <time>2008-10-10T11:42:21Z</time>
      </trkpt>
      <trkpt lat="43.37635" lon="6.63724">
        <ele>182</ele>
        <time>2008-10-10T11:42:38Z</time>
      </trkpt>
      <trkpt lat="43.37625" lon="6.63757">
        <ele>184.60000610352</ele>
        <time>2008-10-10T11:42:53Z</time>
      </trkpt>
      <trkpt lat="43.37635" lon="6.63786">
        <ele>187.80000305176</ele>
        <time>2008-10-10T11:43:07Z</time>
      </trkpt>
      <trkpt lat="43.3765" lon="6.63816">
        <ele>191.39999389648</ele>
        <time>2008-10-10T11:43:24Z</time>
      </trkpt>
      <trkpt lat="43.37665" lon="6.63848">
        <ele>194.19999694824</ele>
        <time>2008-10-10T11:43:41Z</time>
      </trkpt>
      <trkpt lat="43.37671" lon="6.63883">
        <ele>197</ele>
        <time>2008-10-10T11:43:58Z</time>
      </trkpt>
      <trkpt lat="43.37683" lon="6.63923">
        <ele>201.80000305176</ele>
        <time>2008-10-10T11:44:18Z</time>
      </trkpt>
      <trkpt lat="43.37671" lon="6.63946">
        <ele>202.80000305176</ele>
        <time>2008-10-10T11:44:30Z</time>
      </trkpt>
      <trkpt lat="43.37647" lon="6.63964">
        <ele>201.39999389648</ele>
        <time>2008-10-10T11:44:39Z</time>
      </trkpt>
      <trkpt lat="43.37632" lon="6.63982">
        <ele>199.80000305176</ele>
        <time>2008-10-10T11:44:43Z</time>
      </trkpt>
      <trkpt lat="43.37607" lon="6.64">
        <ele>196.60000610352</ele>
        <time>2008-10-10T11:44:48Z</time>
      </trkpt>
      <trkpt lat="43.37597" lon="6.63999">
        <ele>196.80000305176</ele>
        <time>2008-10-10T11:44:50Z</time>
      </trkpt>
      <trkpt lat="43.37552" lon="6.63999">
        <ele>197.60000610352</ele>
        <time>2008-10-10T11:45:01Z</time>
      </trkpt>
      <trkpt lat="43.37544" lon="6.63996">
        <ele>197.39999389648</ele>
        <time>2008-10-10T11:45:03Z</time>
      </trkpt>
      <trkpt lat="43.3752" lon="6.64022">
        <ele>193.39999389648</ele>
        <time>2008-10-10T11:45:09Z</time>
      </trkpt>
      <trkpt lat="43.37515" lon="6.64028">
        <ele>193.60000610352</ele>
        <time>2008-10-10T11:45:10Z</time>
      </trkpt>
      <trkpt lat="43.37511" lon="6.64032">
        <ele>193.80000305176</ele>
        <time>2008-10-10T11:45:11Z</time>
      </trkpt>
      <trkpt lat="43.37491" lon="6.64047">
        <ele>192.80000305176</ele>
        <time>2008-10-10T11:45:15Z</time>
      </trkpt>
      <trkpt lat="43.37464" lon="6.64055">
        <ele>192.80000305176</ele>
        <time>2008-10-10T11:45:21Z</time>
      </trkpt>
      <trkpt lat="43.37448" lon="6.64053">
        <ele>192.19999694824</ele>
        <time>2008-10-10T11:45:25Z</time>
      </trkpt>
      <trkpt lat="43.37427" lon="6.64051">
        <ele>192.80000305176</ele>
        <time>2008-10-10T11:45:30Z</time>
      </trkpt>
      <trkpt lat="43.3738" lon="6.64055">
        <ele>195</ele>
        <time>2008-10-10T11:45:44Z</time>
      </trkpt>
      <trkpt lat="43.37354" lon="6.6405">
        <ele>197.80000305176</ele>
        <time>2008-10-10T11:45:55Z</time>
      </trkpt>
      <trkpt lat="43.37342" lon="6.64049">
        <ele>198.39999389648</ele>
        <time>2008-10-10T11:46:00Z</time>
      </trkpt>
      <trkpt lat="43.37313" lon="6.64042">
        <ele>200.19999694824</ele>
        <time>2008-10-10T11:46:12Z</time>
      </trkpt>
      <trkpt lat="43.37286" lon="6.64023">
        <ele>203</ele>
        <time>2008-10-10T11:46:27Z</time>
      </trkpt>
      <trkpt lat="43.37259" lon="6.63998">
        <ele>205.39999389648</ele>
        <time>2008-10-10T11:46:45Z</time>
      </trkpt>
      <trkpt lat="43.37237" lon="6.63971">
        <ele>207.80000305176</ele>
        <time>2008-10-10T11:47:01Z</time>
      </trkpt>
      <trkpt lat="43.37219" lon="6.63985">
        <ele>209.39999389648</ele>
        <time>2008-10-10T11:47:15Z</time>
      </trkpt>
      <trkpt lat="43.37215" lon="6.63996">
        <ele>211</ele>
        <time>2008-10-10T11:47:25Z</time>
      </trkpt>
      <trkpt lat="43.37202" lon="6.64018">
        <ele>216</ele>
        <time>2008-10-10T11:47:46Z</time>
      </trkpt>
      <trkpt lat="43.37185" lon="6.6401">
        <ele>217.80000305176</ele>
        <time>2008-10-10T11:48:00Z</time>
      </trkpt>
      <trkpt lat="43.37183" lon="6.64011">
        <ele>218.39999389648</ele>
        <time>2008-10-10T11:48:02Z</time>
      </trkpt>
      <trkpt lat="43.37179" lon="6.64023">
        <ele>219.60000610352</ele>
        <time>2008-10-10T11:48:10Z</time>
      </trkpt>
      <trkpt lat="43.37171" lon="6.64047">
        <ele>223.39999389648</ele>
        <time>2008-10-10T11:48:30Z</time>
      </trkpt>
      <trkpt lat="43.37168" lon="6.64064">
        <ele>225.60000610352</ele>
        <time>2008-10-10T11:48:43Z</time>
      </trkpt>
      <trkpt lat="43.37164" lon="6.64065">
        <ele>226.60000610352</ele>
        <time>2008-10-10T11:48:47Z</time>
      </trkpt>
      <trkpt lat="43.37148" lon="6.64078">
        <ele>229.39999389648</ele>
        <time>2008-10-10T11:49:08Z</time>
      </trkpt>
      <trkpt lat="43.37137" lon="6.641">
        <ele>232.19999694824</ele>
        <time>2008-10-10T11:49:26Z</time>
      </trkpt>
      <trkpt lat="43.37104" lon="6.64104">
        <ele>235.60000610352</ele>
        <time>2008-10-10T11:49:43Z</time>
      </trkpt>
      <trkpt lat="43.37065" lon="6.64126">
        <ele>236.80000305176</ele>
        <time>2008-10-10T11:50:02Z</time>
      </trkpt>
      <trkpt lat="43.37035" lon="6.64139">
        <ele>239.39999389648</ele>
        <time>2008-10-10T11:50:18Z</time>
      </trkpt>
      <trkpt lat="43.37011" lon="6.6414">
        <ele>241.80000305176</ele>
        <time>2008-10-10T11:50:32Z</time>
      </trkpt>
      <trkpt lat="43.37" lon="6.64167">
        <ele>237</ele>
        <time>2008-10-10T11:50:42Z</time>
      </trkpt>
      <trkpt lat="43.3698" lon="6.64165">
        <ele>239.19999694824</ele>
        <time>2008-10-10T11:50:54Z</time>
      </trkpt>
      <trkpt lat="43.3695" lon="6.64157">
        <ele>241.80000305176</ele>
        <time>2008-10-10T11:51:12Z</time>
      </trkpt>
      <trkpt lat="43.36914" lon="6.64141">
        <ele>245</ele>
        <time>2008-10-10T11:51:33Z</time>
      </trkpt>
      <trkpt lat="43.36904" lon="6.64136">
        <ele>245.19999694824</ele>
        <time>2008-10-10T11:51:42Z</time>
      </trkpt>
      <trkpt lat="43.36898" lon="6.64132">
        <ele>245.60000610352</ele>
        <time>2008-10-10T11:52:07Z</time>
      </trkpt>
      <trkpt lat="43.36888" lon="6.64127">
        <ele>245.60000610352</ele>
        <time>2008-10-10T11:52:13Z</time>
      </trkpt>
      <trkpt lat="43.3688" lon="6.64124">
        <ele>245</ele>
        <time>2008-10-10T11:52:17Z</time>
      </trkpt>
      <trkpt lat="43.36877" lon="6.64122">
        <ele>244.60000610352</ele>
        <time>2008-10-10T11:52:19Z</time>
      </trkpt>
      <trkpt lat="43.36876" lon="6.6412">
        <ele>244.60000610352</ele>
        <time>2008-10-10T11:52:22Z</time>
      </trkpt>
      <trkpt lat="43.36865" lon="6.64112">
        <ele>243.80000305176</ele>
        <time>2008-10-10T11:52:44Z</time>
      </trkpt>
      <trkpt lat="43.3686" lon="6.64102">
        <ele>242.80000305176</ele>
        <time>2008-10-10T11:52:49Z</time>
      </trkpt>
      <trkpt lat="43.36859" lon="6.64101">
        <ele>242.60000610352</ele>
        <time>2008-10-10T11:52:52Z</time>
      </trkpt>
      <trkpt lat="43.36849" lon="6.64087">
        <ele>242</ele>
        <time>2008-10-10T11:53:12Z</time>
      </trkpt>
      <trkpt lat="43.36843" lon="6.64081">
        <ele>242.60000610352</ele>
        <time>2008-10-10T11:53:18Z</time>
      </trkpt>
      <trkpt lat="43.36841" lon="6.6408">
        <ele>242</ele>
        <time>2008-10-10T11:53:22Z</time>
      </trkpt>
      <trkpt lat="43.36831" lon="6.64073">
        <ele>242.39999389648</ele>
        <time>2008-10-10T11:53:33Z</time>
      </trkpt>
      <trkpt lat="43.36831" lon="6.64073">
        <ele>242.39999389648</ele>
        <time>2008-10-10T11:53:34Z</time>
      </trkpt>
      <trkpt lat="43.36826" lon="6.64069">
        <ele>243.19999694824</ele>
        <time>2008-10-10T11:53:41Z</time>
      </trkpt>
      <trkpt lat="43.36813" lon="6.64061">
        <ele>243.19999694824</ele>
        <time>2008-10-10T11:53:48Z</time>
      </trkpt>
      <trkpt lat="43.36802" lon="6.64056">
        <ele>242.60000610352</ele>
        <time>2008-10-10T11:53:52Z</time>
      </trkpt>
      <trkpt lat="43.36779" lon="6.64045">
        <ele>244</ele>
        <time>2008-10-10T11:54:01Z</time>
      </trkpt>
      <trkpt lat="43.36769" lon="6.64047">
        <ele>244.80000305176</ele>
        <time>2008-10-10T11:54:06Z</time>
      </trkpt>
      <trkpt lat="43.36755" lon="6.64045">
        <ele>246</ele>
        <time>2008-10-10T11:54:14Z</time>
      </trkpt>
      <trkpt lat="43.36738" lon="6.64041">
        <ele>247.60000610352</ele>
        <time>2008-10-10T11:54:27Z</time>
      </trkpt>
      <trkpt lat="43.36712" lon="6.64037">
        <ele>246.80000305176</ele>
        <time>2008-10-10T11:54:36Z</time>
      </trkpt>
      <trkpt lat="43.3668" lon="6.64031">
        <ele>246.19999694824</ele>
        <time>2008-10-10T11:54:48Z</time>
      </trkpt>
      <trkpt lat="43.36672" lon="6.64031">
        <ele>245.60000610352</ele>
        <time>2008-10-10T11:54:50Z</time>
      </trkpt>
      <trkpt lat="43.36655" lon="6.64024">
        <ele>244.60000610352</ele>
        <time>2008-10-10T11:54:54Z</time>
      </trkpt>
      <trkpt lat="43.36641" lon="6.64021">
        <ele>243</ele>
        <time>2008-10-10T11:54:57Z</time>
      </trkpt>
      <trkpt lat="43.36632" lon="6.64021">
        <ele>242.19999694824</ele>
        <time>2008-10-10T11:54:59Z</time>
      </trkpt>
      <trkpt lat="43.36606" lon="6.64032">
        <ele>238.19999694824</ele>
        <time>2008-10-10T11:55:06Z</time>
      </trkpt>
      <trkpt lat="43.36601" lon="6.64044">
        <ele>237</ele>
        <time>2008-10-10T11:55:08Z</time>
      </trkpt>
      <trkpt lat="43.36577" lon="6.64093">
        <ele>234.60000610352</ele>
        <time>2008-10-10T11:55:15Z</time>
      </trkpt>
      <trkpt lat="43.36572" lon="6.6411">
        <ele>233.60000610352</ele>
        <time>2008-10-10T11:55:17Z</time>
      </trkpt>
      <trkpt lat="43.3655" lon="6.64198">
        <ele>225</ele>
        <time>2008-10-10T11:55:27Z</time>
      </trkpt>
      <trkpt lat="43.36529" lon="6.6424">
        <ele>217.19999694824</ele>
        <time>2008-10-10T11:55:33Z</time>
      </trkpt>
      <trkpt lat="43.36515" lon="6.643">
        <ele>210.60000610352</ele>
        <time>2008-10-10T11:55:40Z</time>
      </trkpt>
      <trkpt lat="43.36502" lon="6.6435">
        <ele>204.19999694824</ele>
        <time>2008-10-10T11:55:46Z</time>
      </trkpt>
      <trkpt lat="43.36486" lon="6.64366">
        <ele>200.80000305176</ele>
        <time>2008-10-10T11:55:51Z</time>
      </trkpt>
      <trkpt lat="43.36468" lon="6.64378">
        <ele>196.19999694824</ele>
        <time>2008-10-10T11:55:56Z</time>
      </trkpt>
      <trkpt lat="43.36453" lon="6.64393">
        <ele>192.19999694824</ele>
        <time>2008-10-10T11:56:04Z</time>
      </trkpt>
      <trkpt lat="43.36456" lon="6.64396">
        <ele>192.19999694824</ele>
        <time>2008-10-10T11:56:05Z</time>
      </trkpt>
      <trkpt lat="43.3648" lon="6.64425">
        <ele>190.80000305176</ele>
        <time>2008-10-10T11:56:12Z</time>
      </trkpt>
      <trkpt lat="43.36495" lon="6.64465">
        <ele>184.80000305176</ele>
        <time>2008-10-10T11:56:18Z</time>
      </trkpt>
      <trkpt lat="43.36492" lon="6.64501">
        <ele>181</ele>
        <time>2008-10-10T11:56:22Z</time>
      </trkpt>
      <trkpt lat="43.36503" lon="6.64542">
        <ele>177.19999694824</ele>
        <time>2008-10-10T11:56:27Z</time>
      </trkpt>
      <trkpt lat="43.36517" lon="6.6458">
        <ele>172.19999694824</ele>
        <time>2008-10-10T11:56:32Z</time>
      </trkpt>
      <trkpt lat="43.36529" lon="6.64598">
        <ele>168.60000610352</ele>
        <time>2008-10-10T11:56:36Z</time>
      </trkpt>
      <trkpt lat="43.36541" lon="6.64604">
        <ele>165.60000610352</ele>
        <time>2008-10-10T11:56:40Z</time>
      </trkpt>
      <trkpt lat="43.36572" lon="6.6462">
        <ele>158.80000305176</ele>
        <time>2008-10-10T11:56:51Z</time>
      </trkpt>
      <trkpt lat="43.36576" lon="6.64627">
        <ele>158.19999694824</ele>
        <time>2008-10-10T11:56:53Z</time>
      </trkpt>
      <trkpt lat="43.36585" lon="6.64644">
        <ele>155.39999389648</ele>
        <time>2008-10-10T11:56:57Z</time>
      </trkpt>
      <trkpt lat="43.36576" lon="6.64687">
        <ele>152.39999389648</ele>
        <time>2008-10-10T11:57:05Z</time>
      </trkpt>
      <trkpt lat="43.36566" lon="6.64717">
        <ele>149.60000610352</ele>
        <time>2008-10-10T11:57:10Z</time>
      </trkpt>
      <trkpt lat="43.36569" lon="6.6475">
        <ele>146.39999389648</ele>
        <time>2008-10-10T11:57:14Z</time>
      </trkpt>
      <trkpt lat="43.36577" lon="6.64788">
        <ele>143.19999694824</ele>
        <time>2008-10-10T11:57:20Z</time>
      </trkpt>
      <trkpt lat="43.36582" lon="6.64814">
        <ele>139.80000305176</ele>
        <time>2008-10-10T11:57:26Z</time>
      </trkpt>
      <trkpt lat="43.36573" lon="6.64833">
        <ele>136.80000305176</ele>
        <time>2008-10-10T11:57:32Z</time>
      </trkpt>
      <trkpt lat="43.36562" lon="6.64838">
        <ele>134.80000305176</ele>
        <time>2008-10-10T11:57:36Z</time>
      </trkpt>
      <trkpt lat="43.36544" lon="6.64835">
        <ele>132.80000305176</ele>
        <time>2008-10-10T11:57:40Z</time>
      </trkpt>
      <trkpt lat="43.3653" lon="6.64833">
        <ele>131.19999694824</ele>
        <time>2008-10-10T11:57:43Z</time>
      </trkpt>
      <trkpt lat="43.36514" lon="6.64827">
        <ele>128.80000305176</ele>
        <time>2008-10-10T11:57:47Z</time>
      </trkpt>
      <trkpt lat="43.36475" lon="6.64832">
        <ele>121.40000152588</ele>
        <time>2008-10-10T11:57:58Z</time>
      </trkpt>
      <trkpt lat="43.36468" lon="6.64841">
        <ele>119.59999847412</ele>
        <time>2008-10-10T11:58:00Z</time>
      </trkpt>
      <trkpt lat="43.36459" lon="6.64867">
        <ele>116.80000305176</ele>
        <time>2008-10-10T11:58:05Z</time>
      </trkpt>
      <trkpt lat="43.3646" lon="6.64876">
        <ele>116.40000152588</ele>
        <time>2008-10-10T11:58:07Z</time>
      </trkpt>
      <trkpt lat="43.36484" lon="6.64911">
        <ele>116.40000152588</ele>
        <time>2008-10-10T11:58:19Z</time>
      </trkpt>
      <trkpt lat="43.36514" lon="6.6493">
        <ele>117.40000152588</ele>
        <time>2008-10-10T11:58:30Z</time>
      </trkpt>
      <trkpt lat="43.36528" lon="6.64948">
        <ele>119.40000152588</ele>
        <time>2008-10-10T11:58:38Z</time>
      </trkpt>
      <trkpt lat="43.36534" lon="6.64967">
        <ele>118.19999694824</ele>
        <time>2008-10-10T11:58:43Z</time>
      </trkpt>
      <trkpt lat="43.36547" lon="6.65">
        <ele>116</ele>
        <time>2008-10-10T11:58:49Z</time>
      </trkpt>
      <trkpt lat="43.36561" lon="6.65037">
        <ele>116</ele>
        <time>2008-10-10T11:58:59Z</time>
      </trkpt>
      <trkpt lat="43.36568" lon="6.65083">
        <ele>118</ele>
        <time>2008-10-10T11:59:12Z</time>
      </trkpt>
      <trkpt lat="43.36585" lon="6.65127">
        <ele>119.59999847412</ele>
        <time>2008-10-10T11:59:25Z</time>
      </trkpt>
      <trkpt lat="43.3659" lon="6.65171">
        <ele>120.80000305176</ele>
        <time>2008-10-10T11:59:38Z</time>
      </trkpt>
      <trkpt lat="43.36591" lon="6.65217">
        <ele>121.80000305176</ele>
        <time>2008-10-10T11:59:51Z</time>
      </trkpt>
      <trkpt lat="43.36585" lon="6.65291">
        <ele>123.80000305176</ele>
        <time>2008-10-10T12:00:09Z</time>
      </trkpt>
      <trkpt lat="43.36598" lon="6.65347">
        <ele>125.59999847412</ele>
        <time>2008-10-10T12:00:23Z</time>
      </trkpt>
      <trkpt lat="43.36599" lon="6.65417">
        <ele>126.80000305176</ele>
        <time>2008-10-10T12:00:38Z</time>
      </trkpt>
      <trkpt lat="43.36607" lon="6.65482">
        <ele>127.80000305176</ele>
        <time>2008-10-10T12:00:54Z</time>
      </trkpt>
      <trkpt lat="43.36617" lon="6.65526">
        <ele>132.19999694824</ele>
        <time>2008-10-10T12:01:10Z</time>
      </trkpt>
      <trkpt lat="43.36611" lon="6.65562">
        <ele>132.19999694824</ele>
        <time>2008-10-10T12:01:21Z</time>
      </trkpt>
      <trkpt lat="43.36616" lon="6.65609">
        <ele>134.39999389648</ele>
        <time>2008-10-10T12:01:34Z</time>
      </trkpt>
      <trkpt lat="43.36633" lon="6.65656">
        <ele>137.80000305176</ele>
        <time>2008-10-10T12:01:49Z</time>
      </trkpt>
      <trkpt lat="43.36658" lon="6.65703">
        <ele>139.39999389648</ele>
        <time>2008-10-10T12:02:05Z</time>
      </trkpt>
      <trkpt lat="43.36679" lon="6.65745">
        <ele>141.60000610352</ele>
        <time>2008-10-10T12:02:20Z</time>
      </trkpt>
      <trkpt lat="43.36678" lon="6.65788">
        <ele>143.80000305176</ele>
        <time>2008-10-10T12:02:35Z</time>
      </trkpt>
      <trkpt lat="43.36657" lon="6.65829">
        <ele>146.80000305176</ele>
        <time>2008-10-10T12:02:51Z</time>
      </trkpt>
      <trkpt lat="43.36655" lon="6.65868">
        <ele>147.39999389648</ele>
        <time>2008-10-10T12:03:04Z</time>
      </trkpt>
      <trkpt lat="43.36657" lon="6.65871">
        <ele>147.60000610352</ele>
        <time>2008-10-10T12:03:05Z</time>
      </trkpt>
      <trkpt lat="43.36667" lon="6.65872">
        <ele>148.19999694824</ele>
        <time>2008-10-10T12:03:11Z</time>
      </trkpt>
      <trkpt lat="43.36697" lon="6.65858">
        <ele>150.60000610352</ele>
        <time>2008-10-10T12:03:28Z</time>
      </trkpt>
      <trkpt lat="43.36719" lon="6.65869">
        <ele>153.60000610352</ele>
        <time>2008-10-10T12:03:42Z</time>
      </trkpt>
      <trkpt lat="43.36729" lon="6.65903">
        <ele>157</ele>
        <time>2008-10-10T12:03:57Z</time>
      </trkpt>
      <trkpt lat="43.36741" lon="6.65937">
        <ele>159.80000305176</ele>
        <time>2008-10-10T12:04:12Z</time>
      </trkpt>
      <trkpt lat="43.36746" lon="6.65967">
        <ele>162.80000305176</ele>
        <time>2008-10-10T12:04:26Z</time>
      </trkpt>
      <trkpt lat="43.36755" lon="6.66009">
        <ele>164.60000610352</ele>
        <time>2008-10-10T12:04:42Z</time>
      </trkpt>
      <trkpt lat="43.36763" lon="6.66045">
        <ele>167.19999694824</ele>
        <time>2008-10-10T12:04:58Z</time>
      </trkpt>
      <trkpt lat="43.3676" lon="6.66078">
        <ele>168.80000305176</ele>
        <time>2008-10-10T12:05:12Z</time>
      </trkpt>
      <trkpt lat="43.3676" lon="6.66105">
        <ele>171.19999694824</ele>
        <time>2008-10-10T12:05:26Z</time>
      </trkpt>
      <trkpt lat="43.36761" lon="6.66126">
        <ele>172.19999694824</ele>
        <time>2008-10-10T12:05:36Z</time>
      </trkpt>
      <trkpt lat="43.36747" lon="6.66157">
        <ele>174.19999694824</ele>
        <time>2008-10-10T12:05:49Z</time>
      </trkpt>
      <trkpt lat="43.36731" lon="6.66196">
        <ele>176.19999694824</ele>
        <time>2008-10-10T12:06:02Z</time>
      </trkpt>
      <trkpt lat="43.36712" lon="6.66241">
        <ele>177.60000610352</ele>
        <time>2008-10-10T12:06:18Z</time>
      </trkpt>
      <trkpt lat="43.36711" lon="6.66244">
        <ele>178</ele>
        <time>2008-10-10T12:06:19Z</time>
      </trkpt>
      <trkpt lat="43.36704" lon="6.66248">
        <ele>178.19999694824</ele>
        <time>2008-10-10T12:06:23Z</time>
      </trkpt>
      <trkpt lat="43.36701" lon="6.66244">
        <ele>178</ele>
        <time>2008-10-10T12:06:27Z</time>
      </trkpt>
      <trkpt lat="43.36701" lon="6.66241">
        <ele>177.19999694824</ele>
        <time>2008-10-10T12:06:31Z</time>
      </trkpt>
      <trkpt lat="43.36699" lon="6.6624">
        <ele>177.80000305176</ele>
        <time>2008-10-10T12:08:19Z</time>
      </trkpt>
      <trkpt lat="43.36699" lon="6.66241">
        <ele>178</ele>
        <time>2008-10-10T12:08:20Z</time>
      </trkpt>
      <trkpt lat="43.36699" lon="6.66253">
        <ele>178.19999694824</ele>
        <time>2008-10-10T12:08:28Z</time>
      </trkpt>
      <trkpt lat="43.36697" lon="6.66274">
        <ele>177.19999694824</ele>
        <time>2008-10-10T12:08:33Z</time>
      </trkpt>
      <trkpt lat="43.36683" lon="6.66289">
        <ele>173.60000610352</ele>
        <time>2008-10-10T12:08:41Z</time>
      </trkpt>
      <trkpt lat="43.36673" lon="6.66309">
        <ele>171</ele>
        <time>2008-10-10T12:08:46Z</time>
      </trkpt>
      <trkpt lat="43.36672" lon="6.66322">
        <ele>170.39999389648</ele>
        <time>2008-10-10T12:08:48Z</time>
      </trkpt>
      <trkpt lat="43.36672" lon="6.66365">
        <ele>168.60000610352</ele>
        <time>2008-10-10T12:08:54Z</time>
      </trkpt>
      <trkpt lat="43.3668" lon="6.66422">
        <ele>164.39999389648</ele>
        <time>2008-10-10T12:09:04Z</time>
      </trkpt>
      <trkpt lat="43.36688" lon="6.66468">
        <ele>156.80000305176</ele>
        <time>2008-10-10T12:09:16Z</time>
      </trkpt>
      <trkpt lat="43.36692" lon="6.66485">
        <ele>153.60000610352</ele>
        <time>2008-10-10T12:09:22Z</time>
      </trkpt>
      <trkpt lat="43.36696" lon="6.66521">
        <ele>146.80000305176</ele>
        <time>2008-10-10T12:09:31Z</time>
      </trkpt>
      <trkpt lat="43.36699" lon="6.66531">
        <ele>145.60000610352</ele>
        <time>2008-10-10T12:09:33Z</time>
      </trkpt>
      <trkpt lat="43.36703" lon="6.66554">
        <ele>142.60000610352</ele>
        <time>2008-10-10T12:09:37Z</time>
      </trkpt>
      <trkpt lat="43.36716" lon="6.66593">
        <ele>138.80000305176</ele>
        <time>2008-10-10T12:09:44Z</time>
      </trkpt>
      <trkpt lat="43.3672" lon="6.66601">
        <ele>137.60000610352</ele>
        <time>2008-10-10T12:09:46Z</time>
      </trkpt>
      <trkpt lat="43.36724" lon="6.66612">
        <ele>135.60000610352</ele>
        <time>2008-10-10T12:09:49Z</time>
      </trkpt>
      <trkpt lat="43.36728" lon="6.66645">
        <ele>129.39999389648</ele>
        <time>2008-10-10T12:10:00Z</time>
      </trkpt>
      <trkpt lat="43.3673" lon="6.66662">
        <ele>125.80000305176</ele>
        <time>2008-10-10T12:10:05Z</time>
      </trkpt>
      <trkpt lat="43.36735" lon="6.66686">
        <ele>122.59999847412</ele>
        <time>2008-10-10T12:10:10Z</time>
      </trkpt>
      <trkpt lat="43.36735" lon="6.66712">
        <ele>120.80000305176</ele>
        <time>2008-10-10T12:10:14Z</time>
      </trkpt>
      <trkpt lat="43.36735" lon="6.66719">
        <ele>120.19999694824</ele>
        <time>2008-10-10T12:10:15Z</time>
      </trkpt>
      <trkpt lat="43.36734" lon="6.6675">
        <ele>118.59999847412</ele>
        <time>2008-10-10T12:10:19Z</time>
      </trkpt>
      <trkpt lat="43.36734" lon="6.66805">
        <ele>116.19999694824</ele>
        <time>2008-10-10T12:10:26Z</time>
      </trkpt>
      <trkpt lat="43.36736" lon="6.66826">
        <ele>114.19999694824</ele>
        <time>2008-10-10T12:10:29Z</time>
      </trkpt>
      <trkpt lat="43.36736" lon="6.66839">
        <ele>113</ele>
        <time>2008-10-10T12:10:31Z</time>
      </trkpt>
      <trkpt lat="43.36717" lon="6.6687">
        <ele>109.59999847412</ele>
        <time>2008-10-10T12:10:38Z</time>
      </trkpt>
      <trkpt lat="43.36706" lon="6.66871">
        <ele>108.19999694824</ele>
        <time>2008-10-10T12:10:41Z</time>
      </trkpt>
      <trkpt lat="43.36702" lon="6.66878">
        <ele>107.19999694824</ele>
        <time>2008-10-10T12:10:43Z</time>
      </trkpt>
      <trkpt lat="43.36703" lon="6.66889">
        <ele>107.80000305176</ele>
        <time>2008-10-10T12:10:48Z</time>
      </trkpt>
      <trkpt lat="43.36705" lon="6.66894">
        <ele>108.59999847412</ele>
        <time>2008-10-10T12:10:53Z</time>
      </trkpt>
      <trkpt lat="43.36707" lon="6.66903">
        <ele>109.80000305176</ele>
        <time>2008-10-10T12:10:58Z</time>
      </trkpt>
      <trkpt lat="43.36713" lon="6.66933">
        <ele>112</ele>
        <time>2008-10-10T12:11:11Z</time>
      </trkpt>
      <trkpt lat="43.36713" lon="6.66947">
        <ele>113</ele>
        <time>2008-10-10T12:11:16Z</time>
      </trkpt>
      <trkpt lat="43.36715" lon="6.66959">
        <ele>113.40000152588</ele>
        <time>2008-10-10T12:11:21Z</time>
      </trkpt>
      <trkpt lat="43.36714" lon="6.66983">
        <ele>114.40000152588</ele>
        <time>2008-10-10T12:11:29Z</time>
      </trkpt>
      <trkpt lat="43.36707" lon="6.67017">
        <ele>115.19999694824</ele>
        <time>2008-10-10T12:11:39Z</time>
      </trkpt>
      <trkpt lat="43.36695" lon="6.67061">
        <ele>113.80000305176</ele>
        <time>2008-10-10T12:11:48Z</time>
      </trkpt>
      <trkpt lat="43.36688" lon="6.67089">
        <ele>113.40000152588</ele>
        <time>2008-10-10T12:11:53Z</time>
      </trkpt>
      <trkpt lat="43.36695" lon="6.67121">
        <ele>109.80000305176</ele>
        <time>2008-10-10T12:11:58Z</time>
      </trkpt>
      <trkpt lat="43.36699" lon="6.67155">
        <ele>106.59999847412</ele>
        <time>2008-10-10T12:12:02Z</time>
      </trkpt>
      <trkpt lat="43.36696" lon="6.67201">
        <ele>105</ele>
        <time>2008-10-10T12:12:07Z</time>
      </trkpt>
      <trkpt lat="43.36684" lon="6.67222">
        <ele>104</ele>
        <time>2008-10-10T12:12:12Z</time>
      </trkpt>
      <trkpt lat="43.36676" lon="6.67224">
        <ele>104.19999694824</ele>
        <time>2008-10-10T12:12:14Z</time>
      </trkpt>
      <trkpt lat="43.36665" lon="6.67245">
        <ele>101.40000152588</ele>
        <time>2008-10-10T12:12:18Z</time>
      </trkpt>
      <trkpt lat="43.36663" lon="6.67254">
        <ele>101.59999847412</ele>
        <time>2008-10-10T12:12:19Z</time>
      </trkpt>
      <trkpt lat="43.36658" lon="6.67291">
        <ele>100</ele>
        <time>2008-10-10T12:12:24Z</time>
      </trkpt>
      <trkpt lat="43.36663" lon="6.67315">
        <ele>99.800003051758</ele>
        <time>2008-10-10T12:12:29Z</time>
      </trkpt>
      <trkpt lat="43.36698" lon="6.67346">
        <ele>103</ele>
        <time>2008-10-10T12:12:43Z</time>
      </trkpt>
      <trkpt lat="43.36708" lon="6.67369">
        <ele>104</ele>
        <time>2008-10-10T12:12:50Z</time>
      </trkpt>
      <trkpt lat="43.36711" lon="6.67401">
        <ele>105</ele>
        <time>2008-10-10T12:12:58Z</time>
      </trkpt>
      <trkpt lat="43.36711" lon="6.67418">
        <ele>105.40000152588</ele>
        <time>2008-10-10T12:13:02Z</time>
      </trkpt>
      <trkpt lat="43.36733" lon="6.67487">
        <ele>104.40000152588</ele>
        <time>2008-10-10T12:13:14Z</time>
      </trkpt>
      <trkpt lat="43.36758" lon="6.67549">
        <ele>105.19999694824</ele>
        <time>2008-10-10T12:13:28Z</time>
      </trkpt>
      <trkpt lat="43.36769" lon="6.67598">
        <ele>106.59999847412</ele>
        <time>2008-10-10T12:13:40Z</time>
      </trkpt>
      <trkpt lat="43.36761" lon="6.67635">
        <ele>109.80000305176</ele>
        <time>2008-10-10T12:13:54Z</time>
      </trkpt>
      <trkpt lat="43.36754" lon="6.67664">
        <ele>112.19999694824</ele>
        <time>2008-10-10T12:14:06Z</time>
      </trkpt>
      <trkpt lat="43.36754" lon="6.67673">
        <ele>113.40000152588</ele>
        <time>2008-10-10T12:14:09Z</time>
      </trkpt>
      <trkpt lat="43.36753" lon="6.67678">
        <ele>114.59999847412</ele>
        <time>2008-10-10T12:14:11Z</time>
      </trkpt>
      <trkpt lat="43.36752" lon="6.67682">
        <ele>115.19999694824</ele>
        <time>2008-10-10T12:14:13Z</time>
      </trkpt>
      <trkpt lat="43.36751" lon="6.67686">
        <ele>115.19999694824</ele>
        <time>2008-10-10T12:14:15Z</time>
      </trkpt>
      <trkpt lat="43.36749" lon="6.67699">
        <ele>115.40000152588</ele>
        <time>2008-10-10T12:14:22Z</time>
      </trkpt>
      <trkpt lat="43.36757" lon="6.67739">
        <ele>118</ele>
        <time>2008-10-10T12:14:40Z</time>
      </trkpt>
      <trkpt lat="43.36766" lon="6.67783">
        <ele>123</ele>
        <time>2008-10-10T12:15:02Z</time>
      </trkpt>
      <trkpt lat="43.3677" lon="6.67819">
        <ele>127.80000305176</ele>
        <time>2008-10-10T12:15:22Z</time>
      </trkpt>
      <trkpt lat="43.36772" lon="6.6785">
        <ele>132.60000610352</ele>
        <time>2008-10-10T12:15:39Z</time>
      </trkpt>
      <trkpt lat="43.36769" lon="6.67888">
        <ele>139</ele>
        <time>2008-10-10T12:16:00Z</time>
      </trkpt>
      <trkpt lat="43.36774" lon="6.67916">
        <ele>143.19999694824</ele>
        <time>2008-10-10T12:16:17Z</time>
      </trkpt>
      <trkpt lat="43.36772" lon="6.67949">
        <ele>146</ele>
        <time>2008-10-10T12:16:36Z</time>
      </trkpt>
      <trkpt lat="43.36752" lon="6.67995">
        <ele>146.60000610352</ele>
        <time>2008-10-10T12:16:53Z</time>
      </trkpt>
      <trkpt lat="43.3671" lon="6.68008">
        <ele>146.80000305176</ele>
        <time>2008-10-10T12:17:06Z</time>
      </trkpt>
      <trkpt lat="43.36701" lon="6.68045">
        <ele>147.39999389648</ele>
        <time>2008-10-10T12:17:15Z</time>
      </trkpt>
      <trkpt lat="43.36708" lon="6.68075">
        <ele>148.60000610352</ele>
        <time>2008-10-10T12:17:23Z</time>
      </trkpt>
      <trkpt lat="43.36724" lon="6.68145">
        <ele>149.60000610352</ele>
        <time>2008-10-10T12:17:40Z</time>
      </trkpt>
      <trkpt lat="43.3669" lon="6.68209">
        <ele>149.19999694824</ele>
        <time>2008-10-10T12:17:54Z</time>
      </trkpt>
      <trkpt lat="43.36668" lon="6.68231">
        <ele>149</ele>
        <time>2008-10-10T12:18:00Z</time>
      </trkpt>
      <trkpt lat="43.3666" lon="6.68238">
        <ele>148.19999694824</ele>
        <time>2008-10-10T12:18:02Z</time>
      </trkpt>
      <trkpt lat="43.36627" lon="6.68238">
        <ele>148</ele>
        <time>2008-10-10T12:18:10Z</time>
      </trkpt>
      <trkpt lat="43.36557" lon="6.68185">
        <ele>148</ele>
        <time>2008-10-10T12:18:27Z</time>
      </trkpt>
      <trkpt lat="43.36541" lon="6.68152">
        <ele>148.19999694824</ele>
        <time>2008-10-10T12:18:33Z</time>
      </trkpt>
      <trkpt lat="43.36521" lon="6.68133">
        <ele>148.19999694824</ele>
        <time>2008-10-10T12:18:38Z</time>
      </trkpt>
      <trkpt lat="43.36469" lon="6.68116">
        <ele>147.60000610352</ele>
        <time>2008-10-10T12:18:48Z</time>
      </trkpt>
      <trkpt lat="43.36442" lon="6.68142">
        <ele>148.19999694824</ele>
        <time>2008-10-10T12:18:56Z</time>
      </trkpt>
      <trkpt lat="43.3645" lon="6.68253">
        <ele>148.80000305176</ele>
        <time>2008-10-10T12:19:13Z</time>
      </trkpt>
      <trkpt lat="43.3645" lon="6.68269">
        <ele>148.19999694824</ele>
        <time>2008-10-10T12:19:15Z</time>
      </trkpt>
      <trkpt lat="43.36425" lon="6.68329">
        <ele>148.19999694824</ele>
        <time>2008-10-10T12:19:25Z</time>
      </trkpt>
      <trkpt lat="43.36371" lon="6.68358">
        <ele>146.60000610352</ele>
        <time>2008-10-10T12:19:36Z</time>
      </trkpt>
      <trkpt lat="43.36357" lon="6.68374">
        <ele>146.19999694824</ele>
        <time>2008-10-10T12:19:40Z</time>
      </trkpt>
      <trkpt lat="43.36346" lon="6.68402">
        <ele>145.60000610352</ele>
        <time>2008-10-10T12:19:45Z</time>
      </trkpt>
      <trkpt lat="43.36339" lon="6.68441">
        <ele>145.60000610352</ele>
        <time>2008-10-10T12:19:53Z</time>
      </trkpt>
      <trkpt lat="43.36339" lon="6.68442">
        <ele>145.80000305176</ele>
        <time>2008-10-10T12:19:55Z</time>
      </trkpt>
      <trkpt lat="43.36351" lon="6.68459">
        <ele>148</ele>
        <time>2008-10-10T12:20:11Z</time>
      </trkpt>
      <trkpt lat="43.36374" lon="6.68481">
        <ele>149.19999694824</ele>
        <time>2008-10-10T12:20:23Z</time>
      </trkpt>
      <trkpt lat="43.36391" lon="6.68509">
        <ele>150.80000305176</ele>
        <time>2008-10-10T12:20:33Z</time>
      </trkpt>
      <trkpt lat="43.36408" lon="6.68532">
        <ele>151.60000610352</ele>
        <time>2008-10-10T12:20:41Z</time>
      </trkpt>
      <trkpt lat="43.36443" lon="6.68556">
        <ele>153.80000305176</ele>
        <time>2008-10-10T12:20:56Z</time>
      </trkpt>
      <trkpt lat="43.36476" lon="6.68606">
        <ele>154.39999389648</ele>
        <time>2008-10-10T12:21:11Z</time>
      </trkpt>
      <trkpt lat="43.36481" lon="6.68616">
        <ele>153.80000305176</ele>
        <time>2008-10-10T12:21:13Z</time>
      </trkpt>
      <trkpt lat="43.36493" lon="6.68642">
        <ele>152.19999694824</ele>
        <time>2008-10-10T12:21:17Z</time>
      </trkpt>
      <trkpt lat="43.36507" lon="6.6867">
        <ele>151.19999694824</ele>
        <time>2008-10-10T12:21:21Z</time>
      </trkpt>
      <trkpt lat="43.36514" lon="6.68684">
        <ele>150.19999694824</ele>
        <time>2008-10-10T12:21:23Z</time>
      </trkpt>
      <trkpt lat="43.36522" lon="6.68706">
        <ele>149</ele>
        <time>2008-10-10T12:21:26Z</time>
      </trkpt>
      <trkpt lat="43.36525" lon="6.68738">
        <ele>147.80000305176</ele>
        <time>2008-10-10T12:21:30Z</time>
      </trkpt>
      <trkpt lat="43.36521" lon="6.68769">
        <ele>147.19999694824</ele>
        <time>2008-10-10T12:21:34Z</time>
      </trkpt>
      <trkpt lat="43.36499" lon="6.68806">
        <ele>147.19999694824</ele>
        <time>2008-10-10T12:21:41Z</time>
      </trkpt>
      <trkpt lat="43.36492" lon="6.68807">
        <ele>147.60000610352</ele>
        <time>2008-10-10T12:21:43Z</time>
      </trkpt>
      <trkpt lat="43.36477" lon="6.68808">
        <ele>145.60000610352</ele>
        <time>2008-10-10T12:21:47Z</time>
      </trkpt>
      <trkpt lat="43.36458" lon="6.6883">
        <ele>141.19999694824</ele>
        <time>2008-10-10T12:21:52Z</time>
      </trkpt>
      <trkpt lat="43.36435" lon="6.68837">
        <ele>140.19999694824</ele>
        <time>2008-10-10T12:21:56Z</time>
      </trkpt>
      <trkpt lat="43.36421" lon="6.68835">
        <ele>138.60000610352</ele>
        <time>2008-10-10T12:21:59Z</time>
      </trkpt>
      <trkpt lat="43.36416" lon="6.68835">
        <ele>138.39999389648</ele>
        <time>2008-10-10T12:22:00Z</time>
      </trkpt>
      <trkpt lat="43.36393" lon="6.68841">
        <ele>139.39999389648</ele>
        <time>2008-10-10T12:22:07Z</time>
      </trkpt>
      <trkpt lat="43.36382" lon="6.68846">
        <ele>141</ele>
        <time>2008-10-10T12:22:13Z</time>
      </trkpt>
      <trkpt lat="43.36372" lon="6.68863">
        <ele>141.39999389648</ele>
        <time>2008-10-10T12:22:20Z</time>
      </trkpt>
      <trkpt lat="43.36367" lon="6.68878">
        <ele>141.80000305176</ele>
        <time>2008-10-10T12:22:24Z</time>
      </trkpt>
      <trkpt lat="43.36356" lon="6.68904">
        <ele>143.39999389648</ele>
        <time>2008-10-10T12:22:31Z</time>
      </trkpt>
      <trkpt lat="43.36335" lon="6.68933">
        <ele>143.39999389648</ele>
        <time>2008-10-10T12:22:41Z</time>
      </trkpt>
      <trkpt lat="43.36322" lon="6.68944">
        <ele>142.60000610352</ele>
        <time>2008-10-10T12:22:47Z</time>
      </trkpt>
      <trkpt lat="43.36302" lon="6.68964">
        <ele>140.19999694824</ele>
        <time>2008-10-10T12:22:51Z</time>
      </trkpt>
      <trkpt lat="43.36297" lon="6.68976">
        <ele>141.60000610352</ele>
        <time>2008-10-10T12:22:53Z</time>
      </trkpt>
      <trkpt lat="43.36295" lon="6.68987">
        <ele>142.80000305176</ele>
        <time>2008-10-10T12:22:56Z</time>
      </trkpt>
      <trkpt lat="43.36291" lon="6.69002">
        <ele>146.19999694824</ele>
        <time>2008-10-10T12:23:10Z</time>
      </trkpt>
      <trkpt lat="43.36287" lon="6.6902">
        <ele>149.60000610352</ele>
        <time>2008-10-10T12:23:27Z</time>
      </trkpt>
      <trkpt lat="43.36286" lon="6.69023">
        <ele>150</ele>
        <time>2008-10-10T12:23:30Z</time>
      </trkpt>
      <trkpt lat="43.3628" lon="6.69043">
        <ele>154</ele>
        <time>2008-10-10T12:23:49Z</time>
      </trkpt>
      <trkpt lat="43.36277" lon="6.69041">
        <ele>155.19999694824</ele>
        <time>2008-10-10T12:23:55Z</time>
      </trkpt>
      <trkpt lat="43.36273" lon="6.69035">
        <ele>156.80000305176</ele>
        <time>2008-10-10T12:24:14Z</time>
      </trkpt>
      <trkpt lat="43.36272" lon="6.69034">
        <ele>157</ele>
        <time>2008-10-10T12:24:15Z</time>
      </trkpt>
      <trkpt lat="43.36269" lon="6.69028">
        <ele>158.60000610352</ele>
        <time>2008-10-10T12:24:22Z</time>
      </trkpt>
      <trkpt lat="43.36263" lon="6.69039">
        <ele>161</ele>
        <time>2008-10-10T12:24:36Z</time>
      </trkpt>
      <trkpt lat="43.36259" lon="6.69065">
        <ele>164.19999694824</ele>
        <time>2008-10-10T12:24:55Z</time>
      </trkpt>
      <trkpt lat="43.36251" lon="6.69085">
        <ele>167.60000610352</ele>
        <time>2008-10-10T12:25:15Z</time>
      </trkpt>
      <trkpt lat="43.36243" lon="6.69115">
        <ele>169.19999694824</ele>
        <time>2008-10-10T12:25:30Z</time>
      </trkpt>
      <trkpt lat="43.36243" lon="6.69157">
        <ele>171.39999389648</ele>
        <time>2008-10-10T12:25:48Z</time>
      </trkpt>
      <trkpt lat="43.36251" lon="6.69204">
        <ele>173</ele>
        <time>2008-10-10T12:26:06Z</time>
      </trkpt>
      <trkpt lat="43.36251" lon="6.69247">
        <ele>175.39999389648</ele>
        <time>2008-10-10T12:26:22Z</time>
      </trkpt>
      <trkpt lat="43.36266" lon="6.69281">
        <ele>177.39999389648</ele>
        <time>2008-10-10T12:26:37Z</time>
      </trkpt>
      <trkpt lat="43.36292" lon="6.6931">
        <ele>179.60000610352</ele>
        <time>2008-10-10T12:26:53Z</time>
      </trkpt>
      <trkpt lat="43.36313" lon="6.6935">
        <ele>182</ele>
        <time>2008-10-10T12:27:11Z</time>
      </trkpt>
      <trkpt lat="43.36328" lon="6.69385">
        <ele>185.19999694824</ele>
        <time>2008-10-10T12:27:28Z</time>
      </trkpt>
      <trkpt lat="43.36335" lon="6.69425">
        <ele>188</ele>
        <time>2008-10-10T12:27:45Z</time>
      </trkpt>
      <trkpt lat="43.36328" lon="6.69468">
        <ele>191.19999694824</ele>
        <time>2008-10-10T12:28:04Z</time>
      </trkpt>
      <trkpt lat="43.36321" lon="6.69476">
        <ele>193.19999694824</ele>
        <time>2008-10-10T12:28:09Z</time>
      </trkpt>
      <trkpt lat="43.36314" lon="6.69471">
        <ele>194.80000305176</ele>
        <time>2008-10-10T12:28:15Z</time>
      </trkpt>
      <trkpt lat="43.36307" lon="6.69458">
        <ele>196</ele>
        <time>2008-10-10T12:28:24Z</time>
      </trkpt>
      <trkpt lat="43.36287" lon="6.6943">
        <ele>198.80000305176</ele>
        <time>2008-10-10T12:28:45Z</time>
      </trkpt>
      <trkpt lat="43.36277" lon="6.69418">
        <ele>200.19999694824</ele>
        <time>2008-10-10T12:28:56Z</time>
      </trkpt>
      <trkpt lat="43.36264" lon="6.69397">
        <ele>202.60000610352</ele>
        <time>2008-10-10T12:29:11Z</time>
      </trkpt>
      <trkpt lat="43.36247" lon="6.69379">
        <ele>204.19999694824</ele>
        <time>2008-10-10T12:29:26Z</time>
      </trkpt>
      <trkpt lat="43.36226" lon="6.6937">
        <ele>207</ele>
        <time>2008-10-10T12:29:42Z</time>
      </trkpt>
      <trkpt lat="43.36203" lon="6.69345">
        <ele>209.60000610352</ele>
        <time>2008-10-10T12:30:02Z</time>
      </trkpt>
      <trkpt lat="43.36202" lon="6.69344">
        <ele>210.39999389648</ele>
        <time>2008-10-10T12:30:03Z</time>
      </trkpt>
      <trkpt lat="43.36194" lon="6.69333">
        <ele>211.19999694824</ele>
        <time>2008-10-10T12:30:12Z</time>
      </trkpt>
      <trkpt lat="43.36174" lon="6.69312">
        <ele>213</ele>
        <time>2008-10-10T12:30:30Z</time>
      </trkpt>
      <trkpt lat="43.36166" lon="6.69308">
        <ele>214</ele>
        <time>2008-10-10T12:30:36Z</time>
      </trkpt>
      <trkpt lat="43.36164" lon="6.69307">
        <ele>215</ele>
        <time>2008-10-10T12:30:38Z</time>
      </trkpt>
      <trkpt lat="43.36161" lon="6.69306">
        <ele>215.19999694824</ele>
        <time>2008-10-10T12:30:42Z</time>
      </trkpt>
      <trkpt lat="43.3615" lon="6.69294">
        <ele>218.39999389648</ele>
        <time>2008-10-10T12:31:01Z</time>
      </trkpt>
      <trkpt lat="43.36142" lon="6.6928">
        <ele>221</ele>
        <time>2008-10-10T12:31:19Z</time>
      </trkpt>
      <trkpt lat="43.36142" lon="6.69279">
        <ele>221.19999694824</ele>
        <time>2008-10-10T12:31:21Z</time>
      </trkpt>
      <trkpt lat="43.36135" lon="6.6927">
        <ele>223.39999389648</ele>
        <time>2008-10-10T12:31:36Z</time>
      </trkpt>
      <trkpt lat="43.36127" lon="6.69263">
        <ele>225.80000305176</ele>
        <time>2008-10-10T12:31:51Z</time>
      </trkpt>
      <trkpt lat="43.36119" lon="6.69257">
        <ele>228.60000610352</ele>
        <time>2008-10-10T12:32:06Z</time>
      </trkpt>
      <trkpt lat="43.3611" lon="6.69252">
        <ele>230.60000610352</ele>
        <time>2008-10-10T12:32:18Z</time>
      </trkpt>
      <trkpt lat="43.36092" lon="6.69243">
        <ele>232.19999694824</ele>
        <time>2008-10-10T12:32:36Z</time>
      </trkpt>
      <trkpt lat="43.36077" lon="6.69249">
        <ele>231</ele>
        <time>2008-10-10T12:32:42Z</time>
      </trkpt>
      <trkpt lat="43.36053" lon="6.69274">
        <ele>228.80000305176</ele>
        <time>2008-10-10T12:32:49Z</time>
      </trkpt>
      <trkpt lat="43.36044" lon="6.69279">
        <ele>228.39999389648</ele>
        <time>2008-10-10T12:32:51Z</time>
      </trkpt>
      <trkpt lat="43.36034" lon="6.69286">
        <ele>227.80000305176</ele>
        <time>2008-10-10T12:32:53Z</time>
      </trkpt>
      <trkpt lat="43.36004" lon="6.69292">
        <ele>224.80000305176</ele>
        <time>2008-10-10T12:32:58Z</time>
      </trkpt>
      <trkpt lat="43.35988" lon="6.69296">
        <ele>222.80000305176</ele>
        <time>2008-10-10T12:33:01Z</time>
      </trkpt>
      <trkpt lat="43.35956" lon="6.69299">
        <ele>219</ele>
        <time>2008-10-10T12:33:07Z</time>
      </trkpt>
      <trkpt lat="43.35941" lon="6.69304">
        <ele>217.19999694824</ele>
        <time>2008-10-10T12:33:09Z</time>
      </trkpt>
      <trkpt lat="43.35928" lon="6.69311">
        <ele>215</ele>
        <time>2008-10-10T12:33:11Z</time>
      </trkpt>
      <trkpt lat="43.35901" lon="6.69318">
        <ele>212.60000610352</ele>
        <time>2008-10-10T12:33:15Z</time>
      </trkpt>
      <trkpt lat="43.35894" lon="6.69322">
        <ele>212</ele>
        <time>2008-10-10T12:33:16Z</time>
      </trkpt>
      <trkpt lat="43.35862" lon="6.69348">
        <ele>210</ele>
        <time>2008-10-10T12:33:21Z</time>
      </trkpt>
      <trkpt lat="43.35846" lon="6.69367">
        <ele>208.19999694824</ele>
        <time>2008-10-10T12:33:24Z</time>
      </trkpt>
      <trkpt lat="43.35838" lon="6.6938">
        <ele>207.19999694824</ele>
        <time>2008-10-10T12:33:26Z</time>
      </trkpt>
      <trkpt lat="43.3582" lon="6.69434">
        <ele>200.80000305176</ele>
        <time>2008-10-10T12:33:33Z</time>
      </trkpt>
      <trkpt lat="43.358" lon="6.69495">
        <ele>194.39999389648</ele>
        <time>2008-10-10T12:33:43Z</time>
      </trkpt>
      <trkpt lat="43.35802" lon="6.6951">
        <ele>191.39999389648</ele>
        <time>2008-10-10T12:33:47Z</time>
      </trkpt>
      <trkpt lat="43.35801" lon="6.69537">
        <ele>187.19999694824</ele>
        <time>2008-10-10T12:33:53Z</time>
      </trkpt>
      <trkpt lat="43.358" lon="6.69559">
        <ele>183.80000305176</ele>
        <time>2008-10-10T12:33:57Z</time>
      </trkpt>
      <trkpt lat="43.35791" lon="6.69588">
        <ele>183.60000610352</ele>
        <time>2008-10-10T12:34:03Z</time>
      </trkpt>
      <trkpt lat="43.35782" lon="6.69613">
        <ele>181.80000305176</ele>
        <time>2008-10-10T12:34:07Z</time>
      </trkpt>
      <trkpt lat="43.35768" lon="6.69648">
        <ele>181.60000610352</ele>
        <time>2008-10-10T12:34:13Z</time>
      </trkpt>
      <trkpt lat="43.35762" lon="6.69703">
        <ele>181.60000610352</ele>
        <time>2008-10-10T12:34:22Z</time>
      </trkpt>
      <trkpt lat="43.3574" lon="6.69724">
        <ele>179.60000610352</ele>
        <time>2008-10-10T12:34:29Z</time>
      </trkpt>
      <trkpt lat="43.35731" lon="6.6972">
        <ele>178.80000305176</ele>
        <time>2008-10-10T12:34:31Z</time>
      </trkpt>
      <trkpt lat="43.35713" lon="6.69723">
        <ele>179.39999389648</ele>
        <time>2008-10-10T12:34:35Z</time>
      </trkpt>
      <trkpt lat="43.3567" lon="6.69781">
        <ele>181.39999389648</ele>
        <time>2008-10-10T12:34:51Z</time>
      </trkpt>
      <trkpt lat="43.35642" lon="6.69852">
        <ele>178</ele>
        <time>2008-10-10T12:35:03Z</time>
      </trkpt>
      <trkpt lat="43.35603" lon="6.69932">
        <ele>175</ele>
        <time>2008-10-10T12:35:13Z</time>
      </trkpt>
      <trkpt lat="43.35592" lon="6.69977">
        <ele>172.80000305176</ele>
        <time>2008-10-10T12:35:18Z</time>
      </trkpt>
      <trkpt lat="43.35588" lon="6.69998">
        <ele>172.19999694824</ele>
        <time>2008-10-10T12:35:20Z</time>
      </trkpt>
      <trkpt lat="43.35579" lon="6.70032">
        <ele>171.80000305176</ele>
        <time>2008-10-10T12:35:24Z</time>
      </trkpt>
      <trkpt lat="43.35567" lon="6.7006">
        <ele>172.80000305176</ele>
        <time>2008-10-10T12:35:29Z</time>
      </trkpt>
      <trkpt lat="43.35564" lon="6.70069">
        <ele>173.39999389648</ele>
        <time>2008-10-10T12:35:31Z</time>
      </trkpt>
      <trkpt lat="43.35556" lon="6.70103">
        <ele>177.39999389648</ele>
        <time>2008-10-10T12:35:45Z</time>
      </trkpt>
      <trkpt lat="43.35552" lon="6.7012">
        <ele>179.80000305176</ele>
        <time>2008-10-10T12:35:53Z</time>
      </trkpt>
      <trkpt lat="43.35552" lon="6.7013">
        <ele>181.19999694824</ele>
        <time>2008-10-10T12:35:58Z</time>
      </trkpt>
      <trkpt lat="43.35555" lon="6.70141">
        <ele>182.60000610352</ele>
        <time>2008-10-10T12:36:04Z</time>
      </trkpt>
      <trkpt lat="43.35563" lon="6.70157">
        <ele>183.19999694824</ele>
        <time>2008-10-10T12:36:11Z</time>
      </trkpt>
      <trkpt lat="43.35571" lon="6.70184">
        <ele>183.80000305176</ele>
        <time>2008-10-10T12:36:20Z</time>
      </trkpt>
      <trkpt lat="43.35561" lon="6.70236">
        <ele>185.39999389648</ele>
        <time>2008-10-10T12:36:37Z</time>
      </trkpt>
      <trkpt lat="43.35558" lon="6.70253">
        <ele>184.60000610352</ele>
        <time>2008-10-10T12:36:41Z</time>
      </trkpt>
      <trkpt lat="43.3556" lon="6.70264">
        <ele>184.39999389648</ele>
        <time>2008-10-10T12:36:43Z</time>
      </trkpt>
      <trkpt lat="43.35586" lon="6.70336">
        <ele>180</ele>
        <time>2008-10-10T12:36:55Z</time>
      </trkpt>
      <trkpt lat="43.35602" lon="6.70382">
        <ele>175.80000305176</ele>
        <time>2008-10-10T12:37:00Z</time>
      </trkpt>
      <trkpt lat="43.35616" lon="6.70417">
        <ele>172.80000305176</ele>
        <time>2008-10-10T12:37:04Z</time>
      </trkpt>
      <trkpt lat="43.35622" lon="6.70436">
        <ele>172</ele>
        <time>2008-10-10T12:37:06Z</time>
      </trkpt>
      <trkpt lat="43.35646" lon="6.705">
        <ele>168.80000305176</ele>
        <time>2008-10-10T12:37:12Z</time>
      </trkpt>
      <trkpt lat="43.35665" lon="6.70554">
        <ele>166.60000610352</ele>
        <time>2008-10-10T12:37:17Z</time>
      </trkpt>
      <trkpt lat="43.35675" lon="6.70585">
        <ele>163.39999389648</ele>
        <time>2008-10-10T12:37:20Z</time>
      </trkpt>
      <trkpt lat="43.35679" lon="6.70594">
        <ele>163.39999389648</ele>
        <time>2008-10-10T12:37:21Z</time>
      </trkpt>
      <trkpt lat="43.35709" lon="6.70631">
        <ele>159.19999694824</ele>
        <time>2008-10-10T12:37:28Z</time>
      </trkpt>
      <trkpt lat="43.35727" lon="6.70641">
        <ele>156.60000610352</ele>
        <time>2008-10-10T12:37:32Z</time>
      </trkpt>
      <trkpt lat="43.35733" lon="6.70642">
        <ele>155.60000610352</ele>
        <time>2008-10-10T12:37:33Z</time>
      </trkpt>
      <trkpt lat="43.35743" lon="6.70643">
        <ele>154.39999389648</ele>
        <time>2008-10-10T12:37:35Z</time>
      </trkpt>
      <trkpt lat="43.35766" lon="6.70644">
        <ele>150</ele>
        <time>2008-10-10T12:37:40Z</time>
      </trkpt>
      <trkpt lat="43.35789" lon="6.70631">
        <ele>144.80000305176</ele>
        <time>2008-10-10T12:37:45Z</time>
      </trkpt>
      <trkpt lat="43.35797" lon="6.70621">
        <ele>143.39999389648</ele>
        <time>2008-10-10T12:37:47Z</time>
      </trkpt>
      <trkpt lat="43.35823" lon="6.70564">
        <ele>136.39999389648</ele>
        <time>2008-10-10T12:37:56Z</time>
      </trkpt>
      <trkpt lat="43.35832" lon="6.70538">
        <ele>132.39999389648</ele>
        <time>2008-10-10T12:38:01Z</time>
      </trkpt>
      <trkpt lat="43.35844" lon="6.70544">
        <ele>130</ele>
        <time>2008-10-10T12:38:05Z</time>
      </trkpt>
      <trkpt lat="43.3586" lon="6.70564">
        <ele>126.40000152588</ele>
        <time>2008-10-10T12:38:11Z</time>
      </trkpt>
      <trkpt lat="43.35863" lon="6.70566">
        <ele>126</ele>
        <time>2008-10-10T12:38:12Z</time>
      </trkpt>
      <trkpt lat="43.35876" lon="6.70567">
        <ele>124.19999694824</ele>
        <time>2008-10-10T12:38:15Z</time>
      </trkpt>
      <trkpt lat="43.35899" lon="6.70572">
        <ele>121.40000152588</ele>
        <time>2008-10-10T12:38:20Z</time>
      </trkpt>
      <trkpt lat="43.35907" lon="6.70583">
        <ele>119.40000152588</ele>
        <time>2008-10-10T12:38:23Z</time>
      </trkpt>
      <trkpt lat="43.35924" lon="6.70597">
        <ele>117</ele>
        <time>2008-10-10T12:38:28Z</time>
      </trkpt>
      <trkpt lat="43.35946" lon="6.70581">
        <ele>114.59999847412</ele>
        <time>2008-10-10T12:38:34Z</time>
      </trkpt>
      <trkpt lat="43.35953" lon="6.70579">
        <ele>113</ele>
        <time>2008-10-10T12:38:36Z</time>
      </trkpt>
      <trkpt lat="43.35964" lon="6.70586">
        <ele>111.40000152588</ele>
        <time>2008-10-10T12:38:39Z</time>
      </trkpt>
      <trkpt lat="43.35972" lon="6.70602">
        <ele>110</ele>
        <time>2008-10-10T12:38:42Z</time>
      </trkpt>
      <trkpt lat="43.35974" lon="6.70608">
        <ele>109.80000305176</ele>
        <time>2008-10-10T12:38:43Z</time>
      </trkpt>
      <trkpt lat="43.35989" lon="6.70621">
        <ele>107</ele>
        <time>2008-10-10T12:38:47Z</time>
      </trkpt>
      <trkpt lat="43.36015" lon="6.70633">
        <ele>104.40000152588</ele>
        <time>2008-10-10T12:38:51Z</time>
      </trkpt>
      <trkpt lat="43.36041" lon="6.7063">
        <ele>101.19999694824</ele>
        <time>2008-10-10T12:38:56Z</time>
      </trkpt>
      <trkpt lat="43.36079" lon="6.70646">
        <ele>96.400001525879</ele>
        <time>2008-10-10T12:39:03Z</time>
      </trkpt>
      <trkpt lat="43.36088" lon="6.70652">
        <ele>95.599998474121</ele>
        <time>2008-10-10T12:39:05Z</time>
      </trkpt>
      <trkpt lat="43.36125" lon="6.7067">
        <ele>88.599998474121</ele>
        <time>2008-10-10T12:39:14Z</time>
      </trkpt>
      <trkpt lat="43.36132" lon="6.70675">
        <ele>87.800003051758</ele>
        <time>2008-10-10T12:39:16Z</time>
      </trkpt>
      <trkpt lat="43.36143" lon="6.70683">
        <ele>85</ele>
        <time>2008-10-10T12:39:19Z</time>
      </trkpt>
      <trkpt lat="43.36151" lon="6.70687">
        <ele>83.400001525879</ele>
        <time>2008-10-10T12:39:21Z</time>
      </trkpt>
      <trkpt lat="43.3617" lon="6.70708">
        <ele>79.400001525879</ele>
        <time>2008-10-10T12:39:27Z</time>
      </trkpt>
      <trkpt lat="43.36175" lon="6.70718">
        <ele>78.400001525879</ele>
        <time>2008-10-10T12:39:29Z</time>
      </trkpt>
      <trkpt lat="43.36182" lon="6.70733">
        <ele>76.599998474121</ele>
        <time>2008-10-10T12:39:32Z</time>
      </trkpt>
      <trkpt lat="43.36193" lon="6.7076">
        <ele>74</ele>
        <time>2008-10-10T12:39:37Z</time>
      </trkpt>
      <trkpt lat="43.36211" lon="6.7079">
        <ele>70.599998474121</ele>
        <time>2008-10-10T12:39:42Z</time>
      </trkpt>
      <trkpt lat="43.36219" lon="6.70803">
        <ele>68.599998474121</ele>
        <time>2008-10-10T12:39:44Z</time>
      </trkpt>
      <trkpt lat="43.36245" lon="6.70833">
        <ele>66.599998474121</ele>
        <time>2008-10-10T12:39:49Z</time>
      </trkpt>
      <trkpt lat="43.3627" lon="6.70868">
        <ele>64</ele>
        <time>2008-10-10T12:39:54Z</time>
      </trkpt>
      <trkpt lat="43.3628" lon="6.70881">
        <ele>63.599998474121</ele>
        <time>2008-10-10T12:39:56Z</time>
      </trkpt>
      <trkpt lat="43.36299" lon="6.70914">
        <ele>61.599998474121</ele>
        <time>2008-10-10T12:40:02Z</time>
      </trkpt>
      <trkpt lat="43.36305" lon="6.70919">
        <ele>60</ele>
        <time>2008-10-10T12:40:04Z</time>
      </trkpt>
      <trkpt lat="43.36313" lon="6.70917">
        <ele>58.200000762939</ele>
        <time>2008-10-10T12:40:07Z</time>
      </trkpt>
      <trkpt lat="43.36316" lon="6.70913">
        <ele>57.799999237061</ele>
        <time>2008-10-10T12:40:08Z</time>
      </trkpt>
      <trkpt lat="43.36334" lon="6.70893">
        <ele>53.799999237061</ele>
        <time>2008-10-10T12:40:14Z</time>
      </trkpt>
      <trkpt lat="43.36341" lon="6.70877">
        <ele>52.200000762939</ele>
        <time>2008-10-10T12:40:17Z</time>
      </trkpt>
      <trkpt lat="43.36341" lon="6.70862">
        <ele>51.599998474121</ele>
        <time>2008-10-10T12:40:19Z</time>
      </trkpt>
      <trkpt lat="43.36338" lon="6.70833">
        <ele>49</ele>
        <time>2008-10-10T12:40:23Z</time>
      </trkpt>
      <trkpt lat="43.36354" lon="6.70817">
        <ele>44.400001525879</ele>
        <time>2008-10-10T12:40:29Z</time>
      </trkpt>
      <trkpt lat="43.36372" lon="6.70842">
        <ele>42.200000762939</ele>
        <time>2008-10-10T12:40:34Z</time>
      </trkpt>
      <trkpt lat="43.36382" lon="6.70852">
        <ele>40.400001525879</ele>
        <time>2008-10-10T12:40:36Z</time>
      </trkpt>
      <trkpt lat="43.36405" lon="6.70866">
        <ele>38</ele>
        <time>2008-10-10T12:40:40Z</time>
      </trkpt>
      <trkpt lat="43.36436" lon="6.70874">
        <ele>33.799999237061</ele>
        <time>2008-10-10T12:40:47Z</time>
      </trkpt>
      <trkpt lat="43.36444" lon="6.70872">
        <ele>31.39999961853</ele>
        <time>2008-10-10T12:40:49Z</time>
      </trkpt>
      <trkpt lat="43.36445" lon="6.70814">
        <ele>28.60000038147</ele>
        <time>2008-10-10T12:40:58Z</time>
      </trkpt>
      <trkpt lat="43.36445" lon="6.70805">
        <ele>27.39999961853</ele>
        <time>2008-10-10T12:40:59Z</time>
      </trkpt>
      <trkpt lat="43.36451" lon="6.70758">
        <ele>24.200000762939</ele>
        <time>2008-10-10T12:41:04Z</time>
      </trkpt>
      <trkpt lat="43.36477" lon="6.70735">
        <ele>21.200000762939</ele>
        <time>2008-10-10T12:41:10Z</time>
      </trkpt>
      <trkpt lat="43.36495" lon="6.70749">
        <ele>20</ele>
        <time>2008-10-10T12:41:14Z</time>
      </trkpt>
      <trkpt lat="43.36503" lon="6.70768">
        <ele>18.60000038147</ele>
        <time>2008-10-10T12:41:17Z</time>
      </trkpt>
      <trkpt lat="43.36518" lon="6.70796">
        <ele>13.199999809265</ele>
        <time>2008-10-10T12:41:24Z</time>
      </trkpt>
      <trkpt lat="43.36543" lon="6.70779">
        <ele>7.8000001907349</ele>
        <time>2008-10-10T12:41:31Z</time>
      </trkpt>
      <trkpt lat="43.36548" lon="6.70779">
        <ele>7.4000000953674</ele>
        <time>2008-10-10T12:41:32Z</time>
      </trkpt>
      <trkpt lat="43.36565" lon="6.70764">
        <ele>5</ele>
        <time>2008-10-10T12:41:37Z</time>
      </trkpt>
      <trkpt lat="43.36587" lon="6.70736">
        <ele>5.5999999046326</ele>
        <time>2008-10-10T12:41:46Z</time>
      </trkpt>
      <trkpt lat="43.36615" lon="6.70768">
        <ele>6.8000001907349</ele>
        <time>2008-10-10T12:41:57Z</time>
      </trkpt>
      <trkpt lat="43.36645" lon="6.70797">
        <ele>7.1999998092651</ele>
        <time>2008-10-10T12:42:07Z</time>
      </trkpt>
      <trkpt lat="43.36672" lon="6.70802">
        <ele>8.6000003814697</ele>
        <time>2008-10-10T12:42:15Z</time>
      </trkpt>
      <trkpt lat="43.36698" lon="6.70785">
        <ele>10</ele>
        <time>2008-10-10T12:42:26Z</time>
      </trkpt>
      <trkpt lat="43.36726" lon="6.70734">
        <ele>10.800000190735</ele>
        <time>2008-10-10T12:42:40Z</time>
      </trkpt>
      <trkpt lat="43.36734" lon="6.70647">
        <ele>9.8000001907349</ele>
        <time>2008-10-10T12:42:57Z</time>
      </trkpt>
      <trkpt lat="43.36746" lon="6.70628">
        <ele>7.5999999046326</ele>
        <time>2008-10-10T12:43:01Z</time>
      </trkpt>
      <trkpt lat="43.36764" lon="6.70635">
        <ele>6.1999998092651</ele>
        <time>2008-10-10T12:43:05Z</time>
      </trkpt>
      <trkpt lat="43.36786" lon="6.70634">
        <ele>4.4000000953674</ele>
        <time>2008-10-10T12:43:12Z</time>
      </trkpt>
      <trkpt lat="43.36789" lon="6.70629">
        <ele>4.4000000953674</ele>
        <time>2008-10-10T12:43:13Z</time>
      </trkpt>
      <trkpt lat="43.36797" lon="6.70612">
        <ele>3.7999999523163</ele>
        <time>2008-10-10T12:43:16Z</time>
      </trkpt>
      <trkpt lat="43.36798" lon="6.70591">
        <ele>4</ele>
        <time>2008-10-10T12:43:20Z</time>
      </trkpt>
      <trkpt lat="43.36797" lon="6.70553">
        <ele>4.8000001907349</ele>
        <time>2008-10-10T12:43:28Z</time>
      </trkpt>
      <trkpt lat="43.36793" lon="6.70507">
        <ele>4</ele>
        <time>2008-10-10T12:43:35Z</time>
      </trkpt>
      <trkpt lat="43.36801" lon="6.7044">
        <ele>5</ele>
        <time>2008-10-10T12:43:45Z</time>
      </trkpt>
      <trkpt lat="43.36814" lon="6.70428">
        <ele>5.1999998092651</ele>
        <time>2008-10-10T12:43:49Z</time>
      </trkpt>
      <trkpt lat="43.36857" lon="6.70457">
        <ele>9.8000001907349</ele>
        <time>2008-10-10T12:44:05Z</time>
      </trkpt>
      <trkpt lat="43.36869" lon="6.70476">
        <ele>10.800000190735</ele>
        <time>2008-10-10T12:44:12Z</time>
      </trkpt>
      <trkpt lat="43.36878" lon="6.70498">
        <ele>11.60000038147</ele>
        <time>2008-10-10T12:44:20Z</time>
      </trkpt>
      <trkpt lat="43.36886" lon="6.70528">
        <ele>15.199999809265</ele>
        <time>2008-10-10T12:44:35Z</time>
      </trkpt>
      <trkpt lat="43.3689" lon="6.7055">
        <ele>18.39999961853</ele>
        <time>2008-10-10T12:44:48Z</time>
      </trkpt>
      <trkpt lat="43.36905" lon="6.70544">
        <ele>22.39999961853</ele>
        <time>2008-10-10T12:45:08Z</time>
      </trkpt>
      <trkpt lat="43.36921" lon="6.70539">
        <ele>26.39999961853</ele>
        <time>2008-10-10T12:45:30Z</time>
      </trkpt>
      <trkpt lat="43.36923" lon="6.70538">
        <ele>27</ele>
        <time>2008-10-10T12:45:32Z</time>
      </trkpt>
      <trkpt lat="43.36931" lon="6.70531">
        <ele>28.799999237061</ele>
        <time>2008-10-10T12:45:44Z</time>
      </trkpt>
      <trkpt lat="43.36944" lon="6.70525">
        <ele>31.799999237061</ele>
        <time>2008-10-10T12:46:01Z</time>
      </trkpt>
      <trkpt lat="43.36955" lon="6.7052">
        <ele>33.799999237061</ele>
        <time>2008-10-10T12:46:16Z</time>
      </trkpt>
      <trkpt lat="43.36975" lon="6.70511">
        <ele>36.599998474121</ele>
        <time>2008-10-10T12:46:35Z</time>
      </trkpt>
      <trkpt lat="43.37003" lon="6.70489">
        <ele>40</ele>
        <time>2008-10-10T12:46:57Z</time>
      </trkpt>
      <trkpt lat="43.37025" lon="6.7046">
        <ele>42.599998474121</ele>
        <time>2008-10-10T12:47:16Z</time>
      </trkpt>
      <trkpt lat="43.37047" lon="6.70428">
        <ele>44.400001525879</ele>
        <time>2008-10-10T12:47:34Z</time>
      </trkpt>
      <trkpt lat="43.37071" lon="6.70389">
        <ele>47</ele>
        <time>2008-10-10T12:47:55Z</time>
      </trkpt>
      <trkpt lat="43.37105" lon="6.7033">
        <ele>47.799999237061</ele>
        <time>2008-10-10T12:48:17Z</time>
      </trkpt>
      <trkpt lat="43.37119" lon="6.70287">
        <ele>48</ele>
        <time>2008-10-10T12:48:27Z</time>
      </trkpt>
      <trkpt lat="43.37131" lon="6.70236">
        <ele>50.799999237061</ele>
        <time>2008-10-10T12:48:42Z</time>
      </trkpt>
      <trkpt lat="43.37152" lon="6.70194">
        <ele>54.200000762939</ele>
        <time>2008-10-10T12:49:01Z</time>
      </trkpt>
      <trkpt lat="43.3718" lon="6.7018">
        <ele>55.599998474121</ele>
        <time>2008-10-10T12:49:15Z</time>
      </trkpt>
      <trkpt lat="43.37224" lon="6.70164">
        <ele>59.400001525879</ele>
        <time>2008-10-10T12:49:38Z</time>
      </trkpt>
      <trkpt lat="43.37256" lon="6.70158">
        <ele>64.400001525879</ele>
        <time>2008-10-10T12:50:00Z</time>
      </trkpt>
      <trkpt lat="43.37283" lon="6.70153">
        <ele>66.599998474121</ele>
        <time>2008-10-10T12:50:18Z</time>
      </trkpt>
      <trkpt lat="43.37307" lon="6.70137">
        <ele>69</ele>
        <time>2008-10-10T12:50:36Z</time>
      </trkpt>
      <trkpt lat="43.37313" lon="6.7013">
        <ele>70.599998474121</ele>
        <time>2008-10-10T12:50:44Z</time>
      </trkpt>
      <trkpt lat="43.37316" lon="6.70123">
        <ele>71.400001525879</ele>
        <time>2008-10-10T12:50:53Z</time>
      </trkpt>
      <trkpt lat="43.37325" lon="6.70104">
        <ele>75.199996948242</ele>
        <time>2008-10-10T12:51:13Z</time>
      </trkpt>
      <trkpt lat="43.37326" lon="6.70101">
        <ele>75.599998474121</ele>
        <time>2008-10-10T12:51:16Z</time>
      </trkpt>
      <trkpt lat="43.3733" lon="6.70097">
        <ele>76.400001525879</ele>
        <time>2008-10-10T12:51:21Z</time>
      </trkpt>
      <trkpt lat="43.37341" lon="6.70077">
        <ele>80.199996948242</ele>
        <time>2008-10-10T12:51:43Z</time>
      </trkpt>
      <trkpt lat="43.37349" lon="6.7006">
        <ele>82.400001525879</ele>
        <time>2008-10-10T12:52:00Z</time>
      </trkpt>
      <trkpt lat="43.3736" lon="6.70039">
        <ele>86.199996948242</ele>
        <time>2008-10-10T12:52:23Z</time>
      </trkpt>
      <trkpt lat="43.37363" lon="6.70032">
        <ele>87.199996948242</ele>
        <time>2008-10-10T12:52:31Z</time>
      </trkpt>
      <trkpt lat="43.37368" lon="6.70015">
        <ele>89.800003051758</ele>
        <time>2008-10-10T12:52:51Z</time>
      </trkpt>
      <trkpt lat="43.37376" lon="6.70003">
        <ele>92.400001525879</ele>
        <time>2008-10-10T12:53:08Z</time>
      </trkpt>
      <trkpt lat="43.37387" lon="6.7001">
        <ele>95.599998474121</ele>
        <time>2008-10-10T12:53:27Z</time>
      </trkpt>
      <trkpt lat="43.37394" lon="6.7002">
        <ele>98.199996948242</ele>
        <time>2008-10-10T12:53:45Z</time>
      </trkpt>
      <trkpt lat="43.37404" lon="6.70032">
        <ele>101</ele>
        <time>2008-10-10T12:54:05Z</time>
      </trkpt>
      <trkpt lat="43.37422" lon="6.70026">
        <ele>103.40000152588</ele>
        <time>2008-10-10T12:54:26Z</time>
      </trkpt>
      <trkpt lat="43.37443" lon="6.70003">
        <ele>104.19999694824</ele>
        <time>2008-10-10T12:54:39Z</time>
      </trkpt>
      <trkpt lat="43.37476" lon="6.69962">
        <ele>106.40000152588</ele>
        <time>2008-10-10T12:54:59Z</time>
      </trkpt>
      <trkpt lat="43.37506" lon="6.69939">
        <ele>109.19999694824</ele>
        <time>2008-10-10T12:55:17Z</time>
      </trkpt>
      <trkpt lat="43.37526" lon="6.69964">
        <ele>110.40000152588</ele>
        <time>2008-10-10T12:55:31Z</time>
      </trkpt>
      <trkpt lat="43.37551" lon="6.7">
        <ele>113.59999847412</ele>
        <time>2008-10-10T12:55:51Z</time>
      </trkpt>
      <trkpt lat="43.37583" lon="6.69998">
        <ele>117.40000152588</ele>
        <time>2008-10-10T12:56:12Z</time>
      </trkpt>
      <trkpt lat="43.37607" lon="6.69996">
        <ele>117.80000305176</ele>
        <time>2008-10-10T12:56:24Z</time>
      </trkpt>
      <trkpt lat="43.37619" lon="6.69986">
        <ele>117.40000152588</ele>
        <time>2008-10-10T12:56:29Z</time>
      </trkpt>
      <trkpt lat="43.37641" lon="6.69978">
        <ele>116.80000305176</ele>
        <time>2008-10-10T12:56:34Z</time>
      </trkpt>
      <trkpt lat="43.3766" lon="6.69972">
        <ele>114</ele>
        <time>2008-10-10T12:56:38Z</time>
      </trkpt>
      <trkpt lat="43.37674" lon="6.69963">
        <ele>112.59999847412</ele>
        <time>2008-10-10T12:56:41Z</time>
      </trkpt>
      <trkpt lat="43.37704" lon="6.69935">
        <ele>109.40000152588</ele>
        <time>2008-10-10T12:56:47Z</time>
      </trkpt>
      <trkpt lat="43.37715" lon="6.69928">
        <ele>108.40000152588</ele>
        <time>2008-10-10T12:56:49Z</time>
      </trkpt>
      <trkpt lat="43.37724" lon="6.69937">
        <ele>109.40000152588</ele>
        <time>2008-10-10T12:56:52Z</time>
      </trkpt>
      <trkpt lat="43.37742" lon="6.69969">
        <ele>111</ele>
        <time>2008-10-10T12:57:07Z</time>
      </trkpt>
      <trkpt lat="43.3775" lon="6.6998">
        <ele>111.40000152588</ele>
        <time>2008-10-10T12:57:15Z</time>
      </trkpt>
      <trkpt lat="43.37754" lon="6.69987">
        <ele>112.59999847412</ele>
        <time>2008-10-10T12:57:22Z</time>
      </trkpt>
      <trkpt lat="43.37769" lon="6.69996">
        <ele>114.19999694824</ele>
        <time>2008-10-10T12:57:38Z</time>
      </trkpt>
      <trkpt lat="43.37784" lon="6.70008">
        <ele>117.19999694824</ele>
        <time>2008-10-10T12:57:56Z</time>
      </trkpt>
      <trkpt lat="43.37798" lon="6.70019">
        <ele>119.40000152588</ele>
        <time>2008-10-10T12:58:15Z</time>
      </trkpt>
      <trkpt lat="43.37812" lon="6.70022">
        <ele>122.19999694824</ele>
        <time>2008-10-10T12:58:33Z</time>
      </trkpt>
      <trkpt lat="43.37833" lon="6.70028">
        <ele>123.59999847412</ele>
        <time>2008-10-10T12:58:49Z</time>
      </trkpt>
      <trkpt lat="43.3786" lon="6.70038">
        <ele>125.59999847412</ele>
        <time>2008-10-10T12:59:06Z</time>
      </trkpt>
      <trkpt lat="43.37889" lon="6.70067">
        <ele>125.59999847412</ele>
        <time>2008-10-10T12:59:19Z</time>
      </trkpt>
      <trkpt lat="43.37902" lon="6.70109">
        <ele>123.80000305176</ele>
        <time>2008-10-10T12:59:27Z</time>
      </trkpt>
      <trkpt lat="43.37904" lon="6.70115">
        <ele>123.19999694824</ele>
        <time>2008-10-10T12:59:28Z</time>
      </trkpt>
      <trkpt lat="43.37908" lon="6.70125">
        <ele>122.40000152588</ele>
        <time>2008-10-10T12:59:30Z</time>
      </trkpt>
      <trkpt lat="43.37911" lon="6.7013">
        <ele>121.59999847412</ele>
        <time>2008-10-10T12:59:31Z</time>
      </trkpt>
      <trkpt lat="43.37924" lon="6.70146">
        <ele>119.40000152588</ele>
        <time>2008-10-10T12:59:34Z</time>
      </trkpt>
      <trkpt lat="43.37962" lon="6.70152">
        <ele>115</ele>
        <time>2008-10-10T12:59:40Z</time>
      </trkpt>
      <trkpt lat="43.38005" lon="6.7012">
        <ele>112</ele>
        <time>2008-10-10T12:59:47Z</time>
      </trkpt>
      <trkpt lat="43.38069" lon="6.70075">
        <ele>104.59999847412</ele>
        <time>2008-10-10T12:59:58Z</time>
      </trkpt>
      <trkpt lat="43.38073" lon="6.70073">
        <ele>104</ele>
        <time>2008-10-10T12:59:59Z</time>
      </trkpt>
      <trkpt lat="43.38088" lon="6.70069">
        <ele>101.19999694824</ele>
        <time>2008-10-10T13:00:02Z</time>
      </trkpt>
      <trkpt lat="43.38119" lon="6.70071">
        <ele>96.400001525879</ele>
        <time>2008-10-10T13:00:08Z</time>
      </trkpt>
      <trkpt lat="43.38142" lon="6.70071">
        <ele>93.400001525879</ele>
        <time>2008-10-10T13:00:12Z</time>
      </trkpt>
      <trkpt lat="43.38175" lon="6.70074">
        <ele>89.599998474121</ele>
        <time>2008-10-10T13:00:18Z</time>
      </trkpt>
      <trkpt lat="43.38196" lon="6.70072">
        <ele>86.199996948242</ele>
        <time>2008-10-10T13:00:23Z</time>
      </trkpt>
      <trkpt lat="43.38203" lon="6.701">
        <ele>84.800003051758</ele>
        <time>2008-10-10T13:00:31Z</time>
      </trkpt>
      <trkpt lat="43.38212" lon="6.70106">
        <ele>85.199996948242</ele>
        <time>2008-10-10T13:00:34Z</time>
      </trkpt>
      <trkpt lat="43.38232" lon="6.70125">
        <ele>87.599998474121</ele>
        <time>2008-10-10T13:00:43Z</time>
      </trkpt>
      <trkpt lat="43.38244" lon="6.70136">
        <ele>88.400001525879</ele>
        <time>2008-10-10T13:00:48Z</time>
      </trkpt>
      <trkpt lat="43.38289" lon="6.7018">
        <ele>87.800003051758</ele>
        <time>2008-10-10T13:01:05Z</time>
      </trkpt>
      <trkpt lat="43.38294" lon="6.70187">
        <ele>88</ele>
        <time>2008-10-10T13:01:07Z</time>
      </trkpt>
      <trkpt lat="43.38313" lon="6.70259">
        <ele>88.599998474121</ele>
        <time>2008-10-10T13:01:21Z</time>
      </trkpt>
      <trkpt lat="43.38323" lon="6.70304">
        <ele>90.199996948242</ele>
        <time>2008-10-10T13:01:32Z</time>
      </trkpt>
      <trkpt lat="43.38353" lon="6.70329">
        <ele>92.400001525879</ele>
        <time>2008-10-10T13:01:46Z</time>
      </trkpt>
      <trkpt lat="43.38364" lon="6.70349">
        <ele>93.599998474121</ele>
        <time>2008-10-10T13:01:59Z</time>
      </trkpt>
      <trkpt lat="43.38374" lon="6.7036">
        <ele>92.800003051758</ele>
        <time>2008-10-10T13:02:06Z</time>
      </trkpt>
      <trkpt lat="43.38385" lon="6.70362">
        <ele>95.400001525879</ele>
        <time>2008-10-10T13:02:21Z</time>
      </trkpt>
      <trkpt lat="43.38402" lon="6.70358">
        <ele>96.800003051758</ele>
        <time>2008-10-10T13:02:38Z</time>
      </trkpt>
      <trkpt lat="43.38417" lon="6.70365">
        <ele>100.59999847412</ele>
        <time>2008-10-10T13:02:57Z</time>
      </trkpt>
      <trkpt lat="43.38419" lon="6.70367">
        <ele>100.80000305176</ele>
        <time>2008-10-10T13:03:00Z</time>
      </trkpt>
      <trkpt lat="43.38429" lon="6.70387">
        <ele>104.19999694824</ele>
        <time>2008-10-10T13:03:20Z</time>
      </trkpt>
      <trkpt lat="43.38434" lon="6.70395">
        <ele>104.80000305176</ele>
        <time>2008-10-10T13:03:28Z</time>
      </trkpt>
      <trkpt lat="43.38425" lon="6.70416">
        <ele>107.80000305176</ele>
        <time>2008-10-10T13:03:47Z</time>
      </trkpt>
      <trkpt lat="43.38419" lon="6.70429">
        <ele>108.80000305176</ele>
        <time>2008-10-10T13:03:59Z</time>
      </trkpt>
      <trkpt lat="43.38414" lon="6.70438">
        <ele>109.19999694824</ele>
        <time>2008-10-10T13:04:05Z</time>
      </trkpt>
      <trkpt lat="43.38398" lon="6.70465">
        <ele>111.80000305176</ele>
        <time>2008-10-10T13:04:22Z</time>
      </trkpt>
      <trkpt lat="43.38379" lon="6.70488">
        <ele>116.40000152588</ele>
        <time>2008-10-10T13:04:39Z</time>
      </trkpt>
      <trkpt lat="43.38362" lon="6.705">
        <ele>119.19999694824</ele>
        <time>2008-10-10T13:04:54Z</time>
      </trkpt>
      <trkpt lat="43.3836" lon="6.70501">
        <ele>119.59999847412</ele>
        <time>2008-10-10T13:04:56Z</time>
      </trkpt>
      <trkpt lat="43.38357" lon="6.70506">
        <ele>120.40000152588</ele>
        <time>2008-10-10T13:05:00Z</time>
      </trkpt>
      <trkpt lat="43.38352" lon="6.7054">
        <ele>120</ele>
        <time>2008-10-10T13:05:14Z</time>
      </trkpt>
      <trkpt lat="43.38355" lon="6.70544">
        <ele>118.40000152588</ele>
        <time>2008-10-10T13:05:20Z</time>
      </trkpt>
      <trkpt lat="43.3835" lon="6.70542">
        <ele>120.80000305176</ele>
        <time>2008-10-10T13:09:16Z</time>
      </trkpt>
      <trkpt lat="43.38351" lon="6.7054">
        <ele>121.19999694824</ele>
        <time>2008-10-10T13:09:19Z</time>
      </trkpt>
      <trkpt lat="43.38352" lon="6.70525">
        <ele>121.59999847412</ele>
        <time>2008-10-10T13:09:32Z</time>
      </trkpt>
      <trkpt lat="43.38354" lon="6.70522">
        <ele>121.59999847412</ele>
        <time>2008-10-10T13:09:37Z</time>
      </trkpt>
      <trkpt lat="43.38356" lon="6.70519">
        <ele>122.19999694824</ele>
        <time>2008-10-10T13:09:43Z</time>
      </trkpt>
      <trkpt lat="43.38377" lon="6.70512">
        <ele>119.40000152588</ele>
        <time>2008-10-10T13:09:50Z</time>
      </trkpt>
      <trkpt lat="43.38386" lon="6.70507">
        <ele>117.80000305176</ele>
        <time>2008-10-10T13:09:52Z</time>
      </trkpt>
      <trkpt lat="43.38407" lon="6.70515">
        <ele>112.59999847412</ele>
        <time>2008-10-10T13:09:57Z</time>
      </trkpt>
      <trkpt lat="43.38423" lon="6.70545">
        <ele>107.80000305176</ele>
        <time>2008-10-10T13:10:02Z</time>
      </trkpt>
      <trkpt lat="43.38435" lon="6.70566">
        <ele>104.59999847412</ele>
        <time>2008-10-10T13:10:05Z</time>
      </trkpt>
      <trkpt lat="43.38454" lon="6.70576">
        <ele>100</ele>
        <time>2008-10-10T13:10:09Z</time>
      </trkpt>
      <trkpt lat="43.38479" lon="6.70578">
        <ele>97.400001525879</ele>
        <time>2008-10-10T13:10:14Z</time>
      </trkpt>
      <trkpt lat="43.38491" lon="6.70591">
        <ele>97.199996948242</ele>
        <time>2008-10-10T13:10:18Z</time>
      </trkpt>
      <trkpt lat="43.38499" lon="6.70603">
        <ele>96</ele>
        <time>2008-10-10T13:10:21Z</time>
      </trkpt>
      <trkpt lat="43.38536" lon="6.70661">
        <ele>92.400001525879</ele>
        <time>2008-10-10T13:10:32Z</time>
      </trkpt>
      <trkpt lat="43.3855" lon="6.70685">
        <ele>93.400001525879</ele>
        <time>2008-10-10T13:10:41Z</time>
      </trkpt>
      <trkpt lat="43.38559" lon="6.70703">
        <ele>96.800003051758</ele>
        <time>2008-10-10T13:11:00Z</time>
      </trkpt>
      <trkpt lat="43.38559" lon="6.70703">
        <ele>96.800003051758</ele>
        <time>2008-10-10T13:11:01Z</time>
      </trkpt>
      <trkpt lat="43.38561" lon="6.70705">
        <ele>97.199996948242</ele>
        <time>2008-10-10T13:11:06Z</time>
      </trkpt>
      <trkpt lat="43.38563" lon="6.7071">
        <ele>98.199996948242</ele>
        <time>2008-10-10T13:11:12Z</time>
      </trkpt>
      <trkpt lat="43.38569" lon="6.70716">
        <ele>100.19999694824</ele>
        <time>2008-10-10T13:11:21Z</time>
      </trkpt>
      <trkpt lat="43.38576" lon="6.70721">
        <ele>102</ele>
        <time>2008-10-10T13:11:30Z</time>
      </trkpt>
      <trkpt lat="43.38599" lon="6.70729">
        <ele>104.80000305176</ele>
        <time>2008-10-10T13:11:49Z</time>
      </trkpt>
      <trkpt lat="43.38635" lon="6.70736">
        <ele>102</ele>
        <time>2008-10-10T13:12:01Z</time>
      </trkpt>
      <trkpt lat="43.38639" lon="6.70736">
        <ele>101.80000305176</ele>
        <time>2008-10-10T13:12:02Z</time>
      </trkpt>
      <trkpt lat="43.38643" lon="6.70736">
        <ele>100.80000305176</ele>
        <time>2008-10-10T13:12:03Z</time>
      </trkpt>
      <trkpt lat="43.3866" lon="6.70722">
        <ele>94.599998474121</ele>
        <time>2008-10-10T13:12:10Z</time>
      </trkpt>
      <trkpt lat="43.38676" lon="6.70728">
        <ele>92.800003051758</ele>
        <time>2008-10-10T13:12:13Z</time>
      </trkpt>
      <trkpt lat="43.38693" lon="6.70723">
        <ele>94</ele>
        <time>2008-10-10T13:12:17Z</time>
      </trkpt>
      <trkpt lat="43.38695" lon="6.70721">
        <ele>95.400001525879</ele>
        <time>2008-10-10T13:12:23Z</time>
      </trkpt>
      <trkpt lat="43.387" lon="6.70722">
        <ele>96.599998474121</ele>
        <time>2008-10-10T13:12:34Z</time>
      </trkpt>
      <trkpt lat="43.38706" lon="6.70721">
        <ele>98.400001525879</ele>
        <time>2008-10-10T13:12:43Z</time>
      </trkpt>
      <trkpt lat="43.38718" lon="6.70722">
        <ele>101</ele>
        <time>2008-10-10T13:12:58Z</time>
      </trkpt>
      <trkpt lat="43.38725" lon="6.70722">
        <ele>102</ele>
        <time>2008-10-10T13:13:08Z</time>
      </trkpt>
      <trkpt lat="43.38756" lon="6.70705">
        <ele>100.80000305176</ele>
        <time>2008-10-10T13:13:20Z</time>
      </trkpt>
      <trkpt lat="43.38765" lon="6.70698">
        <ele>100.19999694824</ele>
        <time>2008-10-10T13:13:22Z</time>
      </trkpt>
      <trkpt lat="43.38801" lon="6.70677">
        <ele>96.400001525879</ele>
        <time>2008-10-10T13:13:29Z</time>
      </trkpt>
      <trkpt lat="43.38836" lon="6.70664">
        <ele>90.800003051758</ele>
        <time>2008-10-10T13:13:35Z</time>
      </trkpt>
      <trkpt lat="43.38859" lon="6.70649">
        <ele>86.199996948242</ele>
        <time>2008-10-10T13:13:40Z</time>
      </trkpt>
      <trkpt lat="43.38872" lon="6.70632">
        <ele>85.599998474121</ele>
        <time>2008-10-10T13:13:43Z</time>
      </trkpt>
      <trkpt lat="43.38882" lon="6.70617">
        <ele>87.599998474121</ele>
        <time>2008-10-10T13:13:47Z</time>
      </trkpt>
      <trkpt lat="43.38893" lon="6.70606">
        <ele>91.599998474121</ele>
        <time>2008-10-10T13:14:03Z</time>
      </trkpt>
      <trkpt lat="43.38902" lon="6.70601">
        <ele>93.599998474121</ele>
        <time>2008-10-10T13:14:14Z</time>
      </trkpt>
      <trkpt lat="43.38909" lon="6.70598">
        <ele>94.800003051758</ele>
        <time>2008-10-10T13:14:21Z</time>
      </trkpt>
      <trkpt lat="43.3891" lon="6.70598">
        <ele>94.800003051758</ele>
        <time>2008-10-10T13:14:22Z</time>
      </trkpt>
      <trkpt lat="43.38926" lon="6.7061">
        <ele>94.800003051758</ele>
        <time>2008-10-10T13:14:30Z</time>
      </trkpt>
      <trkpt lat="43.38939" lon="6.70617">
        <ele>93.199996948242</ele>
        <time>2008-10-10T13:14:33Z</time>
      </trkpt>
      <trkpt lat="43.3895" lon="6.70627">
        <ele>91</ele>
        <time>2008-10-10T13:14:36Z</time>
      </trkpt>
      <trkpt lat="43.38964" lon="6.70639">
        <ele>88</ele>
        <time>2008-10-10T13:14:40Z</time>
      </trkpt>
      <trkpt lat="43.38975" lon="6.70668">
        <ele>85</ele>
        <time>2008-10-10T13:14:44Z</time>
      </trkpt>
      <trkpt lat="43.38986" lon="6.70699">
        <ele>83.199996948242</ele>
        <time>2008-10-10T13:14:49Z</time>
      </trkpt>
      <trkpt lat="43.38988" lon="6.70702">
        <ele>82.800003051758</ele>
        <time>2008-10-10T13:14:50Z</time>
      </trkpt>
      <trkpt lat="43.39004" lon="6.7074">
        <ele>74.199996948242</ele>
        <time>2008-10-10T13:14:59Z</time>
      </trkpt>
      <trkpt lat="43.39004" lon="6.70744">
        <ele>72.800003051758</ele>
        <time>2008-10-10T13:15:00Z</time>
      </trkpt>
      <trkpt lat="43.39006" lon="6.70751">
        <ele>71.800003051758</ele>
        <time>2008-10-10T13:15:02Z</time>
      </trkpt>
      <trkpt lat="43.39018" lon="6.70743">
        <ele>71</ele>
        <time>2008-10-10T13:15:06Z</time>
      </trkpt>
      <trkpt lat="43.39053" lon="6.70701">
        <ele>67.400001525879</ele>
        <time>2008-10-10T13:15:13Z</time>
      </trkpt>
      <trkpt lat="43.39085" lon="6.70625">
        <ele>58.799999237061</ele>
        <time>2008-10-10T13:15:22Z</time>
      </trkpt>
      <trkpt lat="43.39101" lon="6.70614">
        <ele>55.200000762939</ele>
        <time>2008-10-10T13:15:26Z</time>
      </trkpt>
      <trkpt lat="43.3911" lon="6.70649">
        <ele>53</ele>
        <time>2008-10-10T13:15:31Z</time>
      </trkpt>
      <trkpt lat="43.39108" lon="6.70658">
        <ele>52.599998474121</ele>
        <time>2008-10-10T13:15:32Z</time>
      </trkpt>
      <trkpt lat="43.39105" lon="6.70676">
        <ele>52.200000762939</ele>
        <time>2008-10-10T13:15:34Z</time>
      </trkpt>
      <trkpt lat="43.39116" lon="6.70711">
        <ele>53</ele>
        <time>2008-10-10T13:15:41Z</time>
      </trkpt>
      <trkpt lat="43.39142" lon="6.70721">
        <ele>55.400001525879</ele>
        <time>2008-10-10T13:15:50Z</time>
      </trkpt>
      <trkpt lat="43.39161" lon="6.70735">
        <ele>55.400001525879</ele>
        <time>2008-10-10T13:15:55Z</time>
      </trkpt>
      <trkpt lat="43.39166" lon="6.70734">
        <ele>55.799999237061</ele>
        <time>2008-10-10T13:15:56Z</time>
      </trkpt>
      <trkpt lat="43.39175" lon="6.7073">
        <ele>56</ele>
        <time>2008-10-10T13:15:58Z</time>
      </trkpt>
      <trkpt lat="43.39191" lon="6.70728">
        <ele>55.799999237061</ele>
        <time>2008-10-10T13:16:02Z</time>
      </trkpt>
      <trkpt lat="43.392" lon="6.70729">
        <ele>55.799999237061</ele>
        <time>2008-10-10T13:16:04Z</time>
      </trkpt>
      <trkpt lat="43.39231" lon="6.70756">
        <ele>55.400001525879</ele>
        <time>2008-10-10T13:16:11Z</time>
      </trkpt>
      <trkpt lat="43.3925" lon="6.70784">
        <ele>55.200000762939</ele>
        <time>2008-10-10T13:16:16Z</time>
      </trkpt>
      <trkpt lat="43.39263" lon="6.70812">
        <ele>54.400001525879</ele>
        <time>2008-10-10T13:16:20Z</time>
      </trkpt>
      <trkpt lat="43.39273" lon="6.70824">
        <ele>53.400001525879</ele>
        <time>2008-10-10T13:16:22Z</time>
      </trkpt>
      <trkpt lat="43.39287" lon="6.70819">
        <ele>51.599998474121</ele>
        <time>2008-10-10T13:16:24Z</time>
      </trkpt>
      <trkpt lat="43.3931" lon="6.70797">
        <ele>51.599998474121</ele>
        <time>2008-10-10T13:16:28Z</time>
      </trkpt>
      <trkpt lat="43.39357" lon="6.7079">
        <ele>48.799999237061</ele>
        <time>2008-10-10T13:16:34Z</time>
      </trkpt>
      <trkpt lat="43.39374" lon="6.708">
        <ele>48.599998474121</ele>
        <time>2008-10-10T13:16:36Z</time>
      </trkpt>
      <trkpt lat="43.39402" lon="6.70839">
        <ele>48.599998474121</ele>
        <time>2008-10-10T13:16:41Z</time>
      </trkpt>
      <trkpt lat="43.39408" lon="6.70856">
        <ele>48.400001525879</ele>
        <time>2008-10-10T13:16:43Z</time>
      </trkpt>
      <trkpt lat="43.39413" lon="6.70874">
        <ele>48.200000762939</ele>
        <time>2008-10-10T13:16:45Z</time>
      </trkpt>
      <trkpt lat="43.39431" lon="6.70923">
        <ele>46.799999237061</ele>
        <time>2008-10-10T13:16:51Z</time>
      </trkpt>
      <trkpt lat="43.39448" lon="6.70969">
        <ele>45.200000762939</ele>
        <time>2008-10-10T13:16:56Z</time>
      </trkpt>
      <trkpt lat="43.39453" lon="6.71003">
        <ele>43.200000762939</ele>
        <time>2008-10-10T13:16:59Z</time>
      </trkpt>
      <trkpt lat="43.39471" lon="6.71067">
        <ele>36.400001525879</ele>
        <time>2008-10-10T13:17:05Z</time>
      </trkpt>
      <trkpt lat="43.39467" lon="6.71085">
        <ele>35.400001525879</ele>
        <time>2008-10-10T13:17:07Z</time>
      </trkpt>
      <trkpt lat="43.39441" lon="6.711">
        <ele>34.599998474121</ele>
        <time>2008-10-10T13:17:11Z</time>
      </trkpt>
      <trkpt lat="43.39423" lon="6.71134">
        <ele>30.200000762939</ele>
        <time>2008-10-10T13:17:17Z</time>
      </trkpt>
      <trkpt lat="43.39476" lon="6.7115">
        <ele>27.39999961853</ele>
        <time>2008-10-10T13:17:24Z</time>
      </trkpt>
      <trkpt lat="43.39508" lon="6.71136">
        <ele>26.799999237061</ele>
        <time>2008-10-10T13:17:28Z</time>
      </trkpt>
      <trkpt lat="43.39547" lon="6.71143">
        <ele>25.799999237061</ele>
        <time>2008-10-10T13:17:33Z</time>
      </trkpt>
      <trkpt lat="43.39579" lon="6.7115">
        <ele>25.39999961853</ele>
        <time>2008-10-10T13:17:41Z</time>
      </trkpt>
      <trkpt lat="43.39581" lon="6.71138">
        <ele>23.200000762939</ele>
        <time>2008-10-10T13:17:45Z</time>
      </trkpt>
      <trkpt lat="43.39563" lon="6.71122">
        <ele>18.39999961853</ele>
        <time>2008-10-10T13:17:54Z</time>
      </trkpt>
      <trkpt lat="43.39565" lon="6.7111">
        <ele>15</ele>
        <time>2008-10-10T13:17:59Z</time>
      </trkpt>
      <trkpt lat="43.39576" lon="6.71105">
        <ele>13.39999961853</ele>
        <time>2008-10-10T13:18:06Z</time>
      </trkpt>
      <trkpt lat="43.39579" lon="6.71105">
        <ele>13.39999961853</ele>
        <time>2008-10-10T13:18:10Z</time>
      </trkpt>
      <trkpt lat="43.3958" lon="6.71104">
        <ele>13.39999961853</ele>
        <time>2008-10-10T13:18:12Z</time>
      </trkpt>
      <trkpt lat="43.39584" lon="6.711">
        <ele>11.199999809265</ele>
        <time>2008-10-10T13:18:16Z</time>
      </trkpt>
      <trkpt lat="43.39592" lon="6.71094">
        <ele>8.3999996185303</ele>
        <time>2008-10-10T13:18:23Z</time>
      </trkpt>
      <trkpt lat="43.39596" lon="6.71092">
        <ele>6.4000000953674</ele>
        <time>2008-10-10T13:18:25Z</time>
      </trkpt>
      <trkpt lat="43.39607" lon="6.71078">
        <ele>6</ele>
        <time>2008-10-10T13:18:29Z</time>
      </trkpt>
      <trkpt lat="43.39621" lon="6.71072">
        <ele>7.1999998092651</ele>
        <time>2008-10-10T13:18:36Z</time>
      </trkpt>
      <trkpt lat="43.39628" lon="6.71075">
        <ele>6.8000001907349</ele>
        <time>2008-10-10T13:18:38Z</time>
      </trkpt>
      <trkpt lat="43.39659" lon="6.71089">
        <ele>7.5999999046326</ele>
        <time>2008-10-10T13:18:48Z</time>
      </trkpt>
      <trkpt lat="43.3967" lon="6.711">
        <ele>8.3999996185303</ele>
        <time>2008-10-10T13:18:54Z</time>
      </trkpt>
      <trkpt lat="43.39676" lon="6.7112">
        <ele>6.4000000953674</ele>
        <time>2008-10-10T13:18:58Z</time>
      </trkpt>
      <trkpt lat="43.3968" lon="6.71134">
        <ele>6</ele>
        <time>2008-10-10T13:19:00Z</time>
      </trkpt>
      <trkpt lat="43.3969" lon="6.71152">
        <ele>5.5999999046326</ele>
        <time>2008-10-10T13:19:03Z</time>
      </trkpt>
      <trkpt lat="43.39708" lon="6.71178">
        <ele>4.8000001907349</ele>
        <time>2008-10-10T13:19:08Z</time>
      </trkpt>
      <trkpt lat="43.39726" lon="6.71207">
        <ele>4.1999998092651</ele>
        <time>2008-10-10T13:19:14Z</time>
      </trkpt>
      <trkpt lat="43.39737" lon="6.71222">
        <ele>4.1999998092651</ele>
        <time>2008-10-10T13:19:17Z</time>
      </trkpt>
      <trkpt lat="43.39767" lon="6.71247">
        <ele>3.7999999523163</ele>
        <time>2008-10-10T13:19:25Z</time>
      </trkpt>
      <trkpt lat="43.3978" lon="6.7125">
        <ele>3.5999999046326</ele>
        <time>2008-10-10T13:19:28Z</time>
      </trkpt>
      <trkpt lat="43.39801" lon="6.71254">
        <ele>3.5999999046326</ele>
        <time>2008-10-10T13:19:33Z</time>
      </trkpt>
      <trkpt lat="43.39823" lon="6.71263">
        <ele>2.5999999046326</ele>
        <time>2008-10-10T13:19:38Z</time>
      </trkpt>
      <trkpt lat="43.39879" lon="6.71279">
        <ele>2.4000000953674</ele>
        <time>2008-10-10T13:19:51Z</time>
      </trkpt>
      <trkpt lat="43.39917" lon="6.71287">
        <ele>2.2000000476837</ele>
        <time>2008-10-10T13:20:00Z</time>
      </trkpt>
      <trkpt lat="43.39947" lon="6.7128">
        <ele>2</ele>
        <time>2008-10-10T13:20:08Z</time>
      </trkpt>
      <trkpt lat="43.39949" lon="6.71291">
        <ele>2</ele>
        <time>2008-10-10T13:20:10Z</time>
      </trkpt>
      <trkpt lat="43.3995" lon="6.71308">
        <ele>2</ele>
        <time>2008-10-10T13:20:13Z</time>
      </trkpt>
      <trkpt lat="43.39952" lon="6.7132">
        <ele>1.7999999523163</ele>
        <time>2008-10-10T13:20:15Z</time>
      </trkpt>
      <trkpt lat="43.39964" lon="6.7141">
        <ele>1.6000000238419</ele>
        <time>2008-10-10T13:20:30Z</time>
      </trkpt>
      <trkpt lat="43.39965" lon="6.71417">
        <ele>1.6000000238419</ele>
        <time>2008-10-10T13:20:31Z</time>
      </trkpt>
      <trkpt lat="43.39979" lon="6.71527">
        <ele>1.2000000476837</ele>
        <time>2008-10-10T13:20:49Z</time>
      </trkpt>
      <trkpt lat="43.39986" lon="6.71581">
        <ele>0.80000001192093</ele>
        <time>2008-10-10T13:20:59Z</time>
      </trkpt>
      <trkpt lat="43.39972" lon="6.71629">
        <ele>1</ele>
        <time>2008-10-10T13:21:10Z</time>
      </trkpt>
      <trkpt lat="43.39974" lon="6.71646">
        <ele>0.60000002384186</ele>
        <time>2008-10-10T13:21:14Z</time>
      </trkpt>
      <trkpt lat="43.39976" lon="6.71652">
        <ele>0.20000000298023</ele>
        <time>2008-10-10T13:21:16Z</time>
      </trkpt>
      <trkpt lat="43.39977" lon="6.71655">
        <ele>0.40000000596046</ele>
        <time>2008-10-10T13:21:19Z</time>
      </trkpt>
      <trkpt lat="43.39977" lon="6.71655">
        <ele>2.6</ele>
        <time>2008-10-10T13:21:22Z</time>
      </trkpt>
      <trkpt lat="43.39995" lon="6.71651">
        <ele>2.2</ele>
        <time>2008-10-10T13:21:26Z</time>
      </trkpt>
      <trkpt lat="43.39999" lon="6.71661">
        <ele>-0.20000000298023</ele>
        <time>2008-10-10T13:21:33Z</time>
      </trkpt>
      <trkpt lat="43.39999" lon="6.71663">
        <ele>0.40000000596046</ele>
        <time>2008-10-10T13:21:40Z</time>
      </trkpt>
      <trkpt lat="43.39999" lon="6.71664">
        <ele>0.40000000596046</ele>
        <time>2008-10-10T13:21:41Z</time>
      </trkpt>
      <trkpt lat="43.39985" lon="6.71693">
        <ele>0.80000001192093</ele>
        <time>2008-10-10T13:21:52Z</time>
      </trkpt>
      <trkpt lat="43.39971" lon="6.71727">
        <ele>0.80000001192093</ele>
        <time>2008-10-10T13:21:58Z</time>
      </trkpt>
      <trkpt lat="43.39959" lon="6.71756">
        <ele>1.7999999523163</ele>
        <time>2008-10-10T13:22:04Z</time>
      </trkpt>
      <trkpt lat="43.3995" lon="6.71764">
        <ele>4</ele>
        <time>2008-10-10T13:22:07Z</time>
      </trkpt>
      <trkpt lat="43.39938" lon="6.71788">
        <ele>4.8000001907349</ele>
        <time>2008-10-10T13:22:14Z</time>
      </trkpt>
      <trkpt lat="43.39936" lon="6.71799">
        <ele>5.1999998092651</ele>
        <time>2008-10-10T13:22:16Z</time>
      </trkpt>
      <trkpt lat="43.39923" lon="6.7182">
        <ele>6.1999998092651</ele>
        <time>2008-10-10T13:22:22Z</time>
      </trkpt>
      <trkpt lat="43.39916" lon="6.71825">
        <ele>6.1999998092651</ele>
        <time>2008-10-10T13:22:24Z</time>
      </trkpt>
      <trkpt lat="43.39892" lon="6.71836">
        <ele>5.4000000953674</ele>
        <time>2008-10-10T13:22:30Z</time>
      </trkpt>
      <trkpt lat="43.39886" lon="6.71838">
        <ele>5.1999998092651</ele>
        <time>2008-10-10T13:22:31Z</time>
      </trkpt>
      <trkpt lat="43.39783" lon="6.71873">
        <ele>6.5999999046326</ele>
        <time>2008-10-10T13:22:52Z</time>
      </trkpt>
      <trkpt lat="43.39708" lon="6.71891">
        <ele>6.4000000953674</ele>
        <time>2008-10-10T13:23:08Z</time>
      </trkpt>
      <trkpt lat="43.39694" lon="6.7193">
        <ele>4.1999998092651</ele>
        <time>2008-10-10T13:23:14Z</time>
      </trkpt>
      <trkpt lat="43.39686" lon="6.71983">
        <ele>2.4000000953674</ele>
        <time>2008-10-10T13:23:20Z</time>
      </trkpt>
      <trkpt lat="43.39666" lon="6.72107">
        <ele>2.2000000476837</ele>
        <time>2008-10-10T13:23:34Z</time>
      </trkpt>
      <trkpt lat="43.39648" lon="6.72207">
        <ele>1.2000000476837</ele>
        <time>2008-10-10T13:23:47Z</time>
      </trkpt>
      <trkpt lat="43.39632" lon="6.72306">
        <ele>1.3999999761581</ele>
        <time>2008-10-10T13:24:01Z</time>
      </trkpt>
      <trkpt lat="43.39614" lon="6.72426">
        <ele>1.2000000476837</ele>
        <time>2008-10-10T13:24:17Z</time>
      </trkpt>
      <trkpt lat="43.39608" lon="6.72455">
        <ele>1</ele>
        <time>2008-10-10T13:24:21Z</time>
      </trkpt>
      <trkpt lat="43.39597" lon="6.72514">
        <ele>2.2000000476837</ele>
        <time>2008-10-10T13:24:31Z</time>
      </trkpt>
      <trkpt lat="43.39592" lon="6.72545">
        <ele>1.7999999523163</ele>
        <time>2008-10-10T13:24:36Z</time>
      </trkpt>
      <trkpt lat="43.39584" lon="6.7257">
        <ele>1.7999999523163</ele>
        <time>2008-10-10T13:24:40Z</time>
      </trkpt>
      <trkpt lat="43.39577" lon="6.72604">
        <ele>1.3999999761581</ele>
        <time>2008-10-10T13:24:45Z</time>
      </trkpt>
      <trkpt lat="43.39557" lon="6.72616">
        <ele>0.80000001192093</ele>
        <time>2008-10-10T13:24:50Z</time>
      </trkpt>
      <trkpt lat="43.39508" lon="6.72597">
        <ele>1</ele>
        <time>2008-10-10T13:24:59Z</time>
      </trkpt>
      <trkpt lat="43.39486" lon="6.72595">
        <ele>1.2000000476837</ele>
        <time>2008-10-10T13:25:03Z</time>
      </trkpt>
      <trkpt lat="43.39361" lon="6.72637">
        <ele>1</ele>
        <time>2008-10-10T13:25:28Z</time>
      </trkpt>
      <trkpt lat="43.3931" lon="6.72663">
        <ele>1.3999999761581</ele>
        <time>2008-10-10T13:25:39Z</time>
      </trkpt>
      <trkpt lat="43.3929" lon="6.72669">
        <ele>1.3999999761581</ele>
        <time>2008-10-10T13:25:43Z</time>
      </trkpt>
      <trkpt lat="43.39266" lon="6.72667">
        <ele>1.7999999523163</ele>
        <time>2008-10-10T13:25:48Z</time>
      </trkpt>
      <trkpt lat="43.39243" lon="6.7269">
        <ele>2</ele>
        <time>2008-10-10T13:25:57Z</time>
      </trkpt>
      <trkpt lat="43.39245" lon="6.72694">
        <ele>1.7999999523163</ele>
        <time>2008-10-10T13:25:58Z</time>
      </trkpt>
      <trkpt lat="43.39279" lon="6.72734">
        <ele>1.3999999761581</ele>
        <time>2008-10-10T13:26:12Z</time>
      </trkpt>
      <trkpt lat="43.39282" lon="6.72744">
        <ele>1.3999999761581</ele>
        <time>2008-10-10T13:26:15Z</time>
      </trkpt>
      <trkpt lat="43.39282" lon="6.72757">
        <ele>1.2000000476837</ele>
        <time>2008-10-10T13:26:19Z</time>
      </trkpt>
      <trkpt lat="43.39268" lon="6.72814">
        <ele>0.80000001192093</ele>
        <time>2008-10-10T13:26:35Z</time>
      </trkpt>
      <trkpt lat="43.39266" lon="6.72824">
        <ele>0.60000002384186</ele>
        <time>2008-10-10T13:26:40Z</time>
      </trkpt>
      <trkpt lat="43.39265" lon="6.72832">
        <ele>1</ele>
        <time>2008-10-10T13:26:47Z</time>
      </trkpt>
      <trkpt lat="43.39261" lon="6.72841">
        <ele>1</ele>
        <time>2008-10-10T13:26:55Z</time>
      </trkpt>
      <trkpt lat="43.3924" lon="6.72843">
        <ele>1.2000000476837</ele>
        <time>2008-10-10T13:27:15Z</time>
      </trkpt>
      <trkpt lat="43.39229" lon="6.72845">
        <ele>1.7999999523163</ele>
        <time>2008-10-10T13:27:26Z</time>
      </trkpt>
      <trkpt lat="43.39227" lon="6.72842">
        <ele>1.7999999523163</ele>
        <time>2008-10-10T13:27:30Z</time>
      </trkpt>
      <trkpt lat="43.39223" lon="6.72827">
        <ele>3.5999999046326</ele>
        <time>2008-10-10T13:27:44Z</time>
      </trkpt>
      <trkpt lat="43.39223" lon="6.7282">
        <ele>4.5999999046326</ele>
        <time>2008-10-10T13:27:52Z</time>
      </trkpt>
      <trkpt lat="43.39214" lon="6.72815">
        <ele>5.1999998092651</ele>
        <time>2008-10-10T13:28:07Z</time>
      </trkpt>
      <trkpt lat="43.39172" lon="6.72806">
        <ele>6.5999999046326</ele>
        <time>2008-10-10T13:28:20Z</time>
      </trkpt>
      <trkpt lat="43.39149" lon="6.72811">
        <ele>7.4000000953674</ele>
        <time>2008-10-10T13:28:27Z</time>
      </trkpt>
      <trkpt lat="43.39091" lon="6.72866">
        <ele>9.8000001907349</ele>
        <time>2008-10-10T13:28:45Z</time>
      </trkpt>
      <trkpt lat="43.39073" lon="6.72882">
        <ele>9.6000003814697</ele>
        <time>2008-10-10T13:28:50Z</time>
      </trkpt>
      <trkpt lat="43.39051" lon="6.72877">
        <ele>10.39999961853</ele>
        <time>2008-10-10T13:28:55Z</time>
      </trkpt>
      <trkpt lat="43.38959" lon="6.72815">
        <ele>14.800000190735</ele>
        <time>2008-10-10T13:29:18Z</time>
      </trkpt>
      <trkpt lat="43.38905" lon="6.72778">
        <ele>16.799999237061</ele>
        <time>2008-10-10T13:29:32Z</time>
      </trkpt>
      <trkpt lat="43.38881" lon="6.72796">
        <ele>16.39999961853</ele>
        <time>2008-10-10T13:29:39Z</time>
      </trkpt>
      <trkpt lat="43.38843" lon="6.72904">
        <ele>11</ele>
        <time>2008-10-10T13:29:53Z</time>
      </trkpt>
      <trkpt lat="43.38813" lon="6.72987">
        <ele>8.6000003814697</ele>
        <time>2008-10-10T13:30:02Z</time>
      </trkpt>
      <trkpt lat="43.38805" lon="6.73006">
        <ele>6.4000000953674</ele>
        <time>2008-10-10T13:30:05Z</time>
      </trkpt>
      <trkpt lat="43.38801" lon="6.73012">
        <ele>5.5999999046326</ele>
        <time>2008-10-10T13:30:07Z</time>
      </trkpt>
      <trkpt lat="43.38795" lon="6.73018">
        <ele>4.8000001907349</ele>
        <time>2008-10-10T13:30:15Z</time>
      </trkpt>
      <trkpt lat="43.38797" lon="6.73022">
        <ele>4</ele>
        <time>2008-10-10T13:30:18Z</time>
      </trkpt>
      <trkpt lat="43.38812" lon="6.73047">
        <ele>2.7999999523163</ele>
        <time>2008-10-10T13:30:28Z</time>
      </trkpt>
      <trkpt lat="43.38832" lon="6.73047">
        <ele>2.5999999046326</ele>
        <time>2008-10-10T13:30:38Z</time>
      </trkpt>
      <trkpt lat="43.38835" lon="6.73032">
        <ele>3.2000000476837</ele>
        <time>2008-10-10T13:30:42Z</time>
      </trkpt>
      <trkpt lat="43.38837" lon="6.73023">
        <ele>3.5999999046326</ele>
        <time>2008-10-10T13:30:44Z</time>
      </trkpt>
      <trkpt lat="43.38844" lon="6.73019">
        <ele>4.4000000953674</ele>
        <time>2008-10-10T13:30:49Z</time>
      </trkpt>
      <trkpt lat="43.38851" lon="6.73029">
        <ele>3</ele>
        <time>2008-10-10T13:30:55Z</time>
      </trkpt>
      <trkpt lat="43.38865" lon="6.73046">
        <ele>4.1999998092651</ele>
        <time>2008-10-10T13:31:07Z</time>
      </trkpt>
      <trkpt lat="43.38902" lon="6.73063">
        <ele>4</ele>
        <time>2008-10-10T13:31:19Z</time>
      </trkpt>
      <trkpt lat="43.38912" lon="6.73063">
        <ele>3.7999999523163</ele>
        <time>2008-10-10T13:31:22Z</time>
      </trkpt>
      <trkpt lat="43.38931" lon="6.7306">
        <ele>3</ele>
        <time>2008-10-10T13:31:29Z</time>
      </trkpt>
      <trkpt lat="43.38932" lon="6.73074">
        <ele>3.5999999046326</ele>
        <time>2008-10-10T13:31:38Z</time>
      </trkpt>
      <trkpt lat="43.38932" lon="6.73077">
        <ele>4</ele>
        <time>2008-10-10T13:31:42Z</time>
      </trkpt>
      <trkpt lat="43.38932" lon="6.7308">
        <ele>4.5999999046326</ele>
        <time>2008-10-10T13:31:45Z</time>
      </trkpt>
      <trkpt lat="43.38927" lon="6.73092">
        <ele>4</ele>
        <time>2008-10-10T13:31:52Z</time>
      </trkpt>
      <trkpt lat="43.38931" lon="6.73101">
        <ele>4.4000000953674</ele>
        <time>2008-10-10T13:31:57Z</time>
      </trkpt>
      <trkpt lat="43.38938" lon="6.73111">
        <ele>4.4000000953674</ele>
        <time>2008-10-10T13:32:03Z</time>
      </trkpt>
      <trkpt lat="43.38959" lon="6.73141">
        <ele>4.1999998092651</ele>
        <time>2008-10-10T13:32:15Z</time>
      </trkpt>
      <trkpt lat="43.38968" lon="6.73159">
        <ele>3.4000000953674</ele>
        <time>2008-10-10T13:32:20Z</time>
      </trkpt>
      <trkpt lat="43.38969" lon="6.73174">
        <ele>3</ele>
        <time>2008-10-10T13:32:28Z</time>
      </trkpt>
      <trkpt lat="43.38972" lon="6.73175">
        <ele>3.5999999046326</ele>
        <time>2008-10-10T13:32:31Z</time>
      </trkpt>
      <trkpt lat="43.3898" lon="6.73165">
        <ele>4</ele>
        <time>2008-10-10T13:32:39Z</time>
      </trkpt>
      <trkpt lat="43.38986" lon="6.73169">
        <ele>4.1999998092651</ele>
        <time>2008-10-10T13:32:43Z</time>
      </trkpt>
      <trkpt lat="43.39005" lon="6.73199">
        <ele>4.1999998092651</ele>
        <time>2008-10-10T13:32:52Z</time>
      </trkpt>
      <trkpt lat="43.39026" lon="6.73201">
        <ele>4</ele>
        <time>2008-10-10T13:32:59Z</time>
      </trkpt>
      <trkpt lat="43.39037" lon="6.73184">
        <ele>5.4000000953674</ele>
        <time>2008-10-10T13:33:05Z</time>
      </trkpt>
      <trkpt lat="43.39042" lon="6.73181">
        <ele>5.1999998092651</ele>
        <time>2008-10-10T13:33:07Z</time>
      </trkpt>
      <trkpt lat="43.39065" lon="6.73188">
        <ele>4.4000000953674</ele>
        <time>2008-10-10T13:33:16Z</time>
      </trkpt>
      <trkpt lat="43.39084" lon="6.73189">
        <ele>3.5999999046326</ele>
        <time>2008-10-10T13:33:22Z</time>
      </trkpt>
      <trkpt lat="43.39097" lon="6.73178">
        <ele>3.2000000476837</ele>
        <time>2008-10-10T13:33:26Z</time>
      </trkpt>
      <trkpt lat="43.39113" lon="6.73156">
        <ele>3.2000000476837</ele>
        <time>2008-10-10T13:33:31Z</time>
      </trkpt>
      <trkpt lat="43.39114" lon="6.73139">
        <ele>3.7999999523163</ele>
        <time>2008-10-10T13:33:35Z</time>
      </trkpt>
      <trkpt lat="43.39117" lon="6.73082">
        <ele>3.7999999523163</ele>
        <time>2008-10-10T13:33:47Z</time>
      </trkpt>
      <trkpt lat="43.3912" lon="6.73058">
        <ele>3.7999999523163</ele>
        <time>2008-10-10T13:33:51Z</time>
      </trkpt>
      <trkpt lat="43.39148" lon="6.72996">
        <ele>1.3999999761581</ele>
        <time>2008-10-10T13:33:59Z</time>
      </trkpt>
      <trkpt lat="43.39193" lon="6.72933">
        <ele>0.60000002384186</ele>
        <time>2008-10-10T13:34:09Z</time>
      </trkpt>
      <trkpt lat="43.39203" lon="6.72927">
        <ele>0.40000000596046</ele>
        <time>2008-10-10T13:34:11Z</time>
      </trkpt>
      <trkpt lat="43.39223" lon="6.72902">
        <ele>0.60000002384186</ele>
        <time>2008-10-10T13:34:20Z</time>
      </trkpt>
      <trkpt lat="43.39227" lon="6.72898">
        <ele>1</ele>
        <time>2008-10-10T13:34:25Z</time>
      </trkpt>
      <trkpt lat="43.39235" lon="6.72893">
        <ele>0.20000000298023</ele>
        <time>2008-10-10T13:34:32Z</time>
      </trkpt>
      <trkpt lat="43.39252" lon="6.72872">
        <ele>0.40000000596046</ele>
        <time>2008-10-10T13:34:52Z</time>
      </trkpt>
      <trkpt lat="43.39268" lon="6.72853">
        <ele>0.40000000596046</ele>
        <time>2008-10-10T13:35:10Z</time>
      </trkpt>
      <trkpt lat="43.39292" lon="6.72835">
        <ele>0.20000000298023</ele>
        <time>2008-10-10T13:35:31Z</time>
      </trkpt>
      <trkpt lat="43.39312" lon="6.72812">
        <ele>-0.20000000298023</ele>
        <time>2008-10-10T13:35:50Z</time>
      </trkpt>
      <trkpt lat="43.39331" lon="6.72797">
        <ele>-0.60000002384186</ele>
        <time>2008-10-10T13:36:07Z</time>
      </trkpt>
      <trkpt lat="43.3935" lon="6.72785">
        <ele>0.20000000298023</ele>
        <time>2008-10-10T13:36:17Z</time>
      </trkpt>
      <trkpt lat="43.39373" lon="6.72783">
        <ele>2.5999999046326</ele>
        <time>2008-10-10T13:36:35Z</time>
      </trkpt>
      <trkpt lat="43.39399" lon="6.72783">
        <ele>3.2000000476837</ele>
        <time>2008-10-10T13:36:47Z</time>
      </trkpt>
      <trkpt lat="43.39446" lon="6.72801">
        <ele>3.2000000476837</ele>
        <time>2008-10-10T13:37:02Z</time>
      </trkpt>
      <trkpt lat="43.39533" lon="6.72832">
        <ele>3.4000000953674</ele>
        <time>2008-10-10T13:37:18Z</time>
      </trkpt>
      <trkpt lat="43.39675" lon="6.72884">
        <ele>3.2000000476837</ele>
        <time>2008-10-10T13:37:40Z</time>
      </trkpt>
      <trkpt lat="43.39803" lon="6.72931">
        <ele>2.5999999046326</ele>
        <time>2008-10-10T13:37:59Z</time>
      </trkpt>
      <trkpt lat="43.39881" lon="6.72959">
        <ele>2.4000000953674</ele>
        <time>2008-10-10T13:38:10Z</time>
      </trkpt>
      <trkpt lat="43.40012" lon="6.72979">
        <ele>2.7999999523163</ele>
        <time>2008-10-10T13:38:28Z</time>
      </trkpt>
      <trkpt lat="43.40183" lon="6.72988">
        <ele>2.5999999046326</ele>
        <time>2008-10-10T13:38:51Z</time>
      </trkpt>
      <trkpt lat="43.40313" lon="6.72962">
        <ele>2.5999999046326</ele>
        <time>2008-10-10T13:39:08Z</time>
      </trkpt>
      <trkpt lat="43.40414" lon="6.72901">
        <ele>3.2000000476837</ele>
        <time>2008-10-10T13:39:22Z</time>
      </trkpt>
      <trkpt lat="43.40524" lon="6.72795">
        <ele>2.7999999523163</ele>
        <time>2008-10-10T13:39:39Z</time>
      </trkpt>
      <trkpt lat="43.40643" lon="6.72675">
        <ele>2.5999999046326</ele>
        <time>2008-10-10T13:39:58Z</time>
      </trkpt>
      <trkpt lat="43.40772" lon="6.72547">
        <ele>3</ele>
        <time>2008-10-10T13:40:18Z</time>
      </trkpt>
      <trkpt lat="43.40884" lon="6.72439">
        <ele>3.4000000953674</ele>
        <time>2008-10-10T13:40:36Z</time>
      </trkpt>
      <trkpt lat="43.40894" lon="6.72429">
        <ele>3.4000000953674</ele>
        <time>2008-10-10T13:40:38Z</time>
      </trkpt>
      <trkpt lat="43.40917" lon="6.72422">
        <ele>3.4000000953674</ele>
        <time>2008-10-10T13:40:42Z</time>
      </trkpt>
      <trkpt lat="43.40992" lon="6.72416">
        <ele>4</ele>
        <time>2008-10-10T13:40:55Z</time>
      </trkpt>
      <trkpt lat="43.41028" lon="6.72424">
        <ele>4.4000000953674</ele>
        <time>2008-10-10T13:41:01Z</time>
      </trkpt>
      <trkpt lat="43.4112" lon="6.72481">
        <ele>5.1999998092651</ele>
        <time>2008-10-10T13:41:18Z</time>
      </trkpt>
      <trkpt lat="43.41165" lon="6.7251">
        <ele>4.5999999046326</ele>
        <time>2008-10-10T13:41:27Z</time>
      </trkpt>
      <trkpt lat="43.41183" lon="6.72502">
        <ele>3.5999999046326</ele>
        <time>2008-10-10T13:41:31Z</time>
      </trkpt>
      <trkpt lat="43.41204" lon="6.72477">
        <ele>1.7999999523163</ele>
        <time>2008-10-10T13:41:37Z</time>
      </trkpt>
      <trkpt lat="43.41214" lon="6.72476">
        <ele>1.6000000238419</ele>
        <time>2008-10-10T13:41:39Z</time>
      </trkpt>
      <trkpt lat="43.41275" lon="6.72471">
        <ele>2.2000000476837</ele>
        <time>2008-10-10T13:41:50Z</time>
      </trkpt>
      <trkpt lat="43.41299" lon="6.72457">
        <ele>1.7999999523163</ele>
        <time>2008-10-10T13:41:55Z</time>
      </trkpt>
      <trkpt lat="43.41319" lon="6.7245">
        <ele>1.7999999523163</ele>
        <time>2008-10-10T13:41:59Z</time>
      </trkpt>
      <trkpt lat="43.41364" lon="6.7247">
        <ele>1.6000000238419</ele>
        <time>2008-10-10T13:42:08Z</time>
      </trkpt>
      <trkpt lat="43.41377" lon="6.72484">
        <ele>1.7999999523163</ele>
        <time>2008-10-10T13:42:11Z</time>
      </trkpt>
      <trkpt lat="43.41396" lon="6.72514">
        <ele>2</ele>
        <time>2008-10-10T13:42:16Z</time>
      </trkpt>
      <trkpt lat="43.41426" lon="6.72578">
        <ele>1.7999999523163</ele>
        <time>2008-10-10T13:42:26Z</time>
      </trkpt>
      <trkpt lat="43.41445" lon="6.72618">
        <ele>2.2000000476837</ele>
        <time>2008-10-10T13:42:33Z</time>
      </trkpt>
      <trkpt lat="43.41506" lon="6.7265">
        <ele>2.4000000953674</ele>
        <time>2008-10-10T13:42:46Z</time>
      </trkpt>
      <trkpt lat="43.41532" lon="6.72657">
        <ele>3.5999999046326</ele>
        <time>2008-10-10T13:42:52Z</time>
      </trkpt>
      <trkpt lat="43.41518" lon="6.72679">
        <ele>5.5999999046326</ele>
        <time>2008-10-10T13:43:02Z</time>
      </trkpt>
      <trkpt lat="43.41522" lon="6.72689">
        <ele>6.1999998092651</ele>
        <time>2008-10-10T13:43:06Z</time>
      </trkpt>
      <trkpt lat="43.41557" lon="6.72708">
        <ele>6</ele>
        <time>2008-10-10T13:43:17Z</time>
      </trkpt>
      <trkpt lat="43.41577" lon="6.7269">
        <ele>4.1999998092651</ele>
        <time>2008-10-10T13:43:25Z</time>
      </trkpt>
      <trkpt lat="43.41579" lon="6.72695">
        <ele>3.2000000476837</ele>
        <time>2008-10-10T13:43:29Z</time>
      </trkpt>
      <trkpt lat="43.41567" lon="6.72717">
        <ele>2</ele>
        <time>2008-10-10T13:43:36Z</time>
      </trkpt>
      <trkpt lat="43.41561" lon="6.72742">
        <ele>2.2000000476837</ele>
        <time>2008-10-10T13:43:41Z</time>
      </trkpt>
      <trkpt lat="43.41538" lon="6.72771">
        <ele>2.2000000476837</ele>
        <time>2008-10-10T13:43:47Z</time>
      </trkpt>
      <trkpt lat="43.41519" lon="6.72794">
        <ele>2</ele>
        <time>2008-10-10T13:43:52Z</time>
      </trkpt>
      <trkpt lat="43.41525" lon="6.72799">
        <ele>1.7999999523163</ele>
        <time>2008-10-10T13:43:57Z</time>
      </trkpt>
      <trkpt lat="43.41546" lon="6.72793">
        <ele>1.7999999523163</ele>
        <time>2008-10-10T13:44:02Z</time>
      </trkpt>
      <trkpt lat="43.41554" lon="6.72812">
        <ele>2.4000000953674</ele>
        <time>2008-10-10T13:44:09Z</time>
      </trkpt>
      <trkpt lat="43.41568" lon="6.72825">
        <ele>1.7999999523163</ele>
        <time>2008-10-10T13:44:15Z</time>
      </trkpt>
      <trkpt lat="43.41572" lon="6.72822">
        <ele>2</ele>
        <time>2008-10-10T13:44:16Z</time>
      </trkpt>
      <trkpt lat="43.41581" lon="6.72816">
        <ele>2.2000000476837</ele>
        <time>2008-10-10T13:44:18Z</time>
      </trkpt>
      <trkpt lat="43.41633" lon="6.72821">
        <ele>2.4000000953674</ele>
        <time>2008-10-10T13:44:29Z</time>
      </trkpt>
      <trkpt lat="43.41633" lon="6.7284">
        <ele>2.4000000953674</ele>
        <time>2008-10-10T13:44:32Z</time>
      </trkpt>
      <trkpt lat="43.41628" lon="6.72852">
        <ele>2.2000000476837</ele>
        <time>2008-10-10T13:44:34Z</time>
      </trkpt>
      <trkpt lat="43.41577" lon="6.72899">
        <ele>2.2000000476837</ele>
        <time>2008-10-10T13:44:46Z</time>
      </trkpt>
      <trkpt lat="43.41575" lon="6.72934">
        <ele>1.6000000238419</ele>
        <time>2008-10-10T13:44:53Z</time>
      </trkpt>
      <trkpt lat="43.41569" lon="6.72944">
        <ele>1.7999999523163</ele>
        <time>2008-10-10T13:44:55Z</time>
      </trkpt>
      <trkpt lat="43.41539" lon="6.72975">
        <ele>2</ele>
        <time>2008-10-10T13:45:04Z</time>
      </trkpt>
      <trkpt lat="43.41521" lon="6.72978">
        <ele>2</ele>
        <time>2008-10-10T13:45:08Z</time>
      </trkpt>
      <trkpt lat="43.41502" lon="6.72973">
        <ele>2</ele>
        <time>2008-10-10T13:45:12Z</time>
      </trkpt>
      <trkpt lat="43.41491" lon="6.72995">
        <ele>1.7999999523163</ele>
        <time>2008-10-10T13:45:17Z</time>
      </trkpt>
      <trkpt lat="43.4149" lon="6.73016">
        <ele>1.3999999761581</ele>
        <time>2008-10-10T13:45:20Z</time>
      </trkpt>
      <trkpt lat="43.4147" lon="6.73039">
        <ele>1.2000000476837</ele>
        <time>2008-10-10T13:45:26Z</time>
      </trkpt>
      <trkpt lat="43.41451" lon="6.73036">
        <ele>2.4000000953674</ele>
        <time>2008-10-10T13:45:31Z</time>
      </trkpt>
      <trkpt lat="43.41434" lon="6.73068">
        <ele>2</ele>
        <time>2008-10-10T13:45:39Z</time>
      </trkpt>
      <trkpt lat="43.41439" lon="6.73098">
        <ele>1.7999999523163</ele>
        <time>2008-10-10T13:45:44Z</time>
      </trkpt>
      <trkpt lat="43.41443" lon="6.73109">
        <ele>2.4000000953674</ele>
        <time>2008-10-10T13:45:46Z</time>
      </trkpt>
      <trkpt lat="43.41447" lon="6.73128">
        <ele>1.3999999761581</ele>
        <time>2008-10-10T13:45:50Z</time>
      </trkpt>
      <trkpt lat="43.41451" lon="6.73151">
        <ele>1.2000000476837</ele>
        <time>2008-10-10T13:45:57Z</time>
      </trkpt>
      <trkpt lat="43.41438" lon="6.73156">
        <ele>1.6000000238419</ele>
        <time>2008-10-10T13:46:01Z</time>
      </trkpt>
      <trkpt lat="43.41438" lon="6.73169">
        <ele>1.6000000238419</ele>
        <time>2008-10-10T13:46:04Z</time>
      </trkpt>
      <trkpt lat="43.41436" lon="6.73214">
        <ele>2.5999999046326</ele>
        <time>2008-10-10T13:46:13Z</time>
      </trkpt>
      <trkpt lat="43.41432" lon="6.73217">
        <ele>2.2000000476837</ele>
        <time>2008-10-10T13:46:14Z</time>
      </trkpt>
      <trkpt lat="43.41423" lon="6.73222">
        <ele>2.2000000476837</ele>
        <time>2008-10-10T13:46:16Z</time>
      </trkpt>
      <trkpt lat="43.41394" lon="6.73245">
        <ele>2.2000000476837</ele>
        <time>2008-10-10T13:46:24Z</time>
      </trkpt>
      <trkpt lat="43.41388" lon="6.73346">
        <ele>2</ele>
        <time>2008-10-10T13:46:39Z</time>
      </trkpt>
      <trkpt lat="43.41389" lon="6.73359">
        <ele>1.7999999523163</ele>
        <time>2008-10-10T13:46:41Z</time>
      </trkpt>
      <trkpt lat="43.41424" lon="6.73455">
        <ele>1.3999999761581</ele>
        <time>2008-10-10T13:46:57Z</time>
      </trkpt>
      <trkpt lat="43.41455" lon="6.73468">
        <ele>2</ele>
        <time>2008-10-10T13:47:04Z</time>
      </trkpt>
      <trkpt lat="43.41553" lon="6.73492">
        <ele>2</ele>
        <time>2008-10-10T13:47:25Z</time>
      </trkpt>
      <trkpt lat="43.41589" lon="6.735">
        <ele>2.4000000953674</ele>
        <time>2008-10-10T13:47:33Z</time>
      </trkpt>
      <trkpt lat="43.41596" lon="6.73524">
        <ele>2.7999999523163</ele>
        <time>2008-10-10T13:47:38Z</time>
      </trkpt>
      <trkpt lat="43.41593" lon="6.73543">
        <ele>2.7999999523163</ele>
        <time>2008-10-10T13:47:41Z</time>
      </trkpt>
      <trkpt lat="43.41599" lon="6.73582">
        <ele>3</ele>
        <time>2008-10-10T13:47:47Z</time>
      </trkpt>
      <trkpt lat="43.41648" lon="6.73671">
        <ele>3.2000000476837</ele>
        <time>2008-10-10T13:48:05Z</time>
      </trkpt>
      <trkpt lat="43.41651" lon="6.73675">
        <ele>2.5999999046326</ele>
        <time>2008-10-10T13:48:06Z</time>
      </trkpt>
      <trkpt lat="43.41658" lon="6.73709">
        <ele>2.4000000953674</ele>
        <time>2008-10-10T13:48:12Z</time>
      </trkpt>
      <trkpt lat="43.41638" lon="6.73831">
        <ele>2.2000000476837</ele>
        <time>2008-10-10T13:48:33Z</time>
      </trkpt>
      <trkpt lat="43.41633" lon="6.73875">
        <ele>1.6000000238419</ele>
        <time>2008-10-10T13:48:46Z</time>
      </trkpt>
      <trkpt lat="43.41633" lon="6.73875">
        <ele>1.7999999523163</ele>
        <time>2008-10-10T13:48:47Z</time>
      </trkpt>
      <trkpt lat="43.41633" lon="6.73882">
        <ele>1.3999999761581</ele>
        <time>2008-10-10T13:48:55Z</time>
      </trkpt>
      <trkpt lat="43.41633" lon="6.73883">
        <ele>1.2000000476837</ele>
        <time>2008-10-10T13:48:56Z</time>
      </trkpt>
    </trkseg>
  </trk>
</gpx>